<?xml version="1.0" encoding="UTF-8" standalone="no" ?>
<gpx xmlns="http://www.topografix.com/GPX/1/1" xmlns:xsi="http://www.w3.org/2001/XMLSchema-instance" xsi:schemaLocation="http://www.topografix.com/GPX/1/1 http://www.topografix.com/GPX/1/1/gpx.xsd" version="1.1" creator="VisuGPX - https://www.visugpx.com">
  <metadata>
    <name>Nantes - Le Pellerin</name>
  </metadata>
  <trk>
    <name><![CDATA[Nantes - Le Pellerin_1]]></name>
    <trkseg>
      <trkpt lat="47.21323" lon="-1.57178">
        <ele>64.87551</ele>
        <time>2021-11-11T07:42:53.728Z</time>
      </trkpt>
      <trkpt lat="47.2131" lon="-1.57173">
        <ele>64.69473</ele>
        <time>2021-11-11T07:42:55.726Z</time>
      </trkpt>
      <trkpt lat="47.21297" lon="-1.57169">
        <ele>64.508994</ele>
        <time>2021-11-11T07:42:57.738Z</time>
      </trkpt>
      <trkpt lat="47.21285" lon="-1.57169">
        <ele>64.3462</ele>
        <time>2021-11-11T07:42:59.765Z</time>
      </trkpt>
      <trkpt lat="47.21274" lon="-1.57172">
        <ele>64.189571</ele>
        <time>2021-11-11T07:43:01.733Z</time>
      </trkpt>
      <trkpt lat="47.21264" lon="-1.5717">
        <ele>64.042318</ele>
        <time>2021-11-11T07:43:03.755Z</time>
      </trkpt>
      <trkpt lat="47.21254" lon="-1.57163">
        <ele>63.892472</ele>
        <time>2021-11-11T07:43:05.718Z</time>
      </trkpt>
      <trkpt lat="47.21246" lon="-1.57152">
        <ele>63.740267</ele>
        <time>2021-11-11T07:43:07.725Z</time>
      </trkpt>
      <trkpt lat="47.21237" lon="-1.57147">
        <ele>63.607438</ele>
        <time>2021-11-11T07:43:09.723Z</time>
      </trkpt>
      <trkpt lat="47.21226" lon="-1.57144">
        <ele>63.316793</ele>
        <time>2021-11-11T07:43:11.711Z</time>
      </trkpt>
      <trkpt lat="47.21215" lon="-1.57141">
        <ele>62.729813</ele>
        <time>2021-11-11T07:43:13.742Z</time>
      </trkpt>
      <trkpt lat="47.21204" lon="-1.57139">
        <ele>62.174463</ele>
        <time>2021-11-11T07:43:15.705Z</time>
      </trkpt>
      <trkpt lat="47.21193" lon="-1.57135">
        <ele>61.623478</ele>
        <time>2021-11-11T07:43:17.716Z</time>
      </trkpt>
      <trkpt lat="47.21183" lon="-1.57129">
        <ele>61.088688</ele>
        <time>2021-11-11T07:43:19.729Z</time>
      </trkpt>
      <trkpt lat="47.21174" lon="-1.57125">
        <ele>60.584055</ele>
        <time>2021-11-11T07:43:21.732Z</time>
      </trkpt>
      <trkpt lat="47.21163" lon="-1.57121">
        <ele>60.057873</ele>
        <time>2021-11-11T07:43:23.722Z</time>
      </trkpt>
      <trkpt lat="47.21153" lon="-1.5712">
        <ele>59.540172</ele>
        <time>2021-11-11T07:43:25.717Z</time>
      </trkpt>
      <trkpt lat="47.21143" lon="-1.57117">
        <ele>59.029322</ele>
        <time>2021-11-11T07:43:27.714Z</time>
      </trkpt>
      <trkpt lat="47.21132" lon="-1.57115">
        <ele>58.455053</ele>
        <time>2021-11-11T07:43:29.752Z</time>
      </trkpt>
      <trkpt lat="47.21121" lon="-1.57113">
        <ele>57.923394</ele>
        <time>2021-11-11T07:43:31.726Z</time>
      </trkpt>
      <trkpt lat="47.2111" lon="-1.5711">
        <ele>57.365403</ele>
        <time>2021-11-11T07:43:33.720Z</time>
      </trkpt>
      <trkpt lat="47.21099" lon="-1.57109">
        <ele>56.788327</ele>
        <time>2021-11-11T07:43:36.753Z</time>
      </trkpt>
      <trkpt lat="47.21087" lon="-1.57103">
        <ele>56.20071</ele>
        <time>2021-11-11T07:43:38.742Z</time>
      </trkpt>
      <trkpt lat="47.21076" lon="-1.57097">
        <ele>55.588355</ele>
        <time>2021-11-11T07:43:40.741Z</time>
      </trkpt>
      <trkpt lat="47.21064" lon="-1.57092">
        <ele>54.991802</ele>
        <time>2021-11-11T07:43:42.745Z</time>
      </trkpt>
      <trkpt lat="47.21053" lon="-1.57087">
        <ele>54.503127</ele>
        <time>2021-11-11T07:43:44.706Z</time>
      </trkpt>
      <trkpt lat="47.21042" lon="-1.57083">
        <ele>54.415417</ele>
        <time>2021-11-11T07:43:46.713Z</time>
      </trkpt>
      <trkpt lat="47.21031" lon="-1.5708">
        <ele>54.322085</ele>
        <time>2021-11-11T07:43:48.705Z</time>
      </trkpt>
      <trkpt lat="47.21019" lon="-1.57075">
        <ele>54.221604</ele>
        <time>2021-11-11T07:43:50.733Z</time>
      </trkpt>
      <trkpt lat="47.21008" lon="-1.5707">
        <ele>54.130158</ele>
        <time>2021-11-11T07:43:52.728Z</time>
      </trkpt>
      <trkpt lat="47.20998" lon="-1.57067">
        <ele>54.048244</ele>
        <time>2021-11-11T07:43:54.738Z</time>
      </trkpt>
      <trkpt lat="47.20987" lon="-1.57064">
        <ele>53.964396</ele>
        <time>2021-11-11T07:43:56.735Z</time>
      </trkpt>
      <trkpt lat="47.20977" lon="-1.57066">
        <ele>53.884809</ele>
        <time>2021-11-11T07:43:58.720Z</time>
      </trkpt>
      <trkpt lat="47.20967" lon="-1.5707">
        <ele>53.80109</ele>
        <time>2021-11-11T07:44:00.731Z</time>
      </trkpt>
      <trkpt lat="47.20958" lon="-1.57068">
        <ele>53.724942</ele>
        <time>2021-11-11T07:44:02.735Z</time>
      </trkpt>
      <trkpt lat="47.20949" lon="-1.57059">
        <ele>53.639366</ele>
        <time>2021-11-11T07:44:04.726Z</time>
      </trkpt>
      <trkpt lat="47.20941" lon="-1.57049">
        <ele>53.560173</ele>
        <time>2021-11-11T07:44:06.722Z</time>
      </trkpt>
      <trkpt lat="47.2093" lon="-1.57044">
        <ele>53.466286</ele>
        <time>2021-11-11T07:44:08.716Z</time>
      </trkpt>
      <trkpt lat="47.20918" lon="-1.57038">
        <ele>53.366199</ele>
        <time>2021-11-11T07:44:10.744Z</time>
      </trkpt>
      <trkpt lat="47.20907" lon="-1.57033">
        <ele>53.276114</ele>
        <time>2021-11-11T07:44:12.722Z</time>
      </trkpt>
      <trkpt lat="47.20896" lon="-1.57029">
        <ele>53.181063</ele>
        <time>2021-11-11T07:44:14.734Z</time>
      </trkpt>
      <trkpt lat="47.20885" lon="-1.57023">
        <ele>53.090948</ele>
        <time>2021-11-11T07:44:16.722Z</time>
      </trkpt>
      <trkpt lat="47.20879" lon="-1.57009">
        <ele>53.260428</ele>
        <time>2021-11-11T07:44:18.717Z</time>
      </trkpt>
      <trkpt lat="47.20876" lon="-1.56994">
        <ele>53.430965</ele>
        <time>2021-11-11T07:44:20.725Z</time>
      </trkpt>
      <trkpt lat="47.20871" lon="-1.56979">
        <ele>53.60549</ele>
        <time>2021-11-11T07:44:22.722Z</time>
      </trkpt>
      <trkpt lat="47.20866" lon="-1.56964">
        <ele>53.778121</ele>
        <time>2021-11-11T07:44:24.734Z</time>
      </trkpt>
      <trkpt lat="47.20862" lon="-1.56951">
        <ele>53.928296</ele>
        <time>2021-11-11T07:44:26.735Z</time>
      </trkpt>
      <trkpt lat="47.20857" lon="-1.56937">
        <ele>54.091049</ele>
        <time>2021-11-11T07:44:29.783Z</time>
      </trkpt>
      <trkpt lat="47.20821" lon="-1.56902">
        <ele>54.753898</ele>
        <time>2021-11-11T07:45:19.671Z</time>
      </trkpt>
      <trkpt lat="47.20816" lon="-1.56887">
        <ele>54.927925</ele>
        <time>2021-11-11T07:45:22.363Z</time>
      </trkpt>
      <trkpt lat="47.20823" lon="-1.56869">
        <ele>55.146473</ele>
        <time>2021-11-11T07:45:25.330Z</time>
      </trkpt>
      <trkpt lat="47.20828" lon="-1.56855">
        <ele>55.307893</ele>
        <time>2021-11-11T07:45:27.205Z</time>
      </trkpt>
      <trkpt lat="47.20832" lon="-1.56839">
        <ele>55.48386</ele>
        <time>2021-11-11T07:45:29.718Z</time>
      </trkpt>
      <trkpt lat="47.20836" lon="-1.56827">
        <ele>55.633347</ele>
        <time>2021-11-11T07:45:31.726Z</time>
      </trkpt>
      <trkpt lat="47.2084" lon="-1.56814">
        <ele>55.778397</ele>
        <time>2021-11-11T07:45:33.718Z</time>
      </trkpt>
      <trkpt lat="47.20844" lon="-1.56801">
        <ele>55.882008</ele>
        <time>2021-11-11T07:45:35.729Z</time>
      </trkpt>
      <trkpt lat="47.20847" lon="-1.56787">
        <ele>55.928594</ele>
        <time>2021-11-11T07:45:37.729Z</time>
      </trkpt>
      <trkpt lat="47.20852" lon="-1.56773">
        <ele>55.977404</ele>
        <time>2021-11-11T07:45:39.733Z</time>
      </trkpt>
      <trkpt lat="47.20857" lon="-1.5676">
        <ele>56.021943</ele>
        <time>2021-11-11T07:45:41.742Z</time>
      </trkpt>
      <trkpt lat="47.20862" lon="-1.56747">
        <ele>56.068888</ele>
        <time>2021-11-11T07:45:43.726Z</time>
      </trkpt>
      <trkpt lat="47.20867" lon="-1.56734">
        <ele>56.115384</ele>
        <time>2021-11-11T07:45:45.726Z</time>
      </trkpt>
      <trkpt lat="47.20871" lon="-1.5672">
        <ele>56.161394</ele>
        <time>2021-11-11T07:45:47.711Z</time>
      </trkpt>
      <trkpt lat="47.20875" lon="-1.56708">
        <ele>56.204728</ele>
        <time>2021-11-11T07:45:49.728Z</time>
      </trkpt>
      <trkpt lat="47.20878" lon="-1.56694">
        <ele>56.250626</ele>
        <time>2021-11-11T07:45:51.706Z</time>
      </trkpt>
      <trkpt lat="47.20882" lon="-1.5668">
        <ele>56.297501</ele>
        <time>2021-11-11T07:45:53.729Z</time>
      </trkpt>
      <trkpt lat="47.20887" lon="-1.56669">
        <ele>56.338652</ele>
        <time>2021-11-11T07:45:55.756Z</time>
      </trkpt>
      <trkpt lat="47.20892" lon="-1.56656">
        <ele>56.38554</ele>
        <time>2021-11-11T07:45:59.734Z</time>
      </trkpt>
      <trkpt lat="47.20882" lon="-1.56646">
        <ele>56.439366</ele>
        <time>2021-11-11T07:46:02.746Z</time>
      </trkpt>
      <trkpt lat="47.20874" lon="-1.56637">
        <ele>56.485811</ele>
        <time>2021-11-11T07:46:05.739Z</time>
      </trkpt>
      <trkpt lat="47.20865" lon="-1.56628">
        <ele>56.537085</ele>
        <time>2021-11-11T07:46:08.765Z</time>
      </trkpt>
      <trkpt lat="47.20856" lon="-1.56622">
        <ele>56.581362</ele>
        <time>2021-11-11T07:46:10.623Z</time>
      </trkpt>
      <trkpt lat="47.20846" lon="-1.56613">
        <ele>56.635869</ele>
        <time>2021-11-11T07:46:13.533Z</time>
      </trkpt>
      <trkpt lat="47.20835" lon="-1.56605">
        <ele>56.682391</ele>
        <time>2021-11-11T07:46:16.629Z</time>
      </trkpt>
      <trkpt lat="47.20826" lon="-1.56598">
        <ele>56.651794</ele>
        <time>2021-11-11T07:46:19.138Z</time>
      </trkpt>
      <trkpt lat="47.20818" lon="-1.56591">
        <ele>56.622892</ele>
        <time>2021-11-11T07:46:21.207Z</time>
      </trkpt>
      <trkpt lat="47.20807" lon="-1.5658">
        <ele>56.580719</ele>
        <time>2021-11-11T07:46:24.713Z</time>
      </trkpt>
      <trkpt lat="47.20798" lon="-1.56572">
        <ele>56.549522</ele>
        <time>2021-11-11T07:46:26.743Z</time>
      </trkpt>
      <trkpt lat="47.20788" lon="-1.56563">
        <ele>56.513541</ele>
        <time>2021-11-11T07:46:28.725Z</time>
      </trkpt>
      <trkpt lat="47.20778" lon="-1.56554">
        <ele>56.475778</ele>
        <time>2021-11-11T07:46:30.720Z</time>
      </trkpt>
      <trkpt lat="47.20768" lon="-1.56545">
        <ele>56.439413</ele>
        <time>2021-11-11T07:46:32.731Z</time>
      </trkpt>
      <trkpt lat="47.20758" lon="-1.56538">
        <ele>56.405587</ele>
        <time>2021-11-11T07:46:34.740Z</time>
      </trkpt>
      <trkpt lat="47.20748" lon="-1.56539">
        <ele>56.373104</ele>
        <time>2021-11-11T07:46:37.715Z</time>
      </trkpt>
      <trkpt lat="47.20738" lon="-1.56539">
        <ele>56.342529</ele>
        <time>2021-11-11T07:46:39.731Z</time>
      </trkpt>
      <trkpt lat="47.20727" lon="-1.56543">
        <ele>56.308284</ele>
        <time>2021-11-11T07:46:41.720Z</time>
      </trkpt>
      <trkpt lat="47.20717" lon="-1.56547">
        <ele>56.276027</ele>
        <time>2021-11-11T07:46:43.736Z</time>
      </trkpt>
      <trkpt lat="47.20707" lon="-1.56545">
        <ele>56.24455</ele>
        <time>2021-11-11T07:46:45.718Z</time>
      </trkpt>
      <trkpt lat="47.20698" lon="-1.56539">
        <ele>56.213275</ele>
        <time>2021-11-11T07:46:47.713Z</time>
      </trkpt>
      <trkpt lat="47.20686" lon="-1.56535">
        <ele>56.177632</ele>
        <time>2021-11-11T07:46:49.728Z</time>
      </trkpt>
      <trkpt lat="47.20677" lon="-1.56532">
        <ele>56.146574</ele>
        <time>2021-11-11T07:46:51.718Z</time>
      </trkpt>
      <trkpt lat="47.20663" lon="-1.56531">
        <ele>56.050033</ele>
        <time>2021-11-11T07:46:54.736Z</time>
      </trkpt>
      <trkpt lat="47.20652" lon="-1.56531">
        <ele>55.939004</ele>
        <time>2021-11-11T07:46:56.718Z</time>
      </trkpt>
      <trkpt lat="47.2064" lon="-1.56534">
        <ele>55.823152</ele>
        <time>2021-11-11T07:46:58.724Z</time>
      </trkpt>
      <trkpt lat="47.20633" lon="-1.56546">
        <ele>55.719433</ele>
        <time>2021-11-11T07:47:00.727Z</time>
      </trkpt>
      <trkpt lat="47.20628" lon="-1.56559">
        <ele>55.616514</ele>
        <time>2021-11-11T07:47:02.725Z</time>
      </trkpt>
      <trkpt lat="47.20621" lon="-1.56576">
        <ele>55.48206</ele>
        <time>2021-11-11T07:47:05.747Z</time>
      </trkpt>
      <trkpt lat="47.20613" lon="-1.56586">
        <ele>55.381067</ele>
        <time>2021-11-11T07:47:07.727Z</time>
      </trkpt>
      <trkpt lat="47.20604" lon="-1.56597">
        <ele>55.265471</ele>
        <time>2021-11-11T07:47:09.708Z</time>
      </trkpt>
      <trkpt lat="47.20596" lon="-1.56606">
        <ele>55.167691</ele>
        <time>2021-11-11T07:47:11.732Z</time>
      </trkpt>
      <trkpt lat="47.20589" lon="-1.56615">
        <ele>55.078363</ele>
        <time>2021-11-11T07:47:13.726Z</time>
      </trkpt>
      <trkpt lat="47.20583" lon="-1.56626">
        <ele>54.98228</ele>
        <time>2021-11-11T07:47:15.727Z</time>
      </trkpt>
      <trkpt lat="47.20577" lon="-1.56638">
        <ele>54.884367</ele>
        <time>2021-11-11T07:47:17.722Z</time>
      </trkpt>
      <trkpt lat="47.20571" lon="-1.56651">
        <ele>54.781604</ele>
        <time>2021-11-11T07:47:19.716Z</time>
      </trkpt>
      <trkpt lat="47.20566" lon="-1.56664">
        <ele>54.680089</ele>
        <time>2021-11-11T07:47:21.748Z</time>
      </trkpt>
      <trkpt lat="47.20558" lon="-1.56677">
        <ele>54.566851</ele>
        <time>2021-11-11T07:47:23.723Z</time>
      </trkpt>
      <trkpt lat="47.2055" lon="-1.56689">
        <ele>54.456089</ele>
        <time>2021-11-11T07:47:25.730Z</time>
      </trkpt>
      <trkpt lat="47.20542" lon="-1.56699">
        <ele>54.365758</ele>
        <time>2021-11-11T07:47:27.729Z</time>
      </trkpt>
      <trkpt lat="47.20533" lon="-1.56708">
        <ele>54.378983</ele>
        <time>2021-11-11T07:47:29.740Z</time>
      </trkpt>
      <trkpt lat="47.20523" lon="-1.56712">
        <ele>54.391697</ele>
        <time>2021-11-11T07:47:31.701Z</time>
      </trkpt>
      <trkpt lat="47.20515" lon="-1.56717">
        <ele>54.403182</ele>
        <time>2021-11-11T07:47:33.733Z</time>
      </trkpt>
      <trkpt lat="47.20504" lon="-1.56726">
        <ele>54.418033</ele>
        <time>2021-11-11T07:47:36.707Z</time>
      </trkpt>
      <trkpt lat="47.20499" lon="-1.56737">
        <ele>54.429419</ele>
        <time>2021-11-11T07:47:38.741Z</time>
      </trkpt>
      <trkpt lat="47.20498" lon="-1.56755">
        <ele>54.44399</ele>
        <time>2021-11-11T07:47:40.716Z</time>
      </trkpt>
      <trkpt lat="47.20495" lon="-1.56771">
        <ele>54.458062</ele>
        <time>2021-11-11T07:47:42.732Z</time>
      </trkpt>
      <trkpt lat="47.20492" lon="-1.56787">
        <ele>54.471883</ele>
        <time>2021-11-11T07:47:44.752Z</time>
      </trkpt>
      <trkpt lat="47.20489" lon="-1.56803">
        <ele>54.485279</ele>
        <time>2021-11-11T07:47:46.721Z</time>
      </trkpt>
      <trkpt lat="47.20486" lon="-1.56817">
        <ele>54.49797</ele>
        <time>2021-11-11T07:47:48.754Z</time>
      </trkpt>
      <trkpt lat="47.20483" lon="-1.56832">
        <ele>54.510776</ele>
        <time>2021-11-11T07:47:50.729Z</time>
      </trkpt>
      <trkpt lat="47.20479" lon="-1.56847">
        <ele>54.523739</ele>
        <time>2021-11-11T07:47:52.725Z</time>
      </trkpt>
      <trkpt lat="47.20475" lon="-1.56862">
        <ele>54.536695</ele>
        <time>2021-11-11T07:47:54.740Z</time>
      </trkpt>
      <trkpt lat="47.20473" lon="-1.56876">
        <ele>54.54924</ele>
        <time>2021-11-11T07:47:56.743Z</time>
      </trkpt>
      <trkpt lat="47.2047" lon="-1.56891">
        <ele>54.561594</ele>
        <time>2021-11-11T07:47:58.731Z</time>
      </trkpt>
      <trkpt lat="47.20467" lon="-1.56904">
        <ele>54.573724</ele>
        <time>2021-11-11T07:48:00.725Z</time>
      </trkpt>
      <trkpt lat="47.20464" lon="-1.56919">
        <ele>54.514221</ele>
        <time>2021-11-11T07:48:02.741Z</time>
      </trkpt>
      <trkpt lat="47.20461" lon="-1.56934">
        <ele>54.120868</ele>
        <time>2021-11-11T07:48:04.728Z</time>
      </trkpt>
      <trkpt lat="47.20457" lon="-1.56948">
        <ele>53.737056</ele>
        <time>2021-11-11T07:48:06.725Z</time>
      </trkpt>
      <trkpt lat="47.20454" lon="-1.56963">
        <ele>53.348207</ele>
        <time>2021-11-11T07:48:08.753Z</time>
      </trkpt>
      <trkpt lat="47.20452" lon="-1.56979">
        <ele>52.948401</ele>
        <time>2021-11-11T07:48:10.727Z</time>
      </trkpt>
      <trkpt lat="47.20449" lon="-1.56994">
        <ele>52.552389</ele>
        <time>2021-11-11T07:48:12.759Z</time>
      </trkpt>
      <trkpt lat="47.20446" lon="-1.5701">
        <ele>52.154465</ele>
        <time>2021-11-11T07:48:14.733Z</time>
      </trkpt>
      <trkpt lat="47.20442" lon="-1.57025">
        <ele>51.761229</ele>
        <time>2021-11-11T07:48:16.724Z</time>
      </trkpt>
      <trkpt lat="47.20439" lon="-1.57039">
        <ele>51.390364</ele>
        <time>2021-11-11T07:48:18.738Z</time>
      </trkpt>
      <trkpt lat="47.20436" lon="-1.57053">
        <ele>51.012376</ele>
        <time>2021-11-11T07:48:20.715Z</time>
      </trkpt>
      <trkpt lat="47.20433" lon="-1.57067">
        <ele>50.647583</ele>
        <time>2021-11-11T07:48:22.725Z</time>
      </trkpt>
      <trkpt lat="47.2043" lon="-1.57083">
        <ele>50.244926</ele>
        <time>2021-11-11T07:48:24.710Z</time>
      </trkpt>
      <trkpt lat="47.20427" lon="-1.57097">
        <ele>49.881034</ele>
        <time>2021-11-11T07:48:26.724Z</time>
      </trkpt>
      <trkpt lat="47.20424" lon="-1.5711">
        <ele>49.545355</ele>
        <time>2021-11-11T07:48:28.717Z</time>
      </trkpt>
      <trkpt lat="47.2042" lon="-1.57122">
        <ele>49.201354</ele>
        <time>2021-11-11T07:48:30.754Z</time>
      </trkpt>
      <trkpt lat="47.20412" lon="-1.57131">
        <ele>48.81938</ele>
        <time>2021-11-11T07:48:32.727Z</time>
      </trkpt>
      <trkpt lat="47.20402" lon="-1.57137">
        <ele>48.430866</ele>
        <time>2021-11-11T07:48:34.721Z</time>
      </trkpt>
      <trkpt lat="47.20391" lon="-1.57144">
        <ele>48.014315</ele>
        <time>2021-11-11T07:48:36.723Z</time>
      </trkpt>
      <trkpt lat="47.20381" lon="-1.5715">
        <ele>48.057494</ele>
        <time>2021-11-11T07:48:38.718Z</time>
      </trkpt>
      <trkpt lat="47.20372" lon="-1.57157">
        <ele>48.113695</ele>
        <time>2021-11-11T07:48:40.732Z</time>
      </trkpt>
      <trkpt lat="47.20363" lon="-1.57164">
        <ele>48.169551</ele>
        <time>2021-11-11T07:48:42.745Z</time>
      </trkpt>
      <trkpt lat="47.20354" lon="-1.57174">
        <ele>48.226985</ele>
        <time>2021-11-11T07:48:44.748Z</time>
      </trkpt>
      <trkpt lat="47.20344" lon="-1.57181">
        <ele>48.288107</ele>
        <time>2021-11-11T07:48:46.740Z</time>
      </trkpt>
      <trkpt lat="47.20333" lon="-1.57187">
        <ele>48.348357</ele>
        <time>2021-11-11T07:48:48.718Z</time>
      </trkpt>
      <trkpt lat="47.20324" lon="-1.57195">
        <ele>48.406472</ele>
        <time>2021-11-11T07:48:50.723Z</time>
      </trkpt>
      <trkpt lat="47.20313" lon="-1.57202">
        <ele>48.470667</ele>
        <time>2021-11-11T07:48:52.732Z</time>
      </trkpt>
      <trkpt lat="47.20303" lon="-1.57209">
        <ele>48.531637</ele>
        <time>2021-11-11T07:48:54.726Z</time>
      </trkpt>
      <trkpt lat="47.20292" lon="-1.57217">
        <ele>48.597008</ele>
        <time>2021-11-11T07:48:56.731Z</time>
      </trkpt>
      <trkpt lat="47.2028" lon="-1.57224">
        <ele>48.662872</ele>
        <time>2021-11-11T07:48:58.728Z</time>
      </trkpt>
      <trkpt lat="47.20271" lon="-1.57231">
        <ele>48.721778</ele>
        <time>2021-11-11T07:49:00.742Z</time>
      </trkpt>
      <trkpt lat="47.20261" lon="-1.57237">
        <ele>48.776871</ele>
        <time>2021-11-11T07:49:02.721Z</time>
      </trkpt>
      <trkpt lat="47.20252" lon="-1.57242">
        <ele>48.82798</ele>
        <time>2021-11-11T07:49:04.733Z</time>
      </trkpt>
      <trkpt lat="47.20244" lon="-1.57249">
        <ele>48.880282</ele>
        <time>2021-11-11T07:49:06.727Z</time>
      </trkpt>
      <trkpt lat="47.20235" lon="-1.57256">
        <ele>48.933868</ele>
        <time>2021-11-11T07:49:08.749Z</time>
      </trkpt>
      <trkpt lat="47.20225" lon="-1.57263">
        <ele>49.010027</ele>
        <time>2021-11-11T07:49:10.724Z</time>
      </trkpt>
      <trkpt lat="47.20216" lon="-1.57268">
        <ele>49.101114</ele>
        <time>2021-11-11T07:49:12.731Z</time>
      </trkpt>
      <trkpt lat="47.20206" lon="-1.57274">
        <ele>49.194691</ele>
        <time>2021-11-11T07:49:14.734Z</time>
      </trkpt>
      <trkpt lat="47.20196" lon="-1.5728">
        <ele>49.289439</ele>
        <time>2021-11-11T07:49:16.729Z</time>
      </trkpt>
      <trkpt lat="47.20187" lon="-1.57286">
        <ele>49.379351</ele>
        <time>2021-11-11T07:49:18.728Z</time>
      </trkpt>
      <trkpt lat="47.20177" lon="-1.57291">
        <ele>49.473529</ele>
        <time>2021-11-11T07:49:20.743Z</time>
      </trkpt>
      <trkpt lat="47.20167" lon="-1.57298">
        <ele>49.573463</ele>
        <time>2021-11-11T07:49:22.741Z</time>
      </trkpt>
      <trkpt lat="47.20157" lon="-1.57306">
        <ele>49.67507</ele>
        <time>2021-11-11T07:49:24.725Z</time>
      </trkpt>
      <trkpt lat="47.20147" lon="-1.57315">
        <ele>49.781</ele>
        <time>2021-11-11T07:49:26.733Z</time>
      </trkpt>
      <trkpt lat="47.20137" lon="-1.57323">
        <ele>49.882115</ele>
        <time>2021-11-11T07:49:28.743Z</time>
      </trkpt>
      <trkpt lat="47.20128" lon="-1.57329">
        <ele>49.967657</ele>
        <time>2021-11-11T07:49:30.743Z</time>
      </trkpt>
      <trkpt lat="47.20123" lon="-1.5734">
        <ele>50.053329</ele>
        <time>2021-11-11T07:49:32.747Z</time>
      </trkpt>
      <trkpt lat="47.20117" lon="-1.57353">
        <ele>50.145563</ele>
        <time>2021-11-11T07:49:34.717Z</time>
      </trkpt>
      <trkpt lat="47.20107" lon="-1.5736">
        <ele>50.243966</ele>
        <time>2021-11-11T07:49:36.725Z</time>
      </trkpt>
      <trkpt lat="47.20097" lon="-1.57366">
        <ele>50.339401</ele>
        <time>2021-11-11T07:49:38.728Z</time>
      </trkpt>
      <trkpt lat="47.20087" lon="-1.57372">
        <ele>50.440317</ele>
        <time>2021-11-11T07:49:40.716Z</time>
      </trkpt>
      <trkpt lat="47.20076" lon="-1.57378">
        <ele>50.54418</ele>
        <time>2021-11-11T07:49:42.720Z</time>
      </trkpt>
      <trkpt lat="47.20066" lon="-1.57385">
        <ele>50.752373</ele>
        <time>2021-11-11T07:49:44.738Z</time>
      </trkpt>
      <trkpt lat="47.20055" lon="-1.57393">
        <ele>51.008781</ele>
        <time>2021-11-11T07:49:46.740Z</time>
      </trkpt>
      <trkpt lat="47.20045" lon="-1.574">
        <ele>51.247516</ele>
        <time>2021-11-11T07:49:48.733Z</time>
      </trkpt>
      <trkpt lat="47.20036" lon="-1.57406">
        <ele>51.477848</ele>
        <time>2021-11-11T07:49:50.741Z</time>
      </trkpt>
      <trkpt lat="47.20026" lon="-1.5741">
        <ele>51.70493</ele>
        <time>2021-11-11T07:49:52.761Z</time>
      </trkpt>
      <trkpt lat="47.20017" lon="-1.57415">
        <ele>51.911637</ele>
        <time>2021-11-11T07:49:54.736Z</time>
      </trkpt>
      <trkpt lat="47.20008" lon="-1.57412">
        <ele>52.119358</ele>
        <time>2021-11-11T07:49:56.743Z</time>
      </trkpt>
      <trkpt lat="47.19998" lon="-1.57403">
        <ele>52.372486</ele>
        <time>2021-11-11T07:50:01.748Z</time>
      </trkpt>
      <trkpt lat="47.19992" lon="-1.57386">
        <ele>52.656704</ele>
        <time>2021-11-11T07:50:03.582Z</time>
      </trkpt>
      <trkpt lat="47.19988" lon="-1.57372">
        <ele>52.890541</ele>
        <time>2021-11-11T07:50:06.724Z</time>
      </trkpt>
      <trkpt lat="47.19979" lon="-1.57357">
        <ele>53.185313</ele>
        <time>2021-11-11T07:50:09.728Z</time>
      </trkpt>
      <trkpt lat="47.19973" lon="-1.57346">
        <ele>53.390277</ele>
        <time>2021-11-11T07:50:11.732Z</time>
      </trkpt>
      <trkpt lat="47.1997" lon="-1.57331">
        <ele>53.618022</ele>
        <time>2021-11-11T07:50:13.724Z</time>
      </trkpt>
      <trkpt lat="47.19975" lon="-1.57319">
        <ele>53.830313</ele>
        <time>2021-11-11T07:50:15.854Z</time>
      </trkpt>
      <trkpt lat="47.19977" lon="-1.57305">
        <ele>54.047256</ele>
        <time>2021-11-11T07:50:18.711Z</time>
      </trkpt>
      <trkpt lat="47.19978" lon="-1.5729">
        <ele>54.261936</ele>
        <time>2021-11-11T07:50:20.712Z</time>
      </trkpt>
      <trkpt lat="47.19977" lon="-1.57276">
        <ele>54.482683</ele>
        <time>2021-11-11T07:50:22.719Z</time>
      </trkpt>
      <trkpt lat="47.19977" lon="-1.57262">
        <ele>54.523785</ele>
        <time>2021-11-11T07:50:24.720Z</time>
      </trkpt>
      <trkpt lat="47.19976" lon="-1.57244">
        <ele>54.533816</ele>
        <time>2021-11-11T07:50:27.311Z</time>
      </trkpt>
      <trkpt lat="47.19973" lon="-1.57229">
        <ele>54.542699</ele>
        <time>2021-11-11T07:50:29.865Z</time>
      </trkpt>
      <trkpt lat="47.19973" lon="-1.57215">
        <ele>54.550276</ele>
        <time>2021-11-11T07:50:32.736Z</time>
      </trkpt>
      <trkpt lat="47.19975" lon="-1.57145">
        <ele>54.589891</ele>
        <time>2021-11-11T07:51:04.736Z</time>
      </trkpt>
      <trkpt lat="47.19974" lon="-1.5713">
        <ele>54.598303</ele>
        <time>2021-11-11T07:51:07.454Z</time>
      </trkpt>
      <trkpt lat="47.19971" lon="-1.57112">
        <ele>54.608518</ele>
        <time>2021-11-11T07:51:10.453Z</time>
      </trkpt>
      <trkpt lat="47.19965" lon="-1.57098">
        <ele>54.617512</ele>
        <time>2021-11-11T07:51:14.224Z</time>
      </trkpt>
      <trkpt lat="47.19962" lon="-1.57083">
        <ele>54.626414</ele>
        <time>2021-11-11T07:51:18.286Z</time>
      </trkpt>
      <trkpt lat="47.1996" lon="-1.5707">
        <ele>54.633878</ele>
        <time>2021-11-11T07:51:20.705Z</time>
      </trkpt>
      <trkpt lat="47.19957" lon="-1.57054">
        <ele>54.643508</ele>
        <time>2021-11-11T07:51:24.356Z</time>
      </trkpt>
      <trkpt lat="47.19952" lon="-1.5704">
        <ele>54.651995</ele>
        <time>2021-11-11T07:51:28.643Z</time>
      </trkpt>
      <trkpt lat="47.19952" lon="-1.57011">
        <ele>54.671601</ele>
        <time>2021-11-11T07:52:50.194Z</time>
      </trkpt>
      <trkpt lat="47.19951" lon="-1.56992">
        <ele>54.696134</ele>
        <time>2021-11-11T07:52:52.715Z</time>
      </trkpt>
      <trkpt lat="47.19951" lon="-1.56976">
        <ele>54.717456</ele>
        <time>2021-11-11T07:52:54.721Z</time>
      </trkpt>
      <trkpt lat="47.19951" lon="-1.56961">
        <ele>54.737308</ele>
        <time>2021-11-11T07:52:56.716Z</time>
      </trkpt>
      <trkpt lat="47.19951" lon="-1.56946">
        <ele>54.757425</ele>
        <time>2021-11-11T07:52:58.717Z</time>
      </trkpt>
      <trkpt lat="47.19951" lon="-1.5693">
        <ele>54.778471</ele>
        <time>2021-11-11T07:53:00.725Z</time>
      </trkpt>
      <trkpt lat="47.19951" lon="-1.56914">
        <ele>54.799779</ele>
        <time>2021-11-11T07:53:02.728Z</time>
      </trkpt>
      <trkpt lat="47.19951" lon="-1.56899">
        <ele>54.820425</ele>
        <time>2021-11-11T07:53:04.725Z</time>
      </trkpt>
      <trkpt lat="47.19951" lon="-1.56883">
        <ele>54.841343</ele>
        <time>2021-11-11T07:53:06.727Z</time>
      </trkpt>
      <trkpt lat="47.19951" lon="-1.56867">
        <ele>54.862257</ele>
        <time>2021-11-11T07:53:08.749Z</time>
      </trkpt>
      <trkpt lat="47.1995" lon="-1.56851">
        <ele>54.882906</ele>
        <time>2021-11-11T07:53:10.751Z</time>
      </trkpt>
      <trkpt lat="47.19951" lon="-1.56836">
        <ele>54.903566</ele>
        <time>2021-11-11T07:53:12.708Z</time>
      </trkpt>
      <trkpt lat="47.19951" lon="-1.5682">
        <ele>54.924094</ele>
        <time>2021-11-11T07:53:14.729Z</time>
      </trkpt>
      <trkpt lat="47.19951" lon="-1.56805">
        <ele>54.943946</ele>
        <time>2021-11-11T07:53:16.735Z</time>
      </trkpt>
      <trkpt lat="47.19951" lon="-1.5679">
        <ele>54.963537</ele>
        <time>2021-11-11T07:53:18.753Z</time>
      </trkpt>
      <trkpt lat="47.19951" lon="-1.56775">
        <ele>54.983789</ele>
        <time>2021-11-11T07:53:20.737Z</time>
      </trkpt>
      <trkpt lat="47.19951" lon="-1.5676">
        <ele>55.003913</ele>
        <time>2021-11-11T07:53:22.746Z</time>
      </trkpt>
      <trkpt lat="47.19952" lon="-1.56745">
        <ele>55.031005</ele>
        <time>2021-11-11T07:53:24.756Z</time>
      </trkpt>
      <trkpt lat="47.19952" lon="-1.5673">
        <ele>55.068499</ele>
        <time>2021-11-11T07:53:26.734Z</time>
      </trkpt>
      <trkpt lat="47.19952" lon="-1.56715">
        <ele>55.104504</ele>
        <time>2021-11-11T07:53:28.731Z</time>
      </trkpt>
      <trkpt lat="47.19951" lon="-1.567">
        <ele>55.14102</ele>
        <time>2021-11-11T07:53:30.739Z</time>
      </trkpt>
      <trkpt lat="47.19951" lon="-1.56686">
        <ele>55.178032</ele>
        <time>2021-11-11T07:53:32.766Z</time>
      </trkpt>
      <trkpt lat="47.19951" lon="-1.56671">
        <ele>55.21478</ele>
        <time>2021-11-11T07:53:34.736Z</time>
      </trkpt>
      <trkpt lat="47.19951" lon="-1.56656">
        <ele>55.252273</ele>
        <time>2021-11-11T07:53:36.735Z</time>
      </trkpt>
      <trkpt lat="47.19951" lon="-1.5664">
        <ele>55.290015</ele>
        <time>2021-11-11T07:53:38.712Z</time>
      </trkpt>
      <trkpt lat="47.19951" lon="-1.56625">
        <ele>55.328012</ele>
        <time>2021-11-11T07:53:40.738Z</time>
      </trkpt>
      <trkpt lat="47.19951" lon="-1.5661">
        <ele>55.364767</ele>
        <time>2021-11-11T07:53:42.732Z</time>
      </trkpt>
      <trkpt lat="47.19951" lon="-1.56596">
        <ele>55.400521</ele>
        <time>2021-11-11T07:53:44.736Z</time>
      </trkpt>
      <trkpt lat="47.19952" lon="-1.56581">
        <ele>55.437314</ele>
        <time>2021-11-11T07:53:46.739Z</time>
      </trkpt>
      <trkpt lat="47.19952" lon="-1.56566">
        <ele>55.475305</ele>
        <time>2021-11-11T07:53:48.741Z</time>
      </trkpt>
      <trkpt lat="47.19952" lon="-1.56551">
        <ele>55.513046</ele>
        <time>2021-11-11T07:53:50.729Z</time>
      </trkpt>
      <trkpt lat="47.19952" lon="-1.56535">
        <ele>55.551043</ele>
        <time>2021-11-11T07:53:52.729Z</time>
      </trkpt>
      <trkpt lat="47.19952" lon="-1.5652">
        <ele>55.58953</ele>
        <time>2021-11-11T07:53:54.732Z</time>
      </trkpt>
      <trkpt lat="47.19953" lon="-1.56504">
        <ele>55.627853</ele>
        <time>2021-11-11T07:53:56.750Z</time>
      </trkpt>
      <trkpt lat="47.19954" lon="-1.56489">
        <ele>55.665561</ele>
        <time>2021-11-11T07:53:58.737Z</time>
      </trkpt>
      <trkpt lat="47.19955" lon="-1.56474">
        <ele>55.732337</ele>
        <time>2021-11-11T07:54:00.714Z</time>
      </trkpt>
      <trkpt lat="47.19957" lon="-1.56458">
        <ele>55.806664</ele>
        <time>2021-11-11T07:54:02.730Z</time>
      </trkpt>
      <trkpt lat="47.1996" lon="-1.56443">
        <ele>55.880548</ele>
        <time>2021-11-11T07:54:04.737Z</time>
      </trkpt>
      <trkpt lat="47.19964" lon="-1.56429">
        <ele>55.954407</ele>
        <time>2021-11-11T07:54:06.752Z</time>
      </trkpt>
      <trkpt lat="47.19968" lon="-1.56414">
        <ele>56.027687</ele>
        <time>2021-11-11T07:54:08.752Z</time>
      </trkpt>
      <trkpt lat="47.1997" lon="-1.56398">
        <ele>56.102605</ele>
        <time>2021-11-11T07:54:10.733Z</time>
      </trkpt>
      <trkpt lat="47.19971" lon="-1.56383">
        <ele>56.174421</ele>
        <time>2021-11-11T07:54:12.747Z</time>
      </trkpt>
      <trkpt lat="47.19972" lon="-1.56368">
        <ele>56.246961</ele>
        <time>2021-11-11T07:54:14.742Z</time>
      </trkpt>
      <trkpt lat="47.19973" lon="-1.56353">
        <ele>56.319033</ele>
        <time>2021-11-11T07:54:16.753Z</time>
      </trkpt>
      <trkpt lat="47.19974" lon="-1.56338">
        <ele>56.390061</ele>
        <time>2021-11-11T07:54:18.747Z</time>
      </trkpt>
      <trkpt lat="47.19975" lon="-1.56322">
        <ele>56.462504</ele>
        <time>2021-11-11T07:54:20.736Z</time>
      </trkpt>
      <trkpt lat="47.19976" lon="-1.56307">
        <ele>56.534256</ele>
        <time>2021-11-11T07:54:22.732Z</time>
      </trkpt>
      <trkpt lat="47.19978" lon="-1.56292">
        <ele>56.604902</ele>
        <time>2021-11-11T07:54:24.733Z</time>
      </trkpt>
      <trkpt lat="47.19978" lon="-1.56277">
        <ele>56.675609</ele>
        <time>2021-11-11T07:54:26.738Z</time>
      </trkpt>
      <trkpt lat="47.19978" lon="-1.56262">
        <ele>56.745802</ele>
        <time>2021-11-11T07:54:28.757Z</time>
      </trkpt>
      <trkpt lat="47.19978" lon="-1.56247">
        <ele>56.817287</ele>
        <time>2021-11-11T07:54:30.741Z</time>
      </trkpt>
      <trkpt lat="47.19977" lon="-1.56233">
        <ele>56.885564</ele>
        <time>2021-11-11T07:54:32.747Z</time>
      </trkpt>
      <trkpt lat="47.19977" lon="-1.56218">
        <ele>56.941707</ele>
        <time>2021-11-11T07:54:34.755Z</time>
      </trkpt>
      <trkpt lat="47.19977" lon="-1.56204">
        <ele>56.986989</ele>
        <time>2021-11-11T07:54:36.729Z</time>
      </trkpt>
      <trkpt lat="47.19977" lon="-1.5619">
        <ele>57.032955</ele>
        <time>2021-11-11T07:54:38.747Z</time>
      </trkpt>
      <trkpt lat="47.19976" lon="-1.56177">
        <ele>57.076065</ele>
        <time>2021-11-11T07:54:40.767Z</time>
      </trkpt>
      <trkpt lat="47.19967" lon="-1.56167">
        <ele>57.12994</ele>
        <time>2021-11-11T07:54:43.735Z</time>
      </trkpt>
      <trkpt lat="47.19954" lon="-1.56168">
        <ele>57.19189</ele>
        <time>2021-11-11T07:54:46.730Z</time>
      </trkpt>
      <trkpt lat="47.19943" lon="-1.56167">
        <ele>57.245252</ele>
        <time>2021-11-11T07:54:49.470Z</time>
      </trkpt>
      <trkpt lat="47.19933" lon="-1.56171">
        <ele>57.295959</ele>
        <time>2021-11-11T07:54:51.160Z</time>
      </trkpt>
      <trkpt lat="47.19923" lon="-1.56175">
        <ele>57.342656</ele>
        <time>2021-11-11T07:54:53.030Z</time>
      </trkpt>
      <trkpt lat="47.19912" lon="-1.56176">
        <ele>57.394867</ele>
        <time>2021-11-11T07:54:56.309Z</time>
      </trkpt>
      <trkpt lat="47.19901" lon="-1.56179">
        <ele>57.447195</ele>
        <time>2021-11-11T07:54:59.458Z</time>
      </trkpt>
      <trkpt lat="47.19889" lon="-1.56181">
        <ele>57.504682</ele>
        <time>2021-11-11T07:55:02.386Z</time>
      </trkpt>
      <trkpt lat="47.19879" lon="-1.56182">
        <ele>57.554019</ele>
        <time>2021-11-11T07:55:05.103Z</time>
      </trkpt>
      <trkpt lat="47.19869" lon="-1.56184">
        <ele>57.604033</ele>
        <time>2021-11-11T07:55:07.729Z</time>
      </trkpt>
      <trkpt lat="47.19859" lon="-1.56186">
        <ele>57.650934</ele>
        <time>2021-11-11T07:55:10.753Z</time>
      </trkpt>
      <trkpt lat="47.1985" lon="-1.56188">
        <ele>57.69541</ele>
        <time>2021-11-11T07:55:12.429Z</time>
      </trkpt>
      <trkpt lat="47.19837" lon="-1.5619">
        <ele>57.757909</ele>
        <time>2021-11-11T07:55:15.299Z</time>
      </trkpt>
      <trkpt lat="47.19827" lon="-1.56192">
        <ele>57.708766</ele>
        <time>2021-11-11T07:55:17.738Z</time>
      </trkpt>
      <trkpt lat="47.19817" lon="-1.56194">
        <ele>57.590184</ele>
        <time>2021-11-11T07:55:20.730Z</time>
      </trkpt>
      <trkpt lat="47.19808" lon="-1.56196">
        <ele>57.484711</ele>
        <time>2021-11-11T07:55:22.737Z</time>
      </trkpt>
      <trkpt lat="47.19798" lon="-1.56198">
        <ele>57.371689</ele>
        <time>2021-11-11T07:55:24.758Z</time>
      </trkpt>
      <trkpt lat="47.19788" lon="-1.562">
        <ele>57.255776</ele>
        <time>2021-11-11T07:55:26.721Z</time>
      </trkpt>
      <trkpt lat="47.19777" lon="-1.56202">
        <ele>57.132222</ele>
        <time>2021-11-11T07:55:28.739Z</time>
      </trkpt>
      <trkpt lat="47.19766" lon="-1.56204">
        <ele>57.005224</ele>
        <time>2021-11-11T07:55:30.719Z</time>
      </trkpt>
      <trkpt lat="47.19753" lon="-1.56206">
        <ele>56.866947</ele>
        <time>2021-11-11T07:55:32.746Z</time>
      </trkpt>
      <trkpt lat="47.1974" lon="-1.56208">
        <ele>56.719544</ele>
        <time>2021-11-11T07:55:34.714Z</time>
      </trkpt>
      <trkpt lat="47.19727" lon="-1.5621">
        <ele>56.563012</ele>
        <time>2021-11-11T07:55:36.735Z</time>
      </trkpt>
      <trkpt lat="47.19712" lon="-1.56214">
        <ele>56.397962</ele>
        <time>2021-11-11T07:55:38.715Z</time>
      </trkpt>
      <trkpt lat="47.19697" lon="-1.56217">
        <ele>56.229567</ele>
        <time>2021-11-11T07:55:40.743Z</time>
      </trkpt>
      <trkpt lat="47.19683" lon="-1.56219">
        <ele>56.068182</ele>
        <time>2021-11-11T07:55:42.745Z</time>
      </trkpt>
      <trkpt lat="47.19669" lon="-1.56223">
        <ele>55.909892</ele>
        <time>2021-11-11T07:55:44.734Z</time>
      </trkpt>
      <trkpt lat="47.19656" lon="-1.56228">
        <ele>55.755992</ele>
        <time>2021-11-11T07:55:46.735Z</time>
      </trkpt>
      <trkpt lat="47.19643" lon="-1.56232">
        <ele>55.685934</ele>
        <time>2021-11-11T07:55:48.745Z</time>
      </trkpt>
      <trkpt lat="47.19635" lon="-1.56243">
        <ele>55.627902</ele>
        <time>2021-11-11T07:55:50.742Z</time>
      </trkpt>
      <trkpt lat="47.19633" lon="-1.5626">
        <ele>55.566394</ele>
        <time>2021-11-11T07:55:52.748Z</time>
      </trkpt>
      <trkpt lat="47.19633" lon="-1.56278">
        <ele>55.502861</ele>
        <time>2021-11-11T07:55:54.752Z</time>
      </trkpt>
      <trkpt lat="47.19632" lon="-1.56295">
        <ele>55.445561</ele>
        <time>2021-11-11T07:55:56.749Z</time>
      </trkpt>
      <trkpt lat="47.19631" lon="-1.56311">
        <ele>55.389162</ele>
        <time>2021-11-11T07:55:58.741Z</time>
      </trkpt>
      <trkpt lat="47.1963" lon="-1.56327">
        <ele>55.330397</ele>
        <time>2021-11-11T07:56:00.745Z</time>
      </trkpt>
      <trkpt lat="47.19629" lon="-1.56344">
        <ele>55.272249</ele>
        <time>2021-11-11T07:56:02.746Z</time>
      </trkpt>
      <trkpt lat="47.19629" lon="-1.5636">
        <ele>55.214311</ele>
        <time>2021-11-11T07:56:04.779Z</time>
      </trkpt>
      <trkpt lat="47.19629" lon="-1.56377">
        <ele>55.154618</ele>
        <time>2021-11-11T07:56:06.737Z</time>
      </trkpt>
      <trkpt lat="47.1963" lon="-1.56394">
        <ele>55.095536</ele>
        <time>2021-11-11T07:56:08.747Z</time>
      </trkpt>
      <trkpt lat="47.19631" lon="-1.5641">
        <ele>55.037887</ele>
        <time>2021-11-11T07:56:10.729Z</time>
      </trkpt>
      <trkpt lat="47.19631" lon="-1.56427">
        <ele>54.981352</ele>
        <time>2021-11-11T07:56:12.739Z</time>
      </trkpt>
      <trkpt lat="47.19632" lon="-1.56442">
        <ele>54.92635</ele>
        <time>2021-11-11T07:56:14.726Z</time>
      </trkpt>
      <trkpt lat="47.19633" lon="-1.56458">
        <ele>54.871436</ele>
        <time>2021-11-11T07:56:16.745Z</time>
      </trkpt>
      <trkpt lat="47.19633" lon="-1.56474">
        <ele>54.830071</ele>
        <time>2021-11-11T07:56:18.777Z</time>
      </trkpt>
      <trkpt lat="47.19633" lon="-1.56489">
        <ele>54.993675</ele>
        <time>2021-11-11T07:56:20.739Z</time>
      </trkpt>
      <trkpt lat="47.19633" lon="-1.56505">
        <ele>55.158334</ele>
        <time>2021-11-11T07:56:22.729Z</time>
      </trkpt>
      <trkpt lat="47.19633" lon="-1.5652">
        <ele>55.320883</ele>
        <time>2021-11-11T07:56:24.734Z</time>
      </trkpt>
      <trkpt lat="47.19633" lon="-1.56536">
        <ele>55.487646</ele>
        <time>2021-11-11T07:56:26.730Z</time>
      </trkpt>
      <trkpt lat="47.19633" lon="-1.56552">
        <ele>55.653382</ele>
        <time>2021-11-11T07:56:28.716Z</time>
      </trkpt>
      <trkpt lat="47.19633" lon="-1.56567">
        <ele>55.818035</ele>
        <time>2021-11-11T07:56:30.731Z</time>
      </trkpt>
      <trkpt lat="47.19632" lon="-1.56583">
        <ele>55.983859</ele>
        <time>2021-11-11T07:56:32.746Z</time>
      </trkpt>
      <trkpt lat="47.19631" lon="-1.56599">
        <ele>56.154362</ele>
        <time>2021-11-11T07:56:34.735Z</time>
      </trkpt>
      <trkpt lat="47.19631" lon="-1.56615">
        <ele>56.32171</ele>
        <time>2021-11-11T07:56:36.734Z</time>
      </trkpt>
      <trkpt lat="47.1963" lon="-1.56631">
        <ele>56.490841</ele>
        <time>2021-11-11T07:56:38.738Z</time>
      </trkpt>
      <trkpt lat="47.19629" lon="-1.56647">
        <ele>56.657959</ele>
        <time>2021-11-11T07:56:40.741Z</time>
      </trkpt>
      <trkpt lat="47.19628" lon="-1.56662">
        <ele>56.825307</ele>
        <time>2021-11-11T07:56:42.745Z</time>
      </trkpt>
      <trkpt lat="47.19628" lon="-1.56678">
        <ele>56.99233</ele>
        <time>2021-11-11T07:56:44.731Z</time>
      </trkpt>
      <trkpt lat="47.19627" lon="-1.56694">
        <ele>57.161661</ele>
        <time>2021-11-11T07:56:46.749Z</time>
      </trkpt>
      <trkpt lat="47.19626" lon="-1.5671">
        <ele>57.332447</ele>
        <time>2021-11-11T07:56:48.735Z</time>
      </trkpt>
      <trkpt lat="47.19625" lon="-1.56726">
        <ele>57.501298</ele>
        <time>2021-11-11T07:56:50.746Z</time>
      </trkpt>
      <trkpt lat="47.19624" lon="-1.56741">
        <ele>57.591256</ele>
        <time>2021-11-11T07:56:52.727Z</time>
      </trkpt>
      <trkpt lat="47.19622" lon="-1.56756">
        <ele>57.518741</ele>
        <time>2021-11-11T07:56:54.734Z</time>
      </trkpt>
      <trkpt lat="47.19621" lon="-1.56772">
        <ele>57.444757</ele>
        <time>2021-11-11T07:56:56.740Z</time>
      </trkpt>
      <trkpt lat="47.1962" lon="-1.56788">
        <ele>57.368478</ele>
        <time>2021-11-11T07:56:58.728Z</time>
      </trkpt>
      <trkpt lat="47.19618" lon="-1.56804">
        <ele>57.293141</ele>
        <time>2021-11-11T07:57:00.734Z</time>
      </trkpt>
      <trkpt lat="47.19617" lon="-1.5682">
        <ele>57.21543</ele>
        <time>2021-11-11T07:57:02.729Z</time>
      </trkpt>
      <trkpt lat="47.19616" lon="-1.56836">
        <ele>57.139553</ele>
        <time>2021-11-11T07:57:04.737Z</time>
      </trkpt>
      <trkpt lat="47.19616" lon="-1.56852">
        <ele>57.063919</ele>
        <time>2021-11-11T07:57:06.747Z</time>
      </trkpt>
      <trkpt lat="47.19615" lon="-1.56867">
        <ele>56.988919</ele>
        <time>2021-11-11T07:57:08.747Z</time>
      </trkpt>
      <trkpt lat="47.19613" lon="-1.56883">
        <ele>56.915338</ele>
        <time>2021-11-11T07:57:10.763Z</time>
      </trkpt>
      <trkpt lat="47.19612" lon="-1.56898">
        <ele>56.840566</ele>
        <time>2021-11-11T07:57:12.728Z</time>
      </trkpt>
      <trkpt lat="47.19611" lon="-1.56914">
        <ele>56.765566</ele>
        <time>2021-11-11T07:57:14.734Z</time>
      </trkpt>
      <trkpt lat="47.19611" lon="-1.5693">
        <ele>56.690959</ele>
        <time>2021-11-11T07:57:16.730Z</time>
      </trkpt>
      <trkpt lat="47.1961" lon="-1.56945">
        <ele>56.616748</ele>
        <time>2021-11-11T07:57:18.726Z</time>
      </trkpt>
      <trkpt lat="47.1961" lon="-1.56961">
        <ele>56.540603</ele>
        <time>2021-11-11T07:57:20.739Z</time>
      </trkpt>
      <trkpt lat="47.19608" lon="-1.56978">
        <ele>56.46197</ele>
        <time>2021-11-11T07:57:22.735Z</time>
      </trkpt>
      <trkpt lat="47.19607" lon="-1.56994">
        <ele>56.385592</ele>
        <time>2021-11-11T07:57:24.734Z</time>
      </trkpt>
      <trkpt lat="47.19606" lon="-1.57009">
        <ele>56.392851</ele>
        <time>2021-11-11T07:57:26.740Z</time>
      </trkpt>
      <trkpt lat="47.19605" lon="-1.57024">
        <ele>56.457453</ele>
        <time>2021-11-11T07:57:28.743Z</time>
      </trkpt>
      <trkpt lat="47.19604" lon="-1.5704">
        <ele>56.524135</ele>
        <time>2021-11-11T07:57:30.775Z</time>
      </trkpt>
      <trkpt lat="47.19603" lon="-1.57056">
        <ele>56.591547</ele>
        <time>2021-11-11T07:57:32.738Z</time>
      </trkpt>
      <trkpt lat="47.19602" lon="-1.57072">
        <ele>56.656718</ele>
        <time>2021-11-11T07:57:34.729Z</time>
      </trkpt>
      <trkpt lat="47.19601" lon="-1.57087">
        <ele>56.721736</ele>
        <time>2021-11-11T07:57:36.751Z</time>
      </trkpt>
      <trkpt lat="47.196" lon="-1.57102">
        <ele>56.784739</ele>
        <time>2021-11-11T07:57:38.727Z</time>
      </trkpt>
      <trkpt lat="47.196" lon="-1.57116">
        <ele>56.841128</ele>
        <time>2021-11-11T07:57:40.804Z</time>
      </trkpt>
      <trkpt lat="47.19595" lon="-1.5713">
        <ele>56.908216</ele>
        <time>2021-11-11T07:57:44.749Z</time>
      </trkpt>
      <trkpt lat="47.19583" lon="-1.57129">
        <ele>56.982747</ele>
        <time>2021-11-11T07:57:46.728Z</time>
      </trkpt>
      <trkpt lat="47.19571" lon="-1.57124">
        <ele>57.061631</ele>
        <time>2021-11-11T07:57:48.732Z</time>
      </trkpt>
      <trkpt lat="47.1956" lon="-1.57122">
        <ele>57.129855</ele>
        <time>2021-11-11T07:57:50.753Z</time>
      </trkpt>
      <trkpt lat="47.1955" lon="-1.5712">
        <ele>57.193552</ele>
        <time>2021-11-11T07:57:52.747Z</time>
      </trkpt>
      <trkpt lat="47.19539" lon="-1.57119">
        <ele>57.258346</ele>
        <time>2021-11-11T07:57:54.750Z</time>
      </trkpt>
      <trkpt lat="47.19529" lon="-1.57117">
        <ele>57.323362</ele>
        <time>2021-11-11T07:57:56.755Z</time>
      </trkpt>
      <trkpt lat="47.19519" lon="-1.57113">
        <ele>57.386255</ele>
        <time>2021-11-11T07:57:58.733Z</time>
      </trkpt>
      <trkpt lat="47.1951" lon="-1.57111">
        <ele>57.443605</ele>
        <time>2021-11-11T07:58:00.726Z</time>
      </trkpt>
      <trkpt lat="47.195" lon="-1.57109">
        <ele>57.441115</ele>
        <time>2021-11-11T07:58:02.744Z</time>
      </trkpt>
      <trkpt lat="47.1949" lon="-1.57106">
        <ele>57.411758</ele>
        <time>2021-11-11T07:58:04.737Z</time>
      </trkpt>
      <trkpt lat="47.1948" lon="-1.57105">
        <ele>57.382513</ele>
        <time>2021-11-11T07:58:06.750Z</time>
      </trkpt>
      <trkpt lat="47.19471" lon="-1.57106">
        <ele>57.353447</ele>
        <time>2021-11-11T07:58:08.744Z</time>
      </trkpt>
      <trkpt lat="47.1946" lon="-1.5711">
        <ele>57.32085</ele>
        <time>2021-11-11T07:58:10.733Z</time>
      </trkpt>
      <trkpt lat="47.19449" lon="-1.57109">
        <ele>57.288783</ele>
        <time>2021-11-11T07:58:12.737Z</time>
      </trkpt>
      <trkpt lat="47.1944" lon="-1.57099">
        <ele>57.255862</ele>
        <time>2021-11-11T07:58:14.732Z</time>
      </trkpt>
      <trkpt lat="47.1943" lon="-1.57093">
        <ele>57.226006</ele>
        <time>2021-11-11T07:58:16.725Z</time>
      </trkpt>
      <trkpt lat="47.1942" lon="-1.57091">
        <ele>57.195915</ele>
        <time>2021-11-11T07:58:18.733Z</time>
      </trkpt>
      <trkpt lat="47.1941" lon="-1.57089">
        <ele>57.166644</ele>
        <time>2021-11-11T07:58:23.151Z</time>
      </trkpt>
      <trkpt lat="47.194" lon="-1.57087">
        <ele>57.135839</ele>
        <time>2021-11-11T07:58:23.261Z</time>
      </trkpt>
      <trkpt lat="47.1939" lon="-1.57085">
        <ele>57.105407</ele>
        <time>2021-11-11T07:58:24.733Z</time>
      </trkpt>
      <trkpt lat="47.1938" lon="-1.57083">
        <ele>57.076212</ele>
        <time>2021-11-11T07:58:27.105Z</time>
      </trkpt>
      <trkpt lat="47.1937" lon="-1.57081">
        <ele>57.048232</ele>
        <time>2021-11-11T07:58:28.732Z</time>
      </trkpt>
      <trkpt lat="47.1936" lon="-1.57079">
        <ele>57.019163</ele>
        <time>2021-11-11T07:58:30.783Z</time>
      </trkpt>
      <trkpt lat="47.1935" lon="-1.57077">
        <ele>56.987388</ele>
        <time>2021-11-11T07:58:32.738Z</time>
      </trkpt>
      <trkpt lat="47.19339" lon="-1.57082">
        <ele>56.955354</ele>
        <time>2021-11-11T07:58:34.736Z</time>
      </trkpt>
      <trkpt lat="47.19329" lon="-1.57087">
        <ele>56.933069</ele>
        <time>2021-11-11T07:58:36.738Z</time>
      </trkpt>
      <trkpt lat="47.19319" lon="-1.57086">
        <ele>56.930605</ele>
        <time>2021-11-11T07:58:38.741Z</time>
      </trkpt>
      <trkpt lat="47.1931" lon="-1.57076">
        <ele>56.928116</ele>
        <time>2021-11-11T07:58:40.726Z</time>
      </trkpt>
      <trkpt lat="47.19302" lon="-1.57067">
        <ele>56.925646</ele>
        <time>2021-11-11T07:58:42.727Z</time>
      </trkpt>
      <trkpt lat="47.19291" lon="-1.57063">
        <ele>56.923204</ele>
        <time>2021-11-11T07:58:44.763Z</time>
      </trkpt>
      <trkpt lat="47.19279" lon="-1.57061">
        <ele>56.920331</ele>
        <time>2021-11-11T07:58:46.737Z</time>
      </trkpt>
      <trkpt lat="47.19268" lon="-1.57067">
        <ele>56.917665</ele>
        <time>2021-11-11T07:58:48.720Z</time>
      </trkpt>
      <trkpt lat="47.19257" lon="-1.57067">
        <ele>56.91512</ele>
        <time>2021-11-11T07:58:51.740Z</time>
      </trkpt>
      <trkpt lat="47.19248" lon="-1.57055">
        <ele>56.912324</ele>
        <time>2021-11-11T07:58:54.737Z</time>
      </trkpt>
      <trkpt lat="47.19238" lon="-1.57053">
        <ele>56.91003</ele>
        <time>2021-11-11T07:58:58.594Z</time>
      </trkpt>
      <trkpt lat="47.19241" lon="-1.57039">
        <ele>56.907815</ele>
        <time>2021-11-11T07:59:04.166Z</time>
      </trkpt>
      <trkpt lat="47.19247" lon="-1.57053">
        <ele>56.905162</ele>
        <time>2021-11-11T07:59:08.245Z</time>
      </trkpt>
      <trkpt lat="47.19251" lon="-1.57072">
        <ele>56.90216</ele>
        <time>2021-11-11T07:59:11.604Z</time>
      </trkpt>
      <trkpt lat="47.19256" lon="-1.57088">
        <ele>56.89939</ele>
        <time>2021-11-11T07:59:14.637Z</time>
      </trkpt>
      <trkpt lat="47.19256" lon="-1.57101">
        <ele>56.897283</ele>
        <time>2021-11-11T07:59:16.703Z</time>
      </trkpt>
      <trkpt lat="47.19249" lon="-1.57117">
        <ele>56.894315</ele>
        <time>2021-11-11T07:59:19.710Z</time>
      </trkpt>
      <trkpt lat="47.19245" lon="-1.57132">
        <ele>56.896523</ele>
        <time>2021-11-11T07:59:22.493Z</time>
      </trkpt>
      <trkpt lat="47.19239" lon="-1.57148">
        <ele>56.927341</ele>
        <time>2021-11-11T07:59:25.556Z</time>
      </trkpt>
      <trkpt lat="47.19231" lon="-1.57156">
        <ele>56.950586</ele>
        <time>2021-11-11T07:59:27.737Z</time>
      </trkpt>
      <trkpt lat="47.19235" lon="-1.57172">
        <ele>56.979521</ele>
        <time>2021-11-11T07:59:30.730Z</time>
      </trkpt>
      <trkpt lat="47.19237" lon="-1.57188">
        <ele>57.006504</ele>
        <time>2021-11-11T07:59:32.739Z</time>
      </trkpt>
      <trkpt lat="47.19233" lon="-1.57206">
        <ele>57.037985</ele>
        <time>2021-11-11T07:59:34.736Z</time>
      </trkpt>
      <trkpt lat="47.19232" lon="-1.57225">
        <ele>57.069727</ele>
        <time>2021-11-11T07:59:36.727Z</time>
      </trkpt>
      <trkpt lat="47.1923" lon="-1.57242">
        <ele>57.098646</ele>
        <time>2021-11-11T07:59:38.707Z</time>
      </trkpt>
      <trkpt lat="47.19224" lon="-1.57254">
        <ele>57.124171</ele>
        <time>2021-11-11T07:59:41.740Z</time>
      </trkpt>
      <trkpt lat="47.19214" lon="-1.57257">
        <ele>57.150154</ele>
        <time>2021-11-11T07:59:43.719Z</time>
      </trkpt>
      <trkpt lat="47.19202" lon="-1.57258">
        <ele>57.17967</ele>
        <time>2021-11-11T07:59:45.755Z</time>
      </trkpt>
      <trkpt lat="47.19188" lon="-1.57259">
        <ele>57.213903</ele>
        <time>2021-11-11T07:59:47.574Z</time>
      </trkpt>
      <trkpt lat="47.19179" lon="-1.57262">
        <ele>57.236357</ele>
        <time>2021-11-11T07:59:50.221Z</time>
      </trkpt>
      <trkpt lat="47.19168" lon="-1.57258">
        <ele>57.265509</ele>
        <time>2021-11-11T07:59:53.607Z</time>
      </trkpt>
      <trkpt lat="47.19157" lon="-1.57249">
        <ele>57.295709</ele>
        <time>2021-11-11T07:59:56.769Z</time>
      </trkpt>
      <trkpt lat="47.19145" lon="-1.57243">
        <ele>57.328076</ele>
        <time>2021-11-11T07:59:59.669Z</time>
      </trkpt>
      <trkpt lat="47.19133" lon="-1.57244">
        <ele>57.258294</ele>
        <time>2021-11-11T08:00:02.444Z</time>
      </trkpt>
      <trkpt lat="47.19131" lon="-1.57271">
        <ele>57.087342</ele>
        <time>2021-11-11T08:00:05.772Z</time>
      </trkpt>
      <trkpt lat="47.19128" lon="-1.57284">
        <ele>57.000083</ele>
        <time>2021-11-11T08:00:07.772Z</time>
      </trkpt>
      <trkpt lat="47.19124" lon="-1.57298">
        <ele>56.901566</ele>
        <time>2021-11-11T08:00:09.753Z</time>
      </trkpt>
      <trkpt lat="47.19121" lon="-1.57312">
        <ele>56.809064</ele>
        <time>2021-11-11T08:00:11.742Z</time>
      </trkpt>
      <trkpt lat="47.1912" lon="-1.57326">
        <ele>56.718252</ele>
        <time>2021-11-11T08:00:13.725Z</time>
      </trkpt>
      <trkpt lat="47.1912" lon="-1.57341">
        <ele>56.620336</ele>
        <time>2021-11-11T08:00:15.595Z</time>
      </trkpt>
      <trkpt lat="47.19117" lon="-1.57356">
        <ele>56.520071</ele>
        <time>2021-11-11T08:00:18.547Z</time>
      </trkpt>
      <trkpt lat="47.19114" lon="-1.57372">
        <ele>56.41313</ele>
        <time>2021-11-11T08:00:20.751Z</time>
      </trkpt>
      <trkpt lat="47.19108" lon="-1.57384">
        <ele>56.318924</ele>
        <time>2021-11-11T08:00:22.421Z</time>
      </trkpt>
      <trkpt lat="47.19102" lon="-1.57399">
        <ele>56.207217</ele>
        <time>2021-11-11T08:00:24.868Z</time>
      </trkpt>
      <trkpt lat="47.19094" lon="-1.57411">
        <ele>56.103835</ele>
        <time>2021-11-11T08:00:27.747Z</time>
      </trkpt>
      <trkpt lat="47.19086" lon="-1.57426">
        <ele>55.981243</ele>
        <time>2021-11-11T08:00:30.267Z</time>
      </trkpt>
      <trkpt lat="47.19083" lon="-1.57444">
        <ele>55.862671</ele>
        <time>2021-11-11T08:00:32.538Z</time>
      </trkpt>
      <trkpt lat="47.19081" lon="-1.57457">
        <ele>55.776136</ele>
        <time>2021-11-11T08:00:34.762Z</time>
      </trkpt>
      <trkpt lat="47.19075" lon="-1.57469">
        <ele>55.682207</ele>
        <time>2021-11-11T08:00:36.762Z</time>
      </trkpt>
      <trkpt lat="47.19068" lon="-1.57481">
        <ele>55.584526</ele>
        <time>2021-11-11T08:00:38.993Z</time>
      </trkpt>
      <trkpt lat="47.19061" lon="-1.57493">
        <ele>55.498251</ele>
        <time>2021-11-11T08:00:41.746Z</time>
      </trkpt>
      <trkpt lat="47.19056" lon="-1.57505">
        <ele>55.422553</ele>
        <time>2021-11-11T08:00:43.767Z</time>
      </trkpt>
      <trkpt lat="47.19052" lon="-1.57524">
        <ele>55.310425</ele>
        <time>2021-11-11T08:00:46.743Z</time>
      </trkpt>
      <trkpt lat="47.19046" lon="-1.57537">
        <ele>55.226033</ele>
        <time>2021-11-11T08:00:48.750Z</time>
      </trkpt>
      <trkpt lat="47.19039" lon="-1.57548">
        <ele>55.144226</ele>
        <time>2021-11-11T08:00:50.723Z</time>
      </trkpt>
      <trkpt lat="47.19028" lon="-1.57557">
        <ele>55.043266</ele>
        <time>2021-11-11T08:00:53.208Z</time>
      </trkpt>
      <trkpt lat="47.19024" lon="-1.57573">
        <ele>54.946559</ele>
        <time>2021-11-11T08:00:55.715Z</time>
      </trkpt>
      <trkpt lat="47.19022" lon="-1.57588">
        <ele>54.865228</ele>
        <time>2021-11-11T08:00:57.737Z</time>
      </trkpt>
      <trkpt lat="47.19019" lon="-1.57601">
        <ele>54.78541</ele>
        <time>2021-11-11T08:00:59.743Z</time>
      </trkpt>
      <trkpt lat="47.19012" lon="-1.57611">
        <ele>54.706659</ele>
        <time>2021-11-11T08:01:01.728Z</time>
      </trkpt>
      <trkpt lat="47.19007" lon="-1.57623">
        <ele>54.630684</ele>
        <time>2021-11-11T08:01:03.765Z</time>
      </trkpt>
      <trkpt lat="47.18999" lon="-1.57638">
        <ele>54.525155</ele>
        <time>2021-11-11T08:01:06.735Z</time>
      </trkpt>
      <trkpt lat="47.18991" lon="-1.57646">
        <ele>54.447135</ele>
        <time>2021-11-11T08:01:08.748Z</time>
      </trkpt>
      <trkpt lat="47.18985" lon="-1.57655">
        <ele>54.373234</ele>
        <time>2021-11-11T08:01:10.751Z</time>
      </trkpt>
      <trkpt lat="47.18981" lon="-1.57667">
        <ele>54.300108</ele>
        <time>2021-11-11T08:01:13.490Z</time>
      </trkpt>
      <trkpt lat="47.18982" lon="-1.57682">
        <ele>54.216597</ele>
        <time>2021-11-11T08:01:16.549Z</time>
      </trkpt>
      <trkpt lat="47.18977" lon="-1.57694">
        <ele>54.149408</ele>
        <time>2021-11-11T08:01:19.040Z</time>
      </trkpt>
      <trkpt lat="47.18976" lon="-1.57707">
        <ele>54.084738</ele>
        <time>2021-11-11T08:01:24.192Z</time>
      </trkpt>
      <trkpt lat="47.18968" lon="-1.57715">
        <ele>54.019335</ele>
        <time>2021-11-11T08:01:29.339Z</time>
      </trkpt>
      <trkpt lat="47.18957" lon="-1.57719">
        <ele>53.945671</ele>
        <time>2021-11-11T08:01:32.520Z</time>
      </trkpt>
      <trkpt lat="47.1895" lon="-1.57729">
        <ele>53.877487</ele>
        <time>2021-11-11T08:01:35.198Z</time>
      </trkpt>
      <trkpt lat="47.18945" lon="-1.57743">
        <ele>53.804716</ele>
        <time>2021-11-11T08:01:37.589Z</time>
      </trkpt>
      <trkpt lat="47.18941" lon="-1.57761">
        <ele>53.716942</ele>
        <time>2021-11-11T08:01:40.587Z</time>
      </trkpt>
      <trkpt lat="47.18939" lon="-1.57776">
        <ele>53.64486</ele>
        <time>2021-11-11T08:01:42.503Z</time>
      </trkpt>
      <trkpt lat="47.18937" lon="-1.5779">
        <ele>53.57597</ele>
        <time>2021-11-11T08:01:44.663Z</time>
      </trkpt>
      <trkpt lat="47.18933" lon="-1.57807">
        <ele>53.494871</ele>
        <time>2021-11-11T08:01:47.686Z</time>
      </trkpt>
      <trkpt lat="47.18929" lon="-1.57824">
        <ele>53.407589</ele>
        <time>2021-11-11T08:01:50.866Z</time>
      </trkpt>
      <trkpt lat="47.18928" lon="-1.57839">
        <ele>53.337768</ele>
        <time>2021-11-11T08:01:52.975Z</time>
      </trkpt>
      <trkpt lat="47.18926" lon="-1.57855">
        <ele>53.264946</ele>
        <time>2021-11-11T08:01:55.688Z</time>
      </trkpt>
      <trkpt lat="47.18922" lon="-1.57868">
        <ele>53.195482</ele>
        <time>2021-11-11T08:01:58.958Z</time>
      </trkpt>
      <trkpt lat="47.18921" lon="-1.57896">
        <ele>53.064259</ele>
        <time>2021-11-11T08:02:03.759Z</time>
      </trkpt>
      <trkpt lat="47.18921" lon="-1.57913">
        <ele>52.986308</ele>
        <time>2021-11-11T08:02:05.757Z</time>
      </trkpt>
      <trkpt lat="47.18922" lon="-1.57929">
        <ele>52.967984</ele>
        <time>2021-11-11T08:02:07.738Z</time>
      </trkpt>
      <trkpt lat="47.18922" lon="-1.57945">
        <ele>52.997905</ele>
        <time>2021-11-11T08:02:09.751Z</time>
      </trkpt>
      <trkpt lat="47.18924" lon="-1.5796">
        <ele>53.026218</ele>
        <time>2021-11-11T08:02:11.733Z</time>
      </trkpt>
      <trkpt lat="47.18924" lon="-1.57974">
        <ele>53.051856</ele>
        <time>2021-11-11T08:02:13.764Z</time>
      </trkpt>
      <trkpt lat="47.18921" lon="-1.57994">
        <ele>53.090357</ele>
        <time>2021-11-11T08:02:16.750Z</time>
      </trkpt>
      <trkpt lat="47.1892" lon="-1.58007">
        <ele>53.115764</ele>
        <time>2021-11-11T08:02:18.753Z</time>
      </trkpt>
      <trkpt lat="47.18922" lon="-1.58027">
        <ele>53.153807</ele>
        <time>2021-11-11T08:02:21.754Z</time>
      </trkpt>
      <trkpt lat="47.18923" lon="-1.58043">
        <ele>53.183261</ele>
        <time>2021-11-11T08:02:23.766Z</time>
      </trkpt>
      <trkpt lat="47.18921" lon="-1.58057">
        <ele>53.209602</ele>
        <time>2021-11-11T08:02:26.421Z</time>
      </trkpt>
      <trkpt lat="47.18916" lon="-1.58074">
        <ele>53.244135</ele>
        <time>2021-11-11T08:02:28.732Z</time>
      </trkpt>
      <trkpt lat="47.18915" lon="-1.58088">
        <ele>53.271007</ele>
        <time>2021-11-11T08:02:30.665Z</time>
      </trkpt>
      <trkpt lat="47.18912" lon="-1.58103">
        <ele>53.299601</ele>
        <time>2021-11-11T08:02:33.216Z</time>
      </trkpt>
      <trkpt lat="47.18907" lon="-1.58116">
        <ele>53.328635</ele>
        <time>2021-11-11T08:02:36.147Z</time>
      </trkpt>
      <trkpt lat="47.18903" lon="-1.58131">
        <ele>53.358611</ele>
        <time>2021-11-11T08:02:38.291Z</time>
      </trkpt>
      <trkpt lat="47.18898" lon="-1.58143">
        <ele>53.383583</ele>
        <time>2021-11-11T08:02:40.772Z</time>
      </trkpt>
      <trkpt lat="47.18894" lon="-1.58155">
        <ele>53.409843</ele>
        <time>2021-11-11T08:02:42.757Z</time>
      </trkpt>
      <trkpt lat="47.18889" lon="-1.58168">
        <ele>53.438022</ele>
        <time>2021-11-11T08:02:44.741Z</time>
      </trkpt>
      <trkpt lat="47.18884" lon="-1.5818">
        <ele>53.414995</ele>
        <time>2021-11-11T08:02:46.734Z</time>
      </trkpt>
      <trkpt lat="47.1888" lon="-1.58192">
        <ele>53.361632</ele>
        <time>2021-11-11T08:02:48.756Z</time>
      </trkpt>
      <trkpt lat="47.18875" lon="-1.5821">
        <ele>53.285992</ele>
        <time>2021-11-11T08:02:51.777Z</time>
      </trkpt>
      <trkpt lat="47.18868" lon="-1.58226">
        <ele>53.210004</ele>
        <time>2021-11-11T08:02:54.438Z</time>
      </trkpt>
      <trkpt lat="47.18866" lon="-1.5824">
        <ele>53.154072</ele>
        <time>2021-11-11T08:02:56.206Z</time>
      </trkpt>
      <trkpt lat="47.18863" lon="-1.58253">
        <ele>53.10017</ele>
        <time>2021-11-11T08:02:58.036Z</time>
      </trkpt>
      <trkpt lat="47.18857" lon="-1.58271">
        <ele>53.022326</ele>
        <time>2021-11-11T08:03:01.765Z</time>
      </trkpt>
      <trkpt lat="47.18849" lon="-1.58281">
        <ele>52.959596</ele>
        <time>2021-11-11T08:03:03.524Z</time>
      </trkpt>
      <trkpt lat="47.18851" lon="-1.58295">
        <ele>52.903039</ele>
        <time>2021-11-11T08:03:05.755Z</time>
      </trkpt>
      <trkpt lat="47.18851" lon="-1.58309">
        <ele>52.849222</ele>
        <time>2021-11-11T08:03:07.720Z</time>
      </trkpt>
      <trkpt lat="47.1885" lon="-1.58325">
        <ele>52.786544</ele>
        <time>2021-11-11T08:03:09.883Z</time>
      </trkpt>
      <trkpt lat="47.18844" lon="-1.58335">
        <ele>52.730872</ele>
        <time>2021-11-11T08:03:11.968Z</time>
      </trkpt>
      <trkpt lat="47.18838" lon="-1.58349">
        <ele>52.66918</ele>
        <time>2021-11-11T08:03:15.610Z</time>
      </trkpt>
      <trkpt lat="47.18839" lon="-1.58368">
        <ele>52.59187</ele>
        <time>2021-11-11T08:03:18.734Z</time>
      </trkpt>
      <trkpt lat="47.1884" lon="-1.58383">
        <ele>52.535656</ele>
        <time>2021-11-11T08:03:20.713Z</time>
      </trkpt>
      <trkpt lat="47.18838" lon="-1.58397">
        <ele>52.478976</ele>
        <time>2021-11-11T08:03:22.543Z</time>
      </trkpt>
      <trkpt lat="47.18833" lon="-1.58414">
        <ele>52.406482</ele>
        <time>2021-11-11T08:03:25.707Z</time>
      </trkpt>
      <trkpt lat="47.18832" lon="-1.58429">
        <ele>52.499068</ele>
        <time>2021-11-11T08:03:27.623Z</time>
      </trkpt>
      <trkpt lat="47.1883" lon="-1.58445">
        <ele>52.609567</ele>
        <time>2021-11-11T08:03:29.922Z</time>
      </trkpt>
      <trkpt lat="47.18825" lon="-1.58458">
        <ele>52.70894</ele>
        <time>2021-11-11T08:03:32.163Z</time>
      </trkpt>
      <trkpt lat="47.18819" lon="-1.58469">
        <ele>52.801821</ele>
        <time>2021-11-11T08:03:35.206Z</time>
      </trkpt>
      <trkpt lat="47.18809" lon="-1.58477">
        <ele>52.916299</ele>
        <time>2021-11-11T08:03:39.527Z</time>
      </trkpt>
      <trkpt lat="47.18804" lon="-1.58492">
        <ele>53.026217</ele>
        <time>2021-11-11T08:03:43.365Z</time>
      </trkpt>
      <trkpt lat="47.18799" lon="-1.58503">
        <ele>53.117857</ele>
        <time>2021-11-11T08:03:45.616Z</time>
      </trkpt>
      <trkpt lat="47.18792" lon="-1.58513">
        <ele>53.215956</ele>
        <time>2021-11-11T08:03:47.666Z</time>
      </trkpt>
      <trkpt lat="47.18784" lon="-1.58523">
        <ele>53.322149</ele>
        <time>2021-11-11T08:03:50.098Z</time>
      </trkpt>
      <trkpt lat="47.18778" lon="-1.58537">
        <ele>53.434764</ele>
        <time>2021-11-11T08:03:54.316Z</time>
      </trkpt>
      <trkpt lat="47.18773" lon="-1.58549">
        <ele>53.530351</ele>
        <time>2021-11-11T08:03:57.347Z</time>
      </trkpt>
      <trkpt lat="47.18774" lon="-1.58564">
        <ele>53.631923</ele>
        <time>2021-11-11T08:04:01.314Z</time>
      </trkpt>
      <trkpt lat="47.18784" lon="-1.58569">
        <ele>53.731897</ele>
        <time>2021-11-11T08:04:03.212Z</time>
      </trkpt>
      <trkpt lat="47.18793" lon="-1.58573">
        <ele>53.825304</ele>
        <time>2021-11-11T08:04:05.220Z</time>
      </trkpt>
      <trkpt lat="47.18803" lon="-1.58582">
        <ele>53.943054</ele>
        <time>2021-11-11T08:04:08.433Z</time>
      </trkpt>
      <trkpt lat="47.18804" lon="-1.58599">
        <ele>54.055073</ele>
        <time>2021-11-11T08:04:11.432Z</time>
      </trkpt>
      <trkpt lat="47.18797" lon="-1.58618">
        <ele>54.202063</ele>
        <time>2021-11-11T08:04:14.364Z</time>
      </trkpt>
      <trkpt lat="47.18793" lon="-1.58631">
        <ele>54.275072</ele>
        <time>2021-11-11T08:04:16.292Z</time>
      </trkpt>
      <trkpt lat="47.18788" lon="-1.58649">
        <ele>54.375735</ele>
        <time>2021-11-11T08:04:19.506Z</time>
      </trkpt>
      <trkpt lat="47.18785" lon="-1.58662">
        <ele>54.447543</ele>
        <time>2021-11-11T08:04:21.130Z</time>
      </trkpt>
      <trkpt lat="47.18782" lon="-1.58678">
        <ele>54.533313</ele>
        <time>2021-11-11T08:04:23.529Z</time>
      </trkpt>
      <trkpt lat="47.18785" lon="-1.58692">
        <ele>54.608328</ele>
        <time>2021-11-11T08:04:29.566Z</time>
      </trkpt>
      <trkpt lat="47.18794" lon="-1.58697">
        <ele>54.685123</ele>
        <time>2021-11-11T08:04:32.274Z</time>
      </trkpt>
      <trkpt lat="47.18802" lon="-1.5869">
        <ele>54.756427</ele>
        <time>2021-11-11T08:04:35.420Z</time>
      </trkpt>
      <trkpt lat="47.18813" lon="-1.58689">
        <ele>54.843803</ele>
        <time>2021-11-11T08:04:38.984Z</time>
      </trkpt>
      <trkpt lat="47.18822" lon="-1.58695">
        <ele>54.916588</ele>
        <time>2021-11-11T08:04:41.382Z</time>
      </trkpt>
      <trkpt lat="47.18827" lon="-1.58712">
        <ele>55.015051</ele>
        <time>2021-11-11T08:04:43.713Z</time>
      </trkpt>
      <trkpt lat="47.18831" lon="-1.58726">
        <ele>55.093531</ele>
        <time>2021-11-11T08:04:45.758Z</time>
      </trkpt>
      <trkpt lat="47.18834" lon="-1.58741">
        <ele>55.174694</ele>
        <time>2021-11-11T08:04:47.740Z</time>
      </trkpt>
      <trkpt lat="47.18835" lon="-1.58758">
        <ele>55.258955</ele>
        <time>2021-11-11T08:04:49.733Z</time>
      </trkpt>
      <trkpt lat="47.18833" lon="-1.58773">
        <ele>55.33666</ele>
        <time>2021-11-11T08:04:51.740Z</time>
      </trkpt>
      <trkpt lat="47.1883" lon="-1.58786">
        <ele>55.407489</ele>
        <time>2021-11-11T08:04:53.781Z</time>
      </trkpt>
      <trkpt lat="47.18837" lon="-1.588">
        <ele>55.501373</ele>
        <time>2021-11-11T08:04:56.733Z</time>
      </trkpt>
      <trkpt lat="47.18842" lon="-1.58814">
        <ele>55.578182</ele>
        <time>2021-11-11T08:04:58.727Z</time>
      </trkpt>
      <trkpt lat="47.18845" lon="-1.58828">
        <ele>55.633899</ele>
        <time>2021-11-11T08:05:00.727Z</time>
      </trkpt>
      <trkpt lat="47.1884" lon="-1.58842">
        <ele>55.690456</ele>
        <time>2021-11-11T08:05:02.718Z</time>
      </trkpt>
      <trkpt lat="47.18835" lon="-1.58854">
        <ele>55.746645</ele>
        <time>2021-11-11T08:05:04.746Z</time>
      </trkpt>
      <trkpt lat="47.18827" lon="-1.58866">
        <ele>55.804415</ele>
        <time>2021-11-11T08:05:06.741Z</time>
      </trkpt>
      <trkpt lat="47.1882" lon="-1.58877">
        <ele>55.861639</ele>
        <time>2021-11-11T08:05:08.748Z</time>
      </trkpt>
      <trkpt lat="47.18814" lon="-1.5889">
        <ele>55.920005</ele>
        <time>2021-11-11T08:05:10.735Z</time>
      </trkpt>
      <trkpt lat="47.18809" lon="-1.58903">
        <ele>55.975404</ele>
        <time>2021-11-11T08:05:12.750Z</time>
      </trkpt>
      <trkpt lat="47.18805" lon="-1.58916">
        <ele>56.030982</ele>
        <time>2021-11-11T08:05:14.727Z</time>
      </trkpt>
      <trkpt lat="47.188" lon="-1.5893">
        <ele>56.087789</ele>
        <time>2021-11-11T08:05:16.738Z</time>
      </trkpt>
      <trkpt lat="47.18796" lon="-1.58944">
        <ele>56.145005</ele>
        <time>2021-11-11T08:05:18.753Z</time>
      </trkpt>
      <trkpt lat="47.18792" lon="-1.58958">
        <ele>56.199555</ele>
        <time>2021-11-11T08:05:20.741Z</time>
      </trkpt>
      <trkpt lat="47.18788" lon="-1.58972">
        <ele>56.255467</ele>
        <time>2021-11-11T08:05:22.735Z</time>
      </trkpt>
      <trkpt lat="47.18786" lon="-1.58987">
        <ele>56.314032</ele>
        <time>2021-11-11T08:05:24.734Z</time>
      </trkpt>
      <trkpt lat="47.18785" lon="-1.59003">
        <ele>56.371263</ele>
        <time>2021-11-11T08:05:26.734Z</time>
      </trkpt>
      <trkpt lat="47.18785" lon="-1.59018">
        <ele>56.428893</ele>
        <time>2021-11-11T08:05:28.737Z</time>
      </trkpt>
      <trkpt lat="47.18784" lon="-1.59033">
        <ele>56.48627</ele>
        <time>2021-11-11T08:05:30.748Z</time>
      </trkpt>
      <trkpt lat="47.18782" lon="-1.59049">
        <ele>56.543818</ele>
        <time>2021-11-11T08:05:32.733Z</time>
      </trkpt>
      <trkpt lat="47.1878" lon="-1.59064">
        <ele>56.569785</ele>
        <time>2021-11-11T08:05:34.739Z</time>
      </trkpt>
      <trkpt lat="47.18778" lon="-1.59079">
        <ele>56.592772</ele>
        <time>2021-11-11T08:05:36.746Z</time>
      </trkpt>
      <trkpt lat="47.18777" lon="-1.59095">
        <ele>56.616344</ele>
        <time>2021-11-11T08:05:38.723Z</time>
      </trkpt>
      <trkpt lat="47.18775" lon="-1.5911">
        <ele>56.639925</ele>
        <time>2021-11-11T08:05:40.744Z</time>
      </trkpt>
      <trkpt lat="47.18773" lon="-1.59126">
        <ele>56.663244</ele>
        <time>2021-11-11T08:05:42.725Z</time>
      </trkpt>
      <trkpt lat="47.18772" lon="-1.59141">
        <ele>56.685974</ele>
        <time>2021-11-11T08:05:44.747Z</time>
      </trkpt>
      <trkpt lat="47.1877" lon="-1.59156">
        <ele>56.70863</ele>
        <time>2021-11-11T08:05:46.736Z</time>
      </trkpt>
      <trkpt lat="47.18768" lon="-1.59171">
        <ele>56.731285</ele>
        <time>2021-11-11T08:05:48.711Z</time>
      </trkpt>
      <trkpt lat="47.18767" lon="-1.59186">
        <ele>56.753851</ele>
        <time>2021-11-11T08:05:50.745Z</time>
      </trkpt>
      <trkpt lat="47.18766" lon="-1.59201">
        <ele>56.776076</ele>
        <time>2021-11-11T08:05:52.742Z</time>
      </trkpt>
      <trkpt lat="47.18764" lon="-1.59216">
        <ele>56.79951</ele>
        <time>2021-11-11T08:05:54.740Z</time>
      </trkpt>
      <trkpt lat="47.18763" lon="-1.59232">
        <ele>56.822619</ele>
        <time>2021-11-11T08:05:56.736Z</time>
      </trkpt>
      <trkpt lat="47.18761" lon="-1.59247">
        <ele>56.846071</ele>
        <time>2021-11-11T08:05:58.734Z</time>
      </trkpt>
      <trkpt lat="47.18759" lon="-1.59263">
        <ele>56.869129</ele>
        <time>2021-11-11T08:06:00.738Z</time>
      </trkpt>
      <trkpt lat="47.18757" lon="-1.59278">
        <ele>56.89186</ele>
        <time>2021-11-11T08:06:02.741Z</time>
      </trkpt>
      <trkpt lat="47.18755" lon="-1.59293">
        <ele>56.914784</ele>
        <time>2021-11-11T08:06:04.729Z</time>
      </trkpt>
      <trkpt lat="47.18753" lon="-1.59308">
        <ele>56.938026</ele>
        <time>2021-11-11T08:06:06.746Z</time>
      </trkpt>
      <trkpt lat="47.18752" lon="-1.59324">
        <ele>56.980463</ele>
        <time>2021-11-11T08:06:08.747Z</time>
      </trkpt>
      <trkpt lat="47.1875" lon="-1.5934">
        <ele>57.026105</ele>
        <time>2021-11-11T08:06:10.761Z</time>
      </trkpt>
      <trkpt lat="47.18749" lon="-1.59355">
        <ele>57.071305</ele>
        <time>2021-11-11T08:06:12.737Z</time>
      </trkpt>
      <trkpt lat="47.18748" lon="-1.5937">
        <ele>57.116203</ele>
        <time>2021-11-11T08:06:14.753Z</time>
      </trkpt>
      <trkpt lat="47.18746" lon="-1.59385">
        <ele>57.161326</ele>
        <time>2021-11-11T08:06:16.731Z</time>
      </trkpt>
      <trkpt lat="47.18745" lon="-1.59401">
        <ele>57.206223</ele>
        <time>2021-11-11T08:06:18.726Z</time>
      </trkpt>
      <trkpt lat="47.18743" lon="-1.59416">
        <ele>57.252213</ele>
        <time>2021-11-11T08:06:20.730Z</time>
      </trkpt>
      <trkpt lat="47.18741" lon="-1.59432">
        <ele>57.298113</ele>
        <time>2021-11-11T08:06:22.734Z</time>
      </trkpt>
      <trkpt lat="47.18739" lon="-1.59447">
        <ele>57.344087</ele>
        <time>2021-11-11T08:06:24.739Z</time>
      </trkpt>
      <trkpt lat="47.18738" lon="-1.59462">
        <ele>57.388283</ele>
        <time>2021-11-11T08:06:26.772Z</time>
      </trkpt>
      <trkpt lat="47.18737" lon="-1.59477">
        <ele>57.43237</ele>
        <time>2021-11-11T08:06:28.724Z</time>
      </trkpt>
      <trkpt lat="47.18736" lon="-1.59492">
        <ele>57.47699</ele>
        <time>2021-11-11T08:06:30.731Z</time>
      </trkpt>
      <trkpt lat="47.18735" lon="-1.59508">
        <ele>57.522437</ele>
        <time>2021-11-11T08:06:32.757Z</time>
      </trkpt>
      <trkpt lat="47.18734" lon="-1.59523">
        <ele>57.567521</ele>
        <time>2021-11-11T08:06:34.743Z</time>
      </trkpt>
      <trkpt lat="47.18733" lon="-1.59539">
        <ele>57.612819</ele>
        <time>2021-11-11T08:06:36.756Z</time>
      </trkpt>
      <trkpt lat="47.18732" lon="-1.59554">
        <ele>57.65889</ele>
        <time>2021-11-11T08:06:38.753Z</time>
      </trkpt>
      <trkpt lat="47.1873" lon="-1.5957">
        <ele>57.704591</ele>
        <time>2021-11-11T08:06:40.744Z</time>
      </trkpt>
      <trkpt lat="47.18728" lon="-1.59586">
        <ele>57.668481</ele>
        <time>2021-11-11T08:06:42.758Z</time>
      </trkpt>
      <trkpt lat="47.18726" lon="-1.59601">
        <ele>57.608718</ele>
        <time>2021-11-11T08:06:44.727Z</time>
      </trkpt>
      <trkpt lat="47.18723" lon="-1.59616">
        <ele>57.550337</ele>
        <time>2021-11-11T08:06:46.734Z</time>
      </trkpt>
      <trkpt lat="47.18722" lon="-1.59631">
        <ele>57.4924</ele>
        <time>2021-11-11T08:06:48.758Z</time>
      </trkpt>
      <trkpt lat="47.18722" lon="-1.59646">
        <ele>57.43472</ele>
        <time>2021-11-11T08:06:50.751Z</time>
      </trkpt>
      <trkpt lat="47.1872" lon="-1.59662">
        <ele>57.375901</ele>
        <time>2021-11-11T08:06:52.744Z</time>
      </trkpt>
      <trkpt lat="47.18719" lon="-1.59677">
        <ele>57.318397</ele>
        <time>2021-11-11T08:06:54.740Z</time>
      </trkpt>
      <trkpt lat="47.18718" lon="-1.59692">
        <ele>57.261903</ele>
        <time>2021-11-11T08:06:56.746Z</time>
      </trkpt>
      <trkpt lat="47.18717" lon="-1.59707">
        <ele>57.204589</ele>
        <time>2021-11-11T08:06:58.739Z</time>
      </trkpt>
      <trkpt lat="47.18715" lon="-1.59722">
        <ele>57.145247</ele>
        <time>2021-11-11T08:07:00.727Z</time>
      </trkpt>
      <trkpt lat="47.18714" lon="-1.59738">
        <ele>57.085363</ele>
        <time>2021-11-11T08:07:02.739Z</time>
      </trkpt>
      <trkpt lat="47.18712" lon="-1.59753">
        <ele>57.026602</ele>
        <time>2021-11-11T08:07:04.743Z</time>
      </trkpt>
      <trkpt lat="47.1871" lon="-1.59768">
        <ele>56.967375</ele>
        <time>2021-11-11T08:07:06.769Z</time>
      </trkpt>
      <trkpt lat="47.18708" lon="-1.59784">
        <ele>56.908692</ele>
        <time>2021-11-11T08:07:08.757Z</time>
      </trkpt>
      <trkpt lat="47.18706" lon="-1.59799">
        <ele>56.848304</ele>
        <time>2021-11-11T08:07:10.734Z</time>
      </trkpt>
      <trkpt lat="47.18705" lon="-1.59815">
        <ele>56.788586</ele>
        <time>2021-11-11T08:07:12.727Z</time>
      </trkpt>
      <trkpt lat="47.18707" lon="-1.5983">
        <ele>56.72931</ele>
        <time>2021-11-11T08:07:14.737Z</time>
      </trkpt>
      <trkpt lat="47.1871" lon="-1.59845">
        <ele>56.720778</ele>
        <time>2021-11-11T08:07:16.732Z</time>
      </trkpt>
      <trkpt lat="47.18708" lon="-1.59861">
        <ele>56.733423</ele>
        <time>2021-11-11T08:07:18.745Z</time>
      </trkpt>
      <trkpt lat="47.18704" lon="-1.59875">
        <ele>56.746054</ele>
        <time>2021-11-11T08:07:20.723Z</time>
      </trkpt>
      <trkpt lat="47.187" lon="-1.5989">
        <ele>56.758694</ele>
        <time>2021-11-11T08:07:22.722Z</time>
      </trkpt>
      <trkpt lat="47.18695" lon="-1.59903">
        <ele>56.770764</ele>
        <time>2021-11-11T08:07:24.764Z</time>
      </trkpt>
      <trkpt lat="47.18686" lon="-1.59908">
        <ele>56.782088</ele>
        <time>2021-11-11T08:07:26.753Z</time>
      </trkpt>
      <trkpt lat="47.18673" lon="-1.59906">
        <ele>56.798091</ele>
        <time>2021-11-11T08:07:29.765Z</time>
      </trkpt>
      <trkpt lat="47.18662" lon="-1.59904">
        <ele>56.810812</ele>
        <time>2021-11-11T08:07:31.738Z</time>
      </trkpt>
      <trkpt lat="47.18654" lon="-1.59911">
        <ele>56.821992</ele>
        <time>2021-11-11T08:07:33.755Z</time>
      </trkpt>
      <trkpt lat="47.18649" lon="-1.59925">
        <ele>56.83449</ele>
        <time>2021-11-11T08:07:35.760Z</time>
      </trkpt>
      <trkpt lat="47.18644" lon="-1.5994">
        <ele>56.847532</ele>
        <time>2021-11-11T08:07:37.726Z</time>
      </trkpt>
      <trkpt lat="47.18638" lon="-1.59954">
        <ele>56.860866</ele>
        <time>2021-11-11T08:07:39.727Z</time>
      </trkpt>
      <trkpt lat="47.18633" lon="-1.59968">
        <ele>56.873789</ele>
        <time>2021-11-11T08:07:41.736Z</time>
      </trkpt>
      <trkpt lat="47.18629" lon="-1.59983">
        <ele>56.886481</ele>
        <time>2021-11-11T08:07:43.743Z</time>
      </trkpt>
      <trkpt lat="47.18624" lon="-1.59995">
        <ele>56.897685</ele>
        <time>2021-11-11T08:07:46.765Z</time>
      </trkpt>
      <trkpt lat="47.18626" lon="-1.60008">
        <ele>56.908638</ele>
        <time>2021-11-11T08:07:50.238Z</time>
      </trkpt>
      <trkpt lat="47.18622" lon="-1.60021">
        <ele>56.920814</ele>
        <time>2021-11-11T08:07:54.642Z</time>
      </trkpt>
      <trkpt lat="47.18618" lon="-1.60034">
        <ele>56.919655</ele>
        <time>2021-11-11T08:07:56.446Z</time>
      </trkpt>
      <trkpt lat="47.18614" lon="-1.6005">
        <ele>56.910992</ele>
        <time>2021-11-11T08:07:58.750Z</time>
      </trkpt>
      <trkpt lat="47.18609" lon="-1.60064">
        <ele>56.903411</ele>
        <time>2021-11-11T08:08:00.761Z</time>
      </trkpt>
      <trkpt lat="47.18605" lon="-1.60078">
        <ele>56.895878</ele>
        <time>2021-11-11T08:08:02.745Z</time>
      </trkpt>
      <trkpt lat="47.18601" lon="-1.60092">
        <ele>56.888449</ele>
        <time>2021-11-11T08:08:04.731Z</time>
      </trkpt>
      <trkpt lat="47.18596" lon="-1.60106">
        <ele>56.880841</ele>
        <time>2021-11-11T08:08:06.733Z</time>
      </trkpt>
      <trkpt lat="47.18592" lon="-1.6012">
        <ele>56.872917</ele>
        <time>2021-11-11T08:08:08.764Z</time>
      </trkpt>
      <trkpt lat="47.18587" lon="-1.60135">
        <ele>56.86501</ele>
        <time>2021-11-11T08:08:10.749Z</time>
      </trkpt>
      <trkpt lat="47.18582" lon="-1.60149">
        <ele>56.857118</ele>
        <time>2021-11-11T08:08:12.738Z</time>
      </trkpt>
      <trkpt lat="47.18579" lon="-1.60163">
        <ele>56.849636</ele>
        <time>2021-11-11T08:08:14.733Z</time>
      </trkpt>
      <trkpt lat="47.18574" lon="-1.60176">
        <ele>56.842352</ele>
        <time>2021-11-11T08:08:16.738Z</time>
      </trkpt>
      <trkpt lat="47.18569" lon="-1.6019">
        <ele>56.834847</ele>
        <time>2021-11-11T08:08:18.743Z</time>
      </trkpt>
      <trkpt lat="47.18565" lon="-1.60203">
        <ele>56.82741</ele>
        <time>2021-11-11T08:08:20.743Z</time>
      </trkpt>
      <trkpt lat="47.1856" lon="-1.60217">
        <ele>56.820082</ele>
        <time>2021-11-11T08:08:22.740Z</time>
      </trkpt>
      <trkpt lat="47.18555" lon="-1.6023">
        <ele>56.81242</ele>
        <time>2021-11-11T08:08:24.730Z</time>
      </trkpt>
      <trkpt lat="47.1855" lon="-1.60244">
        <ele>56.804637</ele>
        <time>2021-11-11T08:08:26.752Z</time>
      </trkpt>
      <trkpt lat="47.18545" lon="-1.60257">
        <ele>56.797176</ele>
        <time>2021-11-11T08:08:28.740Z</time>
      </trkpt>
      <trkpt lat="47.1854" lon="-1.60271">
        <ele>56.789459</ele>
        <time>2021-11-11T08:08:30.746Z</time>
      </trkpt>
      <trkpt lat="47.18535" lon="-1.60284">
        <ele>56.781467</ele>
        <time>2021-11-11T08:08:32.738Z</time>
      </trkpt>
      <trkpt lat="47.18529" lon="-1.60296">
        <ele>56.77314</ele>
        <time>2021-11-11T08:08:34.751Z</time>
      </trkpt>
      <trkpt lat="47.18524" lon="-1.6031">
        <ele>56.764661</ele>
        <time>2021-11-11T08:08:36.725Z</time>
      </trkpt>
      <trkpt lat="47.18518" lon="-1.60324">
        <ele>56.756089</ele>
        <time>2021-11-11T08:08:38.726Z</time>
      </trkpt>
      <trkpt lat="47.18513" lon="-1.60338">
        <ele>56.747774</ele>
        <time>2021-11-11T08:08:40.737Z</time>
      </trkpt>
      <trkpt lat="47.18509" lon="-1.60352">
        <ele>56.739247</ele>
        <time>2021-11-11T08:08:42.742Z</time>
      </trkpt>
      <trkpt lat="47.18503" lon="-1.60368">
        <ele>56.73015</ele>
        <time>2021-11-11T08:08:44.739Z</time>
      </trkpt>
      <trkpt lat="47.18498" lon="-1.60382">
        <ele>56.721336</ele>
        <time>2021-11-11T08:08:46.731Z</time>
      </trkpt>
      <trkpt lat="47.18493" lon="-1.60397">
        <ele>56.712344</ele>
        <time>2021-11-11T08:08:48.728Z</time>
      </trkpt>
      <trkpt lat="47.18488" lon="-1.60413">
        <ele>56.703241</ele>
        <time>2021-11-11T08:08:50.744Z</time>
      </trkpt>
      <trkpt lat="47.18484" lon="-1.60429">
        <ele>56.694168</ele>
        <time>2021-11-11T08:08:52.730Z</time>
      </trkpt>
      <trkpt lat="47.18479" lon="-1.60444">
        <ele>56.685125</ele>
        <time>2021-11-11T08:08:54.735Z</time>
      </trkpt>
      <trkpt lat="47.18475" lon="-1.6046">
        <ele>56.676131</ele>
        <time>2021-11-11T08:08:56.736Z</time>
      </trkpt>
      <trkpt lat="47.18471" lon="-1.60476">
        <ele>56.667253</ele>
        <time>2021-11-11T08:08:58.742Z</time>
      </trkpt>
      <trkpt lat="47.18467" lon="-1.60491">
        <ele>56.658379</ele>
        <time>2021-11-11T08:09:00.764Z</time>
      </trkpt>
      <trkpt lat="47.18463" lon="-1.60507">
        <ele>56.636163</ele>
        <time>2021-11-11T08:09:02.743Z</time>
      </trkpt>
      <trkpt lat="47.1846" lon="-1.60522">
        <ele>56.590504</ele>
        <time>2021-11-11T08:09:04.730Z</time>
      </trkpt>
      <trkpt lat="47.18456" lon="-1.60537">
        <ele>56.545905</ele>
        <time>2021-11-11T08:09:06.729Z</time>
      </trkpt>
      <trkpt lat="47.18452" lon="-1.60552">
        <ele>56.501692</ele>
        <time>2021-11-11T08:09:08.750Z</time>
      </trkpt>
      <trkpt lat="47.18449" lon="-1.60567">
        <ele>56.457578</ele>
        <time>2021-11-11T08:09:10.755Z</time>
      </trkpt>
      <trkpt lat="47.18446" lon="-1.60583">
        <ele>56.41207</ele>
        <time>2021-11-11T08:09:12.746Z</time>
      </trkpt>
      <trkpt lat="47.18443" lon="-1.60599">
        <ele>56.366145</ele>
        <time>2021-11-11T08:09:14.740Z</time>
      </trkpt>
      <trkpt lat="47.1844" lon="-1.60614">
        <ele>56.321983</ele>
        <time>2021-11-11T08:09:16.734Z</time>
      </trkpt>
      <trkpt lat="47.18438" lon="-1.6063">
        <ele>56.277117</ele>
        <time>2021-11-11T08:09:18.772Z</time>
      </trkpt>
      <trkpt lat="47.18435" lon="-1.60646">
        <ele>56.230965</ele>
        <time>2021-11-11T08:09:20.735Z</time>
      </trkpt>
      <trkpt lat="47.18432" lon="-1.60663">
        <ele>56.183201</ele>
        <time>2021-11-11T08:09:22.760Z</time>
      </trkpt>
      <trkpt lat="47.1843" lon="-1.60679">
        <ele>56.136442</ele>
        <time>2021-11-11T08:09:24.735Z</time>
      </trkpt>
      <trkpt lat="47.18427" lon="-1.60696">
        <ele>56.088678</ele>
        <time>2021-11-11T08:09:26.744Z</time>
      </trkpt>
      <trkpt lat="47.18426" lon="-1.60713">
        <ele>56.040293</ele>
        <time>2021-11-11T08:09:28.754Z</time>
      </trkpt>
      <trkpt lat="47.18424" lon="-1.6073">
        <ele>55.993232</ele>
        <time>2021-11-11T08:09:30.729Z</time>
      </trkpt>
      <trkpt lat="47.18421" lon="-1.60746">
        <ele>55.945742</ele>
        <time>2021-11-11T08:09:32.738Z</time>
      </trkpt>
      <trkpt lat="47.1842" lon="-1.60763">
        <ele>55.894621</ele>
        <time>2021-11-11T08:09:34.743Z</time>
      </trkpt>
      <trkpt lat="47.18418" lon="-1.60779">
        <ele>55.837644</ele>
        <time>2021-11-11T08:09:36.735Z</time>
      </trkpt>
      <trkpt lat="47.18417" lon="-1.60796">
        <ele>55.780235</ele>
        <time>2021-11-11T08:09:38.732Z</time>
      </trkpt>
      <trkpt lat="47.18416" lon="-1.60812">
        <ele>55.724767</ele>
        <time>2021-11-11T08:09:40.735Z</time>
      </trkpt>
      <trkpt lat="47.18415" lon="-1.60828">
        <ele>55.669989</ele>
        <time>2021-11-11T08:09:42.732Z</time>
      </trkpt>
      <trkpt lat="47.18414" lon="-1.60844">
        <ele>55.614102</ele>
        <time>2021-11-11T08:09:44.744Z</time>
      </trkpt>
      <trkpt lat="47.18414" lon="-1.60859">
        <ele>55.559289</ele>
        <time>2021-11-11T08:09:46.751Z</time>
      </trkpt>
      <trkpt lat="47.18413" lon="-1.60875">
        <ele>55.503746</ele>
        <time>2021-11-11T08:09:48.748Z</time>
      </trkpt>
      <trkpt lat="47.18412" lon="-1.60891">
        <ele>55.448999</ele>
        <time>2021-11-11T08:09:50.755Z</time>
      </trkpt>
      <trkpt lat="47.18412" lon="-1.60907">
        <ele>55.393989</ele>
        <time>2021-11-11T08:09:52.737Z</time>
      </trkpt>
      <trkpt lat="47.18413" lon="-1.60923">
        <ele>55.337451</ele>
        <time>2021-11-11T08:09:54.736Z</time>
      </trkpt>
      <trkpt lat="47.18413" lon="-1.60939">
        <ele>55.28206</ele>
        <time>2021-11-11T08:09:56.742Z</time>
      </trkpt>
      <trkpt lat="47.18413" lon="-1.60956">
        <ele>55.226339</ele>
        <time>2021-11-11T08:09:58.751Z</time>
      </trkpt>
      <trkpt lat="47.18413" lon="-1.60972">
        <ele>55.169939</ele>
        <time>2021-11-11T08:10:00.731Z</time>
      </trkpt>
      <trkpt lat="47.18412" lon="-1.60988">
        <ele>55.113527</ele>
        <time>2021-11-11T08:10:02.732Z</time>
      </trkpt>
      <trkpt lat="47.18412" lon="-1.61005">
        <ele>55.056434</ele>
        <time>2021-11-11T08:10:04.732Z</time>
      </trkpt>
      <trkpt lat="47.18413" lon="-1.61021">
        <ele>54.99996</ele>
        <time>2021-11-11T08:10:06.734Z</time>
      </trkpt>
      <trkpt lat="47.18414" lon="-1.61037">
        <ele>54.949254</ele>
        <time>2021-11-11T08:10:08.756Z</time>
      </trkpt>
      <trkpt lat="47.18415" lon="-1.61054">
        <ele>54.898443</ele>
        <time>2021-11-11T08:10:10.730Z</time>
      </trkpt>
      <trkpt lat="47.18415" lon="-1.6107">
        <ele>54.849264</ele>
        <time>2021-11-11T08:10:12.739Z</time>
      </trkpt>
      <trkpt lat="47.18416" lon="-1.61086">
        <ele>54.799298</ele>
        <time>2021-11-11T08:10:14.738Z</time>
      </trkpt>
      <trkpt lat="47.18417" lon="-1.61102">
        <ele>54.749243</ele>
        <time>2021-11-11T08:10:16.738Z</time>
      </trkpt>
      <trkpt lat="47.18418" lon="-1.61118">
        <ele>54.699277</ele>
        <time>2021-11-11T08:10:18.738Z</time>
      </trkpt>
      <trkpt lat="47.1842" lon="-1.61134">
        <ele>54.64988</ele>
        <time>2021-11-11T08:10:20.734Z</time>
      </trkpt>
      <trkpt lat="47.18421" lon="-1.61151">
        <ele>54.59926</ele>
        <time>2021-11-11T08:10:22.738Z</time>
      </trkpt>
      <trkpt lat="47.18422" lon="-1.61167">
        <ele>54.550864</ele>
        <time>2021-11-11T08:10:24.740Z</time>
      </trkpt>
      <trkpt lat="47.18422" lon="-1.61182">
        <ele>54.502229</ele>
        <time>2021-11-11T08:10:26.736Z</time>
      </trkpt>
      <trkpt lat="47.18423" lon="-1.61198">
        <ele>54.452785</ele>
        <time>2021-11-11T08:10:28.757Z</time>
      </trkpt>
      <trkpt lat="47.18424" lon="-1.61214">
        <ele>54.40415</ele>
        <time>2021-11-11T08:10:30.734Z</time>
      </trkpt>
      <trkpt lat="47.18425" lon="-1.6123">
        <ele>54.35501</ele>
        <time>2021-11-11T08:10:32.729Z</time>
      </trkpt>
      <trkpt lat="47.18426" lon="-1.61247">
        <ele>54.303821</ele>
        <time>2021-11-11T08:10:34.744Z</time>
      </trkpt>
      <trkpt lat="47.18428" lon="-1.61263">
        <ele>54.251774</ele>
        <time>2021-11-11T08:10:36.746Z</time>
      </trkpt>
      <trkpt lat="47.18429" lon="-1.6128">
        <ele>54.200994</ele>
        <time>2021-11-11T08:10:38.747Z</time>
      </trkpt>
      <trkpt lat="47.1843" lon="-1.61297">
        <ele>54.255796</ele>
        <time>2021-11-11T08:10:40.733Z</time>
      </trkpt>
      <trkpt lat="47.18431" lon="-1.61314">
        <ele>54.353221</ele>
        <time>2021-11-11T08:10:42.731Z</time>
      </trkpt>
      <trkpt lat="47.18433" lon="-1.61331">
        <ele>54.450081</ele>
        <time>2021-11-11T08:10:44.751Z</time>
      </trkpt>
      <trkpt lat="47.18434" lon="-1.61347">
        <ele>54.544489</ele>
        <time>2021-11-11T08:10:46.718Z</time>
      </trkpt>
      <trkpt lat="47.18434" lon="-1.61363">
        <ele>54.634002</ele>
        <time>2021-11-11T08:10:48.732Z</time>
      </trkpt>
      <trkpt lat="47.18436" lon="-1.61378">
        <ele>54.723796</ele>
        <time>2021-11-11T08:10:50.735Z</time>
      </trkpt>
      <trkpt lat="47.18437" lon="-1.61394">
        <ele>54.813883</ele>
        <time>2021-11-11T08:10:52.737Z</time>
      </trkpt>
      <trkpt lat="47.18437" lon="-1.6141">
        <ele>54.906144</ele>
        <time>2021-11-11T08:10:54.740Z</time>
      </trkpt>
      <trkpt lat="47.18438" lon="-1.61427">
        <ele>55.000076</ele>
        <time>2021-11-11T08:10:56.757Z</time>
      </trkpt>
      <trkpt lat="47.18439" lon="-1.61443">
        <ele>55.094754</ele>
        <time>2021-11-11T08:10:58.733Z</time>
      </trkpt>
      <trkpt lat="47.18439" lon="-1.6146">
        <ele>55.186538</ele>
        <time>2021-11-11T08:11:00.733Z</time>
      </trkpt>
      <trkpt lat="47.18441" lon="-1.61475">
        <ele>55.273921</ele>
        <time>2021-11-11T08:11:02.749Z</time>
      </trkpt>
      <trkpt lat="47.18442" lon="-1.6149">
        <ele>55.360802</ele>
        <time>2021-11-11T08:11:04.735Z</time>
      </trkpt>
      <trkpt lat="47.18443" lon="-1.61505">
        <ele>55.447682</ele>
        <time>2021-11-11T08:11:06.721Z</time>
      </trkpt>
      <trkpt lat="47.18444" lon="-1.61521">
        <ele>55.53587</ele>
        <time>2021-11-11T08:11:08.751Z</time>
      </trkpt>
      <trkpt lat="47.18445" lon="-1.61536">
        <ele>55.623493</ele>
        <time>2021-11-11T08:11:10.738Z</time>
      </trkpt>
      <trkpt lat="47.18446" lon="-1.61551">
        <ele>55.703681</ele>
        <time>2021-11-11T08:11:12.736Z</time>
      </trkpt>
      <trkpt lat="47.18447" lon="-1.61566">
        <ele>55.759384</ele>
        <time>2021-11-11T08:11:14.733Z</time>
      </trkpt>
      <trkpt lat="47.18447" lon="-1.61582">
        <ele>55.814296</ele>
        <time>2021-11-11T08:11:16.747Z</time>
      </trkpt>
      <trkpt lat="47.18448" lon="-1.61597">
        <ele>55.870449</ele>
        <time>2021-11-11T08:11:18.737Z</time>
      </trkpt>
      <trkpt lat="47.1845" lon="-1.61613">
        <ele>55.928449</ele>
        <time>2021-11-11T08:11:20.738Z</time>
      </trkpt>
      <trkpt lat="47.18451" lon="-1.61629">
        <ele>55.986565</ele>
        <time>2021-11-11T08:11:22.737Z</time>
      </trkpt>
      <trkpt lat="47.18452" lon="-1.61645">
        <ele>56.044681</ele>
        <time>2021-11-11T08:11:24.734Z</time>
      </trkpt>
      <trkpt lat="47.18454" lon="-1.61661">
        <ele>56.102146</ele>
        <time>2021-11-11T08:11:26.738Z</time>
      </trkpt>
      <trkpt lat="47.18455" lon="-1.61677">
        <ele>56.160146</ele>
        <time>2021-11-11T08:11:28.735Z</time>
      </trkpt>
      <trkpt lat="47.18455" lon="-1.61693">
        <ele>56.216418</ele>
        <time>2021-11-11T08:11:30.731Z</time>
      </trkpt>
      <trkpt lat="47.18455" lon="-1.61708">
        <ele>56.273051</ele>
        <time>2021-11-11T08:11:32.737Z</time>
      </trkpt>
      <trkpt lat="47.18456" lon="-1.61724">
        <ele>56.331204</ele>
        <time>2021-11-11T08:11:34.752Z</time>
      </trkpt>
      <trkpt lat="47.18456" lon="-1.61741">
        <ele>56.389668</ele>
        <time>2021-11-11T08:11:36.754Z</time>
      </trkpt>
      <trkpt lat="47.18457" lon="-1.61756">
        <ele>56.446899</ele>
        <time>2021-11-11T08:11:38.737Z</time>
      </trkpt>
      <trkpt lat="47.18458" lon="-1.61772">
        <ele>56.50418</ele>
        <time>2021-11-11T08:11:40.732Z</time>
      </trkpt>
      <trkpt lat="47.1846" lon="-1.61787">
        <ele>56.559144</ele>
        <time>2021-11-11T08:11:42.735Z</time>
      </trkpt>
      <trkpt lat="47.18461" lon="-1.61802">
        <ele>56.613615</ele>
        <time>2021-11-11T08:11:44.736Z</time>
      </trkpt>
      <trkpt lat="47.18462" lon="-1.61817">
        <ele>56.622414</ele>
        <time>2021-11-11T08:11:46.757Z</time>
      </trkpt>
      <trkpt lat="47.18464" lon="-1.61833">
        <ele>56.560542</ele>
        <time>2021-11-11T08:11:48.736Z</time>
      </trkpt>
      <trkpt lat="47.18466" lon="-1.61847">
        <ele>56.500252</ele>
        <time>2021-11-11T08:11:50.739Z</time>
      </trkpt>
      <trkpt lat="47.18467" lon="-1.61863">
        <ele>56.437516</ele>
        <time>2021-11-11T08:11:52.755Z</time>
      </trkpt>
      <trkpt lat="47.18468" lon="-1.61878">
        <ele>56.37438</ele>
        <time>2021-11-11T08:11:54.740Z</time>
      </trkpt>
      <trkpt lat="47.18469" lon="-1.61895">
        <ele>56.308845</ele>
        <time>2021-11-11T08:11:56.744Z</time>
      </trkpt>
      <trkpt lat="47.1847" lon="-1.61911">
        <ele>56.241616</ele>
        <time>2021-11-11T08:11:58.736Z</time>
      </trkpt>
      <trkpt lat="47.18471" lon="-1.61928">
        <ele>56.175131</ele>
        <time>2021-11-11T08:12:00.739Z</time>
      </trkpt>
      <trkpt lat="47.18472" lon="-1.61944">
        <ele>56.109383</ele>
        <time>2021-11-11T08:12:02.734Z</time>
      </trkpt>
      <trkpt lat="47.18473" lon="-1.6196">
        <ele>56.045089</ele>
        <time>2021-11-11T08:12:04.733Z</time>
      </trkpt>
      <trkpt lat="47.18474" lon="-1.61976">
        <ele>55.982305</ele>
        <time>2021-11-11T08:12:06.734Z</time>
      </trkpt>
      <trkpt lat="47.18474" lon="-1.61992">
        <ele>55.91917</ele>
        <time>2021-11-11T08:12:08.757Z</time>
      </trkpt>
      <trkpt lat="47.18475" lon="-1.62007">
        <ele>55.855675</ele>
        <time>2021-11-11T08:12:10.736Z</time>
      </trkpt>
      <trkpt lat="47.18476" lon="-1.62023">
        <ele>55.793849</ele>
        <time>2021-11-11T08:12:12.744Z</time>
      </trkpt>
      <trkpt lat="47.18477" lon="-1.62038">
        <ele>55.731412</ele>
        <time>2021-11-11T08:12:14.732Z</time>
      </trkpt>
      <trkpt lat="47.18477" lon="-1.62054">
        <ele>55.669518</ele>
        <time>2021-11-11T08:12:16.731Z</time>
      </trkpt>
      <trkpt lat="47.18478" lon="-1.62069">
        <ele>55.608118</ele>
        <time>2021-11-11T08:12:18.737Z</time>
      </trkpt>
      <trkpt lat="47.18478" lon="-1.62084">
        <ele>55.557995</ele>
        <time>2021-11-11T08:12:20.726Z</time>
      </trkpt>
      <trkpt lat="47.18479" lon="-1.62099">
        <ele>55.513416</ele>
        <time>2021-11-11T08:12:22.735Z</time>
      </trkpt>
      <trkpt lat="47.18479" lon="-1.62115">
        <ele>55.46924</ele>
        <time>2021-11-11T08:12:24.739Z</time>
      </trkpt>
      <trkpt lat="47.1848" lon="-1.6213">
        <ele>55.425612</ele>
        <time>2021-11-11T08:12:26.747Z</time>
      </trkpt>
      <trkpt lat="47.1848" lon="-1.62145">
        <ele>55.380551</ele>
        <time>2021-11-11T08:12:28.729Z</time>
      </trkpt>
      <trkpt lat="47.18481" lon="-1.6216">
        <ele>55.335781</ele>
        <time>2021-11-11T08:12:30.732Z</time>
      </trkpt>
      <trkpt lat="47.18481" lon="-1.62176">
        <ele>55.291622</ele>
        <time>2021-11-11T08:12:32.752Z</time>
      </trkpt>
      <trkpt lat="47.18481" lon="-1.62191">
        <ele>55.24601</ele>
        <time>2021-11-11T08:12:34.749Z</time>
      </trkpt>
      <trkpt lat="47.18481" lon="-1.62207">
        <ele>55.201561</ele>
        <time>2021-11-11T08:12:36.728Z</time>
      </trkpt>
      <trkpt lat="47.18481" lon="-1.62221">
        <ele>55.160009</ele>
        <time>2021-11-11T08:12:38.763Z</time>
      </trkpt>
      <trkpt lat="47.18481" lon="-1.62237">
        <ele>55.112626</ele>
        <time>2021-11-11T08:12:41.748Z</time>
      </trkpt>
      <trkpt lat="47.18479" lon="-1.62254">
        <ele>55.062506</ele>
        <time>2021-11-11T08:12:44.739Z</time>
      </trkpt>
      <trkpt lat="47.1847" lon="-1.62261">
        <ele>55.01722</ele>
        <time>2021-11-11T08:12:46.736Z</time>
      </trkpt>
      <trkpt lat="47.18459" lon="-1.62266">
        <ele>54.967427</ele>
        <time>2021-11-11T08:12:48.754Z</time>
      </trkpt>
      <trkpt lat="47.18448" lon="-1.62272">
        <ele>54.918881</ele>
        <time>2021-11-11T08:12:50.734Z</time>
      </trkpt>
      <trkpt lat="47.18438" lon="-1.62279">
        <ele>54.870773</ele>
        <time>2021-11-11T08:12:52.755Z</time>
      </trkpt>
      <trkpt lat="47.18429" lon="-1.62287">
        <ele>54.825094</ele>
        <time>2021-11-11T08:12:54.743Z</time>
      </trkpt>
      <trkpt lat="47.18422" lon="-1.62297">
        <ele>54.788156</ele>
        <time>2021-11-11T08:12:56.773Z</time>
      </trkpt>
      <trkpt lat="47.18425" lon="-1.6231">
        <ele>54.751389</ele>
        <time>2021-11-11T08:13:00.055Z</time>
      </trkpt>
      <trkpt lat="47.18434" lon="-1.62313">
        <ele>54.715841</ele>
        <time>2021-11-11T08:13:03.397Z</time>
      </trkpt>
      <trkpt lat="47.18444" lon="-1.62322">
        <ele>54.670173</ele>
        <time>2021-11-11T08:13:06.159Z</time>
      </trkpt>
      <trkpt lat="47.18448" lon="-1.62337">
        <ele>54.62789</ele>
        <time>2021-11-11T08:13:08.374Z</time>
      </trkpt>
      <trkpt lat="47.18448" lon="-1.62355">
        <ele>54.579388</ele>
        <time>2021-11-11T08:13:11.204Z</time>
      </trkpt>
      <trkpt lat="47.18449" lon="-1.6237">
        <ele>54.538043</ele>
        <time>2021-11-11T08:13:14.250Z</time>
      </trkpt>
      <trkpt lat="47.18465" lon="-1.62368">
        <ele>54.474551</ele>
        <time>2021-11-11T08:13:17.728Z</time>
      </trkpt>
      <trkpt lat="47.18475" lon="-1.62371">
        <ele>54.43628</ele>
        <time>2021-11-11T08:13:19.765Z</time>
      </trkpt>
      <trkpt lat="47.18485" lon="-1.62366">
        <ele>54.394067</ele>
        <time>2021-11-11T08:13:22.439Z</time>
      </trkpt>
      <trkpt lat="47.18488" lon="-1.62385">
        <ele>54.341417</ele>
        <time>2021-11-11T08:13:25.225Z</time>
      </trkpt>
      <trkpt lat="47.18485" lon="-1.62399">
        <ele>54.305022</ele>
        <time>2021-11-11T08:13:27.178Z</time>
      </trkpt>
      <trkpt lat="47.18483" lon="-1.62416">
        <ele>54.258054</ele>
        <time>2021-11-11T08:13:30.630Z</time>
      </trkpt>
      <trkpt lat="47.18482" lon="-1.62431">
        <ele>54.219123</ele>
        <time>2021-11-11T08:13:33.228Z</time>
      </trkpt>
      <trkpt lat="47.18482" lon="-1.62448">
        <ele>54.174066</ele>
        <time>2021-11-11T08:13:37.438Z</time>
      </trkpt>
      <trkpt lat="47.18481" lon="-1.62464">
        <ele>54.130307</ele>
        <time>2021-11-11T08:13:42.525Z</time>
      </trkpt>
      <trkpt lat="47.1848" lon="-1.62484">
        <ele>54.030099</ele>
        <time>2021-11-11T08:13:46.283Z</time>
      </trkpt>
      <trkpt lat="47.1848" lon="-1.625">
        <ele>53.931059</ele>
        <time>2021-11-11T08:13:49.138Z</time>
      </trkpt>
      <trkpt lat="47.1848" lon="-1.62514">
        <ele>53.84587</ele>
        <time>2021-11-11T08:13:51.229Z</time>
      </trkpt>
      <trkpt lat="47.18478" lon="-1.62533">
        <ele>53.728571</ele>
        <time>2021-11-11T08:13:55.462Z</time>
      </trkpt>
      <trkpt lat="47.18475" lon="-1.62547">
        <ele>53.643374</ele>
        <time>2021-11-11T08:13:58.270Z</time>
      </trkpt>
      <trkpt lat="47.18475" lon="-1.62565">
        <ele>53.535883</ele>
        <time>2021-11-11T08:14:02.534Z</time>
      </trkpt>
      <trkpt lat="47.18475" lon="-1.6258">
        <ele>53.445625</ele>
        <time>2021-11-11T08:14:05.198Z</time>
      </trkpt>
      <trkpt lat="47.18475" lon="-1.62599">
        <ele>53.33061</ele>
        <time>2021-11-11T08:14:09.052Z</time>
      </trkpt>
      <trkpt lat="47.18474" lon="-1.62612">
        <ele>53.247232</ele>
        <time>2021-11-11T08:14:11.263Z</time>
      </trkpt>
      <trkpt lat="47.18473" lon="-1.6263">
        <ele>53.142022</ele>
        <time>2021-11-11T08:14:13.985Z</time>
      </trkpt>
      <trkpt lat="47.18472" lon="-1.62643">
        <ele>53.059804</ele>
        <time>2021-11-11T08:14:16.737Z</time>
      </trkpt>
      <trkpt lat="47.1847" lon="-1.62661">
        <ele>52.953772</ele>
        <time>2021-11-11T08:14:19.074Z</time>
      </trkpt>
      <trkpt lat="47.18468" lon="-1.62676">
        <ele>52.862081</ele>
        <time>2021-11-11T08:14:21.545Z</time>
      </trkpt>
      <trkpt lat="47.18467" lon="-1.62692">
        <ele>52.761773</ele>
        <time>2021-11-11T08:14:24.159Z</time>
      </trkpt>
      <trkpt lat="47.18466" lon="-1.62705">
        <ele>52.681351</ele>
        <time>2021-11-11T08:14:26.568Z</time>
      </trkpt>
      <trkpt lat="47.18465" lon="-1.62722">
        <ele>52.579048</ele>
        <time>2021-11-11T08:14:29.411Z</time>
      </trkpt>
      <trkpt lat="47.18464" lon="-1.62739">
        <ele>52.546884</ele>
        <time>2021-11-11T08:14:32.321Z</time>
      </trkpt>
      <trkpt lat="47.18463" lon="-1.62754">
        <ele>52.605814</ele>
        <time>2021-11-11T08:14:34.716Z</time>
      </trkpt>
      <trkpt lat="47.18462" lon="-1.6277">
        <ele>52.673884</ele>
        <time>2021-11-11T08:14:37.196Z</time>
      </trkpt>
      <trkpt lat="47.18461" lon="-1.62785">
        <ele>52.73857</ele>
        <time>2021-11-11T08:14:39.899Z</time>
      </trkpt>
      <trkpt lat="47.18459" lon="-1.62801">
        <ele>52.804632</ele>
        <time>2021-11-11T08:14:42.522Z</time>
      </trkpt>
      <trkpt lat="47.18456" lon="-1.62815">
        <ele>52.865026</ele>
        <time>2021-11-11T08:14:44.915Z</time>
      </trkpt>
      <trkpt lat="47.18456" lon="-1.62832">
        <ele>52.939642</ele>
        <time>2021-11-11T08:14:48.073Z</time>
      </trkpt>
      <trkpt lat="47.18456" lon="-1.62849">
        <ele>53.010086</ele>
        <time>2021-11-11T08:14:51.210Z</time>
      </trkpt>
      <trkpt lat="47.18454" lon="-1.62868">
        <ele>53.08892</ele>
        <time>2021-11-11T08:14:54.529Z</time>
      </trkpt>
      <trkpt lat="47.18451" lon="-1.62882">
        <ele>53.149351</ele>
        <time>2021-11-11T08:14:57.078Z</time>
      </trkpt>
      <trkpt lat="47.18449" lon="-1.62899">
        <ele>53.223747</ele>
        <time>2021-11-11T08:15:00.602Z</time>
      </trkpt>
      <trkpt lat="47.1845" lon="-1.62916">
        <ele>53.291915</ele>
        <time>2021-11-11T08:15:03.217Z</time>
      </trkpt>
      <trkpt lat="47.18451" lon="-1.62931">
        <ele>53.354325</ele>
        <time>2021-11-11T08:15:06.236Z</time>
      </trkpt>
      <trkpt lat="47.18452" lon="-1.62949">
        <ele>53.430902</ele>
        <time>2021-11-11T08:15:09.495Z</time>
      </trkpt>
      <trkpt lat="47.18456" lon="-1.62961">
        <ele>53.488116</ele>
        <time>2021-11-11T08:15:13.233Z</time>
      </trkpt>
      <trkpt lat="47.1846" lon="-1.62974">
        <ele>53.54672</ele>
        <time>2021-11-11T08:15:17.315Z</time>
      </trkpt>
      <trkpt lat="47.18463" lon="-1.6299">
        <ele>53.615788</ele>
        <time>2021-11-11T08:15:21.527Z</time>
      </trkpt>
      <trkpt lat="47.1847" lon="-1.63003">
        <ele>53.761875</ele>
        <time>2021-11-11T08:15:25.697Z</time>
      </trkpt>
      <trkpt lat="47.18476" lon="-1.63013">
        <ele>53.893101</ele>
        <time>2021-11-11T08:15:30.964Z</time>
      </trkpt>
      <trkpt lat="47.18481" lon="-1.63024">
        <ele>54.023361</ele>
        <time>2021-11-11T08:15:58.744Z</time>
      </trkpt>
      <trkpt lat="47.18475" lon="-1.6301">
        <ele>54.174916</ele>
        <time>2021-11-11T08:16:22.106Z</time>
      </trkpt>
      <trkpt lat="47.18469" lon="-1.63">
        <ele>54.312161</ele>
        <time>2021-11-11T08:16:28.341Z</time>
      </trkpt>
      <trkpt lat="47.18464" lon="-1.62987">
        <ele>54.459018</ele>
        <time>2021-11-11T08:16:40.234Z</time>
      </trkpt>
      <trkpt lat="47.18461" lon="-1.62969">
        <ele>54.635503</ele>
        <time>2021-11-11T08:16:45.562Z</time>
      </trkpt>
      <trkpt lat="47.18457" lon="-1.62954">
        <ele>54.798983</ele>
        <time>2021-11-11T08:16:49.609Z</time>
      </trkpt>
      <trkpt lat="47.18453" lon="-1.62939">
        <ele>54.953353</ele>
        <time>2021-11-11T08:16:52.727Z</time>
      </trkpt>
      <trkpt lat="47.18451" lon="-1.62925">
        <ele>55.089337</ele>
        <time>2021-11-11T08:16:55.562Z</time>
      </trkpt>
      <trkpt lat="47.18451" lon="-1.6291">
        <ele>55.238475</ele>
        <time>2021-11-11T08:16:58.677Z</time>
      </trkpt>
      <trkpt lat="47.1845" lon="-1.62896">
        <ele>55.374725</ele>
        <time>2021-11-11T08:17:01.450Z</time>
      </trkpt>
      <trkpt lat="47.1845" lon="-1.62883">
        <ele>55.504832</ele>
        <time>2021-11-11T08:17:03.905Z</time>
      </trkpt>
      <trkpt lat="47.18452" lon="-1.62869">
        <ele>55.646694</ele>
        <time>2021-11-11T08:17:12.251Z</time>
      </trkpt>
      <trkpt lat="47.18457" lon="-1.62855">
        <ele>55.80036</ele>
        <time>2021-11-11T08:17:15.112Z</time>
      </trkpt>
      <trkpt lat="47.18461" lon="-1.62837">
        <ele>55.977469</ele>
        <time>2021-11-11T08:17:18.348Z</time>
      </trkpt>
      <trkpt lat="47.1846" lon="-1.62817">
        <ele>56.180047</ele>
        <time>2021-11-11T08:17:21.583Z</time>
      </trkpt>
      <trkpt lat="47.18459" lon="-1.62801">
        <ele>56.174779</ele>
        <time>2021-11-11T08:17:24.252Z</time>
      </trkpt>
      <trkpt lat="47.18461" lon="-1.62787">
        <ele>56.13801</ele>
        <time>2021-11-11T08:17:26.408Z</time>
      </trkpt>
      <trkpt lat="47.18463" lon="-1.62773">
        <ele>56.102083</ele>
        <time>2021-11-11T08:17:28.503Z</time>
      </trkpt>
      <trkpt lat="47.18465" lon="-1.62758">
        <ele>56.060799</ele>
        <time>2021-11-11T08:17:31.498Z</time>
      </trkpt>
      <trkpt lat="47.18465" lon="-1.62737">
        <ele>56.005239</ele>
        <time>2021-11-11T08:17:34.582Z</time>
      </trkpt>
      <trkpt lat="47.18466" lon="-1.62721">
        <ele>55.965157</ele>
        <time>2021-11-11T08:17:37.374Z</time>
      </trkpt>
      <trkpt lat="47.18467" lon="-1.62702">
        <ele>55.914407</ele>
        <time>2021-11-11T08:17:40.576Z</time>
      </trkpt>
      <trkpt lat="47.18468" lon="-1.62688">
        <ele>55.878309</ele>
        <time>2021-11-11T08:17:42.252Z</time>
      </trkpt>
      <trkpt lat="47.18469" lon="-1.62674">
        <ele>55.841576</ele>
        <time>2021-11-11T08:17:44.810Z</time>
      </trkpt>
      <trkpt lat="47.18471" lon="-1.62657">
        <ele>55.796872</ele>
        <time>2021-11-11T08:17:47.419Z</time>
      </trkpt>
      <trkpt lat="47.18472" lon="-1.62642">
        <ele>55.756241</ele>
        <time>2021-11-11T08:17:50.334Z</time>
      </trkpt>
      <trkpt lat="47.18474" lon="-1.62629">
        <ele>55.721393</ele>
        <time>2021-11-11T08:17:52.491Z</time>
      </trkpt>
      <trkpt lat="47.18475" lon="-1.62612">
        <ele>55.678231</ele>
        <time>2021-11-11T08:17:55.083Z</time>
      </trkpt>
      <trkpt lat="47.18476" lon="-1.62593">
        <ele>55.626179</ele>
        <time>2021-11-11T08:17:58.596Z</time>
      </trkpt>
      <trkpt lat="47.18477" lon="-1.62577">
        <ele>55.585574</ele>
        <time>2021-11-11T08:18:01.100Z</time>
      </trkpt>
      <trkpt lat="47.18477" lon="-1.62563">
        <ele>55.548938</ele>
        <time>2021-11-11T08:18:03.587Z</time>
      </trkpt>
      <trkpt lat="47.18477" lon="-1.62548">
        <ele>55.499971</ele>
        <time>2021-11-11T08:18:06.283Z</time>
      </trkpt>
      <trkpt lat="47.18476" lon="-1.62534">
        <ele>55.428845</ele>
        <time>2021-11-11T08:18:09.407Z</time>
      </trkpt>
      <trkpt lat="47.18478" lon="-1.62516">
        <ele>55.339165</ele>
        <time>2021-11-11T08:18:13.352Z</time>
      </trkpt>
      <trkpt lat="47.1848" lon="-1.62503">
        <ele>55.266832</ele>
        <time>2021-11-11T08:18:16.676Z</time>
      </trkpt>
      <trkpt lat="47.18481" lon="-1.62487">
        <ele>55.187508</ele>
        <time>2021-11-11T08:18:19.339Z</time>
      </trkpt>
      <trkpt lat="47.18481" lon="-1.62471">
        <ele>55.106356</ele>
        <time>2021-11-11T08:18:22.594Z</time>
      </trkpt>
      <trkpt lat="47.18481" lon="-1.62453">
        <ele>55.012457</ele>
        <time>2021-11-11T08:18:25.728Z</time>
      </trkpt>
      <trkpt lat="47.18483" lon="-1.62438">
        <ele>54.933805</ele>
        <time>2021-11-11T08:18:29.516Z</time>
      </trkpt>
      <trkpt lat="47.18483" lon="-1.62421">
        <ele>54.847992</ele>
        <time>2021-11-11T08:18:35.453Z</time>
      </trkpt>
      <trkpt lat="47.18483" lon="-1.62407">
        <ele>54.775494</ele>
        <time>2021-11-11T08:18:37.916Z</time>
      </trkpt>
      <trkpt lat="47.18484" lon="-1.62392">
        <ele>54.699278</ele>
        <time>2021-11-11T08:18:40.409Z</time>
      </trkpt>
      <trkpt lat="47.18485" lon="-1.62376">
        <ele>54.617409</ele>
        <time>2021-11-11T08:18:43.080Z</time>
      </trkpt>
      <trkpt lat="47.18481" lon="-1.62361">
        <ele>54.536937</ele>
        <time>2021-11-11T08:18:46.565Z</time>
      </trkpt>
      <trkpt lat="47.1847" lon="-1.62363">
        <ele>54.452446</ele>
        <time>2021-11-11T08:18:49.516Z</time>
      </trkpt>
      <trkpt lat="47.18457" lon="-1.62364">
        <ele>54.356782</ele>
        <time>2021-11-11T08:18:52.489Z</time>
      </trkpt>
      <trkpt lat="47.18444" lon="-1.62362">
        <ele>54.255796</ele>
        <time>2021-11-11T08:18:55.499Z</time>
      </trkpt>
      <trkpt lat="47.1844" lon="-1.6238">
        <ele>54.162189</ele>
        <time>2021-11-11T08:18:59.528Z</time>
      </trkpt>
      <trkpt lat="47.18443" lon="-1.62395">
        <ele>54.052437</ele>
        <time>2021-11-11T08:19:01.647Z</time>
      </trkpt>
      <trkpt lat="47.18444" lon="-1.62411">
        <ele>53.936643</ele>
        <time>2021-11-11T08:19:03.339Z</time>
      </trkpt>
      <trkpt lat="47.18446" lon="-1.62431">
        <ele>53.796489</ele>
        <time>2021-11-11T08:19:06.361Z</time>
      </trkpt>
      <trkpt lat="47.18445" lon="-1.62446">
        <ele>53.683714</ele>
        <time>2021-11-11T08:19:08.489Z</time>
      </trkpt>
      <trkpt lat="47.18445" lon="-1.62466">
        <ele>53.540831</ele>
        <time>2021-11-11T08:19:11.558Z</time>
      </trkpt>
      <trkpt lat="47.18447" lon="-1.62484">
        <ele>53.412654</ele>
        <time>2021-11-11T08:19:14.034Z</time>
      </trkpt>
      <trkpt lat="47.18447" lon="-1.62503">
        <ele>53.278134</ele>
        <time>2021-11-11T08:19:17.766Z</time>
      </trkpt>
      <trkpt lat="47.18448" lon="-1.62524">
        <ele>53.132068</ele>
        <time>2021-11-11T08:19:20.768Z</time>
      </trkpt>
      <trkpt lat="47.18446" lon="-1.62539">
        <ele>53.021363</ele>
        <time>2021-11-11T08:19:23.633Z</time>
      </trkpt>
      <trkpt lat="47.18443" lon="-1.62556">
        <ele>52.894183</ele>
        <time>2021-11-11T08:19:25.457Z</time>
      </trkpt>
      <trkpt lat="47.18444" lon="-1.6257">
        <ele>52.796019</ele>
        <time>2021-11-11T08:19:26.875Z</time>
      </trkpt>
      <trkpt lat="47.18442" lon="-1.62588">
        <ele>52.668547</ele>
        <time>2021-11-11T08:19:29.738Z</time>
      </trkpt>
      <trkpt lat="47.1844" lon="-1.62605">
        <ele>52.547449</ele>
        <time>2021-11-11T08:19:32.351Z</time>
      </trkpt>
      <trkpt lat="47.18438" lon="-1.62621">
        <ele>52.429915</ele>
        <time>2021-11-11T08:19:34.574Z</time>
      </trkpt>
      <trkpt lat="47.18438" lon="-1.62635">
        <ele>52.330418</ele>
        <time>2021-11-11T08:19:36.467Z</time>
      </trkpt>
      <trkpt lat="47.18438" lon="-1.6265">
        <ele>52.274547</ele>
        <time>2021-11-11T08:19:38.514Z</time>
      </trkpt>
      <trkpt lat="47.18436" lon="-1.62665">
        <ele>52.254316</ele>
        <time>2021-11-11T08:19:40.625Z</time>
      </trkpt>
      <trkpt lat="47.18434" lon="-1.62678">
        <ele>52.236299</ele>
        <time>2021-11-11T08:19:42.317Z</time>
      </trkpt>
      <trkpt lat="47.18434" lon="-1.62694">
        <ele>52.215672</ele>
        <time>2021-11-11T08:19:45.224Z</time>
      </trkpt>
      <trkpt lat="47.18432" lon="-1.62707">
        <ele>52.197982</ele>
        <time>2021-11-11T08:19:47.630Z</time>
      </trkpt>
      <trkpt lat="47.1843" lon="-1.62724">
        <ele>52.174134</ele>
        <time>2021-11-11T08:19:50.456Z</time>
      </trkpt>
      <trkpt lat="47.18427" lon="-1.62738">
        <ele>52.155913</ele>
        <time>2021-11-11T08:19:52.528Z</time>
      </trkpt>
      <trkpt lat="47.18425" lon="-1.62752">
        <ele>52.137049</ele>
        <time>2021-11-11T08:19:54.771Z</time>
      </trkpt>
      <trkpt lat="47.18422" lon="-1.62765">
        <ele>52.117964</ele>
        <time>2021-11-11T08:19:56.751Z</time>
      </trkpt>
      <trkpt lat="47.1842" lon="-1.6278">
        <ele>52.099001</ele>
        <time>2021-11-11T08:19:58.737Z</time>
      </trkpt>
      <trkpt lat="47.18418" lon="-1.62793">
        <ele>52.080221</ele>
        <time>2021-11-11T08:20:00.732Z</time>
      </trkpt>
      <trkpt lat="47.18416" lon="-1.62808">
        <ele>52.061065</ele>
        <time>2021-11-11T08:20:02.691Z</time>
      </trkpt>
      <trkpt lat="47.18413" lon="-1.62824">
        <ele>52.038438</ele>
        <time>2021-11-11T08:20:05.742Z</time>
      </trkpt>
      <trkpt lat="47.1841" lon="-1.62839">
        <ele>52.018151</ele>
        <time>2021-11-11T08:20:07.753Z</time>
      </trkpt>
      <trkpt lat="47.18407" lon="-1.62853">
        <ele>51.99875</ele>
        <time>2021-11-11T08:20:09.771Z</time>
      </trkpt>
      <trkpt lat="47.18404" lon="-1.62866">
        <ele>51.979657</ele>
        <time>2021-11-11T08:20:11.743Z</time>
      </trkpt>
      <trkpt lat="47.18402" lon="-1.6288">
        <ele>51.96078</ele>
        <time>2021-11-11T08:20:13.775Z</time>
      </trkpt>
      <trkpt lat="47.184" lon="-1.62897">
        <ele>51.937878</ele>
        <time>2021-11-11T08:20:16.555Z</time>
      </trkpt>
      <trkpt lat="47.18395" lon="-1.62912">
        <ele>52.029535</ele>
        <time>2021-11-11T08:20:19.305Z</time>
      </trkpt>
      <trkpt lat="47.18393" lon="-1.62929">
        <ele>52.134366</ele>
        <time>2021-11-11T08:20:22.344Z</time>
      </trkpt>
      <trkpt lat="47.18393" lon="-1.62944">
        <ele>52.232479</ele>
        <time>2021-11-11T08:20:26.265Z</time>
      </trkpt>
      <trkpt lat="47.18393" lon="-1.62958">
        <ele>52.322345</ele>
        <time>2021-11-11T08:20:28.740Z</time>
      </trkpt>
      <trkpt lat="47.18395" lon="-1.62977">
        <ele>52.444455</ele>
        <time>2021-11-11T08:20:31.645Z</time>
      </trkpt>
      <trkpt lat="47.18403" lon="-1.62991">
        <ele>52.553033</ele>
        <time>2021-11-11T08:20:34.257Z</time>
      </trkpt>
      <trkpt lat="47.18411" lon="-1.62998">
        <ele>52.644027</ele>
        <time>2021-11-11T08:20:36.749Z</time>
      </trkpt>
      <trkpt lat="47.18422" lon="-1.63004">
        <ele>52.755443</ele>
        <time>2021-11-11T08:20:39.384Z</time>
      </trkpt>
      <trkpt lat="47.18431" lon="-1.63017">
        <ele>52.873523</ele>
        <time>2021-11-11T08:20:41.745Z</time>
      </trkpt>
      <trkpt lat="47.18439" lon="-1.63027">
        <ele>52.969229</ele>
        <time>2021-11-11T08:20:43.732Z</time>
      </trkpt>
      <trkpt lat="47.18446" lon="-1.63038">
        <ele>53.06495</ele>
        <time>2021-11-11T08:20:45.374Z</time>
      </trkpt>
      <trkpt lat="47.18457" lon="-1.63049">
        <ele>53.186108</ele>
        <time>2021-11-11T08:20:48.149Z</time>
      </trkpt>
      <trkpt lat="47.18464" lon="-1.63057">
        <ele>53.274981</ele>
        <time>2021-11-11T08:20:50.358Z</time>
      </trkpt>
      <trkpt lat="47.18475" lon="-1.6307">
        <ele>53.404812</ele>
        <time>2021-11-11T08:20:53.625Z</time>
      </trkpt>
      <trkpt lat="47.18485" lon="-1.63079">
        <ele>53.508789</ele>
        <time>2021-11-11T08:20:56.401Z</time>
      </trkpt>
      <trkpt lat="47.18493" lon="-1.63089">
        <ele>53.604894</ele>
        <time>2021-11-11T08:20:58.611Z</time>
      </trkpt>
      <trkpt lat="47.18501" lon="-1.63099">
        <ele>53.694491</ele>
        <time>2021-11-11T08:21:00.846Z</time>
      </trkpt>
      <trkpt lat="47.18512" lon="-1.63113">
        <ele>53.803942</ele>
        <time>2021-11-11T08:21:04.738Z</time>
      </trkpt>
      <trkpt lat="47.1852" lon="-1.63122">
        <ele>53.88428</ele>
        <time>2021-11-11T08:21:06.742Z</time>
      </trkpt>
      <trkpt lat="47.18528" lon="-1.63129">
        <ele>53.959371</ele>
        <time>2021-11-11T08:21:08.641Z</time>
      </trkpt>
      <trkpt lat="47.1854" lon="-1.6314">
        <ele>54.064956</ele>
        <time>2021-11-11T08:21:11.683Z</time>
      </trkpt>
      <trkpt lat="47.18546" lon="-1.63153">
        <ele>54.154899</ele>
        <time>2021-11-11T08:21:13.748Z</time>
      </trkpt>
      <trkpt lat="47.18554" lon="-1.63163">
        <ele>54.234487</ele>
        <time>2021-11-11T08:21:15.739Z</time>
      </trkpt>
      <trkpt lat="47.18562" lon="-1.63172">
        <ele>54.314101</ele>
        <time>2021-11-11T08:21:17.750Z</time>
      </trkpt>
      <trkpt lat="47.18568" lon="-1.63183">
        <ele>54.390578</ele>
        <time>2021-11-11T08:21:19.686Z</time>
      </trkpt>
      <trkpt lat="47.18563" lon="-1.632">
        <ele>54.488168</ele>
        <time>2021-11-11T08:21:23.259Z</time>
      </trkpt>
      <trkpt lat="47.18556" lon="-1.63209">
        <ele>54.562939</ele>
        <time>2021-11-11T08:21:25.642Z</time>
      </trkpt>
      <trkpt lat="47.18554" lon="-1.63226">
        <ele>54.653044</ele>
        <time>2021-11-11T08:21:28.440Z</time>
      </trkpt>
      <trkpt lat="47.18559" lon="-1.63239">
        <ele>54.734348</ele>
        <time>2021-11-11T08:21:30.533Z</time>
      </trkpt>
      <trkpt lat="47.18567" lon="-1.63248">
        <ele>54.811253</ele>
        <time>2021-11-11T08:21:32.200Z</time>
      </trkpt>
      <trkpt lat="47.18574" lon="-1.63257">
        <ele>54.884386</ele>
        <time>2021-11-11T08:21:34.452Z</time>
      </trkpt>
      <trkpt lat="47.18582" lon="-1.63263">
        <ele>54.959254</ele>
        <time>2021-11-11T08:21:36.730Z</time>
      </trkpt>
      <trkpt lat="47.18589" lon="-1.63273">
        <ele>55.01786</ele>
        <time>2021-11-11T08:21:38.758Z</time>
      </trkpt>
      <trkpt lat="47.18595" lon="-1.63284">
        <ele>55.003011</ele>
        <time>2021-11-11T08:21:40.734Z</time>
      </trkpt>
      <trkpt lat="47.18602" lon="-1.63293">
        <ele>54.988355</ele>
        <time>2021-11-11T08:21:42.743Z</time>
      </trkpt>
      <trkpt lat="47.18608" lon="-1.63303">
        <ele>54.973876</ele>
        <time>2021-11-11T08:21:44.734Z</time>
      </trkpt>
      <trkpt lat="47.18614" lon="-1.63314">
        <ele>54.958985</ele>
        <time>2021-11-11T08:21:46.747Z</time>
      </trkpt>
      <trkpt lat="47.1862" lon="-1.63326">
        <ele>54.943533</ele>
        <time>2021-11-11T08:21:48.741Z</time>
      </trkpt>
      <trkpt lat="47.18625" lon="-1.63337">
        <ele>54.92904</ele>
        <time>2021-11-11T08:21:50.742Z</time>
      </trkpt>
      <trkpt lat="47.1863" lon="-1.63349">
        <ele>54.913666</ele>
        <time>2021-11-11T08:21:52.775Z</time>
      </trkpt>
      <trkpt lat="47.18636" lon="-1.6336">
        <ele>54.898557</ele>
        <time>2021-11-11T08:21:54.757Z</time>
      </trkpt>
      <trkpt lat="47.18641" lon="-1.63372">
        <ele>54.883458</ele>
        <time>2021-11-11T08:21:56.746Z</time>
      </trkpt>
      <trkpt lat="47.18645" lon="-1.63384">
        <ele>54.868708</ele>
        <time>2021-11-11T08:21:58.759Z</time>
      </trkpt>
      <trkpt lat="47.1865" lon="-1.63397">
        <ele>54.854083</ele>
        <time>2021-11-11T08:22:00.739Z</time>
      </trkpt>
      <trkpt lat="47.18654" lon="-1.63408">
        <ele>54.840052</ele>
        <time>2021-11-11T08:22:02.756Z</time>
      </trkpt>
      <trkpt lat="47.18661" lon="-1.63422">
        <ele>54.822178</ele>
        <time>2021-11-11T08:22:05.746Z</time>
      </trkpt>
      <trkpt lat="47.18671" lon="-1.63433">
        <ele>54.80149</ele>
        <time>2021-11-11T08:22:08.769Z</time>
      </trkpt>
      <trkpt lat="47.18679" lon="-1.63443">
        <ele>54.785357</ele>
        <time>2021-11-11T08:22:10.752Z</time>
      </trkpt>
      <trkpt lat="47.18687" lon="-1.63452">
        <ele>54.769709</ele>
        <time>2021-11-11T08:22:12.741Z</time>
      </trkpt>
      <trkpt lat="47.18693" lon="-1.63463">
        <ele>54.754148</ele>
        <time>2021-11-11T08:22:14.735Z</time>
      </trkpt>
      <trkpt lat="47.18699" lon="-1.63474">
        <ele>54.739401</ele>
        <time>2021-11-11T08:22:16.738Z</time>
      </trkpt>
      <trkpt lat="47.18704" lon="-1.63485">
        <ele>54.772948</ele>
        <time>2021-11-11T08:22:18.738Z</time>
      </trkpt>
      <trkpt lat="47.18711" lon="-1.635">
        <ele>54.82449</ele>
        <time>2021-11-11T08:22:21.763Z</time>
      </trkpt>
      <trkpt lat="47.18717" lon="-1.63511">
        <ele>54.864903</ele>
        <time>2021-11-11T08:22:23.734Z</time>
      </trkpt>
      <trkpt lat="47.18723" lon="-1.63522">
        <ele>54.908031</ele>
        <time>2021-11-11T08:22:25.746Z</time>
      </trkpt>
      <trkpt lat="47.18729" lon="-1.63534">
        <ele>54.950134</ele>
        <time>2021-11-11T08:22:27.749Z</time>
      </trkpt>
      <trkpt lat="47.18734" lon="-1.63546">
        <ele>54.992465</ele>
        <time>2021-11-11T08:22:29.753Z</time>
      </trkpt>
      <trkpt lat="47.18739" lon="-1.63559">
        <ele>55.035221</ele>
        <time>2021-11-11T08:22:31.718Z</time>
      </trkpt>
      <trkpt lat="47.18743" lon="-1.63572">
        <ele>55.078561</ele>
        <time>2021-11-11T08:22:33.727Z</time>
      </trkpt>
      <trkpt lat="47.18748" lon="-1.63586">
        <ele>55.12156</ele>
        <time>2021-11-11T08:22:35.722Z</time>
      </trkpt>
      <trkpt lat="47.18753" lon="-1.63597">
        <ele>55.160996</ele>
        <time>2021-11-11T08:22:37.731Z</time>
      </trkpt>
      <trkpt lat="47.18759" lon="-1.63609">
        <ele>55.20454</ele>
        <time>2021-11-11T08:22:40.752Z</time>
      </trkpt>
      <trkpt lat="47.18764" lon="-1.63622">
        <ele>55.250323</ele>
        <time>2021-11-11T08:22:43.190Z</time>
      </trkpt>
      <trkpt lat="47.1877" lon="-1.63642">
        <ele>55.314082</ele>
        <time>2021-11-11T08:22:46.722Z</time>
      </trkpt>
      <trkpt lat="47.18776" lon="-1.63655">
        <ele>55.359821</ele>
        <time>2021-11-11T08:22:48.718Z</time>
      </trkpt>
      <trkpt lat="47.18781" lon="-1.63668">
        <ele>55.402025</ele>
        <time>2021-11-11T08:22:50.727Z</time>
      </trkpt>
      <trkpt lat="47.18785" lon="-1.6368">
        <ele>55.444172</ele>
        <time>2021-11-11T08:22:52.720Z</time>
      </trkpt>
      <trkpt lat="47.1879" lon="-1.63693">
        <ele>55.486456</ele>
        <time>2021-11-11T08:22:54.724Z</time>
      </trkpt>
      <trkpt lat="47.18795" lon="-1.63707">
        <ele>55.523915</ele>
        <time>2021-11-11T08:22:56.723Z</time>
      </trkpt>
      <trkpt lat="47.18799" lon="-1.6372">
        <ele>55.550117</ele>
        <time>2021-11-11T08:22:58.752Z</time>
      </trkpt>
      <trkpt lat="47.18804" lon="-1.63734">
        <ele>55.576554</ele>
        <time>2021-11-11T08:23:00.720Z</time>
      </trkpt>
      <trkpt lat="47.18808" lon="-1.63747">
        <ele>55.602764</ele>
        <time>2021-11-11T08:23:02.718Z</time>
      </trkpt>
      <trkpt lat="47.18812" lon="-1.6376">
        <ele>55.628705</ele>
        <time>2021-11-11T08:23:04.722Z</time>
      </trkpt>
      <trkpt lat="47.18817" lon="-1.63774">
        <ele>55.65534</ele>
        <time>2021-11-11T08:23:06.718Z</time>
      </trkpt>
      <trkpt lat="47.18822" lon="-1.63787">
        <ele>55.682021</ele>
        <time>2021-11-11T08:23:08.730Z</time>
      </trkpt>
      <trkpt lat="47.18828" lon="-1.63799">
        <ele>55.708362</ele>
        <time>2021-11-11T08:23:10.712Z</time>
      </trkpt>
      <trkpt lat="47.18834" lon="-1.63812">
        <ele>55.735868</ele>
        <time>2021-11-11T08:23:12.735Z</time>
      </trkpt>
      <trkpt lat="47.18839" lon="-1.63824">
        <ele>55.761778</ele>
        <time>2021-11-11T08:23:14.740Z</time>
      </trkpt>
      <trkpt lat="47.18845" lon="-1.63836">
        <ele>55.78786</ele>
        <time>2021-11-11T08:23:16.712Z</time>
      </trkpt>
      <trkpt lat="47.18852" lon="-1.63848">
        <ele>55.814242</ele>
        <time>2021-11-11T08:23:18.740Z</time>
      </trkpt>
      <trkpt lat="47.18858" lon="-1.6386">
        <ele>55.841961</ele>
        <time>2021-11-11T08:23:20.732Z</time>
      </trkpt>
      <trkpt lat="47.18864" lon="-1.63873">
        <ele>55.869619</ele>
        <time>2021-11-11T08:23:22.729Z</time>
      </trkpt>
      <trkpt lat="47.18871" lon="-1.63885">
        <ele>55.897599</ele>
        <time>2021-11-11T08:23:24.739Z</time>
      </trkpt>
      <trkpt lat="47.18879" lon="-1.63896">
        <ele>55.925188</ele>
        <time>2021-11-11T08:23:26.740Z</time>
      </trkpt>
      <trkpt lat="47.18886" lon="-1.63906">
        <ele>55.952131</ele>
        <time>2021-11-11T08:23:28.741Z</time>
      </trkpt>
      <trkpt lat="47.18893" lon="-1.63917">
        <ele>55.978869</ele>
        <time>2021-11-11T08:23:30.740Z</time>
      </trkpt>
      <trkpt lat="47.189" lon="-1.63929">
        <ele>56.033167</ele>
        <time>2021-11-11T08:23:32.730Z</time>
      </trkpt>
      <trkpt lat="47.18906" lon="-1.6394">
        <ele>56.088613</ele>
        <time>2021-11-11T08:23:34.746Z</time>
      </trkpt>
      <trkpt lat="47.18913" lon="-1.6395">
        <ele>56.143776</ele>
        <time>2021-11-11T08:23:36.740Z</time>
      </trkpt>
      <trkpt lat="47.18919" lon="-1.63961">
        <ele>56.198283</ele>
        <time>2021-11-11T08:23:38.722Z</time>
      </trkpt>
      <trkpt lat="47.18926" lon="-1.63971">
        <ele>56.252674</ele>
        <time>2021-11-11T08:23:40.717Z</time>
      </trkpt>
      <trkpt lat="47.18933" lon="-1.63981">
        <ele>56.307604</ele>
        <time>2021-11-11T08:23:42.744Z</time>
      </trkpt>
      <trkpt lat="47.1894" lon="-1.63992">
        <ele>56.365726</ele>
        <time>2021-11-11T08:23:44.740Z</time>
      </trkpt>
      <trkpt lat="47.18947" lon="-1.64004">
        <ele>56.422766</ele>
        <time>2021-11-11T08:23:46.763Z</time>
      </trkpt>
      <trkpt lat="47.18953" lon="-1.64016">
        <ele>56.47968</ele>
        <time>2021-11-11T08:23:48.733Z</time>
      </trkpt>
      <trkpt lat="47.1896" lon="-1.64028">
        <ele>56.537961</ele>
        <time>2021-11-11T08:23:50.739Z</time>
      </trkpt>
      <trkpt lat="47.18966" lon="-1.64039">
        <ele>56.594838</ele>
        <time>2021-11-11T08:23:52.736Z</time>
      </trkpt>
      <trkpt lat="47.18973" lon="-1.6405">
        <ele>56.650284</ele>
        <time>2021-11-11T08:23:54.744Z</time>
      </trkpt>
      <trkpt lat="47.1898" lon="-1.64061">
        <ele>56.706013</ele>
        <time>2021-11-11T08:23:56.736Z</time>
      </trkpt>
      <trkpt lat="47.18986" lon="-1.64072">
        <ele>56.762315</ele>
        <time>2021-11-11T08:23:58.720Z</time>
      </trkpt>
      <trkpt lat="47.18993" lon="-1.64083">
        <ele>56.819192</ele>
        <time>2021-11-11T08:24:00.736Z</time>
      </trkpt>
      <trkpt lat="47.18999" lon="-1.64094">
        <ele>56.874637</ele>
        <time>2021-11-11T08:24:02.735Z</time>
      </trkpt>
      <trkpt lat="47.19006" lon="-1.64105">
        <ele>56.928693</ele>
        <time>2021-11-11T08:24:04.735Z</time>
      </trkpt>
      <trkpt lat="47.19012" lon="-1.64116">
        <ele>56.982261</ele>
        <time>2021-11-11T08:24:06.730Z</time>
      </trkpt>
      <trkpt lat="47.19019" lon="-1.64126">
        <ele>57.029338</ele>
        <time>2021-11-11T08:24:08.734Z</time>
      </trkpt>
      <trkpt lat="47.19025" lon="-1.64136">
        <ele>57.074766</ele>
        <time>2021-11-11T08:24:10.736Z</time>
      </trkpt>
      <trkpt lat="47.19032" lon="-1.64147">
        <ele>57.123064</ele>
        <time>2021-11-11T08:24:13.759Z</time>
      </trkpt>
      <trkpt lat="47.1904" lon="-1.64157">
        <ele>57.173506</ele>
        <time>2021-11-11T08:24:26.451Z</time>
      </trkpt>
      <trkpt lat="47.19048" lon="-1.64171">
        <ele>57.22986</ele>
        <time>2021-11-11T08:24:28.650Z</time>
      </trkpt>
      <trkpt lat="47.1905" lon="-1.64189">
        <ele>57.290597</ele>
        <time>2021-11-11T08:24:30.808Z</time>
      </trkpt>
      <trkpt lat="47.19048" lon="-1.64205">
        <ele>57.342627</ele>
        <time>2021-11-11T08:24:32.744Z</time>
      </trkpt>
      <trkpt lat="47.19045" lon="-1.6422">
        <ele>57.393745</ele>
        <time>2021-11-11T08:24:34.757Z</time>
      </trkpt>
      <trkpt lat="47.19042" lon="-1.64234">
        <ele>57.442866</ele>
        <time>2021-11-11T08:24:36.746Z</time>
      </trkpt>
      <trkpt lat="47.19037" lon="-1.64248">
        <ele>57.490264</ele>
        <time>2021-11-11T08:24:38.731Z</time>
      </trkpt>
      <trkpt lat="47.19034" lon="-1.64261">
        <ele>57.535862</ele>
        <time>2021-11-11T08:24:40.755Z</time>
      </trkpt>
      <trkpt lat="47.19035" lon="-1.64275">
        <ele>57.579533</ele>
        <time>2021-11-11T08:24:42.775Z</time>
      </trkpt>
      <trkpt lat="47.19034" lon="-1.64289">
        <ele>57.627515</ele>
        <time>2021-11-11T08:24:45.742Z</time>
      </trkpt>
      <trkpt lat="47.19032" lon="-1.64304">
        <ele>57.677108</ele>
        <time>2021-11-11T08:24:48.187Z</time>
      </trkpt>
      <trkpt lat="47.19031" lon="-1.64325">
        <ele>57.742453</ele>
        <time>2021-11-11T08:24:51.637Z</time>
      </trkpt>
      <trkpt lat="47.19039" lon="-1.64318">
        <ele>57.78623</ele>
        <time>2021-11-11T08:25:00.356Z</time>
      </trkpt>
      <trkpt lat="47.19049" lon="-1.64316">
        <ele>57.832254</ele>
        <time>2021-11-11T08:25:02.885Z</time>
      </trkpt>
      <trkpt lat="47.19058" lon="-1.64317">
        <ele>57.755304</ele>
        <time>2021-11-11T08:25:05.304Z</time>
      </trkpt>
      <trkpt lat="47.19067" lon="-1.64321">
        <ele>57.642949</ele>
        <time>2021-11-11T08:25:07.605Z</time>
      </trkpt>
      <trkpt lat="47.19071" lon="-1.64336">
        <ele>57.5146</ele>
        <time>2021-11-11T08:25:09.728Z</time>
      </trkpt>
      <trkpt lat="47.19069" lon="-1.64351">
        <ele>57.394616</ele>
        <time>2021-11-11T08:25:12.249Z</time>
      </trkpt>
      <trkpt lat="47.19065" lon="-1.64365">
        <ele>57.282976</ele>
        <time>2021-11-11T08:25:14.445Z</time>
      </trkpt>
      <trkpt lat="47.19063" lon="-1.64379">
        <ele>57.170617</ele>
        <time>2021-11-11T08:25:16.150Z</time>
      </trkpt>
      <trkpt lat="47.1906" lon="-1.64391">
        <ele>57.06586</ele>
        <time>2021-11-11T08:25:17.847Z</time>
      </trkpt>
      <trkpt lat="47.19056" lon="-1.64405">
        <ele>56.948588</ele>
        <time>2021-11-11T08:25:20.139Z</time>
      </trkpt>
      <trkpt lat="47.19049" lon="-1.64421">
        <ele>56.799534</ele>
        <time>2021-11-11T08:25:23.545Z</time>
      </trkpt>
      <trkpt lat="47.19041" lon="-1.64431">
        <ele>56.67734</ele>
        <time>2021-11-11T08:25:27.333Z</time>
      </trkpt>
      <trkpt lat="47.19029" lon="-1.64425">
        <ele>56.540369</ele>
        <time>2021-11-11T08:25:29.490Z</time>
      </trkpt>
      <trkpt lat="47.1902" lon="-1.64422">
        <ele>56.427836</ele>
        <time>2021-11-11T08:25:31.095Z</time>
      </trkpt>
      <trkpt lat="47.1901" lon="-1.64422">
        <ele>56.310202</ele>
        <time>2021-11-11T08:25:33.270Z</time>
      </trkpt>
      <trkpt lat="47.19001" lon="-1.6443">
        <ele>56.192962</ele>
        <time>2021-11-11T08:25:35.518Z</time>
      </trkpt>
      <trkpt lat="47.18998" lon="-1.64445">
        <ele>56.064547</ele>
        <time>2021-11-11T08:25:39.001Z</time>
      </trkpt>
      <trkpt lat="47.18995" lon="-1.64462">
        <ele>55.93082</ele>
        <time>2021-11-11T08:25:42.024Z</time>
      </trkpt>
      <trkpt lat="47.18993" lon="-1.64478">
        <ele>55.804689</ele>
        <time>2021-11-11T08:25:44.643Z</time>
      </trkpt>
      <trkpt lat="47.18993" lon="-1.64492">
        <ele>55.792684</ele>
        <time>2021-11-11T08:25:46.493Z</time>
      </trkpt>
      <trkpt lat="47.18992" lon="-1.64511">
        <ele>55.846779</ele>
        <time>2021-11-11T08:25:49.472Z</time>
      </trkpt>
      <trkpt lat="47.18991" lon="-1.64529">
        <ele>55.899313</ele>
        <time>2021-11-11T08:25:52.067Z</time>
      </trkpt>
      <trkpt lat="47.18991" lon="-1.64543">
        <ele>55.938626</ele>
        <time>2021-11-11T08:25:54.298Z</time>
      </trkpt>
      <trkpt lat="47.18994" lon="-1.64561">
        <ele>55.990844</ele>
        <time>2021-11-11T08:25:57.429Z</time>
      </trkpt>
      <trkpt lat="47.18995" lon="-1.64576">
        <ele>56.031908</ele>
        <time>2021-11-11T08:25:59.556Z</time>
      </trkpt>
      <trkpt lat="47.18996" lon="-1.64592">
        <ele>56.079726</ele>
        <time>2021-11-11T08:26:02.358Z</time>
      </trkpt>
      <trkpt lat="47.18994" lon="-1.64611">
        <ele>56.133847</ele>
        <time>2021-11-11T08:26:05.418Z</time>
      </trkpt>
      <trkpt lat="47.1899" lon="-1.6463">
        <ele>56.19059</ele>
        <time>2021-11-11T08:26:08.773Z</time>
      </trkpt>
      <trkpt lat="47.1899" lon="-1.64644">
        <ele>56.22849</ele>
        <time>2021-11-11T08:26:10.741Z</time>
      </trkpt>
      <trkpt lat="47.18989" lon="-1.64658">
        <ele>56.267327</ele>
        <time>2021-11-11T08:26:12.756Z</time>
      </trkpt>
      <trkpt lat="47.1899" lon="-1.64671">
        <ele>56.306064</ele>
        <time>2021-11-11T08:26:14.763Z</time>
      </trkpt>
      <trkpt lat="47.1899" lon="-1.64686">
        <ele>56.347129</ele>
        <time>2021-11-11T08:26:17.341Z</time>
      </trkpt>
      <trkpt lat="47.1899" lon="-1.64701">
        <ele>56.390953</ele>
        <time>2021-11-11T08:26:19.724Z</time>
      </trkpt>
      <trkpt lat="47.18991" lon="-1.64718">
        <ele>56.439436</ele>
        <time>2021-11-11T08:26:22.288Z</time>
      </trkpt>
      <trkpt lat="47.18989" lon="-1.64734">
        <ele>56.484114</ele>
        <time>2021-11-11T08:26:26.263Z</time>
      </trkpt>
      <trkpt lat="47.18988" lon="-1.64749">
        <ele>56.464573</ele>
        <time>2021-11-11T08:26:30.470Z</time>
      </trkpt>
      <trkpt lat="47.18986" lon="-1.64766">
        <ele>56.272424</ele>
        <time>2021-11-11T08:26:33.418Z</time>
      </trkpt>
      <trkpt lat="47.18986" lon="-1.64781">
        <ele>56.108872</ele>
        <time>2021-11-11T08:26:36.439Z</time>
      </trkpt>
      <trkpt lat="47.18986" lon="-1.64797">
        <ele>55.925591</ele>
        <time>2021-11-11T08:26:39.625Z</time>
      </trkpt>
      <trkpt lat="47.18985" lon="-1.64815">
        <ele>55.724494</ele>
        <time>2021-11-11T08:26:43.412Z</time>
      </trkpt>
      <trkpt lat="47.18981" lon="-1.64831">
        <ele>55.53436</ele>
        <time>2021-11-11T08:26:46.619Z</time>
      </trkpt>
      <trkpt lat="47.18982" lon="-1.64846">
        <ele>55.364915</ele>
        <time>2021-11-11T08:26:49.231Z</time>
      </trkpt>
      <trkpt lat="47.18984" lon="-1.64864">
        <ele>55.161484</ele>
        <time>2021-11-11T08:26:53.557Z</time>
      </trkpt>
      <trkpt lat="47.18983" lon="-1.64877">
        <ele>55.010256</ele>
        <time>2021-11-11T08:26:57.352Z</time>
      </trkpt>
      <trkpt lat="47.18984" lon="-1.64891">
        <ele>54.850305</ele>
        <time>2021-11-11T08:27:00.489Z</time>
      </trkpt>
      <trkpt lat="47.18987" lon="-1.64909">
        <ele>54.643723</ele>
        <time>2021-11-11T08:27:03.500Z</time>
      </trkpt>
      <trkpt lat="47.18987" lon="-1.64925">
        <ele>54.470558</ele>
        <time>2021-11-11T08:27:05.693Z</time>
      </trkpt>
      <trkpt lat="47.1899" lon="-1.6494">
        <ele>54.289989</ele>
        <time>2021-11-11T08:27:07.911Z</time>
      </trkpt>
      <trkpt lat="47.18995" lon="-1.64953">
        <ele>54.123215</ele>
        <time>2021-11-11T08:27:10.752Z</time>
      </trkpt>
      <trkpt lat="47.18997" lon="-1.64968">
        <ele>53.955276</ele>
        <time>2021-11-11T08:27:12.756Z</time>
      </trkpt>
      <trkpt lat="47.18999" lon="-1.64985">
        <ele>53.75876</ele>
        <time>2021-11-11T08:27:14.739Z</time>
      </trkpt>
      <trkpt lat="47.19" lon="-1.65003">
        <ele>53.557963</ele>
        <time>2021-11-11T08:27:16.745Z</time>
      </trkpt>
      <trkpt lat="47.18999" lon="-1.65017">
        <ele>53.583039</ele>
        <time>2021-11-11T08:27:18.745Z</time>
      </trkpt>
      <trkpt lat="47.19002" lon="-1.65031">
        <ele>53.633939</ele>
        <time>2021-11-11T08:27:21.310Z</time>
      </trkpt>
      <trkpt lat="47.19009" lon="-1.65041">
        <ele>53.68242</ele>
        <time>2021-11-11T08:27:23.626Z</time>
      </trkpt>
      <trkpt lat="47.19016" lon="-1.65052">
        <ele>53.73302</ele>
        <time>2021-11-11T08:27:25.722Z</time>
      </trkpt>
      <trkpt lat="47.19021" lon="-1.65064">
        <ele>53.784585</ele>
        <time>2021-11-11T08:27:28.349Z</time>
      </trkpt>
      <trkpt lat="47.1902" lon="-1.65084">
        <ele>53.852211</ele>
        <time>2021-11-11T08:27:31.185Z</time>
      </trkpt>
      <trkpt lat="47.19018" lon="-1.65098">
        <ele>53.902543</ele>
        <time>2021-11-11T08:27:33.519Z</time>
      </trkpt>
      <trkpt lat="47.19016" lon="-1.65116">
        <ele>53.967812</ele>
        <time>2021-11-11T08:27:36.219Z</time>
      </trkpt>
      <trkpt lat="47.19015" lon="-1.6513">
        <ele>54.016929</ele>
        <time>2021-11-11T08:27:38.319Z</time>
      </trkpt>
      <trkpt lat="47.19007" lon="-1.65145">
        <ele>54.081093</ele>
        <time>2021-11-11T08:27:41.680Z</time>
      </trkpt>
      <trkpt lat="47.19001" lon="-1.65157">
        <ele>54.134144</ele>
        <time>2021-11-11T08:27:44.729Z</time>
      </trkpt>
      <trkpt lat="47.19004" lon="-1.65173">
        <ele>54.18925</ele>
        <time>2021-11-11T08:27:47.585Z</time>
      </trkpt>
      <trkpt lat="47.19008" lon="-1.65185">
        <ele>54.238596</ele>
        <time>2021-11-11T08:27:49.318Z</time>
      </trkpt>
      <trkpt lat="47.19008" lon="-1.65204">
        <ele>54.302967</ele>
        <time>2021-11-11T08:27:52.262Z</time>
      </trkpt>
      <trkpt lat="47.19008" lon="-1.65218">
        <ele>54.351527</ele>
        <time>2021-11-11T08:27:54.837Z</time>
      </trkpt>
      <trkpt lat="47.19014" lon="-1.65232">
        <ele>54.409162</ele>
        <time>2021-11-11T08:27:57.578Z</time>
      </trkpt>
      <trkpt lat="47.19018" lon="-1.65245">
        <ele>54.458282</ele>
        <time>2021-11-11T08:27:59.657Z</time>
      </trkpt>
      <trkpt lat="47.1902" lon="-1.65261">
        <ele>54.418346</ele>
        <time>2021-11-11T08:28:03.169Z</time>
      </trkpt>
      <trkpt lat="47.19011" lon="-1.65269">
        <ele>54.377731</ele>
        <time>2021-11-11T08:28:06.424Z</time>
      </trkpt>
      <trkpt lat="47.19002" lon="-1.6527">
        <ele>54.341072</ele>
        <time>2021-11-11T08:28:12.409Z</time>
      </trkpt>
      <trkpt lat="47.18992" lon="-1.65267">
        <ele>54.299697</ele>
        <time>2021-11-11T08:29:28.330Z</time>
      </trkpt>
      <trkpt lat="47.18981" lon="-1.65271">
        <ele>54.253978</ele>
        <time>2021-11-11T08:29:32.387Z</time>
      </trkpt>
      <trkpt lat="47.18965" lon="-1.6527">
        <ele>54.191923</ele>
        <time>2021-11-11T08:29:35.748Z</time>
      </trkpt>
      <trkpt lat="47.18954" lon="-1.65267">
        <ele>54.145545</ele>
        <time>2021-11-11T08:29:37.733Z</time>
      </trkpt>
      <trkpt lat="47.18943" lon="-1.65262">
        <ele>54.100806</ele>
        <time>2021-11-11T08:29:39.753Z</time>
      </trkpt>
      <trkpt lat="47.18934" lon="-1.65257">
        <ele>54.064385</ele>
        <time>2021-11-11T08:29:41.725Z</time>
      </trkpt>
      <trkpt lat="47.18925" lon="-1.65253">
        <ele>54.028129</ele>
        <time>2021-11-11T08:29:43.756Z</time>
      </trkpt>
      <trkpt lat="47.18916" lon="-1.65249">
        <ele>53.990406</ele>
        <time>2021-11-11T08:29:45.748Z</time>
      </trkpt>
      <trkpt lat="47.18907" lon="-1.65244">
        <ele>53.949057</ele>
        <time>2021-11-11T08:29:47.615Z</time>
      </trkpt>
      <trkpt lat="47.18895" lon="-1.65238">
        <ele>53.900282</ele>
        <time>2021-11-11T08:29:49.945Z</time>
      </trkpt>
      <trkpt lat="47.18886" lon="-1.65233">
        <ele>53.862252</ele>
        <time>2021-11-11T08:29:52.733Z</time>
      </trkpt>
      <trkpt lat="47.18877" lon="-1.65227">
        <ele>53.823897</ele>
        <time>2021-11-11T08:29:54.786Z</time>
      </trkpt>
      <trkpt lat="47.18869" lon="-1.6522">
        <ele>53.785283</ele>
        <time>2021-11-11T08:29:56.751Z</time>
      </trkpt>
      <trkpt lat="47.1886" lon="-1.65216">
        <ele>53.746967</ele>
        <time>2021-11-11T08:29:58.763Z</time>
      </trkpt>
      <trkpt lat="47.1885" lon="-1.65207">
        <ele>53.639641</ele>
        <time>2021-11-11T08:30:01.228Z</time>
      </trkpt>
      <trkpt lat="47.1884" lon="-1.65204">
        <ele>53.548204</ele>
        <time>2021-11-11T08:30:04.008Z</time>
      </trkpt>
      <trkpt lat="47.1883" lon="-1.65198">
        <ele>53.442993</ele>
        <time>2021-11-11T08:30:06.366Z</time>
      </trkpt>
      <trkpt lat="47.18821" lon="-1.65189">
        <ele>53.34206</ele>
        <time>2021-11-11T08:30:09.286Z</time>
      </trkpt>
      <trkpt lat="47.18809" lon="-1.6518">
        <ele>53.214124</ele>
        <time>2021-11-11T08:30:12.542Z</time>
      </trkpt>
      <trkpt lat="47.18797" lon="-1.65169">
        <ele>53.074313</ele>
        <time>2021-11-11T08:30:15.757Z</time>
      </trkpt>
      <trkpt lat="47.18789" lon="-1.6516">
        <ele>52.976921</ele>
        <time>2021-11-11T08:30:19.316Z</time>
      </trkpt>
      <trkpt lat="47.1878" lon="-1.65153">
        <ele>52.882292</ele>
        <time>2021-11-11T08:30:21.430Z</time>
      </trkpt>
      <trkpt lat="47.1877" lon="-1.65147">
        <ele>52.782993</ele>
        <time>2021-11-11T08:30:23.553Z</time>
      </trkpt>
      <trkpt lat="47.18762" lon="-1.6514">
        <ele>52.693382</ele>
        <time>2021-11-11T08:30:25.753Z</time>
      </trkpt>
      <trkpt lat="47.18753" lon="-1.65138">
        <ele>52.606869</ele>
        <time>2021-11-11T08:30:27.414Z</time>
      </trkpt>
      <trkpt lat="47.18743" lon="-1.6513">
        <ele>52.493746</ele>
        <time>2021-11-11T08:30:30.111Z</time>
      </trkpt>
      <trkpt lat="47.18733" lon="-1.65125">
        <ele>52.40204</ele>
        <time>2021-11-11T08:30:32.409Z</time>
      </trkpt>
      <trkpt lat="47.18722" lon="-1.6512">
        <ele>52.286963</ele>
        <time>2021-11-11T08:30:35.325Z</time>
      </trkpt>
      <trkpt lat="47.18713" lon="-1.65116">
        <ele>52.19873</ele>
        <time>2021-11-11T08:30:37.751Z</time>
      </trkpt>
      <trkpt lat="47.18704" lon="-1.65113">
        <ele>52.106089</ele>
        <time>2021-11-11T08:30:39.742Z</time>
      </trkpt>
      <trkpt lat="47.18694" lon="-1.65109">
        <ele>52.021857</ele>
        <time>2021-11-11T08:30:41.747Z</time>
      </trkpt>
      <trkpt lat="47.18686" lon="-1.65105">
        <ele>51.969563</ele>
        <time>2021-11-11T08:30:43.740Z</time>
      </trkpt>
      <trkpt lat="47.18676" lon="-1.65103">
        <ele>51.914882</ele>
        <time>2021-11-11T08:30:45.393Z</time>
      </trkpt>
      <trkpt lat="47.18667" lon="-1.65105">
        <ele>51.860971</ele>
        <time>2021-11-11T08:30:48.547Z</time>
      </trkpt>
      <trkpt lat="47.18656" lon="-1.65093">
        <ele>51.784341</ele>
        <time>2021-11-11T08:30:50.737Z</time>
      </trkpt>
      <trkpt lat="47.18647" lon="-1.65088">
        <ele>51.730443</ele>
        <time>2021-11-11T08:30:52.739Z</time>
      </trkpt>
      <trkpt lat="47.18637" lon="-1.65086">
        <ele>51.675368</ele>
        <time>2021-11-11T08:30:54.786Z</time>
      </trkpt>
      <trkpt lat="47.18629" lon="-1.65083">
        <ele>51.623019</ele>
        <time>2021-11-11T08:30:56.763Z</time>
      </trkpt>
      <trkpt lat="47.1862" lon="-1.65075">
        <ele>51.563225</ele>
        <time>2021-11-11T08:30:58.287Z</time>
      </trkpt>
      <trkpt lat="47.18609" lon="-1.65074">
        <ele>51.504815</ele>
        <time>2021-11-11T08:31:00.739Z</time>
      </trkpt>
      <trkpt lat="47.18601" lon="-1.6507">
        <ele>51.452849</ele>
        <time>2021-11-11T08:31:02.777Z</time>
      </trkpt>
      <trkpt lat="47.18592" lon="-1.65061">
        <ele>51.391582</ele>
        <time>2021-11-11T08:31:04.656Z</time>
      </trkpt>
      <trkpt lat="47.1858" lon="-1.65061">
        <ele>51.324119</ele>
        <time>2021-11-11T08:31:07.181Z</time>
      </trkpt>
      <trkpt lat="47.1857" lon="-1.65057">
        <ele>51.264804</ele>
        <time>2021-11-11T08:31:10.735Z</time>
      </trkpt>
      <trkpt lat="47.18558" lon="-1.65051">
        <ele>51.194009</ele>
        <time>2021-11-11T08:31:13.760Z</time>
      </trkpt>
      <trkpt lat="47.18546" lon="-1.65044">
        <ele>51.120394</ele>
        <time>2021-11-11T08:31:16.500Z</time>
      </trkpt>
      <trkpt lat="47.18539" lon="-1.65033">
        <ele>51.058122</ele>
        <time>2021-11-11T08:31:19.050Z</time>
      </trkpt>
      <trkpt lat="47.1853" lon="-1.65025">
        <ele>51.011292</ele>
        <time>2021-11-11T08:31:21.254Z</time>
      </trkpt>
      <trkpt lat="47.18519" lon="-1.65021">
        <ele>51.135415</ele>
        <time>2021-11-11T08:31:24.469Z</time>
      </trkpt>
      <trkpt lat="47.18509" lon="-1.65013">
        <ele>51.252747</ele>
        <time>2021-11-11T08:31:27.600Z</time>
      </trkpt>
      <trkpt lat="47.18501" lon="-1.65">
        <ele>51.373281</ele>
        <time>2021-11-11T08:31:30.001Z</time>
      </trkpt>
      <trkpt lat="47.18493" lon="-1.64993">
        <ele>51.471772</ele>
        <time>2021-11-11T08:31:32.063Z</time>
      </trkpt>
      <trkpt lat="47.18482" lon="-1.64984">
        <ele>51.607847</ele>
        <time>2021-11-11T08:31:35.734Z</time>
      </trkpt>
      <trkpt lat="47.18471" lon="-1.64974">
        <ele>51.743001</ele>
        <time>2021-11-11T08:31:37.964Z</time>
      </trkpt>
      <trkpt lat="47.1846" lon="-1.64967">
        <ele>51.870528</ele>
        <time>2021-11-11T08:31:41.444Z</time>
      </trkpt>
      <trkpt lat="47.18453" lon="-1.64953">
        <ele>52.001429</ele>
        <time>2021-11-11T08:31:43.751Z</time>
      </trkpt>
      <trkpt lat="47.18442" lon="-1.64942">
        <ele>52.140734</ele>
        <time>2021-11-11T08:31:46.595Z</time>
      </trkpt>
      <trkpt lat="47.18435" lon="-1.64933">
        <ele>52.237725</ele>
        <time>2021-11-11T08:31:48.753Z</time>
      </trkpt>
      <trkpt lat="47.18431" lon="-1.64919">
        <ele>52.345693</ele>
        <time>2021-11-11T08:31:51.517Z</time>
      </trkpt>
      <trkpt lat="47.18433" lon="-1.64906">
        <ele>52.442848</ele>
        <time>2021-11-11T08:31:53.190Z</time>
      </trkpt>
      <trkpt lat="47.1843" lon="-1.64891">
        <ele>52.552422</ele>
        <time>2021-11-11T08:31:55.281Z</time>
      </trkpt>
      <trkpt lat="47.1842" lon="-1.64879">
        <ele>52.682854</ele>
        <time>2021-11-11T08:31:59.394Z</time>
      </trkpt>
      <trkpt lat="47.18413" lon="-1.64888">
        <ele>52.784636</ele>
        <time>2021-11-11T08:32:02.170Z</time>
      </trkpt>
      <trkpt lat="47.18411" lon="-1.64904">
        <ele>52.903814</ele>
        <time>2021-11-11T08:32:06.725Z</time>
      </trkpt>
      <trkpt lat="47.18408" lon="-1.64917">
        <ele>52.89797</ele>
        <time>2021-11-11T08:32:08.347Z</time>
      </trkpt>
      <trkpt lat="47.18406" lon="-1.64935">
        <ele>52.887023</ele>
        <time>2021-11-11T08:32:11.564Z</time>
      </trkpt>
      <trkpt lat="47.18403" lon="-1.64951">
        <ele>52.877041</ele>
        <time>2021-11-11T08:32:13.633Z</time>
      </trkpt>
      <trkpt lat="47.184" lon="-1.64965">
        <ele>52.868429</ele>
        <time>2021-11-11T08:32:15.559Z</time>
      </trkpt>
      <trkpt lat="47.18391" lon="-1.64974">
        <ele>52.858762</ele>
        <time>2021-11-11T08:32:18.657Z</time>
      </trkpt>
      <trkpt lat="47.18386" lon="-1.64988">
        <ele>52.849303</ele>
        <time>2021-11-11T08:32:20.774Z</time>
      </trkpt>
      <trkpt lat="47.1838" lon="-1.65003">
        <ele>52.838732</ele>
        <time>2021-11-11T08:32:23.484Z</time>
      </trkpt>
      <trkpt lat="47.18372" lon="-1.65018">
        <ele>52.827458</ele>
        <time>2021-11-11T08:32:26.739Z</time>
      </trkpt>
      <trkpt lat="47.18368" lon="-1.6503">
        <ele>52.819265</ele>
        <time>2021-11-11T08:32:28.120Z</time>
      </trkpt>
      <trkpt lat="47.18361" lon="-1.65043">
        <ele>52.809591</ele>
        <time>2021-11-11T08:32:30.248Z</time>
      </trkpt>
      <trkpt lat="47.18355" lon="-1.65057">
        <ele>52.799826</ele>
        <time>2021-11-11T08:32:32.543Z</time>
      </trkpt>
      <trkpt lat="47.1836" lon="-1.65071">
        <ele>52.790463</ele>
        <time>2021-11-11T08:32:35.134Z</time>
      </trkpt>
      <trkpt lat="47.18373" lon="-1.65078">
        <ele>52.778771</ele>
        <time>2021-11-11T08:32:38.064Z</time>
      </trkpt>
      <trkpt lat="47.18383" lon="-1.6508">
        <ele>52.769901</ele>
        <time>2021-11-11T08:32:40.166Z</time>
      </trkpt>
      <trkpt lat="47.18395" lon="-1.65084">
        <ele>52.758996</ele>
        <time>2021-11-11T08:32:42.386Z</time>
      </trkpt>
      <trkpt lat="47.18406" lon="-1.6509">
        <ele>52.748745</ele>
        <time>2021-11-11T08:32:45.759Z</time>
      </trkpt>
      <trkpt lat="47.18414" lon="-1.65106">
        <ele>52.357545</ele>
        <time>2021-11-11T08:32:48.737Z</time>
      </trkpt>
      <trkpt lat="47.18419" lon="-1.65118">
        <ele>52.072941</ele>
        <time>2021-11-11T08:32:50.728Z</time>
      </trkpt>
      <trkpt lat="47.18424" lon="-1.65132">
        <ele>51.757897</ele>
        <time>2021-11-11T08:32:52.743Z</time>
      </trkpt>
      <trkpt lat="47.18428" lon="-1.65144">
        <ele>51.468668</ele>
        <time>2021-11-11T08:32:54.738Z</time>
      </trkpt>
      <trkpt lat="47.18432" lon="-1.65159">
        <ele>51.14338</ele>
        <time>2021-11-11T08:32:56.733Z</time>
      </trkpt>
      <trkpt lat="47.18435" lon="-1.65173">
        <ele>50.856579</ele>
        <time>2021-11-11T08:32:58.739Z</time>
      </trkpt>
      <trkpt lat="47.18436" lon="-1.65188">
        <ele>50.535684</ele>
        <time>2021-11-11T08:33:00.745Z</time>
      </trkpt>
      <trkpt lat="47.18439" lon="-1.65205">
        <ele>50.186364</ele>
        <time>2021-11-11T08:33:03.779Z</time>
      </trkpt>
      <trkpt lat="47.18443" lon="-1.65219">
        <ele>49.866067</ele>
        <time>2021-11-11T08:33:05.740Z</time>
      </trkpt>
      <trkpt lat="47.18449" lon="-1.65232">
        <ele>49.55332</ele>
        <time>2021-11-11T08:33:07.736Z</time>
      </trkpt>
      <trkpt lat="47.18457" lon="-1.65239">
        <ele>49.282717</ele>
        <time>2021-11-11T08:33:09.575Z</time>
      </trkpt>
      <trkpt lat="47.18455" lon="-1.65255">
        <ele>48.94161</ele>
        <time>2021-11-11T08:33:12.731Z</time>
      </trkpt>
      <trkpt lat="47.18456" lon="-1.65268">
        <ele>48.67258</ele>
        <time>2021-11-11T08:33:14.550Z</time>
      </trkpt>
      <trkpt lat="47.18459" lon="-1.65283">
        <ele>48.358091</ele>
        <time>2021-11-11T08:33:16.755Z</time>
      </trkpt>
      <trkpt lat="47.18458" lon="-1.65297">
        <ele>48.055325</ele>
        <time>2021-11-11T08:33:18.746Z</time>
      </trkpt>
      <trkpt lat="47.18456" lon="-1.6531">
        <ele>47.776904</ele>
        <time>2021-11-11T08:33:21.523Z</time>
      </trkpt>
      <trkpt lat="47.18455" lon="-1.65326">
        <ele>47.459961</ele>
        <time>2021-11-11T08:33:22.987Z</time>
      </trkpt>
      <trkpt lat="47.18454" lon="-1.6534">
        <ele>47.315704</ele>
        <time>2021-11-11T08:33:25.753Z</time>
      </trkpt>
      <trkpt lat="47.18455" lon="-1.65353">
        <ele>47.275052</ele>
        <time>2021-11-11T08:33:27.067Z</time>
      </trkpt>
      <trkpt lat="47.18461" lon="-1.65371">
        <ele>47.216789</ele>
        <time>2021-11-11T08:33:30.006Z</time>
      </trkpt>
      <trkpt lat="47.18467" lon="-1.65383">
        <ele>47.17456</ele>
        <time>2021-11-11T08:33:31.905Z</time>
      </trkpt>
      <trkpt lat="47.1847" lon="-1.654">
        <ele>47.123837</ele>
        <time>2021-11-11T08:33:35.315Z</time>
      </trkpt>
      <trkpt lat="47.18474" lon="-1.65414">
        <ele>47.078813</ele>
        <time>2021-11-11T08:33:37.069Z</time>
      </trkpt>
      <trkpt lat="47.1848" lon="-1.65429">
        <ele>47.027633</ele>
        <time>2021-11-11T08:33:39.733Z</time>
      </trkpt>
      <trkpt lat="47.18486" lon="-1.6544">
        <ele>46.986876</ele>
        <time>2021-11-11T08:33:41.747Z</time>
      </trkpt>
      <trkpt lat="47.18492" lon="-1.6545">
        <ele>46.947152</ele>
        <time>2021-11-11T08:33:43.759Z</time>
      </trkpt>
      <trkpt lat="47.18501" lon="-1.65459">
        <ele>46.899445</ele>
        <time>2021-11-11T08:33:46.494Z</time>
      </trkpt>
      <trkpt lat="47.18511" lon="-1.65466">
        <ele>46.852305</ele>
        <time>2021-11-11T08:33:48.741Z</time>
      </trkpt>
      <trkpt lat="47.1852" lon="-1.65473">
        <ele>46.807346</ele>
        <time>2021-11-11T08:33:50.732Z</time>
      </trkpt>
      <trkpt lat="47.18529" lon="-1.65482">
        <ele>46.760917</ele>
        <time>2021-11-11T08:33:52.736Z</time>
      </trkpt>
      <trkpt lat="47.18539" lon="-1.65489">
        <ele>46.713774</ele>
        <time>2021-11-11T08:33:54.718Z</time>
      </trkpt>
      <trkpt lat="47.18548" lon="-1.65502">
        <ele>46.660142</ele>
        <time>2021-11-11T08:33:56.729Z</time>
      </trkpt>
      <trkpt lat="47.18557" lon="-1.65513">
        <ele>46.608772</ele>
        <time>2021-11-11T08:33:58.767Z</time>
      </trkpt>
      <trkpt lat="47.18564" lon="-1.65522">
        <ele>46.567227</ele>
        <time>2021-11-11T08:34:00.754Z</time>
      </trkpt>
      <trkpt lat="47.18571" lon="-1.65533">
        <ele>46.67251</ele>
        <time>2021-11-11T08:34:03.741Z</time>
      </trkpt>
      <trkpt lat="47.18567" lon="-1.65546">
        <ele>46.791846</ele>
        <time>2021-11-11T08:34:06.737Z</time>
      </trkpt>
      <trkpt lat="47.18556" lon="-1.65553">
        <ele>46.933923</ele>
        <time>2021-11-11T08:34:10.420Z</time>
      </trkpt>
      <trkpt lat="47.18544" lon="-1.65553">
        <ele>47.073855</ele>
        <time>2021-11-11T08:34:11.881Z</time>
      </trkpt>
      <trkpt lat="47.18536" lon="-1.65556">
        <ele>47.181867</ele>
        <time>2021-11-11T08:34:14.667Z</time>
      </trkpt>
      <trkpt lat="47.18529" lon="-1.65565">
        <ele>47.288641</ele>
        <time>2021-11-11T08:34:15.992Z</time>
      </trkpt>
      <trkpt lat="47.18535" lon="-1.65578">
        <ele>47.414546</ele>
        <time>2021-11-11T08:34:18.224Z</time>
      </trkpt>
      <trkpt lat="47.18537" lon="-1.65592">
        <ele>47.529753</ele>
        <time>2021-11-11T08:34:20.672Z</time>
      </trkpt>
      <trkpt lat="47.18545" lon="-1.65604">
        <ele>47.665227</ele>
        <time>2021-11-11T08:34:23.269Z</time>
      </trkpt>
      <trkpt lat="47.18556" lon="-1.65606">
        <ele>47.800397</ele>
        <time>2021-11-11T08:34:25.914Z</time>
      </trkpt>
      <trkpt lat="47.18567" lon="-1.65607">
        <ele>47.921582</ele>
        <time>2021-11-11T08:34:28.677Z</time>
      </trkpt>
      <trkpt lat="47.18576" lon="-1.65619">
        <ele>48.065494</ele>
        <time>2021-11-11T08:34:31.622Z</time>
      </trkpt>
      <trkpt lat="47.18575" lon="-1.65638">
        <ele>48.211329</ele>
        <time>2021-11-11T08:34:33.747Z</time>
      </trkpt>
      <trkpt lat="47.18579" lon="-1.65653">
        <ele>48.338664</ele>
        <time>2021-11-11T08:34:35.770Z</time>
      </trkpt>
      <trkpt lat="47.18586" lon="-1.65664">
        <ele>48.463631</ele>
        <time>2021-11-11T08:34:37.731Z</time>
      </trkpt>
      <trkpt lat="47.18594" lon="-1.65674">
        <ele>48.591253</ele>
        <time>2021-11-11T08:34:39.728Z</time>
      </trkpt>
      <trkpt lat="47.18598" lon="-1.6569">
        <ele>48.754485</ele>
        <time>2021-11-11T08:34:41.719Z</time>
      </trkpt>
      <trkpt lat="47.186" lon="-1.65703">
        <ele>48.947381</ele>
        <time>2021-11-11T08:34:43.006Z</time>
      </trkpt>
      <trkpt lat="47.18605" lon="-1.65715">
        <ele>49.143452</ele>
        <time>2021-11-11T08:34:45.752Z</time>
      </trkpt>
      <trkpt lat="47.18612" lon="-1.65725">
        <ele>49.347402</ele>
        <time>2021-11-11T08:34:47.727Z</time>
      </trkpt>
      <trkpt lat="47.18619" lon="-1.65735">
        <ele>49.547337</ele>
        <time>2021-11-11T08:34:49.747Z</time>
      </trkpt>
      <trkpt lat="47.18624" lon="-1.65747">
        <ele>49.751729</ele>
        <time>2021-11-11T08:34:51.753Z</time>
      </trkpt>
      <trkpt lat="47.18628" lon="-1.6576">
        <ele>49.946445</ele>
        <time>2021-11-11T08:34:53.736Z</time>
      </trkpt>
      <trkpt lat="47.18636" lon="-1.65776">
        <ele>50.233174</ele>
        <time>2021-11-11T08:34:57.506Z</time>
      </trkpt>
      <trkpt lat="47.18648" lon="-1.65797">
        <ele>50.607181</ele>
        <time>2021-11-11T08:35:00.752Z</time>
      </trkpt>
      <trkpt lat="47.18656" lon="-1.65807">
        <ele>50.8355</ele>
        <time>2021-11-11T08:35:02.734Z</time>
      </trkpt>
      <trkpt lat="47.18663" lon="-1.65817">
        <ele>51.039829</ele>
        <time>2021-11-11T08:35:04.746Z</time>
      </trkpt>
      <trkpt lat="47.18671" lon="-1.65827">
        <ele>51.259975</ele>
        <time>2021-11-11T08:35:06.529Z</time>
      </trkpt>
      <trkpt lat="47.18681" lon="-1.65839">
        <ele>51.517382</ele>
        <time>2021-11-11T08:35:09.740Z</time>
      </trkpt>
      <trkpt lat="47.18689" lon="-1.65849">
        <ele>51.745009</ele>
        <time>2021-11-11T08:35:11.741Z</time>
      </trkpt>
      <trkpt lat="47.18698" lon="-1.65858">
        <ele>51.962208</ele>
        <time>2021-11-11T08:35:13.740Z</time>
      </trkpt>
      <trkpt lat="47.18705" lon="-1.6587">
        <ele>52.182192</ele>
        <time>2021-11-11T08:35:15.766Z</time>
      </trkpt>
      <trkpt lat="47.18711" lon="-1.65883">
        <ele>52.402475</ele>
        <time>2021-11-11T08:35:17.741Z</time>
      </trkpt>
      <trkpt lat="47.18715" lon="-1.65896">
        <ele>52.478465</ele>
        <time>2021-11-11T08:35:19.738Z</time>
      </trkpt>
      <trkpt lat="47.1872" lon="-1.65912">
        <ele>52.554566</ele>
        <time>2021-11-11T08:35:22.745Z</time>
      </trkpt>
      <trkpt lat="47.18724" lon="-1.65929">
        <ele>52.626931</ele>
        <time>2021-11-11T08:35:25.749Z</time>
      </trkpt>
      <trkpt lat="47.18721" lon="-1.65951">
        <ele>52.720163</ele>
        <time>2021-11-11T08:35:29.657Z</time>
      </trkpt>
      <trkpt lat="47.1872" lon="-1.65966">
        <ele>52.785264</ele>
        <time>2021-11-11T08:35:30.974Z</time>
      </trkpt>
      <trkpt lat="47.18727" lon="-1.65979">
        <ele>52.853316</ele>
        <time>2021-11-11T08:35:32.947Z</time>
      </trkpt>
      <trkpt lat="47.18731" lon="-1.65994">
        <ele>52.920685</ele>
        <time>2021-11-11T08:35:36.101Z</time>
      </trkpt>
      <trkpt lat="47.18737" lon="-1.66004">
        <ele>52.978907</ele>
        <time>2021-11-11T08:35:38.374Z</time>
      </trkpt>
      <trkpt lat="47.18746" lon="-1.66012">
        <ele>53.041391</ele>
        <time>2021-11-11T08:35:43.350Z</time>
      </trkpt>
      <trkpt lat="47.18749" lon="-1.66025">
        <ele>53.100078</ele>
        <time>2021-11-11T08:35:47.517Z</time>
      </trkpt>
      <trkpt lat="47.18757" lon="-1.66036">
        <ele>53.166355</ele>
        <time>2021-11-11T08:35:49.726Z</time>
      </trkpt>
      <trkpt lat="47.18764" lon="-1.66048">
        <ele>53.231473</ele>
        <time>2021-11-11T08:35:52.471Z</time>
      </trkpt>
      <trkpt lat="47.18765" lon="-1.66063">
        <ele>53.294604</ele>
        <time>2021-11-11T08:35:55.353Z</time>
      </trkpt>
      <trkpt lat="47.18765" lon="-1.66077">
        <ele>53.352575</ele>
        <time>2021-11-11T08:35:58.269Z</time>
      </trkpt>
      <trkpt lat="47.18765" lon="-1.6609">
        <ele>53.410077</ele>
        <time>2021-11-11T08:36:00.744Z</time>
      </trkpt>
      <trkpt lat="47.18763" lon="-1.66105">
        <ele>53.471384</ele>
        <time>2021-11-11T08:36:02.760Z</time>
      </trkpt>
      <trkpt lat="47.18759" lon="-1.66117">
        <ele>53.529351</ele>
        <time>2021-11-11T08:36:04.689Z</time>
      </trkpt>
      <trkpt lat="47.18763" lon="-1.66131">
        <ele>53.996871</ele>
        <time>2021-11-11T08:36:11.760Z</time>
      </trkpt>
      <trkpt lat="47.18769" lon="-1.66145">
        <ele>54.526773</ele>
        <time>2021-11-11T08:36:15.593Z</time>
      </trkpt>
      <trkpt lat="47.18774" lon="-1.66156">
        <ele>54.964421</ele>
        <time>2021-11-11T08:36:17.245Z</time>
      </trkpt>
      <trkpt lat="47.1878" lon="-1.66169">
        <ele>55.475101</ele>
        <time>2021-11-11T08:36:20.291Z</time>
      </trkpt>
      <trkpt lat="47.18773" lon="-1.66185">
        <ele>56.077617</ele>
        <time>2021-11-11T08:36:30.631Z</time>
      </trkpt>
      <trkpt lat="47.18768" lon="-1.66196">
        <ele>56.524123</ele>
        <time>2021-11-11T08:36:33.492Z</time>
      </trkpt>
      <trkpt lat="47.18759" lon="-1.66209">
        <ele>57.119575</ele>
        <time>2021-11-11T08:36:37.577Z</time>
      </trkpt>
      <trkpt lat="47.18754" lon="-1.66221">
        <ele>57.592785</ele>
        <time>2021-11-11T08:36:40.732Z</time>
      </trkpt>
      <trkpt lat="47.18761" lon="-1.66211">
        <ele>58.077223</ele>
        <time>2021-11-11T08:37:16.544Z</time>
      </trkpt>
      <trkpt lat="47.18766" lon="-1.66199">
        <ele>58.525589</ele>
        <time>2021-11-11T08:37:23.739Z</time>
      </trkpt>
      <trkpt lat="47.18759" lon="-1.66213">
        <ele>59.07483</ele>
        <time>2021-11-11T08:37:58.201Z</time>
      </trkpt>
      <trkpt lat="47.18754" lon="-1.66224">
        <ele>59.537005</ele>
        <time>2021-11-11T08:38:01.413Z</time>
      </trkpt>
      <trkpt lat="47.18757" lon="-1.66238">
        <ele>60.019094</ele>
        <time>2021-11-11T08:38:05.426Z</time>
      </trkpt>
      <trkpt lat="47.18765" lon="-1.66247">
        <ele>60.494314</ele>
        <time>2021-11-11T08:38:24.990Z</time>
      </trkpt>
      <trkpt lat="47.18773" lon="-1.66252">
        <ele>60.932208</ele>
        <time>2021-11-11T08:38:33.139Z</time>
      </trkpt>
      <trkpt lat="47.18779" lon="-1.66262">
        <ele>61.36845</ele>
        <time>2021-11-11T08:38:47.074Z</time>
      </trkpt>
      <trkpt lat="47.18779" lon="-1.66275">
        <ele>61.802398</ele>
        <time>2021-11-11T08:39:06.736Z</time>
      </trkpt>
      <trkpt lat="47.18778" lon="-1.6629">
        <ele>62.181709</ele>
        <time>2021-11-11T08:39:12.604Z</time>
      </trkpt>
      <trkpt lat="47.18775" lon="-1.66303">
        <ele>61.827784</ele>
        <time>2021-11-11T08:39:15.526Z</time>
      </trkpt>
      <trkpt lat="47.18773" lon="-1.66316">
        <ele>61.481215</ele>
        <time>2021-11-11T08:39:18.113Z</time>
      </trkpt>
      <trkpt lat="47.18774" lon="-1.66332">
        <ele>61.093602</ele>
        <time>2021-11-11T08:39:22.264Z</time>
      </trkpt>
      <trkpt lat="47.18778" lon="-1.66344">
        <ele>60.741306</ele>
        <time>2021-11-11T08:39:25.746Z</time>
      </trkpt>
      <trkpt lat="47.18781" lon="-1.66361">
        <ele>60.296755</ele>
        <time>2021-11-11T08:39:29.590Z</time>
      </trkpt>
      <trkpt lat="47.18782" lon="-1.66375">
        <ele>59.944185</ele>
        <time>2021-11-11T08:39:31.938Z</time>
      </trkpt>
      <trkpt lat="47.18782" lon="-1.6639">
        <ele>59.576248</ele>
        <time>2021-11-11T08:39:34.467Z</time>
      </trkpt>
      <trkpt lat="47.18777" lon="-1.66404">
        <ele>59.173367</ele>
        <time>2021-11-11T08:39:36.970Z</time>
      </trkpt>
      <trkpt lat="47.18767" lon="-1.6642">
        <ele>58.61138</ele>
        <time>2021-11-11T08:39:39.754Z</time>
      </trkpt>
      <trkpt lat="47.18762" lon="-1.66434">
        <ele>58.208</ele>
        <time>2021-11-11T08:39:41.847Z</time>
      </trkpt>
      <trkpt lat="47.18753" lon="-1.66442">
        <ele>57.827186</ele>
        <time>2021-11-11T08:39:44.190Z</time>
      </trkpt>
      <trkpt lat="47.18746" lon="-1.66452">
        <ele>57.453927</ele>
        <time>2021-11-11T08:39:49.573Z</time>
      </trkpt>
      <trkpt lat="47.1875" lon="-1.66467">
        <ele>57.017076</ele>
        <time>2021-11-11T08:39:52.007Z</time>
      </trkpt>
      <trkpt lat="47.18758" lon="-1.66479">
        <ele>56.617437</ele>
        <time>2021-11-11T08:39:54.242Z</time>
      </trkpt>
      <trkpt lat="47.18767" lon="-1.66484">
        <ele>56.251239</ele>
        <time>2021-11-11T08:39:56.587Z</time>
      </trkpt>
      <trkpt lat="47.18776" lon="-1.66484">
        <ele>55.892814</ele>
        <time>2021-11-11T08:39:59.638Z</time>
      </trkpt>
      <trkpt lat="47.18786" lon="-1.66475">
        <ele>55.507655</ele>
        <time>2021-11-11T08:40:03.138Z</time>
      </trkpt>
      <trkpt lat="47.18775" lon="-1.66479">
        <ele>55.37958</ele>
        <time>2021-11-11T08:40:12.097Z</time>
      </trkpt>
      <trkpt lat="47.18765" lon="-1.66483">
        <ele>55.246644</ele>
        <time>2021-11-11T08:40:15.747Z</time>
      </trkpt>
      <trkpt lat="47.18762" lon="-1.66497">
        <ele>55.12587</ele>
        <time>2021-11-11T08:40:17.506Z</time>
      </trkpt>
      <trkpt lat="47.18765" lon="-1.66517">
        <ele>54.946212</ele>
        <time>2021-11-11T08:40:20.668Z</time>
      </trkpt>
      <trkpt lat="47.18768" lon="-1.6653">
        <ele>54.834377</ele>
        <time>2021-11-11T08:40:22.744Z</time>
      </trkpt>
      <trkpt lat="47.18771" lon="-1.66544">
        <ele>54.70775</ele>
        <time>2021-11-11T08:40:24.417Z</time>
      </trkpt>
      <trkpt lat="47.18774" lon="-1.6656">
        <ele>54.568305</ele>
        <time>2021-11-11T08:40:26.731Z</time>
      </trkpt>
      <trkpt lat="47.18776" lon="-1.66575">
        <ele>54.441832</ele>
        <time>2021-11-11T08:40:28.749Z</time>
      </trkpt>
      <trkpt lat="47.18778" lon="-1.66589">
        <ele>54.320318</ele>
        <time>2021-11-11T08:40:30.739Z</time>
      </trkpt>
      <trkpt lat="47.1878" lon="-1.66603">
        <ele>54.19574</ele>
        <time>2021-11-11T08:40:32.738Z</time>
      </trkpt>
      <trkpt lat="47.18782" lon="-1.66618">
        <ele>54.074102</ele>
        <time>2021-11-11T08:40:34.756Z</time>
      </trkpt>
      <trkpt lat="47.18784" lon="-1.66632">
        <ele>53.947379</ele>
        <time>2021-11-11T08:40:36.735Z</time>
      </trkpt>
      <trkpt lat="47.18786" lon="-1.66647">
        <ele>53.818179</ele>
        <time>2021-11-11T08:40:38.748Z</time>
      </trkpt>
      <trkpt lat="47.18788" lon="-1.66662">
        <ele>53.693388</ele>
        <time>2021-11-11T08:40:40.732Z</time>
      </trkpt>
      <trkpt lat="47.18791" lon="-1.66675">
        <ele>53.572335</ele>
        <time>2021-11-11T08:40:42.731Z</time>
      </trkpt>
      <trkpt lat="47.18793" lon="-1.6669">
        <ele>53.446929</ele>
        <time>2021-11-11T08:40:44.742Z</time>
      </trkpt>
      <trkpt lat="47.18795" lon="-1.66703">
        <ele>53.330095</ele>
        <time>2021-11-11T08:40:46.761Z</time>
      </trkpt>
      <trkpt lat="47.18798" lon="-1.66718">
        <ele>53.155232</ele>
        <time>2021-11-11T08:40:49.735Z</time>
      </trkpt>
      <trkpt lat="47.188" lon="-1.66734">
        <ele>52.922987</ele>
        <time>2021-11-11T08:40:52.305Z</time>
      </trkpt>
      <trkpt lat="47.18804" lon="-1.66756">
        <ele>52.602071</ele>
        <time>2021-11-11T08:40:55.721Z</time>
      </trkpt>
      <trkpt lat="47.18808" lon="-1.66775">
        <ele>52.333949</ele>
        <time>2021-11-11T08:40:57.728Z</time>
      </trkpt>
      <trkpt lat="47.18813" lon="-1.66791">
        <ele>52.078365</ele>
        <time>2021-11-11T08:40:59.741Z</time>
      </trkpt>
      <trkpt lat="47.18816" lon="-1.66807">
        <ele>51.848696</ele>
        <time>2021-11-11T08:41:01.739Z</time>
      </trkpt>
      <trkpt lat="47.18822" lon="-1.6682">
        <ele>51.641625</ele>
        <time>2021-11-11T08:41:03.745Z</time>
      </trkpt>
      <trkpt lat="47.18827" lon="-1.66831">
        <ele>51.446009</ele>
        <time>2021-11-11T08:41:05.420Z</time>
      </trkpt>
      <trkpt lat="47.1883" lon="-1.66846">
        <ele>51.224148</ele>
        <time>2021-11-11T08:41:08.405Z</time>
      </trkpt>
      <trkpt lat="47.18831" lon="-1.66861">
        <ele>51.014285</ele>
        <time>2021-11-11T08:41:11.025Z</time>
      </trkpt>
      <trkpt lat="47.18835" lon="-1.66874">
        <ele>50.808425</ele>
        <time>2021-11-11T08:41:14.193Z</time>
      </trkpt>
      <trkpt lat="47.18839" lon="-1.66889">
        <ele>50.582055</ele>
        <time>2021-11-11T08:41:17.154Z</time>
      </trkpt>
      <trkpt lat="47.18839" lon="-1.66903">
        <ele>50.396017</ele>
        <time>2021-11-11T08:41:19.141Z</time>
      </trkpt>
      <trkpt lat="47.18841" lon="-1.66917">
        <ele>50.183771</ele>
        <time>2021-11-11T08:41:21.754Z</time>
      </trkpt>
      <trkpt lat="47.18843" lon="-1.66934">
        <ele>49.946927</ele>
        <time>2021-11-11T08:41:24.682Z</time>
      </trkpt>
      <trkpt lat="47.18846" lon="-1.66953">
        <ele>49.674006</ele>
        <time>2021-11-11T08:41:27.409Z</time>
      </trkpt>
      <trkpt lat="47.18847" lon="-1.66969">
        <ele>50.029837</ele>
        <time>2021-11-11T08:41:30.372Z</time>
      </trkpt>
      <trkpt lat="47.1885" lon="-1.66985">
        <ele>50.870479</ele>
        <time>2021-11-11T08:41:33.513Z</time>
      </trkpt>
      <trkpt lat="47.18851" lon="-1.66999">
        <ele>51.536839</ele>
        <time>2021-11-11T08:41:35.434Z</time>
      </trkpt>
      <trkpt lat="47.18853" lon="-1.67013">
        <ele>52.235551</ele>
        <time>2021-11-11T08:41:37.558Z</time>
      </trkpt>
      <trkpt lat="47.18857" lon="-1.67028">
        <ele>53.035849</ele>
        <time>2021-11-11T08:41:40.750Z</time>
      </trkpt>
      <trkpt lat="47.18863" lon="-1.67042">
        <ele>53.866271</ele>
        <time>2021-11-11T08:41:43.223Z</time>
      </trkpt>
      <trkpt lat="47.18868" lon="-1.67054">
        <ele>54.561566</ele>
        <time>2021-11-11T08:41:47.367Z</time>
      </trkpt>
      <trkpt lat="47.18868" lon="-1.67068">
        <ele>55.25197</ele>
        <time>2021-11-11T08:41:53.694Z</time>
      </trkpt>
      <trkpt lat="47.1887" lon="-1.67082">
        <ele>55.95068</ele>
        <time>2021-11-11T08:41:56.845Z</time>
      </trkpt>
      <trkpt lat="47.18869" lon="-1.67096">
        <ele>56.602316</ele>
        <time>2021-11-11T08:42:00.932Z</time>
      </trkpt>
      <trkpt lat="47.18863" lon="-1.67111">
        <ele>57.466394</ele>
        <time>2021-11-11T08:42:06.503Z</time>
      </trkpt>
      <trkpt lat="47.18855" lon="-1.6712">
        <ele>58.206921</ele>
        <time>2021-11-11T08:42:09.283Z</time>
      </trkpt>
      <trkpt lat="47.1885" lon="-1.67131">
        <ele>58.875092</ele>
        <time>2021-11-11T08:42:14.565Z</time>
      </trkpt>
      <trkpt lat="47.18851" lon="-1.67145">
        <ele>59.535421</ele>
        <time>2021-11-11T08:42:30.439Z</time>
      </trkpt>
      <trkpt lat="47.18858" lon="-1.67155">
        <ele>60.232164</ele>
        <time>2021-11-11T08:42:37.628Z</time>
      </trkpt>
      <trkpt lat="47.18862" lon="-1.67167">
        <ele>60.908565</ele>
        <time>2021-11-11T08:42:47.539Z</time>
      </trkpt>
      <trkpt lat="47.18862" lon="-1.6718">
        <ele>61.569064</ele>
        <time>2021-11-11T08:42:55.828Z</time>
      </trkpt>
      <trkpt lat="47.18858" lon="-1.67193">
        <ele>62.246313</ele>
        <time>2021-11-11T08:43:06.525Z</time>
      </trkpt>
      <trkpt lat="47.18859" lon="-1.67236">
        <ele>64.504388</ele>
        <time>2021-11-11T08:45:12.522Z</time>
      </trkpt>
      <trkpt lat="47.18863" lon="-1.67249">
        <ele>65.276978</ele>
        <time>2021-11-11T08:45:17.018Z</time>
      </trkpt>
      <trkpt lat="47.18865" lon="-1.67264">
        <ele>66.112748</ele>
        <time>2021-11-11T08:45:23.276Z</time>
      </trkpt>
      <trkpt lat="47.18868" lon="-1.67279">
        <ele>66.930863</ele>
        <time>2021-11-11T08:45:28.193Z</time>
      </trkpt>
      <trkpt lat="47.1887" lon="-1.67293">
        <ele>67.699898</ele>
        <time>2021-11-11T08:45:34.402Z</time>
      </trkpt>
      <trkpt lat="47.18874" lon="-1.67312">
        <ele>68.783142</ele>
        <time>2021-11-11T08:45:39.482Z</time>
      </trkpt>
      <trkpt lat="47.18877" lon="-1.67326">
        <ele>69.541804</ele>
        <time>2021-11-11T08:45:43.619Z</time>
      </trkpt>
      <trkpt lat="47.18875" lon="-1.67341">
        <ele>70.351554</ele>
        <time>2021-11-11T08:45:47.501Z</time>
      </trkpt>
      <trkpt lat="47.18879" lon="-1.67354">
        <ele>71.143455</ele>
        <time>2021-11-11T08:45:50.155Z</time>
      </trkpt>
      <trkpt lat="47.18884" lon="-1.67368">
        <ele>71.979807</ele>
        <time>2021-11-11T08:45:53.458Z</time>
      </trkpt>
      <trkpt lat="47.18889" lon="-1.67382">
        <ele>72.84116</ele>
        <time>2021-11-11T08:45:56.777Z</time>
      </trkpt>
      <trkpt lat="47.18892" lon="-1.67396">
        <ele>73.606358</ele>
        <time>2021-11-11T08:46:00.111Z</time>
      </trkpt>
      <trkpt lat="47.18896" lon="-1.67415">
        <ele>74.667832</ele>
        <time>2021-11-11T08:46:03.666Z</time>
      </trkpt>
      <trkpt lat="47.18899" lon="-1.67427">
        <ele>75.370292</ele>
        <time>2021-11-11T08:46:06.030Z</time>
      </trkpt>
      <trkpt lat="47.18906" lon="-1.67438">
        <ele>76.181029</ele>
        <time>2021-11-11T08:46:09.298Z</time>
      </trkpt>
      <trkpt lat="47.18914" lon="-1.67446">
        <ele>76.779798</ele>
        <time>2021-11-11T08:46:12.553Z</time>
      </trkpt>
      <trkpt lat="47.18918" lon="-1.67459">
        <ele>76.982704</ele>
        <time>2021-11-11T08:46:14.842Z</time>
      </trkpt>
      <trkpt lat="47.18919" lon="-1.67472">
        <ele>77.184081</ele>
        <time>2021-11-11T08:46:18.178Z</time>
      </trkpt>
      <trkpt lat="47.18915" lon="-1.67485">
        <ele>77.407118</ele>
        <time>2021-11-11T08:46:21.930Z</time>
      </trkpt>
      <trkpt lat="47.18913" lon="-1.67499">
        <ele>77.60742</ele>
        <time>2021-11-11T08:46:25.100Z</time>
      </trkpt>
      <trkpt lat="47.18914" lon="-1.67514">
        <ele>77.84341</ele>
        <time>2021-11-11T08:46:29.675Z</time>
      </trkpt>
      <trkpt lat="47.18917" lon="-1.67527">
        <ele>78.045408</ele>
        <time>2021-11-11T08:46:33.104Z</time>
      </trkpt>
      <trkpt lat="47.1892" lon="-1.6754">
        <ele>78.247786</ele>
        <time>2021-11-11T08:46:36.358Z</time>
      </trkpt>
      <trkpt lat="47.18921" lon="-1.67554">
        <ele>78.448581</ele>
        <time>2021-11-11T08:46:40.012Z</time>
      </trkpt>
      <trkpt lat="47.18929" lon="-1.67565">
        <ele>78.692412</ele>
        <time>2021-11-11T08:46:45.594Z</time>
      </trkpt>
      <trkpt lat="47.18936" lon="-1.67574">
        <ele>78.896396</ele>
        <time>2021-11-11T08:46:48.238Z</time>
      </trkpt>
      <trkpt lat="47.18939" lon="-1.67591">
        <ele>79.163712</ele>
        <time>2021-11-11T08:46:52.028Z</time>
      </trkpt>
      <trkpt lat="47.18931" lon="-1.67609">
        <ele>79.468812</ele>
        <time>2021-11-11T08:46:55.464Z</time>
      </trkpt>
      <trkpt lat="47.18925" lon="-1.67622">
        <ele>79.697882</ele>
        <time>2021-11-11T08:47:00.614Z</time>
      </trkpt>
      <trkpt lat="47.18921" lon="-1.67634">
        <ele>79.907693</ele>
        <time>2021-11-11T08:47:27.731Z</time>
      </trkpt>
      <trkpt lat="47.18929" lon="-1.67667">
        <ele>80.433918</ele>
        <time>2021-11-11T08:47:31.757Z</time>
      </trkpt>
      <trkpt lat="47.18934" lon="-1.67681">
        <ele>80.643039</ele>
        <time>2021-11-11T08:47:33.157Z</time>
      </trkpt>
      <trkpt lat="47.18938" lon="-1.67695">
        <ele>80.642275</ele>
        <time>2021-11-11T08:47:36.131Z</time>
      </trkpt>
      <trkpt lat="47.18935" lon="-1.67708">
        <ele>80.641607</ele>
        <time>2021-11-11T08:47:45.698Z</time>
      </trkpt>
      <trkpt lat="47.18927" lon="-1.67715">
        <ele>80.640894</ele>
        <time>2021-11-11T08:47:56.605Z</time>
      </trkpt>
      <trkpt lat="47.18918" lon="-1.6772">
        <ele>80.640213</ele>
        <time>2021-11-11T08:48:07.357Z</time>
      </trkpt>
      <trkpt lat="47.18909" lon="-1.67727">
        <ele>80.639517</ele>
        <time>2021-11-11T08:48:11.389Z</time>
      </trkpt>
      <trkpt lat="47.18903" lon="-1.67737">
        <ele>80.638835</ele>
        <time>2021-11-11T08:48:15.285Z</time>
      </trkpt>
      <trkpt lat="47.18902" lon="-1.67751">
        <ele>80.638158</ele>
        <time>2021-11-11T08:48:18.385Z</time>
      </trkpt>
      <trkpt lat="47.18905" lon="-1.67764">
        <ele>80.637494</ele>
        <time>2021-11-11T08:48:20.596Z</time>
      </trkpt>
      <trkpt lat="47.18908" lon="-1.67782">
        <ele>80.636577</ele>
        <time>2021-11-11T08:48:23.276Z</time>
      </trkpt>
      <trkpt lat="47.18914" lon="-1.67793">
        <ele>80.635872</ele>
        <time>2021-11-11T08:48:25.758Z</time>
      </trkpt>
      <trkpt lat="47.18916" lon="-1.67813">
        <ele>80.634852</ele>
        <time>2021-11-11T08:48:28.737Z</time>
      </trkpt>
      <trkpt lat="47.18917" lon="-1.67833">
        <ele>80.633913</ele>
        <time>2021-11-11T08:48:30.742Z</time>
      </trkpt>
      <trkpt lat="47.18918" lon="-1.67851">
        <ele>80.633018</ele>
        <time>2021-11-11T08:48:32.730Z</time>
      </trkpt>
      <trkpt lat="47.18919" lon="-1.67867">
        <ele>80.632226</ele>
        <time>2021-11-11T08:48:34.762Z</time>
      </trkpt>
      <trkpt lat="47.1892" lon="-1.6788">
        <ele>80.631553</ele>
        <time>2021-11-11T08:48:37.752Z</time>
      </trkpt>
      <trkpt lat="47.1892" lon="-1.67895">
        <ele>80.630827</ele>
        <time>2021-11-11T08:48:40.143Z</time>
      </trkpt>
      <trkpt lat="47.18926" lon="-1.67908">
        <ele>80.628692</ele>
        <time>2021-11-11T08:48:43.452Z</time>
      </trkpt>
      <trkpt lat="47.18929" lon="-1.67921">
        <ele>80.520941</ele>
        <time>2021-11-11T08:48:45.551Z</time>
      </trkpt>
      <trkpt lat="47.18935" lon="-1.67936">
        <ele>80.384158</ele>
        <time>2021-11-11T08:48:48.294Z</time>
      </trkpt>
      <trkpt lat="47.18941" lon="-1.67949">
        <ele>80.258445</ele>
        <time>2021-11-11T08:48:51.132Z</time>
      </trkpt>
      <trkpt lat="47.18947" lon="-1.6796">
        <ele>80.150772</ele>
        <time>2021-11-11T08:48:53.740Z</time>
      </trkpt>
      <trkpt lat="47.18954" lon="-1.67973">
        <ele>80.017715</ele>
        <time>2021-11-11T08:48:56.850Z</time>
      </trkpt>
      <trkpt lat="47.18961" lon="-1.67986">
        <ele>79.891925</ele>
        <time>2021-11-11T08:48:59.831Z</time>
      </trkpt>
      <trkpt lat="47.18968" lon="-1.67997">
        <ele>79.778132</ele>
        <time>2021-11-11T08:49:02.233Z</time>
      </trkpt>
      <trkpt lat="47.18975" lon="-1.68007">
        <ele>79.658858</ele>
        <time>2021-11-11T08:49:04.883Z</time>
      </trkpt>
      <trkpt lat="47.18982" lon="-1.68021">
        <ele>79.527297</ele>
        <time>2021-11-11T08:49:07.587Z</time>
      </trkpt>
      <trkpt lat="47.18989" lon="-1.68035">
        <ele>79.393756</ele>
        <time>2021-11-11T08:49:10.570Z</time>
      </trkpt>
      <trkpt lat="47.19002" lon="-1.68027">
        <ele>79.230391</ele>
        <time>2021-11-11T08:49:14.749Z</time>
      </trkpt>
      <trkpt lat="47.19014" lon="-1.68019">
        <ele>79.081058</ele>
        <time>2021-11-11T08:49:16.728Z</time>
      </trkpt>
      <trkpt lat="47.19029" lon="-1.68018">
        <ele>78.913454</ele>
        <time>2021-11-11T08:49:18.730Z</time>
      </trkpt>
      <trkpt lat="47.19044" lon="-1.68021">
        <ele>78.736092</ele>
        <time>2021-11-11T08:49:20.736Z</time>
      </trkpt>
      <trkpt lat="47.19059" lon="-1.68027">
        <ele>78.554171</ele>
        <time>2021-11-11T08:49:22.724Z</time>
      </trkpt>
      <trkpt lat="47.19069" lon="-1.6803">
        <ele>78.341827</ele>
        <time>2021-11-11T08:49:24.733Z</time>
      </trkpt>
      <trkpt lat="47.1908" lon="-1.68035">
        <ele>78.115376</ele>
        <time>2021-11-11T08:49:27.745Z</time>
      </trkpt>
      <trkpt lat="47.19088" lon="-1.68048">
        <ele>77.874342</ele>
        <time>2021-11-11T08:49:30.734Z</time>
      </trkpt>
      <trkpt lat="47.19097" lon="-1.68052">
        <ele>77.68982</ele>
        <time>2021-11-11T08:49:32.703Z</time>
      </trkpt>
      <trkpt lat="47.19099" lon="-1.6807">
        <ele>77.444558</ele>
        <time>2021-11-11T08:49:34.752Z</time>
      </trkpt>
      <trkpt lat="47.19104" lon="-1.68086">
        <ele>77.199963</ele>
        <time>2021-11-11T08:49:36.914Z</time>
      </trkpt>
      <trkpt lat="47.19108" lon="-1.68104">
        <ele>76.951515</ele>
        <time>2021-11-11T08:49:40.746Z</time>
      </trkpt>
      <trkpt lat="47.19114" lon="-1.6812">
        <ele>76.701648</ele>
        <time>2021-11-11T08:49:43.563Z</time>
      </trkpt>
      <trkpt lat="47.1912" lon="-1.6814">
        <ele>76.402409</ele>
        <time>2021-11-11T08:49:46.696Z</time>
      </trkpt>
      <trkpt lat="47.19122" lon="-1.68154">
        <ele>76.202838</ele>
        <time>2021-11-11T08:49:48.746Z</time>
      </trkpt>
      <trkpt lat="47.19122" lon="-1.68173">
        <ele>75.947753</ele>
        <time>2021-11-11T08:49:51.762Z</time>
      </trkpt>
      <trkpt lat="47.19121" lon="-1.68192">
        <ele>75.686794</ele>
        <time>2021-11-11T08:49:53.752Z</time>
      </trkpt>
      <trkpt lat="47.1912" lon="-1.6821">
        <ele>75.442143</ele>
        <time>2021-11-11T08:49:55.726Z</time>
      </trkpt>
      <trkpt lat="47.19118" lon="-1.68224">
        <ele>75.24561</ele>
        <time>2021-11-11T08:49:57.767Z</time>
      </trkpt>
      <trkpt lat="47.19118" lon="-1.68244">
        <ele>74.974298</ele>
        <time>2021-11-11T08:50:01.567Z</time>
      </trkpt>
      <trkpt lat="47.19125" lon="-1.68255">
        <ele>74.99265</ele>
        <time>2021-11-11T08:50:03.457Z</time>
      </trkpt>
      <trkpt lat="47.19136" lon="-1.68265">
        <ele>75.042541</ele>
        <time>2021-11-11T08:50:05.872Z</time>
      </trkpt>
      <trkpt lat="47.19146" lon="-1.6827">
        <ele>75.078685</ele>
        <time>2021-11-11T08:50:09.425Z</time>
      </trkpt>
      <trkpt lat="47.19152" lon="-1.68283">
        <ele>75.116826</ele>
        <time>2021-11-11T08:50:11.524Z</time>
      </trkpt>
      <trkpt lat="47.19155" lon="-1.68295">
        <ele>75.15052</ele>
        <time>2021-11-11T08:50:14.274Z</time>
      </trkpt>
      <trkpt lat="47.19158" lon="-1.68311">
        <ele>75.190973</ele>
        <time>2021-11-11T08:50:17.764Z</time>
      </trkpt>
      <trkpt lat="47.19158" lon="-1.68324">
        <ele>75.224138</ele>
        <time>2021-11-11T08:50:19.138Z</time>
      </trkpt>
      <trkpt lat="47.19155" lon="-1.68343">
        <ele>75.273397</ele>
        <time>2021-11-11T08:50:21.932Z</time>
      </trkpt>
      <trkpt lat="47.19152" lon="-1.68358">
        <ele>75.310911</ele>
        <time>2021-11-11T08:50:24.745Z</time>
      </trkpt>
      <trkpt lat="47.19152" lon="-1.68371">
        <ele>75.344558</ele>
        <time>2021-11-11T08:50:26.739Z</time>
      </trkpt>
      <trkpt lat="47.19152" lon="-1.68385">
        <ele>75.377986</ele>
        <time>2021-11-11T08:50:28.757Z</time>
      </trkpt>
      <trkpt lat="47.19153" lon="-1.684">
        <ele>75.416955</ele>
        <time>2021-11-11T08:50:30.742Z</time>
      </trkpt>
      <trkpt lat="47.19154" lon="-1.68416">
        <ele>75.456348</ele>
        <time>2021-11-11T08:50:32.737Z</time>
      </trkpt>
      <trkpt lat="47.19154" lon="-1.68432">
        <ele>75.496475</ele>
        <time>2021-11-11T08:50:34.749Z</time>
      </trkpt>
      <trkpt lat="47.19156" lon="-1.68448">
        <ele>75.536837</ele>
        <time>2021-11-11T08:50:36.766Z</time>
      </trkpt>
      <trkpt lat="47.19158" lon="-1.68463">
        <ele>75.574276</ele>
        <time>2021-11-11T08:50:38.751Z</time>
      </trkpt>
      <trkpt lat="47.1915" lon="-1.68477">
        <ele>75.613654</ele>
        <time>2021-11-11T08:50:41.777Z</time>
      </trkpt>
      <trkpt lat="47.19139" lon="-1.68481">
        <ele>75.09045</ele>
        <time>2021-11-11T08:50:44.733Z</time>
      </trkpt>
      <trkpt lat="47.19127" lon="-1.68481">
        <ele>74.559697</ele>
        <time>2021-11-11T08:50:48.755Z</time>
      </trkpt>
      <trkpt lat="47.19123" lon="-1.68496">
        <ele>74.040751</ele>
        <time>2021-11-11T08:50:52.260Z</time>
      </trkpt>
      <trkpt lat="47.19128" lon="-1.68508">
        <ele>73.599208</ele>
        <time>2021-11-11T08:50:54.058Z</time>
      </trkpt>
      <trkpt lat="47.19133" lon="-1.68521">
        <ele>73.14633</ele>
        <time>2021-11-11T08:50:56.442Z</time>
      </trkpt>
      <trkpt lat="47.19137" lon="-1.68533">
        <ele>72.740117</ele>
        <time>2021-11-11T08:50:58.177Z</time>
      </trkpt>
      <trkpt lat="47.19142" lon="-1.68545">
        <ele>72.301564</ele>
        <time>2021-11-11T08:51:01.751Z</time>
      </trkpt>
      <trkpt lat="47.19147" lon="-1.68557">
        <ele>71.877624</ele>
        <time>2021-11-11T08:51:03.755Z</time>
      </trkpt>
      <trkpt lat="47.19151" lon="-1.68571">
        <ele>71.408816</ele>
        <time>2021-11-11T08:51:05.749Z</time>
      </trkpt>
      <trkpt lat="47.19154" lon="-1.68586">
        <ele>70.899308</ele>
        <time>2021-11-11T08:51:07.736Z</time>
      </trkpt>
      <trkpt lat="47.19158" lon="-1.68604">
        <ele>70.34416</ele>
        <time>2021-11-11T08:51:09.739Z</time>
      </trkpt>
      <trkpt lat="47.19163" lon="-1.68618">
        <ele>69.857266</ele>
        <time>2021-11-11T08:51:11.745Z</time>
      </trkpt>
      <trkpt lat="47.19168" lon="-1.68631">
        <ele>69.388721</ele>
        <time>2021-11-11T08:51:13.737Z</time>
      </trkpt>
      <trkpt lat="47.19171" lon="-1.68646">
        <ele>68.904079</ele>
        <time>2021-11-11T08:51:15.755Z</time>
      </trkpt>
      <trkpt lat="47.19163" lon="-1.68655">
        <ele>68.462637</ele>
        <time>2021-11-11T08:51:17.748Z</time>
      </trkpt>
      <trkpt lat="47.19155" lon="-1.6866">
        <ele>68.047546</ele>
        <time>2021-11-11T08:51:20.732Z</time>
      </trkpt>
      <trkpt lat="47.19157" lon="-1.68674">
        <ele>67.602263</ele>
        <time>2021-11-11T08:51:23.469Z</time>
      </trkpt>
      <trkpt lat="47.19166" lon="-1.68689">
        <ele>67.508677</ele>
        <time>2021-11-11T08:51:26.320Z</time>
      </trkpt>
      <trkpt lat="47.19174" lon="-1.68681">
        <ele>67.553612</ele>
        <time>2021-11-11T08:51:28.102Z</time>
      </trkpt>
      <trkpt lat="47.19184" lon="-1.68684">
        <ele>67.595846</ele>
        <time>2021-11-11T08:51:29.769Z</time>
      </trkpt>
      <trkpt lat="47.19197" lon="-1.68697">
        <ele>67.667232</ele>
        <time>2021-11-11T08:51:31.757Z</time>
      </trkpt>
      <trkpt lat="47.19207" lon="-1.68711">
        <ele>67.7329</ele>
        <time>2021-11-11T08:51:33.751Z</time>
      </trkpt>
      <trkpt lat="47.19217" lon="-1.6872">
        <ele>67.784418</ele>
        <time>2021-11-11T08:51:35.746Z</time>
      </trkpt>
      <trkpt lat="47.19226" lon="-1.68725">
        <ele>67.825875</ele>
        <time>2021-11-11T08:51:37.746Z</time>
      </trkpt>
      <trkpt lat="47.19232" lon="-1.68735">
        <ele>67.867392</ele>
        <time>2021-11-11T08:51:39.775Z</time>
      </trkpt>
      <trkpt lat="47.19233" lon="-1.6875">
        <ele>67.916429</ele>
        <time>2021-11-11T08:51:41.660Z</time>
      </trkpt>
      <trkpt lat="47.19235" lon="-1.68764">
        <ele>67.959591</ele>
        <time>2021-11-11T08:51:44.751Z</time>
      </trkpt>
      <trkpt lat="47.19239" lon="-1.68781">
        <ele>68.013791</ele>
        <time>2021-11-11T08:51:47.407Z</time>
      </trkpt>
      <trkpt lat="47.19239" lon="-1.68797">
        <ele>68.062469</ele>
        <time>2021-11-11T08:51:50.467Z</time>
      </trkpt>
      <trkpt lat="47.1924" lon="-1.68812">
        <ele>68.110038</ele>
        <time>2021-11-11T08:51:53.407Z</time>
      </trkpt>
      <trkpt lat="47.19237" lon="-1.68828">
        <ele>68.159763</ele>
        <time>2021-11-11T08:51:56.543Z</time>
      </trkpt>
      <trkpt lat="47.19237" lon="-1.68842">
        <ele>68.204752</ele>
        <time>2021-11-11T08:52:00.755Z</time>
      </trkpt>
      <trkpt lat="47.19248" lon="-1.68849">
        <ele>68.26001</ele>
        <time>2021-11-11T08:52:05.358Z</time>
      </trkpt>
      <trkpt lat="47.19252" lon="-1.68861">
        <ele>68.112293</ele>
        <time>2021-11-11T08:52:07.407Z</time>
      </trkpt>
      <trkpt lat="47.1926" lon="-1.68873">
        <ele>67.816741</ele>
        <time>2021-11-11T08:52:09.752Z</time>
      </trkpt>
      <trkpt lat="47.19265" lon="-1.68885">
        <ele>67.56076</ele>
        <time>2021-11-11T08:52:11.723Z</time>
      </trkpt>
      <trkpt lat="47.19272" lon="-1.68902">
        <ele>67.209861</ele>
        <time>2021-11-11T08:52:14.736Z</time>
      </trkpt>
      <trkpt lat="47.19279" lon="-1.68912">
        <ele>66.951463</ele>
        <time>2021-11-11T08:52:16.757Z</time>
      </trkpt>
      <trkpt lat="47.19285" lon="-1.68923">
        <ele>66.705727</ele>
        <time>2021-11-11T08:52:18.746Z</time>
      </trkpt>
      <trkpt lat="47.1929" lon="-1.68934">
        <ele>66.447163</ele>
        <time>2021-11-11T08:52:20.766Z</time>
      </trkpt>
      <trkpt lat="47.19296" lon="-1.68947">
        <ele>66.169398</ele>
        <time>2021-11-11T08:52:22.749Z</time>
      </trkpt>
      <trkpt lat="47.19303" lon="-1.6896">
        <ele>65.881923</ele>
        <time>2021-11-11T08:52:24.752Z</time>
      </trkpt>
      <trkpt lat="47.1931" lon="-1.68971">
        <ele>65.597046</ele>
        <time>2021-11-11T08:52:26.742Z</time>
      </trkpt>
      <trkpt lat="47.19317" lon="-1.68984">
        <ele>65.311424</ele>
        <time>2021-11-11T08:52:28.735Z</time>
      </trkpt>
      <trkpt lat="47.19323" lon="-1.68996">
        <ele>65.044119</ele>
        <time>2021-11-11T08:52:30.737Z</time>
      </trkpt>
      <trkpt lat="47.19328" lon="-1.69009">
        <ele>64.772226</ele>
        <time>2021-11-11T08:52:32.793Z</time>
      </trkpt>
      <trkpt lat="47.19335" lon="-1.69018">
        <ele>64.527428</ele>
        <time>2021-11-11T08:52:35.728Z</time>
      </trkpt>
      <trkpt lat="47.19343" lon="-1.69027">
        <ele>64.274134</ele>
        <time>2021-11-11T08:52:37.759Z</time>
      </trkpt>
      <trkpt lat="47.19348" lon="-1.69043">
        <ele>63.935402</ele>
        <time>2021-11-11T08:52:39.747Z</time>
      </trkpt>
      <trkpt lat="47.19352" lon="-1.6906">
        <ele>63.616612</ele>
        <time>2021-11-11T08:52:41.750Z</time>
      </trkpt>
      <trkpt lat="47.19358" lon="-1.69078">
        <ele>63.368966</ele>
        <time>2021-11-11T08:52:43.737Z</time>
      </trkpt>
      <trkpt lat="47.19364" lon="-1.69098">
        <ele>63.130943</ele>
        <time>2021-11-11T08:52:45.739Z</time>
      </trkpt>
      <trkpt lat="47.1937" lon="-1.69118">
        <ele>62.890603</ele>
        <time>2021-11-11T08:52:47.738Z</time>
      </trkpt>
      <trkpt lat="47.19376" lon="-1.69137">
        <ele>62.657516</ele>
        <time>2021-11-11T08:52:49.761Z</time>
      </trkpt>
      <trkpt lat="47.1938" lon="-1.69154">
        <ele>62.463134</ele>
        <time>2021-11-11T08:52:51.758Z</time>
      </trkpt>
      <trkpt lat="47.19385" lon="-1.69168">
        <ele>62.293816</ele>
        <time>2021-11-11T08:52:54.734Z</time>
      </trkpt>
      <trkpt lat="47.19387" lon="-1.69181">
        <ele>62.147023</ele>
        <time>2021-11-11T08:52:56.744Z</time>
      </trkpt>
      <trkpt lat="47.19392" lon="-1.69201">
        <ele>61.91086</ele>
        <time>2021-11-11T08:52:59.748Z</time>
      </trkpt>
      <trkpt lat="47.19396" lon="-1.69216">
        <ele>61.731862</ele>
        <time>2021-11-11T08:53:01.741Z</time>
      </trkpt>
      <trkpt lat="47.194" lon="-1.6923">
        <ele>61.571193</ele>
        <time>2021-11-11T08:53:03.732Z</time>
      </trkpt>
      <trkpt lat="47.19404" lon="-1.69242">
        <ele>61.425459</ele>
        <time>2021-11-11T08:53:05.741Z</time>
      </trkpt>
      <trkpt lat="47.19406" lon="-1.69256">
        <ele>61.260539</ele>
        <time>2021-11-11T08:53:07.757Z</time>
      </trkpt>
      <trkpt lat="47.1941" lon="-1.69271">
        <ele>61.091061</ele>
        <time>2021-11-11T08:53:09.750Z</time>
      </trkpt>
      <trkpt lat="47.19414" lon="-1.69285">
        <ele>60.917092</ele>
        <time>2021-11-11T08:53:11.737Z</time>
      </trkpt>
      <trkpt lat="47.19414" lon="-1.69301">
        <ele>60.74653</ele>
        <time>2021-11-11T08:53:13.924Z</time>
      </trkpt>
      <trkpt lat="47.19409" lon="-1.69313">
        <ele>60.59124</ele>
        <time>2021-11-11T08:53:15.733Z</time>
      </trkpt>
      <trkpt lat="47.19404" lon="-1.69328">
        <ele>60.443388</ele>
        <time>2021-11-11T08:53:17.757Z</time>
      </trkpt>
      <trkpt lat="47.19396" lon="-1.69344">
        <ele>60.26259</ele>
        <time>2021-11-11T08:53:19.755Z</time>
      </trkpt>
      <trkpt lat="47.19391" lon="-1.69362">
        <ele>60.085864</ele>
        <time>2021-11-11T08:53:21.739Z</time>
      </trkpt>
      <trkpt lat="47.19383" lon="-1.69377">
        <ele>59.911994</ele>
        <time>2021-11-11T08:53:23.744Z</time>
      </trkpt>
      <trkpt lat="47.19372" lon="-1.6939">
        <ele>59.724656</ele>
        <time>2021-11-11T08:53:25.746Z</time>
      </trkpt>
      <trkpt lat="47.19357" lon="-1.69398">
        <ele>59.513028</ele>
        <time>2021-11-11T08:53:27.743Z</time>
      </trkpt>
      <trkpt lat="47.19341" lon="-1.69407">
        <ele>59.281009</ele>
        <time>2021-11-11T08:53:29.761Z</time>
      </trkpt>
      <trkpt lat="47.19332" lon="-1.69412">
        <ele>59.154937</ele>
        <time>2021-11-11T08:53:30.765Z</time>
      </trkpt>
      <trkpt lat="47.19323" lon="-1.69417">
        <ele>59.025099</ele>
        <time>2021-11-11T08:53:31.763Z</time>
      </trkpt>
      <trkpt lat="47.19311" lon="-1.69426">
        <ele>58.840999</ele>
        <time>2021-11-11T08:53:33.745Z</time>
      </trkpt>
      <trkpt lat="47.193" lon="-1.69436">
        <ele>58.670559</ele>
        <time>2021-11-11T08:53:35.745Z</time>
      </trkpt>
      <trkpt lat="47.19291" lon="-1.69445">
        <ele>58.522681</ele>
        <time>2021-11-11T08:53:37.742Z</time>
      </trkpt>
      <trkpt lat="47.19292" lon="-1.69462">
        <ele>58.371155</ele>
        <time>2021-11-11T08:53:57.585Z</time>
      </trkpt>
      <trkpt lat="47.19303" lon="-1.6946">
        <ele>58.221524</ele>
        <time>2021-11-11T08:54:02.745Z</time>
      </trkpt>
      <trkpt lat="47.19312" lon="-1.69451">
        <ele>58.054078</ele>
        <time>2021-11-11T08:54:04.643Z</time>
      </trkpt>
      <trkpt lat="47.19323" lon="-1.69442">
        <ele>57.859505</ele>
        <time>2021-11-11T08:54:06.738Z</time>
      </trkpt>
      <trkpt lat="47.19332" lon="-1.69438">
        <ele>57.714494</ele>
        <time>2021-11-11T08:54:08.761Z</time>
      </trkpt>
      <trkpt lat="47.19342" lon="-1.69437">
        <ele>57.567894</ele>
        <time>2021-11-11T08:54:10.768Z</time>
      </trkpt>
      <trkpt lat="47.19351" lon="-1.69436">
        <ele>57.422559</ele>
        <time>2021-11-11T08:54:12.770Z</time>
      </trkpt>
      <trkpt lat="47.19361" lon="-1.69434">
        <ele>57.271155</ele>
        <time>2021-11-11T08:54:14.760Z</time>
      </trkpt>
      <trkpt lat="47.19371" lon="-1.69432">
        <ele>57.122076</ele>
        <time>2021-11-11T08:54:16.779Z</time>
      </trkpt>
      <trkpt lat="47.1938" lon="-1.69427">
        <ele>56.974067</ele>
        <time>2021-11-11T08:54:18.766Z</time>
      </trkpt>
      <trkpt lat="47.19388" lon="-1.69421">
        <ele>56.833658</ele>
        <time>2021-11-11T08:54:20.748Z</time>
      </trkpt>
      <trkpt lat="47.19397" lon="-1.69415">
        <ele>56.690055</ele>
        <time>2021-11-11T08:54:22.737Z</time>
      </trkpt>
      <trkpt lat="47.19405" lon="-1.69407">
        <ele>56.544444</ele>
        <time>2021-11-11T08:54:24.755Z</time>
      </trkpt>
      <trkpt lat="47.19413" lon="-1.694">
        <ele>56.403078</ele>
        <time>2021-11-11T08:54:26.769Z</time>
      </trkpt>
      <trkpt lat="47.19422" lon="-1.69389">
        <ele>56.220139</ele>
        <time>2021-11-11T08:54:29.754Z</time>
      </trkpt>
      <trkpt lat="47.19432" lon="-1.69388">
        <ele>56.072088</ele>
        <time>2021-11-11T08:54:32.571Z</time>
      </trkpt>
      <trkpt lat="47.19441" lon="-1.69386">
        <ele>55.930271</ele>
        <time>2021-11-11T08:54:35.289Z</time>
      </trkpt>
      <trkpt lat="47.19454" lon="-1.69392">
        <ele>55.724497</ele>
        <time>2021-11-11T08:54:37.728Z</time>
      </trkpt>
      <trkpt lat="47.19464" lon="-1.69394">
        <ele>55.561432</ele>
        <time>2021-11-11T08:54:39.751Z</time>
      </trkpt>
      <trkpt lat="47.19474" lon="-1.69398">
        <ele>55.310722</ele>
        <time>2021-11-11T08:54:41.753Z</time>
      </trkpt>
      <trkpt lat="47.19486" lon="-1.69407">
        <ele>54.821856</ele>
        <time>2021-11-11T08:54:44.746Z</time>
      </trkpt>
      <trkpt lat="47.19494" lon="-1.69416">
        <ele>54.448489</ele>
        <time>2021-11-11T08:54:46.760Z</time>
      </trkpt>
      <trkpt lat="47.19501" lon="-1.69427">
        <ele>54.081435</ele>
        <time>2021-11-11T08:54:48.745Z</time>
      </trkpt>
      <trkpt lat="47.19506" lon="-1.6944">
        <ele>53.691854</ele>
        <time>2021-11-11T08:54:50.766Z</time>
      </trkpt>
      <trkpt lat="47.19511" lon="-1.69455">
        <ele>53.284988</ele>
        <time>2021-11-11T08:54:52.745Z</time>
      </trkpt>
      <trkpt lat="47.19516" lon="-1.6947">
        <ele>52.876461</ele>
        <time>2021-11-11T08:54:54.756Z</time>
      </trkpt>
      <trkpt lat="47.19521" lon="-1.69485">
        <ele>52.461576</ele>
        <time>2021-11-11T08:54:56.739Z</time>
      </trkpt>
      <trkpt lat="47.19526" lon="-1.69499">
        <ele>52.068887</ele>
        <time>2021-11-11T08:54:58.756Z</time>
      </trkpt>
      <trkpt lat="47.19532" lon="-1.69512">
        <ele>51.677805</ele>
        <time>2021-11-11T08:55:00.744Z</time>
      </trkpt>
      <trkpt lat="47.19537" lon="-1.69525">
        <ele>51.291244</ele>
        <time>2021-11-11T08:55:02.757Z</time>
      </trkpt>
      <trkpt lat="47.19542" lon="-1.69539">
        <ele>50.907819</ele>
        <time>2021-11-11T08:55:04.751Z</time>
      </trkpt>
      <trkpt lat="47.19547" lon="-1.69552">
        <ele>50.523068</ele>
        <time>2021-11-11T08:55:06.748Z</time>
      </trkpt>
      <trkpt lat="47.19553" lon="-1.69566">
        <ele>50.133863</ele>
        <time>2021-11-11T08:55:08.761Z</time>
      </trkpt>
      <trkpt lat="47.19558" lon="-1.69579">
        <ele>49.746165</ele>
        <time>2021-11-11T08:55:10.757Z</time>
      </trkpt>
      <trkpt lat="47.19565" lon="-1.69593">
        <ele>49.328133</ele>
        <time>2021-11-11T08:55:12.769Z</time>
      </trkpt>
      <trkpt lat="47.1957" lon="-1.69605">
        <ele>48.953202</ele>
        <time>2021-11-11T08:55:14.753Z</time>
      </trkpt>
      <trkpt lat="47.19577" lon="-1.69619">
        <ele>49.132442</ele>
        <time>2021-11-11T08:55:16.760Z</time>
      </trkpt>
      <trkpt lat="47.19584" lon="-1.69633">
        <ele>49.42485</ele>
        <time>2021-11-11T08:55:18.761Z</time>
      </trkpt>
      <trkpt lat="47.1959" lon="-1.69647">
        <ele>49.696215</ele>
        <time>2021-11-11T08:55:20.763Z</time>
      </trkpt>
      <trkpt lat="47.19596" lon="-1.69659">
        <ele>49.960182</ele>
        <time>2021-11-11T08:55:22.755Z</time>
      </trkpt>
      <trkpt lat="47.19603" lon="-1.69671">
        <ele>50.222174</ele>
        <time>2021-11-11T08:55:24.753Z</time>
      </trkpt>
      <trkpt lat="47.19608" lon="-1.69684">
        <ele>50.485475</ele>
        <time>2021-11-11T08:55:26.758Z</time>
      </trkpt>
      <trkpt lat="47.19614" lon="-1.69698">
        <ele>50.758242</ele>
        <time>2021-11-11T08:55:28.757Z</time>
      </trkpt>
      <trkpt lat="47.1962" lon="-1.69711">
        <ele>51.026925</ele>
        <time>2021-11-11T08:55:30.740Z</time>
      </trkpt>
      <trkpt lat="47.19625" lon="-1.69724">
        <ele>51.278078</ele>
        <time>2021-11-11T08:55:32.756Z</time>
      </trkpt>
      <trkpt lat="47.1963" lon="-1.69738">
        <ele>51.542157</ele>
        <time>2021-11-11T08:55:34.767Z</time>
      </trkpt>
      <trkpt lat="47.19635" lon="-1.69751">
        <ele>51.795419</ele>
        <time>2021-11-11T08:55:36.762Z</time>
      </trkpt>
      <trkpt lat="47.19639" lon="-1.69765">
        <ele>52.049281</ele>
        <time>2021-11-11T08:55:38.759Z</time>
      </trkpt>
      <trkpt lat="47.19642" lon="-1.69778">
        <ele>52.292674</ele>
        <time>2021-11-11T08:55:42.767Z</time>
      </trkpt>
      <trkpt lat="47.19652" lon="-1.69791">
        <ele>52.621414</ele>
        <time>2021-11-11T08:55:54.475Z</time>
      </trkpt>
      <trkpt lat="47.19662" lon="-1.698">
        <ele>52.915679</ele>
        <time>2021-11-11T08:55:56.602Z</time>
      </trkpt>
      <trkpt lat="47.1967" lon="-1.69808">
        <ele>53.149291</ele>
        <time>2021-11-11T08:55:58.248Z</time>
      </trkpt>
      <trkpt lat="47.19678" lon="-1.6982">
        <ele>53.387176</ele>
        <time>2021-11-11T08:56:00.996Z</time>
      </trkpt>
      <trkpt lat="47.19688" lon="-1.69833">
        <ele>53.471308</ele>
        <time>2021-11-11T08:56:04.172Z</time>
      </trkpt>
      <trkpt lat="47.19685" lon="-1.69847">
        <ele>53.536172</ele>
        <time>2021-11-11T08:56:06.616Z</time>
      </trkpt>
      <trkpt lat="47.19682" lon="-1.69863">
        <ele>53.611713</ele>
        <time>2021-11-11T08:56:08.779Z</time>
      </trkpt>
      <trkpt lat="47.19678" lon="-1.69876">
        <ele>53.67588</ele>
        <time>2021-11-11T08:56:10.997Z</time>
      </trkpt>
      <trkpt lat="47.19675" lon="-1.69891">
        <ele>53.747686</ele>
        <time>2021-11-11T08:56:13.230Z</time>
      </trkpt>
      <trkpt lat="47.19675" lon="-1.69908">
        <ele>53.822492</ele>
        <time>2021-11-11T08:56:16.455Z</time>
      </trkpt>
      <trkpt lat="47.19677" lon="-1.69921">
        <ele>53.883862</ele>
        <time>2021-11-11T08:56:18.143Z</time>
      </trkpt>
      <trkpt lat="47.19681" lon="-1.69937">
        <ele>53.960525</ele>
        <time>2021-11-11T08:56:21.029Z</time>
      </trkpt>
      <trkpt lat="47.19685" lon="-1.69952">
        <ele>54.031297</ele>
        <time>2021-11-11T08:56:23.343Z</time>
      </trkpt>
      <trkpt lat="47.19687" lon="-1.69969">
        <ele>54.109404</ele>
        <time>2021-11-11T08:56:26.172Z</time>
      </trkpt>
      <trkpt lat="47.19689" lon="-1.69984">
        <ele>54.176158</ele>
        <time>2021-11-11T08:56:28.777Z</time>
      </trkpt>
      <trkpt lat="47.19687" lon="-1.70001">
        <ele>54.252341</ele>
        <time>2021-11-11T08:56:31.484Z</time>
      </trkpt>
      <trkpt lat="47.19689" lon="-1.70017">
        <ele>54.324357</ele>
        <time>2021-11-11T08:56:33.657Z</time>
      </trkpt>
      <trkpt lat="47.19693" lon="-1.70034">
        <ele>54.405892</ele>
        <time>2021-11-11T08:56:36.154Z</time>
      </trkpt>
      <trkpt lat="47.19694" lon="-1.7005">
        <ele>54.476429</ele>
        <time>2021-11-11T08:56:38.754Z</time>
      </trkpt>
      <trkpt lat="47.19691" lon="-1.70065">
        <ele>54.54565</ele>
        <time>2021-11-11T08:56:40.749Z</time>
      </trkpt>
      <trkpt lat="47.19687" lon="-1.70081">
        <ele>54.558057</ele>
        <time>2021-11-11T08:56:43.140Z</time>
      </trkpt>
      <trkpt lat="47.19682" lon="-1.70095">
        <ele>54.563992</ele>
        <time>2021-11-11T08:56:45.775Z</time>
      </trkpt>
      <trkpt lat="47.19685" lon="-1.70109">
        <ele>54.569701</ele>
        <time>2021-11-11T08:56:47.485Z</time>
      </trkpt>
      <trkpt lat="47.19682" lon="-1.70122">
        <ele>54.574766</ele>
        <time>2021-11-11T08:56:49.607Z</time>
      </trkpt>
      <trkpt lat="47.19679" lon="-1.7014">
        <ele>54.58171</ele>
        <time>2021-11-11T08:56:52.364Z</time>
      </trkpt>
      <trkpt lat="47.19677" lon="-1.70153">
        <ele>54.586787</ele>
        <time>2021-11-11T08:56:54.542Z</time>
      </trkpt>
      <trkpt lat="47.19673" lon="-1.70171">
        <ele>54.593733</ele>
        <time>2021-11-11T08:56:57.311Z</time>
      </trkpt>
      <trkpt lat="47.1967" lon="-1.70183">
        <ele>54.598717</ele>
        <time>2021-11-11T08:56:59.523Z</time>
      </trkpt>
      <trkpt lat="47.19669" lon="-1.70197">
        <ele>54.603877</ele>
        <time>2021-11-11T08:57:01.379Z</time>
      </trkpt>
      <trkpt lat="47.19675" lon="-1.7021">
        <ele>54.609495</ele>
        <time>2021-11-11T08:57:03.751Z</time>
      </trkpt>
      <trkpt lat="47.1968" lon="-1.70222">
        <ele>54.614837</ele>
        <time>2021-11-11T08:57:05.744Z</time>
      </trkpt>
      <trkpt lat="47.19684" lon="-1.70236">
        <ele>54.620711</ele>
        <time>2021-11-11T08:57:07.568Z</time>
      </trkpt>
      <trkpt lat="47.19683" lon="-1.70255">
        <ele>54.62755</ele>
        <time>2021-11-11T08:57:10.772Z</time>
      </trkpt>
      <trkpt lat="47.1968" lon="-1.70268">
        <ele>54.633027</ele>
        <time>2021-11-11T08:57:12.770Z</time>
      </trkpt>
      <trkpt lat="47.19679" lon="-1.70283">
        <ele>54.638559</ele>
        <time>2021-11-11T08:57:14.754Z</time>
      </trkpt>
      <trkpt lat="47.1968" lon="-1.70297">
        <ele>54.643743</ele>
        <time>2021-11-11T08:57:16.766Z</time>
      </trkpt>
      <trkpt lat="47.19679" lon="-1.7031">
        <ele>54.648763</ele>
        <time>2021-11-11T08:57:18.617Z</time>
      </trkpt>
      <trkpt lat="47.19684" lon="-1.70325">
        <ele>54.494744</ele>
        <time>2021-11-11T08:57:21.181Z</time>
      </trkpt>
      <trkpt lat="47.19686" lon="-1.70339">
        <ele>54.278115</ele>
        <time>2021-11-11T08:57:23.401Z</time>
      </trkpt>
      <trkpt lat="47.19687" lon="-1.70355">
        <ele>54.049122</ele>
        <time>2021-11-11T08:57:25.360Z</time>
      </trkpt>
      <trkpt lat="47.19691" lon="-1.70368">
        <ele>53.837632</ele>
        <time>2021-11-11T08:57:28.766Z</time>
      </trkpt>
      <trkpt lat="47.19697" lon="-1.70381">
        <ele>53.614131</ele>
        <time>2021-11-11T08:57:30.760Z</time>
      </trkpt>
      <trkpt lat="47.19701" lon="-1.70396">
        <ele>53.369761</ele>
        <time>2021-11-11T08:57:32.753Z</time>
      </trkpt>
      <trkpt lat="47.19705" lon="-1.7041">
        <ele>53.148784</ele>
        <time>2021-11-11T08:57:34.734Z</time>
      </trkpt>
      <trkpt lat="47.19709" lon="-1.70424">
        <ele>52.930238</ele>
        <time>2021-11-11T08:57:36.757Z</time>
      </trkpt>
      <trkpt lat="47.1971" lon="-1.7044">
        <ele>52.696375</ele>
        <time>2021-11-11T08:57:38.752Z</time>
      </trkpt>
      <trkpt lat="47.1971" lon="-1.70456">
        <ele>52.464466</ele>
        <time>2021-11-11T08:57:40.761Z</time>
      </trkpt>
      <trkpt lat="47.1971" lon="-1.70472">
        <ele>52.229541</ele>
        <time>2021-11-11T08:57:42.752Z</time>
      </trkpt>
      <trkpt lat="47.19709" lon="-1.70486">
        <ele>52.014374</ele>
        <time>2021-11-11T08:57:44.768Z</time>
      </trkpt>
      <trkpt lat="47.19708" lon="-1.70503">
        <ele>51.763519</ele>
        <time>2021-11-11T08:57:47.764Z</time>
      </trkpt>
      <trkpt lat="47.19715" lon="-1.7052">
        <ele>51.482318</ele>
        <time>2021-11-11T08:57:50.352Z</time>
      </trkpt>
      <trkpt lat="47.1972" lon="-1.70536">
        <ele>51.212927</ele>
        <time>2021-11-11T08:57:53.221Z</time>
      </trkpt>
      <trkpt lat="47.19724" lon="-1.70551">
        <ele>50.980843</ele>
        <time>2021-11-11T08:57:55.682Z</time>
      </trkpt>
      <trkpt lat="47.19725" lon="-1.70568">
        <ele>50.769123</ele>
        <time>2021-11-11T08:57:57.769Z</time>
      </trkpt>
      <trkpt lat="47.19727" lon="-1.70583">
        <ele>50.789448</ele>
        <time>2021-11-11T08:57:59.734Z</time>
      </trkpt>
      <trkpt lat="47.19729" lon="-1.70601">
        <ele>50.815553</ele>
        <time>2021-11-11T08:58:02.765Z</time>
      </trkpt>
      <trkpt lat="47.19732" lon="-1.70614">
        <ele>50.834283</ele>
        <time>2021-11-11T08:58:04.776Z</time>
      </trkpt>
      <trkpt lat="47.19736" lon="-1.70633">
        <ele>50.860613</ele>
        <time>2021-11-11T08:58:07.776Z</time>
      </trkpt>
      <trkpt lat="47.19737" lon="-1.70648">
        <ele>50.881633</ele>
        <time>2021-11-11T08:58:09.771Z</time>
      </trkpt>
      <trkpt lat="47.1974" lon="-1.70666">
        <ele>50.907994</ele>
        <time>2021-11-11T08:58:12.774Z</time>
      </trkpt>
      <trkpt lat="47.19743" lon="-1.70684">
        <ele>50.933633</ele>
        <time>2021-11-11T08:58:15.786Z</time>
      </trkpt>
      <trkpt lat="47.19748" lon="-1.70699">
        <ele>50.956035</ele>
        <time>2021-11-11T08:58:18.195Z</time>
      </trkpt>
      <trkpt lat="47.19751" lon="-1.70717">
        <ele>50.981353</ele>
        <time>2021-11-11T08:58:20.762Z</time>
      </trkpt>
      <trkpt lat="47.19754" lon="-1.70731">
        <ele>51.001762</ele>
        <time>2021-11-11T08:58:22.759Z</time>
      </trkpt>
      <trkpt lat="47.19756" lon="-1.70745">
        <ele>51.021186</ele>
        <time>2021-11-11T08:58:24.744Z</time>
      </trkpt>
      <trkpt lat="47.19758" lon="-1.70758">
        <ele>51.03949</ele>
        <time>2021-11-11T08:58:26.755Z</time>
      </trkpt>
      <trkpt lat="47.19763" lon="-1.70777">
        <ele>51.067302</ele>
        <time>2021-11-11T08:58:29.747Z</time>
      </trkpt>
      <trkpt lat="47.19765" lon="-1.7079">
        <ele>51.086767</ele>
        <time>2021-11-11T08:58:31.750Z</time>
      </trkpt>
      <trkpt lat="47.19765" lon="-1.70805">
        <ele>51.106317</ele>
        <time>2021-11-11T08:58:33.754Z</time>
      </trkpt>
      <trkpt lat="47.19765" lon="-1.70819">
        <ele>51.126001</ele>
        <time>2021-11-11T08:58:35.733Z</time>
      </trkpt>
      <trkpt lat="47.19764" lon="-1.70838">
        <ele>52.784996</ele>
        <time>2021-11-11T08:58:38.753Z</time>
      </trkpt>
      <trkpt lat="47.19763" lon="-1.70854">
        <ele>54.384923</ele>
        <time>2021-11-11T08:58:41.751Z</time>
      </trkpt>
      <trkpt lat="47.19764" lon="-1.70868">
        <ele>55.824124</ele>
        <time>2021-11-11T08:58:44.420Z</time>
      </trkpt>
      <trkpt lat="47.19764" lon="-1.70882">
        <ele>57.227441</ele>
        <time>2021-11-11T08:58:48.191Z</time>
      </trkpt>
      <trkpt lat="47.19763" lon="-1.70896">
        <ele>58.744079</ele>
        <time>2021-11-11T08:58:53.534Z</time>
      </trkpt>
      <trkpt lat="47.19758" lon="-1.70907">
        <ele>60.122109</ele>
        <time>2021-11-11T08:58:59.729Z</time>
      </trkpt>
      <trkpt lat="47.1975" lon="-1.70914">
        <ele>61.486567</ele>
        <time>2021-11-11T08:59:04.860Z</time>
      </trkpt>
      <trkpt lat="47.19742" lon="-1.70922">
        <ele>62.867279</ele>
        <time>2021-11-11T08:59:10.990Z</time>
      </trkpt>
      <trkpt lat="47.19736" lon="-1.70932">
        <ele>64.264746</ele>
        <time>2021-11-11T08:59:18.328Z</time>
      </trkpt>
      <trkpt lat="47.19727" lon="-1.70937">
        <ele>65.656897</ele>
        <time>2021-11-11T08:59:24.753Z</time>
      </trkpt>
      <trkpt lat="47.19719" lon="-1.70944">
        <ele>67.013198</ele>
        <time>2021-11-11T08:59:30.543Z</time>
      </trkpt>
      <trkpt lat="47.19711" lon="-1.70948">
        <ele>68.378199</ele>
        <time>2021-11-11T08:59:38.518Z</time>
      </trkpt>
      <trkpt lat="47.19702" lon="-1.7095">
        <ele>69.717616</ele>
        <time>2021-11-11T08:59:47.730Z</time>
      </trkpt>
      <trkpt lat="47.19693" lon="-1.70952">
        <ele>71.118158</ele>
        <time>2021-11-11T08:59:58.013Z</time>
      </trkpt>
      <trkpt lat="47.19684" lon="-1.70958">
        <ele>72.578459</ele>
        <time>2021-11-11T09:00:10.060Z</time>
      </trkpt>
      <trkpt lat="47.19675" lon="-1.70966">
        <ele>74.098926</ele>
        <time>2021-11-11T09:00:16.990Z</time>
      </trkpt>
      <trkpt lat="47.19666" lon="-1.70971">
        <ele>75.510024</ele>
        <time>2021-11-11T09:00:22.080Z</time>
      </trkpt>
      <trkpt lat="47.19657" lon="-1.70975">
        <ele>76.886461</ele>
        <time>2021-11-11T09:00:27.747Z</time>
      </trkpt>
      <trkpt lat="47.19649" lon="-1.70981">
        <ele>78.013527</ele>
        <time>2021-11-11T09:00:33.404Z</time>
      </trkpt>
      <trkpt lat="47.19639" lon="-1.70987">
        <ele>78.026883</ele>
        <time>2021-11-11T09:00:39.214Z</time>
      </trkpt>
      <trkpt lat="47.1963" lon="-1.7099">
        <ele>78.039212</ele>
        <time>2021-11-11T09:00:42.960Z</time>
      </trkpt>
      <trkpt lat="47.19619" lon="-1.70994">
        <ele>78.054287</ele>
        <time>2021-11-11T09:00:46.619Z</time>
      </trkpt>
      <trkpt lat="47.19609" lon="-1.70999">
        <ele>78.069632</ele>
        <time>2021-11-11T09:00:50.263Z</time>
      </trkpt>
      <trkpt lat="47.19599" lon="-1.71005">
        <ele>78.083827</ele>
        <time>2021-11-11T09:00:53.855Z</time>
      </trkpt>
      <trkpt lat="47.19589" lon="-1.71011">
        <ele>78.098133</ele>
        <time>2021-11-11T09:00:56.858Z</time>
      </trkpt>
      <trkpt lat="47.19582" lon="-1.71019">
        <ele>78.110276</ele>
        <time>2021-11-11T09:00:59.192Z</time>
      </trkpt>
      <trkpt lat="47.19571" lon="-1.71026">
        <ele>78.126553</ele>
        <time>2021-11-11T09:01:02.121Z</time>
      </trkpt>
      <trkpt lat="47.1956" lon="-1.71029">
        <ele>78.14156</ele>
        <time>2021-11-11T09:01:05.751Z</time>
      </trkpt>
      <trkpt lat="47.19551" lon="-1.71032">
        <ele>78.153759</ele>
        <time>2021-11-11T09:01:07.105Z</time>
      </trkpt>
      <trkpt lat="47.19542" lon="-1.71039">
        <ele>78.167572</ele>
        <time>2021-11-11T09:01:09.761Z</time>
      </trkpt>
      <trkpt lat="47.19531" lon="-1.71046">
        <ele>78.184094</ele>
        <time>2021-11-11T09:01:12.766Z</time>
      </trkpt>
      <trkpt lat="47.19517" lon="-1.71057">
        <ele>78.205323</ele>
        <time>2021-11-11T09:01:15.759Z</time>
      </trkpt>
      <trkpt lat="47.19506" lon="-1.7106">
        <ele>78.219964</ele>
        <time>2021-11-11T09:01:17.748Z</time>
      </trkpt>
      <trkpt lat="47.19496" lon="-1.7107">
        <ele>78.236227</ele>
        <time>2021-11-11T09:01:19.757Z</time>
      </trkpt>
      <trkpt lat="47.19488" lon="-1.71085">
        <ele>78.20071</ele>
        <time>2021-11-11T09:01:21.750Z</time>
      </trkpt>
      <trkpt lat="47.19486" lon="-1.71103">
        <ele>77.356107</ele>
        <time>2021-11-11T09:01:23.766Z</time>
      </trkpt>
      <trkpt lat="47.19486" lon="-1.71122">
        <ele>76.499513</ele>
        <time>2021-11-11T09:01:25.737Z</time>
      </trkpt>
      <trkpt lat="47.19485" lon="-1.71143">
        <ele>75.532399</ele>
        <time>2021-11-11T09:01:27.747Z</time>
      </trkpt>
      <trkpt lat="47.19486" lon="-1.71164">
        <ele>74.583774</ele>
        <time>2021-11-11T09:01:29.749Z</time>
      </trkpt>
      <trkpt lat="47.19489" lon="-1.71184">
        <ele>73.665404</ele>
        <time>2021-11-11T09:01:31.750Z</time>
      </trkpt>
      <trkpt lat="47.19495" lon="-1.71204">
        <ele>72.684144</ele>
        <time>2021-11-11T09:01:33.747Z</time>
      </trkpt>
      <trkpt lat="47.195" lon="-1.71222">
        <ele>71.786746</ele>
        <time>2021-11-11T09:01:35.740Z</time>
      </trkpt>
      <trkpt lat="47.19506" lon="-1.71241">
        <ele>70.828935</ele>
        <time>2021-11-11T09:01:37.759Z</time>
      </trkpt>
      <trkpt lat="47.19512" lon="-1.71259">
        <ele>69.922621</ele>
        <time>2021-11-11T09:01:39.748Z</time>
      </trkpt>
      <trkpt lat="47.1952" lon="-1.71273">
        <ele>69.096245</ele>
        <time>2021-11-11T09:01:41.746Z</time>
      </trkpt>
      <trkpt lat="47.19531" lon="-1.71282">
        <ele>68.288783</ele>
        <time>2021-11-11T09:01:43.737Z</time>
      </trkpt>
      <trkpt lat="47.19539" lon="-1.71293">
        <ele>67.538922</ele>
        <time>2021-11-11T09:01:45.756Z</time>
      </trkpt>
      <trkpt lat="47.19547" lon="-1.71303">
        <ele>66.835756</ele>
        <time>2021-11-11T09:01:47.757Z</time>
      </trkpt>
      <trkpt lat="47.19555" lon="-1.71315">
        <ele>66.246029</ele>
        <time>2021-11-11T09:01:49.717Z</time>
      </trkpt>
      <trkpt lat="47.19564" lon="-1.71326">
        <ele>66.197929</ele>
        <time>2021-11-11T09:01:51.770Z</time>
      </trkpt>
      <trkpt lat="47.19571" lon="-1.71337">
        <ele>66.154372</ele>
        <time>2021-11-11T09:01:53.751Z</time>
      </trkpt>
      <trkpt lat="47.19581" lon="-1.71349">
        <ele>66.102608</ele>
        <time>2021-11-11T09:01:56.757Z</time>
      </trkpt>
      <trkpt lat="47.19588" lon="-1.71358">
        <ele>66.062413</ele>
        <time>2021-11-11T09:01:58.728Z</time>
      </trkpt>
      <trkpt lat="47.19595" lon="-1.71367">
        <ele>66.023289</ele>
        <time>2021-11-11T09:02:00.742Z</time>
      </trkpt>
      <trkpt lat="47.19604" lon="-1.71377">
        <ele>65.9791</ele>
        <time>2021-11-11T09:02:02.761Z</time>
      </trkpt>
      <trkpt lat="47.19593" lon="-1.71392">
        <ele>65.919864</ele>
        <time>2021-11-11T09:02:05.725Z</time>
      </trkpt>
      <trkpt lat="47.19579" lon="-1.71399">
        <ele>65.857749</ele>
        <time>2021-11-11T09:02:07.746Z</time>
      </trkpt>
      <trkpt lat="47.19565" lon="-1.71406">
        <ele>65.793727</ele>
        <time>2021-11-11T09:02:09.762Z</time>
      </trkpt>
      <trkpt lat="47.1955" lon="-1.71414">
        <ele>65.731015</ele>
        <time>2021-11-11T09:02:11.764Z</time>
      </trkpt>
      <trkpt lat="47.19541" lon="-1.71422">
        <ele>65.683738</ele>
        <time>2021-11-11T09:02:13.777Z</time>
      </trkpt>
      <trkpt lat="47.19532" lon="-1.71431">
        <ele>65.640954</ele>
        <time>2021-11-11T09:02:15.768Z</time>
      </trkpt>
      <trkpt lat="47.19522" lon="-1.71435">
        <ele>65.596929</ele>
        <time>2021-11-11T09:02:17.758Z</time>
      </trkpt>
      <trkpt lat="47.19513" lon="-1.7144">
        <ele>65.557971</ele>
        <time>2021-11-11T09:02:19.793Z</time>
      </trkpt>
      <trkpt lat="47.19509" lon="-1.71452">
        <ele>65.518402</ele>
        <time>2021-11-11T09:02:23.751Z</time>
      </trkpt>
      <trkpt lat="47.19513" lon="-1.71466">
        <ele>65.4484</ele>
        <time>2021-11-11T09:02:25.738Z</time>
      </trkpt>
      <trkpt lat="47.19518" lon="-1.71483">
        <ele>65.356572</ele>
        <time>2021-11-11T09:02:27.754Z</time>
      </trkpt>
      <trkpt lat="47.19522" lon="-1.715">
        <ele>65.267351</ele>
        <time>2021-11-11T09:02:29.744Z</time>
      </trkpt>
      <trkpt lat="47.19526" lon="-1.71517">
        <ele>65.175508</ele>
        <time>2021-11-11T09:02:32.695Z</time>
      </trkpt>
      <trkpt lat="47.1953" lon="-1.71535">
        <ele>65.081042</ele>
        <time>2021-11-11T09:02:33.757Z</time>
      </trkpt>
      <trkpt lat="47.19534" lon="-1.71553">
        <ele>64.98443</ele>
        <time>2021-11-11T09:02:35.753Z</time>
      </trkpt>
      <trkpt lat="47.19539" lon="-1.71571">
        <ele>64.885643</ele>
        <time>2021-11-11T09:02:37.760Z</time>
      </trkpt>
      <trkpt lat="47.19544" lon="-1.7159">
        <ele>64.785048</ele>
        <time>2021-11-11T09:02:39.756Z</time>
      </trkpt>
      <trkpt lat="47.19549" lon="-1.71608">
        <ele>64.684731</ele>
        <time>2021-11-11T09:02:41.730Z</time>
      </trkpt>
      <trkpt lat="47.19553" lon="-1.71627">
        <ele>64.583826</ele>
        <time>2021-11-11T09:02:43.751Z</time>
      </trkpt>
      <trkpt lat="47.19557" lon="-1.71647">
        <ele>64.482157</ele>
        <time>2021-11-11T09:02:45.766Z</time>
      </trkpt>
      <trkpt lat="47.1956" lon="-1.71665">
        <ele>64.384015</ele>
        <time>2021-11-11T09:02:47.755Z</time>
      </trkpt>
      <trkpt lat="47.19564" lon="-1.71683">
        <ele>64.292021</ele>
        <time>2021-11-11T09:02:49.753Z</time>
      </trkpt>
      <trkpt lat="47.19567" lon="-1.71701">
        <ele>64.199922</ele>
        <time>2021-11-11T09:02:51.747Z</time>
      </trkpt>
      <trkpt lat="47.1957" lon="-1.71719">
        <ele>63.742428</ele>
        <time>2021-11-11T09:02:53.736Z</time>
      </trkpt>
      <trkpt lat="47.19573" lon="-1.71737">
        <ele>63.178104</ele>
        <time>2021-11-11T09:02:55.743Z</time>
      </trkpt>
      <trkpt lat="47.19575" lon="-1.71755">
        <ele>62.616754</ele>
        <time>2021-11-11T09:02:57.749Z</time>
      </trkpt>
      <trkpt lat="47.19578" lon="-1.71774">
        <ele>62.04145</ele>
        <time>2021-11-11T09:02:59.746Z</time>
      </trkpt>
      <trkpt lat="47.1958" lon="-1.71793">
        <ele>61.453735</ele>
        <time>2021-11-11T09:03:01.756Z</time>
      </trkpt>
      <trkpt lat="47.19583" lon="-1.71812">
        <ele>60.84679</ele>
        <time>2021-11-11T09:03:03.756Z</time>
      </trkpt>
      <trkpt lat="47.19586" lon="-1.71831">
        <ele>60.250796</ele>
        <time>2021-11-11T09:03:05.760Z</time>
      </trkpt>
      <trkpt lat="47.19589" lon="-1.7185">
        <ele>59.668329</ele>
        <time>2021-11-11T09:03:07.765Z</time>
      </trkpt>
      <trkpt lat="47.19593" lon="-1.71867">
        <ele>59.118918</ele>
        <time>2021-11-11T09:03:09.766Z</time>
      </trkpt>
      <trkpt lat="47.19596" lon="-1.71884">
        <ele>58.589624</ele>
        <time>2021-11-11T09:03:11.747Z</time>
      </trkpt>
      <trkpt lat="47.196" lon="-1.719">
        <ele>58.064784</ele>
        <time>2021-11-11T09:03:13.766Z</time>
      </trkpt>
      <trkpt lat="47.19603" lon="-1.71917">
        <ele>57.531709</ele>
        <time>2021-11-11T09:03:15.750Z</time>
      </trkpt>
      <trkpt lat="47.19605" lon="-1.71935">
        <ele>56.976094</ele>
        <time>2021-11-11T09:03:17.756Z</time>
      </trkpt>
      <trkpt lat="47.19608" lon="-1.71953">
        <ele>56.400794</ele>
        <time>2021-11-11T09:03:19.784Z</time>
      </trkpt>
      <trkpt lat="47.1961" lon="-1.71971">
        <ele>56.115817</ele>
        <time>2021-11-11T09:03:21.760Z</time>
      </trkpt>
      <trkpt lat="47.19613" lon="-1.71986">
        <ele>56.115501</ele>
        <time>2021-11-11T09:03:23.766Z</time>
      </trkpt>
      <trkpt lat="47.19626" lon="-1.71985">
        <ele>56.115133</ele>
        <time>2021-11-11T09:03:26.752Z</time>
      </trkpt>
      <trkpt lat="47.19634" lon="-1.71978">
        <ele>56.114841</ele>
        <time>2021-11-11T09:03:28.735Z</time>
      </trkpt>
      <trkpt lat="47.19645" lon="-1.71969">
        <ele>56.114469</ele>
        <time>2021-11-11T09:03:31.621Z</time>
      </trkpt>
      <trkpt lat="47.19647" lon="-1.71956">
        <ele>56.114187</ele>
        <time>2021-11-11T09:03:46.545Z</time>
      </trkpt>
      <trkpt lat="47.19645" lon="-1.71939">
        <ele>56.11383</ele>
        <time>2021-11-11T09:03:49.006Z</time>
      </trkpt>
      <trkpt lat="47.19644" lon="-1.71925">
        <ele>56.113549</ele>
        <time>2021-11-11T09:03:51.110Z</time>
      </trkpt>
      <trkpt lat="47.19655" lon="-1.71922">
        <ele>56.113231</ele>
        <time>2021-11-11T09:03:54.476Z</time>
      </trkpt>
      <trkpt lat="47.19664" lon="-1.7193">
        <ele>56.112903</ele>
        <time>2021-11-11T09:03:56.637Z</time>
      </trkpt>
      <trkpt lat="47.19672" lon="-1.71937">
        <ele>56.112621</ele>
        <time>2021-11-11T09:03:58.421Z</time>
      </trkpt>
      <trkpt lat="47.19681" lon="-1.71945">
        <ele>56.112303</ele>
        <time>2021-11-11T09:04:00.515Z</time>
      </trkpt>
      <trkpt lat="47.1969" lon="-1.71953">
        <ele>56.111988</ele>
        <time>2021-11-11T09:04:02.637Z</time>
      </trkpt>
      <trkpt lat="47.197" lon="-1.71962">
        <ele>56.111643</ele>
        <time>2021-11-11T09:04:05.465Z</time>
      </trkpt>
      <trkpt lat="47.19709" lon="-1.7197">
        <ele>56.111324</ele>
        <time>2021-11-11T09:04:07.776Z</time>
      </trkpt>
      <trkpt lat="47.19715" lon="-1.71991">
        <ele>56.110869</ele>
        <time>2021-11-11T09:04:10.728Z</time>
      </trkpt>
      <trkpt lat="47.19715" lon="-1.72008">
        <ele>56.129774</ele>
        <time>2021-11-11T09:04:12.737Z</time>
      </trkpt>
      <trkpt lat="47.19715" lon="-1.72023">
        <ele>56.239487</ele>
        <time>2021-11-11T09:04:14.735Z</time>
      </trkpt>
      <trkpt lat="47.19715" lon="-1.72039">
        <ele>56.346236</ele>
        <time>2021-11-11T09:04:16.844Z</time>
      </trkpt>
      <trkpt lat="47.19715" lon="-1.72056">
        <ele>56.466399</ele>
        <time>2021-11-11T09:04:19.301Z</time>
      </trkpt>
      <trkpt lat="47.19714" lon="-1.72071">
        <ele>56.573968</ele>
        <time>2021-11-11T09:04:22.025Z</time>
      </trkpt>
      <trkpt lat="47.19713" lon="-1.72087">
        <ele>56.682372</ele>
        <time>2021-11-11T09:04:24.444Z</time>
      </trkpt>
      <trkpt lat="47.19713" lon="-1.721">
        <ele>56.775167</ele>
        <time>2021-11-11T09:04:26.380Z</time>
      </trkpt>
      <trkpt lat="47.19713" lon="-1.72115">
        <ele>56.879252</ele>
        <time>2021-11-11T09:04:29.225Z</time>
      </trkpt>
      <trkpt lat="47.19713" lon="-1.72128">
        <ele>56.972885</ele>
        <time>2021-11-11T09:04:31.697Z</time>
      </trkpt>
      <trkpt lat="47.19713" lon="-1.72144">
        <ele>57.083127</ele>
        <time>2021-11-11T09:04:34.080Z</time>
      </trkpt>
      <trkpt lat="47.19715" lon="-1.7216">
        <ele>57.198829</ele>
        <time>2021-11-11T09:04:37.424Z</time>
      </trkpt>
      <trkpt lat="47.19717" lon="-1.72174">
        <ele>57.296179</ele>
        <time>2021-11-11T09:04:40.300Z</time>
      </trkpt>
      <trkpt lat="47.19718" lon="-1.7219">
        <ele>57.410252</ele>
        <time>2021-11-11T09:04:43.225Z</time>
      </trkpt>
      <trkpt lat="47.1972" lon="-1.72205">
        <ele>57.516879</ele>
        <time>2021-11-11T09:04:46.067Z</time>
      </trkpt>
      <trkpt lat="47.1972" lon="-1.72219">
        <ele>57.613908</ele>
        <time>2021-11-11T09:04:48.598Z</time>
      </trkpt>
      <trkpt lat="47.19719" lon="-1.72234">
        <ele>57.719001</ele>
        <time>2021-11-11T09:04:51.599Z</time>
      </trkpt>
      <trkpt lat="47.19718" lon="-1.72248">
        <ele>57.816638</ele>
        <time>2021-11-11T09:04:54.692Z</time>
      </trkpt>
      <trkpt lat="47.19719" lon="-1.72262">
        <ele>57.914834</ele>
        <time>2021-11-11T09:04:58.714Z</time>
      </trkpt>
      <trkpt lat="47.1973" lon="-1.72269">
        <ele>57.743586</ele>
        <time>2021-11-11T09:05:02.696Z</time>
      </trkpt>
      <trkpt lat="47.1974" lon="-1.72271">
        <ele>57.450906</ele>
        <time>2021-11-11T09:05:05.377Z</time>
      </trkpt>
      <trkpt lat="47.19749" lon="-1.72273">
        <ele>57.19306</ele>
        <time>2021-11-11T09:05:07.342Z</time>
      </trkpt>
      <trkpt lat="47.1976" lon="-1.72275">
        <ele>56.87564</ele>
        <time>2021-11-11T09:05:11.314Z</time>
      </trkpt>
      <trkpt lat="47.19769" lon="-1.72278">
        <ele>56.601648</ele>
        <time>2021-11-11T09:05:14.398Z</time>
      </trkpt>
      <trkpt lat="47.1978" lon="-1.72276">
        <ele>56.294865</ele>
        <time>2021-11-11T09:05:17.611Z</time>
      </trkpt>
      <trkpt lat="47.19797" lon="-1.72266">
        <ele>55.783504</ele>
        <time>2021-11-11T09:05:20.752Z</time>
      </trkpt>
      <trkpt lat="47.19809" lon="-1.72264">
        <ele>55.425661</ele>
        <time>2021-11-11T09:05:22.752Z</time>
      </trkpt>
      <trkpt lat="47.19826" lon="-1.72262">
        <ele>54.95223</ele>
        <time>2021-11-11T09:05:24.770Z</time>
      </trkpt>
      <trkpt lat="47.19843" lon="-1.72261">
        <ele>54.459791</ele>
        <time>2021-11-11T09:05:26.745Z</time>
      </trkpt>
      <trkpt lat="47.19859" lon="-1.7226">
        <ele>54.001275</ele>
        <time>2021-11-11T09:05:28.753Z</time>
      </trkpt>
      <trkpt lat="47.19875" lon="-1.72257">
        <ele>53.557772</ele>
        <time>2021-11-11T09:05:30.754Z</time>
      </trkpt>
      <trkpt lat="47.19888" lon="-1.72255">
        <ele>53.175901</ele>
        <time>2021-11-11T09:05:32.745Z</time>
      </trkpt>
      <trkpt lat="47.19896" lon="-1.72244">
        <ele>52.880148</ele>
        <time>2021-11-11T09:05:35.744Z</time>
      </trkpt>
      <trkpt lat="47.19898" lon="-1.7223">
        <ele>52.803591</ele>
        <time>2021-11-11T09:05:38.764Z</time>
      </trkpt>
      <trkpt lat="47.199" lon="-1.72214">
        <ele>52.757119</ele>
        <time>2021-11-11T09:05:41.431Z</time>
      </trkpt>
      <trkpt lat="47.19907" lon="-1.72229">
        <ele>52.705041</ele>
        <time>2021-11-11T09:05:44.665Z</time>
      </trkpt>
      <trkpt lat="47.19916" lon="-1.72246">
        <ele>52.641242</ele>
        <time>2021-11-11T09:05:46.762Z</time>
      </trkpt>
      <trkpt lat="47.19924" lon="-1.72253">
        <ele>52.599972</ele>
        <time>2021-11-11T09:05:48.734Z</time>
      </trkpt>
      <trkpt lat="47.19933" lon="-1.72259">
        <ele>52.556927</ele>
        <time>2021-11-11T09:05:50.384Z</time>
      </trkpt>
      <trkpt lat="47.19934" lon="-1.72278">
        <ele>52.500876</ele>
        <time>2021-11-11T09:05:53.745Z</time>
      </trkpt>
      <trkpt lat="47.19933" lon="-1.72293">
        <ele>52.456252</ele>
        <time>2021-11-11T09:05:55.651Z</time>
      </trkpt>
      <trkpt lat="47.19934" lon="-1.72307">
        <ele>52.416207</ele>
        <time>2021-11-11T09:05:57.758Z</time>
      </trkpt>
      <trkpt lat="47.19936" lon="-1.72321">
        <ele>52.373067</ele>
        <time>2021-11-11T09:05:59.767Z</time>
      </trkpt>
      <trkpt lat="47.19934" lon="-1.72335">
        <ele>52.331381</ele>
        <time>2021-11-11T09:06:01.792Z</time>
      </trkpt>
      <trkpt lat="47.19939" lon="-1.7235">
        <ele>52.284495</ele>
        <time>2021-11-11T09:06:03.313Z</time>
      </trkpt>
      <trkpt lat="47.19944" lon="-1.72361">
        <ele>52.24338</ele>
        <time>2021-11-11T09:06:05.540Z</time>
      </trkpt>
      <trkpt lat="47.19957" lon="-1.7237">
        <ele>52.182037</ele>
        <time>2021-11-11T09:06:08.618Z</time>
      </trkpt>
      <trkpt lat="47.19966" lon="-1.7237">
        <ele>52.143078</ele>
        <time>2021-11-11T09:06:10.272Z</time>
      </trkpt>
      <trkpt lat="47.1997" lon="-1.72383">
        <ele>52.09949</ele>
        <time>2021-11-11T09:06:12.752Z</time>
      </trkpt>
      <trkpt lat="47.19972" lon="-1.72398">
        <ele>52.041724</ele>
        <time>2021-11-11T09:06:14.726Z</time>
      </trkpt>
      <trkpt lat="47.19971" lon="-1.72414">
        <ele>51.868574</ele>
        <time>2021-11-11T09:06:16.750Z</time>
      </trkpt>
      <trkpt lat="47.19968" lon="-1.72426">
        <ele>51.722362</ele>
        <time>2021-11-11T09:06:18.776Z</time>
      </trkpt>
      <trkpt lat="47.1996" lon="-1.72437">
        <ele>51.547669</ele>
        <time>2021-11-11T09:06:21.704Z</time>
      </trkpt>
      <trkpt lat="47.1995" lon="-1.72443">
        <ele>51.384587</ele>
        <time>2021-11-11T09:06:24.240Z</time>
      </trkpt>
      <trkpt lat="47.1994" lon="-1.72451">
        <ele>51.19488</ele>
        <time>2021-11-11T09:06:28.622Z</time>
      </trkpt>
      <trkpt lat="47.19928" lon="-1.7245">
        <ele>51.009929</ele>
        <time>2021-11-11T09:06:30.979Z</time>
      </trkpt>
      <trkpt lat="47.19915" lon="-1.72452">
        <ele>50.803465</ele>
        <time>2021-11-11T09:06:33.827Z</time>
      </trkpt>
      <trkpt lat="47.19905" lon="-1.72452">
        <ele>50.647481</ele>
        <time>2021-11-11T09:06:36.157Z</time>
      </trkpt>
      <trkpt lat="47.19896" lon="-1.72455">
        <ele>50.500136</ele>
        <time>2021-11-11T09:06:37.905Z</time>
      </trkpt>
      <trkpt lat="47.19887" lon="-1.72459">
        <ele>50.343625</ele>
        <time>2021-11-11T09:06:40.056Z</time>
      </trkpt>
      <trkpt lat="47.19887" lon="-1.72474">
        <ele>50.186682</ele>
        <time>2021-11-11T09:06:43.534Z</time>
      </trkpt>
      <trkpt lat="47.19897" lon="-1.72487">
        <ele>49.970968</ele>
        <time>2021-11-11T09:06:45.650Z</time>
      </trkpt>
      <trkpt lat="47.19905" lon="-1.72495">
        <ele>49.816411</ele>
        <time>2021-11-11T09:06:47.779Z</time>
      </trkpt>
      <trkpt lat="47.19913" lon="-1.72514">
        <ele>49.580949</ele>
        <time>2021-11-11T09:06:50.746Z</time>
      </trkpt>
      <trkpt lat="47.19914" lon="-1.72528">
        <ele>49.426196</ele>
        <time>2021-11-11T09:06:52.758Z</time>
      </trkpt>
      <trkpt lat="47.19921" lon="-1.72538">
        <ele>49.277379</ele>
        <time>2021-11-11T09:06:54.734Z</time>
      </trkpt>
      <trkpt lat="47.1993" lon="-1.72552">
        <ele>49.326794</ele>
        <time>2021-11-11T09:06:57.774Z</time>
      </trkpt>
      <trkpt lat="47.19932" lon="-1.72566">
        <ele>49.477638</ele>
        <time>2021-11-11T09:07:00.445Z</time>
      </trkpt>
      <trkpt lat="47.19939" lon="-1.72578">
        <ele>49.645473</ele>
        <time>2021-11-11T09:07:01.973Z</time>
      </trkpt>
      <trkpt lat="47.19947" lon="-1.72589">
        <ele>49.825016</ele>
        <time>2021-11-11T09:07:05.153Z</time>
      </trkpt>
      <trkpt lat="47.19953" lon="-1.72602">
        <ele>49.985107</ele>
        <time>2021-11-11T09:07:06.889Z</time>
      </trkpt>
      <trkpt lat="47.1996" lon="-1.72614">
        <ele>50.150621</ele>
        <time>2021-11-11T09:07:09.743Z</time>
      </trkpt>
      <trkpt lat="47.19963" lon="-1.72627">
        <ele>50.296847</ele>
        <time>2021-11-11T09:07:11.392Z</time>
      </trkpt>
      <trkpt lat="47.19964" lon="-1.72644">
        <ele>50.479228</ele>
        <time>2021-11-11T09:07:14.374Z</time>
      </trkpt>
      <trkpt lat="47.19968" lon="-1.72657">
        <ele>50.623649</ele>
        <time>2021-11-11T09:07:16.446Z</time>
      </trkpt>
      <trkpt lat="47.1997" lon="-1.72672">
        <ele>50.78443</ele>
        <time>2021-11-11T09:07:18.758Z</time>
      </trkpt>
      <trkpt lat="47.1997" lon="-1.72687">
        <ele>50.951399</ele>
        <time>2021-11-11T09:07:20.665Z</time>
      </trkpt>
      <trkpt lat="47.1997" lon="-1.72704">
        <ele>51.131125</ele>
        <time>2021-11-11T09:07:23.754Z</time>
      </trkpt>
      <trkpt lat="47.19972" lon="-1.7272">
        <ele>51.299353</ele>
        <time>2021-11-11T09:07:25.939Z</time>
      </trkpt>
      <trkpt lat="47.19974" lon="-1.72737">
        <ele>51.479044</ele>
        <time>2021-11-11T09:07:27.939Z</time>
      </trkpt>
      <trkpt lat="47.19972" lon="-1.7275">
        <ele>51.625727</ele>
        <time>2021-11-11T09:07:30.506Z</time>
      </trkpt>
      <trkpt lat="47.19977" lon="-1.72764">
        <ele>51.795198</ele>
        <time>2021-11-11T09:07:32.547Z</time>
      </trkpt>
      <trkpt lat="47.19982" lon="-1.72778">
        <ele>51.961375</ele>
        <time>2021-11-11T09:07:34.673Z</time>
      </trkpt>
      <trkpt lat="47.19986" lon="-1.72796">
        <ele>52.261283</ele>
        <time>2021-11-11T09:07:37.780Z</time>
      </trkpt>
      <trkpt lat="47.19996" lon="-1.7282">
        <ele>52.777946</ele>
        <time>2021-11-11T09:07:41.741Z</time>
      </trkpt>
      <trkpt lat="47.20002" lon="-1.72832">
        <ele>53.023707</ele>
        <time>2021-11-11T09:07:43.759Z</time>
      </trkpt>
      <trkpt lat="47.20006" lon="-1.72844">
        <ele>53.261083</ele>
        <time>2021-11-11T09:07:45.767Z</time>
      </trkpt>
      <trkpt lat="47.2001" lon="-1.72863">
        <ele>53.617607</ele>
        <time>2021-11-11T09:07:48.558Z</time>
      </trkpt>
      <trkpt lat="47.20014" lon="-1.72878">
        <ele>53.91585</ele>
        <time>2021-11-11T09:07:50.747Z</time>
      </trkpt>
      <trkpt lat="47.20017" lon="-1.72894">
        <ele>54.206528</ele>
        <time>2021-11-11T09:07:52.918Z</time>
      </trkpt>
      <trkpt lat="47.20019" lon="-1.7291">
        <ele>54.503434</ele>
        <time>2021-11-11T09:07:55.755Z</time>
      </trkpt>
      <trkpt lat="47.20019" lon="-1.72929">
        <ele>54.844055</ele>
        <time>2021-11-11T09:07:58.755Z</time>
      </trkpt>
      <trkpt lat="47.20017" lon="-1.72951">
        <ele>55.23475</ele>
        <time>2021-11-11T09:08:01.780Z</time>
      </trkpt>
      <trkpt lat="47.20021" lon="-1.72964">
        <ele>55.503039</ele>
        <time>2021-11-11T09:08:03.734Z</time>
      </trkpt>
      <trkpt lat="47.20032" lon="-1.72977">
        <ele>55.850168</ele>
        <time>2021-11-11T09:08:06.756Z</time>
      </trkpt>
      <trkpt lat="47.20039" lon="-1.72989">
        <ele>56.136443</ele>
        <time>2021-11-11T09:08:08.762Z</time>
      </trkpt>
      <trkpt lat="47.20042" lon="-1.73005">
        <ele>56.425343</ele>
        <time>2021-11-11T09:08:10.756Z</time>
      </trkpt>
      <trkpt lat="47.20045" lon="-1.73018">
        <ele>56.674659</ele>
        <time>2021-11-11T09:08:12.751Z</time>
      </trkpt>
      <trkpt lat="47.20049" lon="-1.7303">
        <ele>56.594868</ele>
        <time>2021-11-11T09:08:14.746Z</time>
      </trkpt>
      <trkpt lat="47.20051" lon="-1.73045">
        <ele>56.449907</ele>
        <time>2021-11-11T09:08:16.740Z</time>
      </trkpt>
      <trkpt lat="47.20051" lon="-1.73062">
        <ele>56.293706</ele>
        <time>2021-11-11T09:08:18.745Z</time>
      </trkpt>
      <trkpt lat="47.20052" lon="-1.73077">
        <ele>56.147835</ele>
        <time>2021-11-11T09:08:20.738Z</time>
      </trkpt>
      <trkpt lat="47.20053" lon="-1.73091">
        <ele>56.018357</ele>
        <time>2021-11-11T09:08:22.760Z</time>
      </trkpt>
      <trkpt lat="47.20055" lon="-1.73104">
        <ele>55.892838</ele>
        <time>2021-11-11T09:08:24.768Z</time>
      </trkpt>
      <trkpt lat="47.20058" lon="-1.73116">
        <ele>55.767668</ele>
        <time>2021-11-11T09:08:26.784Z</time>
      </trkpt>
      <trkpt lat="47.20061" lon="-1.73131">
        <ele>55.622059</ele>
        <time>2021-11-11T09:08:28.755Z</time>
      </trkpt>
      <trkpt lat="47.20062" lon="-1.73144">
        <ele>55.496077</ele>
        <time>2021-11-11T09:08:30.766Z</time>
      </trkpt>
      <trkpt lat="47.20065" lon="-1.73159">
        <ele>55.353217</ele>
        <time>2021-11-11T09:08:32.749Z</time>
      </trkpt>
      <trkpt lat="47.20067" lon="-1.73173">
        <ele>55.2141</ele>
        <time>2021-11-11T09:08:34.757Z</time>
      </trkpt>
      <trkpt lat="47.20068" lon="-1.73188">
        <ele>55.070971</ele>
        <time>2021-11-11T09:08:36.772Z</time>
      </trkpt>
      <trkpt lat="47.20072" lon="-1.73202">
        <ele>54.93332</ele>
        <time>2021-11-11T09:08:38.750Z</time>
      </trkpt>
      <trkpt lat="47.20072" lon="-1.73217">
        <ele>54.787549</ele>
        <time>2021-11-11T09:08:40.743Z</time>
      </trkpt>
      <trkpt lat="47.20072" lon="-1.73232">
        <ele>54.642725</ele>
        <time>2021-11-11T09:08:42.736Z</time>
      </trkpt>
      <trkpt lat="47.20069" lon="-1.73246">
        <ele>54.508558</ele>
        <time>2021-11-11T09:08:44.746Z</time>
      </trkpt>
      <trkpt lat="47.20068" lon="-1.7326">
        <ele>54.369972</ele>
        <time>2021-11-11T09:08:46.762Z</time>
      </trkpt>
      <trkpt lat="47.20067" lon="-1.73274">
        <ele>54.244651</ele>
        <time>2021-11-11T09:08:48.757Z</time>
      </trkpt>
      <trkpt lat="47.20069" lon="-1.73292">
        <ele>54.336846</ele>
        <time>2021-11-11T09:08:51.773Z</time>
      </trkpt>
      <trkpt lat="47.2007" lon="-1.73306">
        <ele>54.478581</ele>
        <time>2021-11-11T09:08:53.758Z</time>
      </trkpt>
      <trkpt lat="47.20072" lon="-1.73321">
        <ele>54.624412</ele>
        <time>2021-11-11T09:08:55.767Z</time>
      </trkpt>
      <trkpt lat="47.20071" lon="-1.73336">
        <ele>54.774031</ele>
        <time>2021-11-11T09:08:57.799Z</time>
      </trkpt>
      <trkpt lat="47.20068" lon="-1.73352">
        <ele>54.92867</ele>
        <time>2021-11-11T09:08:59.777Z</time>
      </trkpt>
      <trkpt lat="47.2007" lon="-1.73378">
        <ele>55.188429</ele>
        <time>2021-11-11T09:09:03.751Z</time>
      </trkpt>
      <trkpt lat="47.20073" lon="-1.73396">
        <ele>55.368095</ele>
        <time>2021-11-11T09:09:05.758Z</time>
      </trkpt>
      <trkpt lat="47.20075" lon="-1.73411">
        <ele>55.510784</ele>
        <time>2021-11-11T09:09:07.759Z</time>
      </trkpt>
      <trkpt lat="47.20077" lon="-1.73424">
        <ele>55.639298</ele>
        <time>2021-11-11T09:09:09.748Z</time>
      </trkpt>
      <trkpt lat="47.20078" lon="-1.73438">
        <ele>55.780798</ele>
        <time>2021-11-11T09:09:11.735Z</time>
      </trkpt>
      <trkpt lat="47.20078" lon="-1.73452">
        <ele>55.917048</ele>
        <time>2021-11-11T09:09:13.751Z</time>
      </trkpt>
      <trkpt lat="47.20081" lon="-1.73466">
        <ele>56.055264</ele>
        <time>2021-11-11T09:09:15.744Z</time>
      </trkpt>
      <trkpt lat="47.20081" lon="-1.73485">
        <ele>56.241326</ele>
        <time>2021-11-11T09:09:18.296Z</time>
      </trkpt>
      <trkpt lat="47.20084" lon="-1.73499">
        <ele>56.385697</ele>
        <time>2021-11-11T09:09:20.488Z</time>
      </trkpt>
      <trkpt lat="47.20084" lon="-1.7352">
        <ele>56.583182</ele>
        <time>2021-11-11T09:09:23.378Z</time>
      </trkpt>
      <trkpt lat="47.2008" lon="-1.73533">
        <ele>56.726203</ele>
        <time>2021-11-11T09:09:25.765Z</time>
      </trkpt>
      <trkpt lat="47.20076" lon="-1.73547">
        <ele>56.984554</ele>
        <time>2021-11-11T09:09:27.459Z</time>
      </trkpt>
      <trkpt lat="47.20066" lon="-1.73551">
        <ele>57.312367</ele>
        <time>2021-11-11T09:09:30.564Z</time>
      </trkpt>
      <trkpt lat="47.20057" lon="-1.73558">
        <ele>57.611617</ele>
        <time>2021-11-11T09:09:34.331Z</time>
      </trkpt>
      <trkpt lat="47.20048" lon="-1.73563">
        <ele>57.906903</ele>
        <time>2021-11-11T09:09:39.412Z</time>
      </trkpt>
      <trkpt lat="47.20047" lon="-1.73579">
        <ele>58.23971</ele>
        <time>2021-11-11T09:09:44.130Z</time>
      </trkpt>
      <trkpt lat="47.20048" lon="-1.73593">
        <ele>58.531201</ele>
        <time>2021-11-11T09:09:46.232Z</time>
      </trkpt>
      <trkpt lat="47.20049" lon="-1.73613">
        <ele>58.943665</ele>
        <time>2021-11-11T09:09:49.175Z</time>
      </trkpt>
      <trkpt lat="47.2005" lon="-1.73628">
        <ele>59.254601</ele>
        <time>2021-11-11T09:09:51.566Z</time>
      </trkpt>
      <trkpt lat="47.20051" lon="-1.73646">
        <ele>59.633827</ele>
        <time>2021-11-11T09:09:54.667Z</time>
      </trkpt>
      <trkpt lat="47.2005" lon="-1.73664">
        <ele>60.002364</ele>
        <time>2021-11-11T09:09:57.417Z</time>
      </trkpt>
      <trkpt lat="47.20048" lon="-1.73677">
        <ele>60.281683</ele>
        <time>2021-11-11T09:09:59.569Z</time>
      </trkpt>
      <trkpt lat="47.20045" lon="-1.7369">
        <ele>60.568721</ele>
        <time>2021-11-11T09:10:01.763Z</time>
      </trkpt>
      <trkpt lat="47.20043" lon="-1.73705">
        <ele>60.891404</ele>
        <time>2021-11-11T09:10:04.091Z</time>
      </trkpt>
      <trkpt lat="47.20043" lon="-1.73718">
        <ele>61.170185</ele>
        <time>2021-11-11T09:10:06.508Z</time>
      </trkpt>
      <trkpt lat="47.20041" lon="-1.73732">
        <ele>61.452709</ele>
        <time>2021-11-11T09:10:08.311Z</time>
      </trkpt>
      <trkpt lat="47.20039" lon="-1.73747">
        <ele>61.768549</ele>
        <time>2021-11-11T09:10:11.132Z</time>
      </trkpt>
      <trkpt lat="47.20035" lon="-1.73763">
        <ele>62.127089</ele>
        <time>2021-11-11T09:10:14.148Z</time>
      </trkpt>
      <trkpt lat="47.20034" lon="-1.73778">
        <ele>62.239003</ele>
        <time>2021-11-11T09:10:17.416Z</time>
      </trkpt>
      <trkpt lat="47.20033" lon="-1.73794">
        <ele>62.138102</ele>
        <time>2021-11-11T09:10:20.421Z</time>
      </trkpt>
      <trkpt lat="47.20031" lon="-1.73809">
        <ele>62.048535</ele>
        <time>2021-11-11T09:10:23.435Z</time>
      </trkpt>
      <trkpt lat="47.20027" lon="-1.73825">
        <ele>61.946149</ele>
        <time>2021-11-11T09:10:26.280Z</time>
      </trkpt>
      <trkpt lat="47.20023" lon="-1.73838">
        <ele>61.856806</ele>
        <time>2021-11-11T09:10:29.543Z</time>
      </trkpt>
      <trkpt lat="47.20018" lon="-1.73849">
        <ele>61.775804</ele>
        <time>2021-11-11T09:10:32.245Z</time>
      </trkpt>
      <trkpt lat="47.20013" lon="-1.7386">
        <ele>61.693889</ele>
        <time>2021-11-11T09:10:35.250Z</time>
      </trkpt>
      <trkpt lat="47.20005" lon="-1.73869">
        <ele>61.60531</ele>
        <time>2021-11-11T09:10:39.770Z</time>
      </trkpt>
      <trkpt lat="47.20002" lon="-1.73884">
        <ele>61.507355</ele>
        <time>2021-11-11T09:10:42.687Z</time>
      </trkpt>
      <trkpt lat="47.20001" lon="-1.73899">
        <ele>61.415856</ele>
        <time>2021-11-11T09:10:44.814Z</time>
      </trkpt>
      <trkpt lat="47.19996" lon="-1.73914">
        <ele>61.318265</ele>
        <time>2021-11-11T09:10:47.729Z</time>
      </trkpt>
      <trkpt lat="47.1999" lon="-1.73926">
        <ele>61.228248</ele>
        <time>2021-11-11T09:10:49.537Z</time>
      </trkpt>
      <trkpt lat="47.19982" lon="-1.73941">
        <ele>61.110059</ele>
        <time>2021-11-11T09:10:52.606Z</time>
      </trkpt>
      <trkpt lat="47.19974" lon="-1.73952">
        <ele>61.010339</ele>
        <time>2021-11-11T09:10:55.514Z</time>
      </trkpt>
      <trkpt lat="47.19964" lon="-1.73962">
        <ele>60.905205</ele>
        <time>2021-11-11T09:10:59.586Z</time>
      </trkpt>
      <trkpt lat="47.19962" lon="-1.73975">
        <ele>60.824412</ele>
        <time>2021-11-11T09:11:02.607Z</time>
      </trkpt>
      <trkpt lat="47.19958" lon="-1.73991">
        <ele>60.720456</ele>
        <time>2021-11-11T09:11:06.142Z</time>
      </trkpt>
      <trkpt lat="47.1996" lon="-1.74005">
        <ele>60.526242</ele>
        <time>2021-11-11T09:11:08.286Z</time>
      </trkpt>
      <trkpt lat="47.19964" lon="-1.74029">
        <ele>59.962926</ele>
        <time>2021-11-11T09:11:11.752Z</time>
      </trkpt>
      <trkpt lat="47.19966" lon="-1.74046">
        <ele>59.573703</ele>
        <time>2021-11-11T09:11:13.755Z</time>
      </trkpt>
      <trkpt lat="47.19968" lon="-1.74064">
        <ele>59.150307</ele>
        <time>2021-11-11T09:11:15.757Z</time>
      </trkpt>
      <trkpt lat="47.19969" lon="-1.74085">
        <ele>58.678432</ele>
        <time>2021-11-11T09:11:17.751Z</time>
      </trkpt>
      <trkpt lat="47.19971" lon="-1.74106">
        <ele>58.195549</ele>
        <time>2021-11-11T09:11:19.750Z</time>
      </trkpt>
      <trkpt lat="47.19975" lon="-1.74126">
        <ele>57.717703</ele>
        <time>2021-11-11T09:11:21.751Z</time>
      </trkpt>
      <trkpt lat="47.19978" lon="-1.74146">
        <ele>57.241409</ele>
        <time>2021-11-11T09:11:23.754Z</time>
      </trkpt>
      <trkpt lat="47.19981" lon="-1.74167">
        <ele>56.763637</ele>
        <time>2021-11-11T09:11:25.760Z</time>
      </trkpt>
      <trkpt lat="47.19984" lon="-1.7419">
        <ele>56.224411</ele>
        <time>2021-11-11T09:11:27.760Z</time>
      </trkpt>
      <trkpt lat="47.19989" lon="-1.74216">
        <ele>55.621479</ele>
        <time>2021-11-11T09:11:29.763Z</time>
      </trkpt>
      <trkpt lat="47.19991" lon="-1.74229">
        <ele>55.31721</ele>
        <time>2021-11-11T09:11:30.756Z</time>
      </trkpt>
      <trkpt lat="47.19999" lon="-1.74252">
        <ele>54.729236</ele>
        <time>2021-11-11T09:11:32.757Z</time>
      </trkpt>
      <trkpt lat="47.20003" lon="-1.74264">
        <ele>54.630461</ele>
        <time>2021-11-11T09:11:33.749Z</time>
      </trkpt>
      <trkpt lat="47.20009" lon="-1.74275">
        <ele>54.598942</ele>
        <time>2021-11-11T09:11:34.723Z</time>
      </trkpt>
      <trkpt lat="47.20014" lon="-1.74286">
        <ele>54.569081</ele>
        <time>2021-11-11T09:11:35.736Z</time>
      </trkpt>
      <trkpt lat="47.20026" lon="-1.74303">
        <ele>54.515254</ele>
        <time>2021-11-11T09:11:37.728Z</time>
      </trkpt>
      <trkpt lat="47.20034" lon="-1.74322">
        <ele>54.465692</ele>
        <time>2021-11-11T09:11:39.752Z</time>
      </trkpt>
      <trkpt lat="47.20039" lon="-1.74342">
        <ele>54.418629</ele>
        <time>2021-11-11T09:11:41.746Z</time>
      </trkpt>
      <trkpt lat="47.20043" lon="-1.7436">
        <ele>54.375898</ele>
        <time>2021-11-11T09:11:43.754Z</time>
      </trkpt>
      <trkpt lat="47.20046" lon="-1.74377">
        <ele>54.335366</ele>
        <time>2021-11-11T09:11:45.759Z</time>
      </trkpt>
      <trkpt lat="47.20051" lon="-1.74394">
        <ele>54.29598</ele>
        <time>2021-11-11T09:11:47.765Z</time>
      </trkpt>
      <trkpt lat="47.20054" lon="-1.7441">
        <ele>54.257371</ele>
        <time>2021-11-11T09:11:49.747Z</time>
      </trkpt>
      <trkpt lat="47.20057" lon="-1.74427">
        <ele>54.22016</ele>
        <time>2021-11-11T09:11:51.748Z</time>
      </trkpt>
      <trkpt lat="47.2006" lon="-1.74443">
        <ele>54.182288</ele>
        <time>2021-11-11T09:11:53.739Z</time>
      </trkpt>
      <trkpt lat="47.20063" lon="-1.74459">
        <ele>54.145452</ele>
        <time>2021-11-11T09:11:55.756Z</time>
      </trkpt>
      <trkpt lat="47.20065" lon="-1.74475">
        <ele>54.108875</ele>
        <time>2021-11-11T09:11:57.756Z</time>
      </trkpt>
      <trkpt lat="47.20069" lon="-1.74491">
        <ele>54.071611</ele>
        <time>2021-11-11T09:11:59.762Z</time>
      </trkpt>
      <trkpt lat="47.20071" lon="-1.74507">
        <ele>54.069524</ele>
        <time>2021-11-11T09:12:01.745Z</time>
      </trkpt>
      <trkpt lat="47.20074" lon="-1.74523">
        <ele>54.076744</ele>
        <time>2021-11-11T09:12:03.757Z</time>
      </trkpt>
      <trkpt lat="47.20077" lon="-1.74538">
        <ele>54.083914</ele>
        <time>2021-11-11T09:12:05.769Z</time>
      </trkpt>
      <trkpt lat="47.2008" lon="-1.74553">
        <ele>54.091178</ele>
        <time>2021-11-11T09:12:07.756Z</time>
      </trkpt>
      <trkpt lat="47.20083" lon="-1.74569">
        <ele>54.09853</ele>
        <time>2021-11-11T09:12:09.754Z</time>
      </trkpt>
      <trkpt lat="47.20086" lon="-1.74585">
        <ele>54.105919</ele>
        <time>2021-11-11T09:12:11.760Z</time>
      </trkpt>
      <trkpt lat="47.20089" lon="-1.746">
        <ele>54.113239</ele>
        <time>2021-11-11T09:12:13.756Z</time>
      </trkpt>
      <trkpt lat="47.20092" lon="-1.74615">
        <ele>54.120415</ele>
        <time>2021-11-11T09:12:15.754Z</time>
      </trkpt>
      <trkpt lat="47.20095" lon="-1.7463">
        <ele>54.127562</ele>
        <time>2021-11-11T09:12:17.747Z</time>
      </trkpt>
      <trkpt lat="47.20098" lon="-1.74645">
        <ele>54.134694</ele>
        <time>2021-11-11T09:12:19.782Z</time>
      </trkpt>
      <trkpt lat="47.20101" lon="-1.74661">
        <ele>54.141924</ele>
        <time>2021-11-11T09:12:21.778Z</time>
      </trkpt>
      <trkpt lat="47.20103" lon="-1.74676">
        <ele>54.148943</ele>
        <time>2021-11-11T09:12:23.756Z</time>
      </trkpt>
      <trkpt lat="47.20106" lon="-1.74691">
        <ele>54.15622</ele>
        <time>2021-11-11T09:12:25.752Z</time>
      </trkpt>
      <trkpt lat="47.2011" lon="-1.74706">
        <ele>54.16352</ele>
        <time>2021-11-11T09:12:27.761Z</time>
      </trkpt>
      <trkpt lat="47.20113" lon="-1.74722">
        <ele>54.170866</ele>
        <time>2021-11-11T09:12:29.752Z</time>
      </trkpt>
      <trkpt lat="47.20115" lon="-1.74737">
        <ele>54.177974</ele>
        <time>2021-11-11T09:12:31.756Z</time>
      </trkpt>
      <trkpt lat="47.20117" lon="-1.74752">
        <ele>54.177394</ele>
        <time>2021-11-11T09:12:33.758Z</time>
      </trkpt>
      <trkpt lat="47.20121" lon="-1.74767">
        <ele>54.138208</ele>
        <time>2021-11-11T09:12:35.758Z</time>
      </trkpt>
      <trkpt lat="47.20124" lon="-1.74782">
        <ele>54.09954</ele>
        <time>2021-11-11T09:12:37.761Z</time>
      </trkpt>
      <trkpt lat="47.20127" lon="-1.74798">
        <ele>54.059133</ele>
        <time>2021-11-11T09:12:39.748Z</time>
      </trkpt>
      <trkpt lat="47.20131" lon="-1.74814">
        <ele>54.01959</ele>
        <time>2021-11-11T09:12:41.755Z</time>
      </trkpt>
      <trkpt lat="47.20134" lon="-1.7483">
        <ele>53.979887</ele>
        <time>2021-11-11T09:12:43.777Z</time>
      </trkpt>
      <trkpt lat="47.20136" lon="-1.74846">
        <ele>53.939761</ele>
        <time>2021-11-11T09:12:45.756Z</time>
      </trkpt>
      <trkpt lat="47.20138" lon="-1.74862">
        <ele>53.900497</ele>
        <time>2021-11-11T09:12:47.748Z</time>
      </trkpt>
      <trkpt lat="47.20141" lon="-1.74877">
        <ele>53.862662</ele>
        <time>2021-11-11T09:12:49.755Z</time>
      </trkpt>
      <trkpt lat="47.20145" lon="-1.7489">
        <ele>53.825398</ele>
        <time>2021-11-11T09:12:51.751Z</time>
      </trkpt>
      <trkpt lat="47.20148" lon="-1.74905">
        <ele>53.789776</ele>
        <time>2021-11-11T09:12:53.755Z</time>
      </trkpt>
      <trkpt lat="47.20148" lon="-1.7492">
        <ele>53.75242</ele>
        <time>2021-11-11T09:12:55.759Z</time>
      </trkpt>
      <trkpt lat="47.20152" lon="-1.74934">
        <ele>53.716206</ele>
        <time>2021-11-11T09:12:57.755Z</time>
      </trkpt>
      <trkpt lat="47.20155" lon="-1.74949">
        <ele>53.677592</ele>
        <time>2021-11-11T09:12:59.751Z</time>
      </trkpt>
      <trkpt lat="47.20159" lon="-1.74964">
        <ele>53.638172</ele>
        <time>2021-11-11T09:13:01.753Z</time>
      </trkpt>
      <trkpt lat="47.20161" lon="-1.7498">
        <ele>53.599925</ele>
        <time>2021-11-11T09:13:03.756Z</time>
      </trkpt>
      <trkpt lat="47.20164" lon="-1.74995">
        <ele>53.560736</ele>
        <time>2021-11-11T09:13:05.755Z</time>
      </trkpt>
      <trkpt lat="47.20167" lon="-1.75011">
        <ele>53.54508</ele>
        <time>2021-11-11T09:13:07.776Z</time>
      </trkpt>
      <trkpt lat="47.2017" lon="-1.75027">
        <ele>53.557123</ele>
        <time>2021-11-11T09:13:09.769Z</time>
      </trkpt>
      <trkpt lat="47.20173" lon="-1.75043">
        <ele>53.568971</ele>
        <time>2021-11-11T09:13:11.761Z</time>
      </trkpt>
      <trkpt lat="47.20175" lon="-1.75058">
        <ele>53.580428</ele>
        <time>2021-11-11T09:13:13.750Z</time>
      </trkpt>
      <trkpt lat="47.20178" lon="-1.75074">
        <ele>53.591815</ele>
        <time>2021-11-11T09:13:15.768Z</time>
      </trkpt>
      <trkpt lat="47.20182" lon="-1.75089">
        <ele>53.603353</ele>
        <time>2021-11-11T09:13:17.741Z</time>
      </trkpt>
      <trkpt lat="47.20185" lon="-1.75104">
        <ele>53.614621</ele>
        <time>2021-11-11T09:13:19.759Z</time>
      </trkpt>
      <trkpt lat="47.20188" lon="-1.75119">
        <ele>53.626524</ele>
        <time>2021-11-11T09:13:21.746Z</time>
      </trkpt>
      <trkpt lat="47.20191" lon="-1.75135">
        <ele>53.638177</ele>
        <time>2021-11-11T09:13:23.769Z</time>
      </trkpt>
      <trkpt lat="47.20195" lon="-1.7515">
        <ele>53.649868</ele>
        <time>2021-11-11T09:13:25.749Z</time>
      </trkpt>
      <trkpt lat="47.202" lon="-1.75164">
        <ele>53.661723</ele>
        <time>2021-11-11T09:13:27.739Z</time>
      </trkpt>
      <trkpt lat="47.20205" lon="-1.75178">
        <ele>53.673046</ele>
        <time>2021-11-11T09:13:29.747Z</time>
      </trkpt>
      <trkpt lat="47.2021" lon="-1.75192">
        <ele>53.684401</ele>
        <time>2021-11-11T09:13:31.760Z</time>
      </trkpt>
      <trkpt lat="47.20214" lon="-1.75207">
        <ele>53.695972</ele>
        <time>2021-11-11T09:13:33.765Z</time>
      </trkpt>
      <trkpt lat="47.20219" lon="-1.75222">
        <ele>53.70774</ele>
        <time>2021-11-11T09:13:35.745Z</time>
      </trkpt>
      <trkpt lat="47.20224" lon="-1.75237">
        <ele>53.71997</ele>
        <time>2021-11-11T09:13:37.757Z</time>
      </trkpt>
      <trkpt lat="47.20228" lon="-1.75253">
        <ele>53.731462</ele>
        <time>2021-11-11T09:13:39.753Z</time>
      </trkpt>
      <trkpt lat="47.20232" lon="-1.75269">
        <ele>53.736737</ele>
        <time>2021-11-11T09:13:41.757Z</time>
      </trkpt>
      <trkpt lat="47.20236" lon="-1.75285">
        <ele>53.741979</ele>
        <time>2021-11-11T09:13:43.759Z</time>
      </trkpt>
      <trkpt lat="47.20241" lon="-1.75301">
        <ele>53.747369</ele>
        <time>2021-11-11T09:13:45.763Z</time>
      </trkpt>
      <trkpt lat="47.20245" lon="-1.75317">
        <ele>53.752669</ele>
        <time>2021-11-11T09:13:47.751Z</time>
      </trkpt>
      <trkpt lat="47.20249" lon="-1.75333">
        <ele>53.758002</ele>
        <time>2021-11-11T09:13:49.749Z</time>
      </trkpt>
      <trkpt lat="47.20253" lon="-1.7535">
        <ele>53.763302</ele>
        <time>2021-11-11T09:13:51.757Z</time>
      </trkpt>
      <trkpt lat="47.20257" lon="-1.75366">
        <ele>53.768692</ele>
        <time>2021-11-11T09:13:53.764Z</time>
      </trkpt>
      <trkpt lat="47.20262" lon="-1.75382">
        <ele>53.774086</ele>
        <time>2021-11-11T09:13:55.764Z</time>
      </trkpt>
      <trkpt lat="47.20266" lon="-1.75398">
        <ele>53.779362</ele>
        <time>2021-11-11T09:13:57.772Z</time>
      </trkpt>
      <trkpt lat="47.20269" lon="-1.75413">
        <ele>53.784251</ele>
        <time>2021-11-11T09:13:59.751Z</time>
      </trkpt>
      <trkpt lat="47.20272" lon="-1.75428">
        <ele>53.789034</ele>
        <time>2021-11-11T09:14:01.773Z</time>
      </trkpt>
      <trkpt lat="47.20277" lon="-1.75442">
        <ele>53.793952</ele>
        <time>2021-11-11T09:14:03.775Z</time>
      </trkpt>
      <trkpt lat="47.20282" lon="-1.75456">
        <ele>53.798838</ele>
        <time>2021-11-11T09:14:05.776Z</time>
      </trkpt>
      <trkpt lat="47.20286" lon="-1.75471">
        <ele>53.803773</ele>
        <time>2021-11-11T09:14:07.750Z</time>
      </trkpt>
      <trkpt lat="47.20289" lon="-1.75486">
        <ele>53.808619</ele>
        <time>2021-11-11T09:14:09.749Z</time>
      </trkpt>
      <trkpt lat="47.20292" lon="-1.75501">
        <ele>53.817192</ele>
        <time>2021-11-11T09:14:11.776Z</time>
      </trkpt>
      <trkpt lat="47.20296" lon="-1.75514">
        <ele>53.841861</ele>
        <time>2021-11-11T09:14:13.768Z</time>
      </trkpt>
      <trkpt lat="47.203" lon="-1.75527">
        <ele>53.866998</ele>
        <time>2021-11-11T09:14:15.765Z</time>
      </trkpt>
      <trkpt lat="47.20303" lon="-1.7554">
        <ele>53.891328</ele>
        <time>2021-11-11T09:14:17.729Z</time>
      </trkpt>
      <trkpt lat="47.20306" lon="-1.75553">
        <ele>53.915744</ele>
        <time>2021-11-11T09:14:19.766Z</time>
      </trkpt>
      <trkpt lat="47.2031" lon="-1.75567">
        <ele>53.942054</ele>
        <time>2021-11-11T09:14:21.756Z</time>
      </trkpt>
      <trkpt lat="47.20314" lon="-1.75582">
        <ele>53.971063</ele>
        <time>2021-11-11T09:14:23.759Z</time>
      </trkpt>
      <trkpt lat="47.20319" lon="-1.75594">
        <ele>53.995411</ele>
        <time>2021-11-11T09:14:26.754Z</time>
      </trkpt>
      <trkpt lat="47.20317" lon="-1.7558">
        <ele>54.020956</ele>
        <time>2021-11-11T09:14:31.125Z</time>
      </trkpt>
      <trkpt lat="47.20311" lon="-1.75567">
        <ele>54.048242</ele>
        <time>2021-11-11T09:14:33.397Z</time>
      </trkpt>
      <trkpt lat="47.20308" lon="-1.75549">
        <ele>54.08062</ele>
        <time>2021-11-11T09:14:36.254Z</time>
      </trkpt>
      <trkpt lat="47.20305" lon="-1.75536">
        <ele>54.105697</ele>
        <time>2021-11-11T09:14:38.406Z</time>
      </trkpt>
      <trkpt lat="47.20301" lon="-1.75521">
        <ele>54.133375</ele>
        <time>2021-11-11T09:14:41.530Z</time>
      </trkpt>
      <trkpt lat="47.20311" lon="-1.75518">
        <ele>54.158574</ele>
        <time>2021-11-11T09:14:47.784Z</time>
      </trkpt>
      <trkpt lat="47.2032" lon="-1.75524">
        <ele>54.183537</ele>
        <time>2021-11-11T09:14:52.717Z</time>
      </trkpt>
      <trkpt lat="47.20329" lon="-1.75531">
        <ele>54.209574</ele>
        <time>2021-11-11T09:14:59.927Z</time>
      </trkpt>
      <trkpt lat="47.20336" lon="-1.75542">
        <ele>54.236569</ele>
        <time>2021-11-11T09:15:06.774Z</time>
      </trkpt>
      <trkpt lat="47.20344" lon="-1.7555">
        <ele>54.260868</ele>
        <time>2021-11-11T09:15:14.176Z</time>
      </trkpt>
      <trkpt lat="47.2035" lon="-1.75561">
        <ele>54.258867</ele>
        <time>2021-11-11T09:15:37.745Z</time>
      </trkpt>
      <trkpt lat="47.20358" lon="-1.75569">
        <ele>54.208972</ele>
        <time>2021-11-11T09:15:43.755Z</time>
      </trkpt>
      <trkpt lat="47.20364" lon="-1.75578">
        <ele>54.161484</ele>
        <time>2021-11-11T09:15:57.765Z</time>
      </trkpt>
      <trkpt lat="47.20373" lon="-1.75571">
        <ele>54.110831</ele>
        <time>2021-11-11T09:20:16.752Z</time>
      </trkpt>
      <trkpt lat="47.20383" lon="-1.7557">
        <ele>54.056759</ele>
        <time>2021-11-11T09:20:25.759Z</time>
      </trkpt>
      <trkpt lat="47.20393" lon="-1.75565">
        <ele>54.004659</ele>
        <time>2021-11-11T09:20:33.778Z</time>
      </trkpt>
      <trkpt lat="47.204" lon="-1.75556">
        <ele>53.957477</ele>
        <time>2021-11-11T09:20:40.751Z</time>
      </trkpt>
      <trkpt lat="47.20407" lon="-1.75548">
        <ele>53.910242</ele>
        <time>2021-11-11T09:20:45.745Z</time>
      </trkpt>
      <trkpt lat="47.20415" lon="-1.75538">
        <ele>53.855914</ele>
        <time>2021-11-11T09:20:50.756Z</time>
      </trkpt>
      <trkpt lat="47.20421" lon="-1.75529">
        <ele>53.809077</ele>
        <time>2021-11-11T09:20:54.772Z</time>
      </trkpt>
      <trkpt lat="47.20429" lon="-1.7552">
        <ele>53.75847</ele>
        <time>2021-11-11T09:20:58.752Z</time>
      </trkpt>
      <trkpt lat="47.20435" lon="-1.75509">
        <ele>53.70577</ele>
        <time>2021-11-11T09:21:02.771Z</time>
      </trkpt>
      <trkpt lat="47.20442" lon="-1.75496">
        <ele>53.646895</ele>
        <time>2021-11-11T09:21:06.761Z</time>
      </trkpt>
      <trkpt lat="47.20449" lon="-1.75482">
        <ele>53.586582</ele>
        <time>2021-11-11T09:21:10.755Z</time>
      </trkpt>
      <trkpt lat="47.20457" lon="-1.75468">
        <ele>53.523944</ele>
        <time>2021-11-11T09:21:14.749Z</time>
      </trkpt>
      <trkpt lat="47.20462" lon="-1.75457">
        <ele>53.475405</ele>
        <time>2021-11-11T09:21:17.736Z</time>
      </trkpt>
      <trkpt lat="47.20468" lon="-1.75447">
        <ele>53.428381</ele>
        <time>2021-11-11T09:21:20.770Z</time>
      </trkpt>
      <trkpt lat="47.20474" lon="-1.75436">
        <ele>53.378917</ele>
        <time>2021-11-11T09:21:23.768Z</time>
      </trkpt>
      <trkpt lat="47.20479" lon="-1.75425">
        <ele>53.336855</ele>
        <time>2021-11-11T09:21:26.761Z</time>
      </trkpt>
      <trkpt lat="47.20485" lon="-1.75415">
        <ele>53.334894</ele>
        <time>2021-11-11T09:21:29.775Z</time>
      </trkpt>
      <trkpt lat="47.20491" lon="-1.75404">
        <ele>53.33297</ele>
        <time>2021-11-11T09:21:32.753Z</time>
      </trkpt>
      <trkpt lat="47.20496" lon="-1.75394">
        <ele>53.331022</ele>
        <time>2021-11-11T09:21:35.757Z</time>
      </trkpt>
      <trkpt lat="47.20502" lon="-1.75382">
        <ele>53.328981</ele>
        <time>2021-11-11T09:21:38.782Z</time>
      </trkpt>
      <trkpt lat="47.20508" lon="-1.7537">
        <ele>53.326859</ele>
        <time>2021-11-11T09:21:41.761Z</time>
      </trkpt>
      <trkpt lat="47.20514" lon="-1.75358">
        <ele>53.324749</ele>
        <time>2021-11-11T09:21:44.756Z</time>
      </trkpt>
      <trkpt lat="47.2052" lon="-1.75346">
        <ele>53.322567</ele>
        <time>2021-11-11T09:21:47.765Z</time>
      </trkpt>
      <trkpt lat="47.20526" lon="-1.75334">
        <ele>53.320357</ele>
        <time>2021-11-11T09:21:51.758Z</time>
      </trkpt>
      <trkpt lat="47.20533" lon="-1.75321">
        <ele>53.318006</ele>
        <time>2021-11-11T09:21:55.755Z</time>
      </trkpt>
      <trkpt lat="47.20539" lon="-1.75308">
        <ele>53.315764</ele>
        <time>2021-11-11T09:21:59.753Z</time>
      </trkpt>
      <trkpt lat="47.20544" lon="-1.75297">
        <ele>53.313785</ele>
        <time>2021-11-11T09:22:03.761Z</time>
      </trkpt>
      <trkpt lat="47.2055" lon="-1.75285">
        <ele>53.311687</ele>
        <time>2021-11-11T09:22:08.785Z</time>
      </trkpt>
      <trkpt lat="47.20555" lon="-1.75272">
        <ele>53.309517</ele>
        <time>2021-11-11T09:22:14.763Z</time>
      </trkpt>
      <trkpt lat="47.20561" lon="-1.75261">
        <ele>53.307501</ele>
        <time>2021-11-11T09:22:21.766Z</time>
      </trkpt>
      <trkpt lat="47.20567" lon="-1.75251">
        <ele>53.305596</ele>
        <time>2021-11-11T09:22:33.771Z</time>
      </trkpt>
      <trkpt lat="47.2057" lon="-1.75238">
        <ele>53.303591</ele>
        <time>2021-11-11T09:22:50.749Z</time>
      </trkpt>
      <trkpt lat="47.20574" lon="-1.75223">
        <ele>53.301353</ele>
        <time>2021-11-11T09:22:56.750Z</time>
      </trkpt>
      <trkpt lat="47.20572" lon="-1.75209">
        <ele>53.299186</ele>
        <time>2021-11-11T09:23:02.759Z</time>
      </trkpt>
      <trkpt lat="47.20576" lon="-1.75194">
        <ele>53.339126</ele>
        <time>2021-11-11T09:23:09.751Z</time>
      </trkpt>
      <trkpt lat="47.20579" lon="-1.7518">
        <ele>53.38305</ele>
        <time>2021-11-11T09:23:16.745Z</time>
      </trkpt>
      <trkpt lat="47.20585" lon="-1.75169">
        <ele>53.42606</ele>
        <time>2021-11-11T09:23:23.840Z</time>
      </trkpt>
      <trkpt lat="47.2059" lon="-1.75157">
        <ele>53.466125</ele>
        <time>2021-11-11T09:23:49.312Z</time>
      </trkpt>
      <trkpt lat="47.20597" lon="-1.75149">
        <ele>53.50724</ele>
        <time>2021-11-11T09:23:51.491Z</time>
      </trkpt>
      <trkpt lat="47.20608" lon="-1.75141">
        <ele>53.561029</ele>
        <time>2021-11-11T09:23:54.344Z</time>
      </trkpt>
      <trkpt lat="47.20611" lon="-1.75128">
        <ele>53.60032</ele>
        <time>2021-11-11T09:23:56.692Z</time>
      </trkpt>
      <trkpt lat="47.20615" lon="-1.75114">
        <ele>53.645241</ele>
        <time>2021-11-11T09:23:59.361Z</time>
      </trkpt>
      <trkpt lat="47.20619" lon="-1.75101">
        <ele>53.687269</ele>
        <time>2021-11-11T09:24:03.741Z</time>
      </trkpt>
      <trkpt lat="47.20624" lon="-1.75087">
        <ele>53.734613</ele>
        <time>2021-11-11T09:24:06.240Z</time>
      </trkpt>
      <trkpt lat="47.20629" lon="-1.75072">
        <ele>53.786308</ele>
        <time>2021-11-11T09:24:09.410Z</time>
      </trkpt>
      <trkpt lat="47.20635" lon="-1.75056">
        <ele>53.840057</ele>
        <time>2021-11-11T09:24:12.401Z</time>
      </trkpt>
      <trkpt lat="47.20637" lon="-1.75042">
        <ele>53.882935</ele>
        <time>2021-11-11T09:24:15.115Z</time>
      </trkpt>
      <trkpt lat="47.20669" lon="-1.75015">
        <ele>54.044459</ele>
        <time>2021-11-11T09:27:10.585Z</time>
      </trkpt>
      <trkpt lat="47.2066" lon="-1.74992">
        <ele>53.990135</ele>
        <time>2021-11-11T09:27:13.562Z</time>
      </trkpt>
      <trkpt lat="47.20658" lon="-1.74972">
        <ele>53.854977</ele>
        <time>2021-11-11T09:27:15.476Z</time>
      </trkpt>
      <trkpt lat="47.20666" lon="-1.74955">
        <ele>53.712955</ele>
        <time>2021-11-11T09:27:17.242Z</time>
      </trkpt>
      <trkpt lat="47.20675" lon="-1.74954">
        <ele>53.616597</ele>
        <time>2021-11-11T09:27:18.430Z</time>
      </trkpt>
      <trkpt lat="47.20688" lon="-1.74957">
        <ele>53.48848</ele>
        <time>2021-11-11T09:27:20.161Z</time>
      </trkpt>
      <trkpt lat="47.20697" lon="-1.74967">
        <ele>53.376064</ele>
        <time>2021-11-11T09:27:21.924Z</time>
      </trkpt>
      <trkpt lat="47.20706" lon="-1.74947">
        <ele>53.208531</ele>
        <time>2021-11-11T09:27:29.773Z</time>
      </trkpt>
      <trkpt lat="47.20718" lon="-1.74943">
        <ele>53.084337</ele>
        <time>2021-11-11T09:27:31.756Z</time>
      </trkpt>
      <trkpt lat="47.20727" lon="-1.74942">
        <ele>52.993715</ele>
        <time>2021-11-11T09:27:50.753Z</time>
      </trkpt>
      <trkpt lat="47.20738" lon="-1.74942">
        <ele>52.876754</ele>
        <time>2021-11-11T09:28:03.484Z</time>
      </trkpt>
      <trkpt lat="47.20749" lon="-1.7494">
        <ele>52.763578</ele>
        <time>2021-11-11T09:28:05.395Z</time>
      </trkpt>
      <trkpt lat="47.2076" lon="-1.74937">
        <ele>52.65304</ele>
        <time>2021-11-11T09:28:07.765Z</time>
      </trkpt>
      <trkpt lat="47.2077" lon="-1.74934">
        <ele>52.554501</ele>
        <time>2021-11-11T09:28:09.758Z</time>
      </trkpt>
      <trkpt lat="47.20779" lon="-1.74931">
        <ele>52.455197</ele>
        <time>2021-11-11T09:28:11.764Z</time>
      </trkpt>
      <trkpt lat="47.20789" lon="-1.74927">
        <ele>52.353496</ele>
        <time>2021-11-11T09:28:13.754Z</time>
      </trkpt>
      <trkpt lat="47.20799" lon="-1.74924">
        <ele>52.278494</ele>
        <time>2021-11-11T09:28:15.750Z</time>
      </trkpt>
      <trkpt lat="47.20809" lon="-1.7492">
        <ele>52.304192</ele>
        <time>2021-11-11T09:28:17.755Z</time>
      </trkpt>
      <trkpt lat="47.20818" lon="-1.74916">
        <ele>52.327756</ele>
        <time>2021-11-11T09:28:19.751Z</time>
      </trkpt>
      <trkpt lat="47.20827" lon="-1.74913">
        <ele>52.350681</ele>
        <time>2021-11-11T09:28:21.786Z</time>
      </trkpt>
      <trkpt lat="47.20838" lon="-1.74909">
        <ele>52.378751</ele>
        <time>2021-11-11T09:28:24.744Z</time>
      </trkpt>
      <trkpt lat="47.2085" lon="-1.74904">
        <ele>52.410834</ele>
        <time>2021-11-11T09:28:27.741Z</time>
      </trkpt>
      <trkpt lat="47.20859" lon="-1.74896">
        <ele>52.438515</ele>
        <time>2021-11-11T09:28:30.403Z</time>
      </trkpt>
      <trkpt lat="47.20869" lon="-1.7489">
        <ele>52.464849</ele>
        <time>2021-11-11T09:28:32.957Z</time>
      </trkpt>
      <trkpt lat="47.20879" lon="-1.74879">
        <ele>52.497265</ele>
        <time>2021-11-11T09:28:36.540Z</time>
      </trkpt>
      <trkpt lat="47.20889" lon="-1.7487">
        <ele>52.525894</ele>
        <time>2021-11-11T09:28:39.277Z</time>
      </trkpt>
      <trkpt lat="47.20912" lon="-1.74875">
        <ele>52.585629</ele>
        <time>2021-11-11T09:28:42.762Z</time>
      </trkpt>
      <trkpt lat="47.20922" lon="-1.7487">
        <ele>52.612181</ele>
        <time>2021-11-11T09:28:44.756Z</time>
      </trkpt>
      <trkpt lat="47.20931" lon="-1.74863">
        <ele>52.638886</ele>
        <time>2021-11-11T09:28:46.750Z</time>
      </trkpt>
      <trkpt lat="47.20938" lon="-1.74852">
        <ele>52.664485</ele>
        <time>2021-11-11T09:28:48.771Z</time>
      </trkpt>
      <trkpt lat="47.20943" lon="-1.7484">
        <ele>52.689119</ele>
        <time>2021-11-11T09:28:50.750Z</time>
      </trkpt>
      <trkpt lat="47.20946" lon="-1.74826">
        <ele>52.713467</ele>
        <time>2021-11-11T09:28:52.752Z</time>
      </trkpt>
      <trkpt lat="47.20948" lon="-1.74812">
        <ele>52.740874</ele>
        <time>2021-11-11T09:28:54.768Z</time>
      </trkpt>
      <trkpt lat="47.20949" lon="-1.74797">
        <ele>52.771224</ele>
        <time>2021-11-11T09:28:56.739Z</time>
      </trkpt>
      <trkpt lat="47.20951" lon="-1.74783">
        <ele>52.802389</ele>
        <time>2021-11-11T09:28:58.765Z</time>
      </trkpt>
      <trkpt lat="47.20952" lon="-1.74766">
        <ele>52.836631</ele>
        <time>2021-11-11T09:29:00.768Z</time>
      </trkpt>
      <trkpt lat="47.20954" lon="-1.7475">
        <ele>52.871656</ele>
        <time>2021-11-11T09:29:02.763Z</time>
      </trkpt>
      <trkpt lat="47.20956" lon="-1.74733">
        <ele>52.906888</ele>
        <time>2021-11-11T09:29:04.759Z</time>
      </trkpt>
      <trkpt lat="47.20958" lon="-1.74717">
        <ele>52.940173</ele>
        <time>2021-11-11T09:29:06.766Z</time>
      </trkpt>
      <trkpt lat="47.20959" lon="-1.74701">
        <ele>52.973934</ele>
        <time>2021-11-11T09:29:08.778Z</time>
      </trkpt>
      <trkpt lat="47.2096" lon="-1.74686">
        <ele>53.006898</ele>
        <time>2021-11-11T09:29:10.748Z</time>
      </trkpt>
      <trkpt lat="47.20962" lon="-1.7467">
        <ele>53.040118</ele>
        <time>2021-11-11T09:29:12.760Z</time>
      </trkpt>
      <trkpt lat="47.20964" lon="-1.74654">
        <ele>53.074851</ele>
        <time>2021-11-11T09:29:14.794Z</time>
      </trkpt>
      <trkpt lat="47.20966" lon="-1.74636">
        <ele>53.111615</ele>
        <time>2021-11-11T09:29:16.760Z</time>
      </trkpt>
      <trkpt lat="47.20968" lon="-1.74621">
        <ele>53.143618</ele>
        <time>2021-11-11T09:29:18.756Z</time>
      </trkpt>
      <trkpt lat="47.20969" lon="-1.74606">
        <ele>53.17617</ele>
        <time>2021-11-11T09:29:20.778Z</time>
      </trkpt>
      <trkpt lat="47.20971" lon="-1.74589">
        <ele>53.21181</ele>
        <time>2021-11-11T09:29:22.752Z</time>
      </trkpt>
      <trkpt lat="47.20974" lon="-1.74573">
        <ele>53.24663</ele>
        <time>2021-11-11T09:29:24.751Z</time>
      </trkpt>
      <trkpt lat="47.20975" lon="-1.74556">
        <ele>53.267865</ele>
        <time>2021-11-11T09:29:26.747Z</time>
      </trkpt>
      <trkpt lat="47.20978" lon="-1.74539">
        <ele>52.990765</ele>
        <time>2021-11-11T09:29:28.758Z</time>
      </trkpt>
      <trkpt lat="47.20981" lon="-1.74522">
        <ele>52.690457</ele>
        <time>2021-11-11T09:29:30.751Z</time>
      </trkpt>
      <trkpt lat="47.20984" lon="-1.74503">
        <ele>52.370284</ele>
        <time>2021-11-11T09:29:32.765Z</time>
      </trkpt>
      <trkpt lat="47.20986" lon="-1.74485">
        <ele>52.06313</ele>
        <time>2021-11-11T09:29:34.753Z</time>
      </trkpt>
      <trkpt lat="47.20988" lon="-1.74467">
        <ele>51.769438</ele>
        <time>2021-11-11T09:29:36.773Z</time>
      </trkpt>
      <trkpt lat="47.2099" lon="-1.74451">
        <ele>51.495537</ele>
        <time>2021-11-11T09:29:38.764Z</time>
      </trkpt>
      <trkpt lat="47.20992" lon="-1.74434">
        <ele>51.207521</ele>
        <time>2021-11-11T09:29:40.772Z</time>
      </trkpt>
      <trkpt lat="47.20994" lon="-1.74418">
        <ele>50.93295</ele>
        <time>2021-11-11T09:29:42.754Z</time>
      </trkpt>
      <trkpt lat="47.20995" lon="-1.74403">
        <ele>50.683938</ele>
        <time>2021-11-11T09:29:44.790Z</time>
      </trkpt>
      <trkpt lat="47.20997" lon="-1.74387">
        <ele>50.415993</ele>
        <time>2021-11-11T09:29:46.761Z</time>
      </trkpt>
      <trkpt lat="47.20999" lon="-1.74372">
        <ele>50.167973</ele>
        <time>2021-11-11T09:29:48.769Z</time>
      </trkpt>
      <trkpt lat="47.21003" lon="-1.74356">
        <ele>49.88902</ele>
        <time>2021-11-11T09:29:50.763Z</time>
      </trkpt>
      <trkpt lat="47.21006" lon="-1.74341">
        <ele>49.627842</ele>
        <time>2021-11-11T09:29:52.764Z</time>
      </trkpt>
      <trkpt lat="47.21013" lon="-1.74328">
        <ele>49.356462</ele>
        <time>2021-11-11T09:29:54.753Z</time>
      </trkpt>
      <trkpt lat="47.2102" lon="-1.74313">
        <ele>49.056511</ele>
        <time>2021-11-11T09:29:56.753Z</time>
      </trkpt>
      <trkpt lat="47.21026" lon="-1.74297">
        <ele>48.73128</ele>
        <time>2021-11-11T09:29:58.747Z</time>
      </trkpt>
      <trkpt lat="47.21032" lon="-1.74281">
        <ele>48.391468</ele>
        <time>2021-11-11T09:30:00.769Z</time>
      </trkpt>
      <trkpt lat="47.21037" lon="-1.74268">
        <ele>48.091772</ele>
        <time>2021-11-11T09:30:02.763Z</time>
      </trkpt>
      <trkpt lat="47.21042" lon="-1.74254">
        <ele>47.799829</ele>
        <time>2021-11-11T09:30:04.752Z</time>
      </trkpt>
      <trkpt lat="47.21047" lon="-1.7424">
        <ele>47.493826</ele>
        <time>2021-11-11T09:30:06.767Z</time>
      </trkpt>
      <trkpt lat="47.21053" lon="-1.74226">
        <ele>47.18999</ele>
        <time>2021-11-11T09:30:08.763Z</time>
      </trkpt>
      <trkpt lat="47.21059" lon="-1.74215">
        <ele>46.918821</ele>
        <time>2021-11-11T09:30:10.759Z</time>
      </trkpt>
      <trkpt lat="47.21067" lon="-1.74205">
        <ele>46.633492</ele>
        <time>2021-11-11T09:30:12.760Z</time>
      </trkpt>
      <trkpt lat="47.21075" lon="-1.74194">
        <ele>46.334958</ele>
        <time>2021-11-11T09:30:14.763Z</time>
      </trkpt>
      <trkpt lat="47.21084" lon="-1.74183">
        <ele>45.981112</ele>
        <time>2021-11-11T09:30:16.759Z</time>
      </trkpt>
      <trkpt lat="47.21093" lon="-1.74172">
        <ele>45.682093</ele>
        <time>2021-11-11T09:30:18.752Z</time>
      </trkpt>
      <trkpt lat="47.21099" lon="-1.74162">
        <ele>45.424263</ele>
        <time>2021-11-11T09:30:20.748Z</time>
      </trkpt>
      <trkpt lat="47.21108" lon="-1.74152">
        <ele>45.101236</ele>
        <time>2021-11-11T09:30:22.757Z</time>
      </trkpt>
      <trkpt lat="47.21117" lon="-1.7414">
        <ele>44.75968</ele>
        <time>2021-11-11T09:30:24.760Z</time>
      </trkpt>
      <trkpt lat="47.21125" lon="-1.74127">
        <ele>44.445972</ele>
        <time>2021-11-11T09:30:26.761Z</time>
      </trkpt>
      <trkpt lat="47.21132" lon="-1.74116">
        <ele>44.142111</ele>
        <time>2021-11-11T09:30:28.764Z</time>
      </trkpt>
      <trkpt lat="47.2114" lon="-1.74105">
        <ele>43.959703</ele>
        <time>2021-11-11T09:30:30.749Z</time>
      </trkpt>
      <trkpt lat="47.21149" lon="-1.74094">
        <ele>44.436907</ele>
        <time>2021-11-11T09:30:32.790Z</time>
      </trkpt>
      <trkpt lat="47.21157" lon="-1.74082">
        <ele>44.92856</ele>
        <time>2021-11-11T09:30:34.759Z</time>
      </trkpt>
      <trkpt lat="47.21166" lon="-1.7407">
        <ele>45.424905</ele>
        <time>2021-11-11T09:30:36.768Z</time>
      </trkpt>
      <trkpt lat="47.21172" lon="-1.74056">
        <ele>45.896679</ele>
        <time>2021-11-11T09:30:38.765Z</time>
      </trkpt>
      <trkpt lat="47.21175" lon="-1.74041">
        <ele>46.342573</ele>
        <time>2021-11-11T09:30:40.752Z</time>
      </trkpt>
      <trkpt lat="47.21173" lon="-1.74024">
        <ele>46.813412</ele>
        <time>2021-11-11T09:30:42.747Z</time>
      </trkpt>
      <trkpt lat="47.2117" lon="-1.74007">
        <ele>47.324318</ele>
        <time>2021-11-11T09:30:44.739Z</time>
      </trkpt>
      <trkpt lat="47.21167" lon="-1.7399">
        <ele>47.825609</ele>
        <time>2021-11-11T09:30:46.758Z</time>
      </trkpt>
      <trkpt lat="47.21165" lon="-1.73973">
        <ele>48.301122</ele>
        <time>2021-11-11T09:30:48.760Z</time>
      </trkpt>
      <trkpt lat="47.21161" lon="-1.73958">
        <ele>48.764088</ele>
        <time>2021-11-11T09:30:50.780Z</time>
      </trkpt>
      <trkpt lat="47.21159" lon="-1.73942">
        <ele>49.235927</ele>
        <time>2021-11-11T09:30:52.738Z</time>
      </trkpt>
      <trkpt lat="47.21154" lon="-1.73926">
        <ele>49.71944</ele>
        <time>2021-11-11T09:30:54.771Z</time>
      </trkpt>
      <trkpt lat="47.2115" lon="-1.73911">
        <ele>50.189383</ele>
        <time>2021-11-11T09:30:56.770Z</time>
      </trkpt>
      <trkpt lat="47.21145" lon="-1.73896">
        <ele>50.650822</ele>
        <time>2021-11-11T09:30:58.763Z</time>
      </trkpt>
      <trkpt lat="47.21142" lon="-1.7388">
        <ele>51.120463</ele>
        <time>2021-11-11T09:31:00.758Z</time>
      </trkpt>
      <trkpt lat="47.21138" lon="-1.73864">
        <ele>51.489119</ele>
        <time>2021-11-11T09:31:02.747Z</time>
      </trkpt>
      <trkpt lat="47.21135" lon="-1.73849">
        <ele>51.722424</ele>
        <time>2021-11-11T09:31:04.759Z</time>
      </trkpt>
      <trkpt lat="47.21132" lon="-1.73834">
        <ele>51.9472</ele>
        <time>2021-11-11T09:31:06.756Z</time>
      </trkpt>
      <trkpt lat="47.21129" lon="-1.73819">
        <ele>52.167303</ele>
        <time>2021-11-11T09:31:08.757Z</time>
      </trkpt>
      <trkpt lat="47.21126" lon="-1.73804">
        <ele>52.384525</ele>
        <time>2021-11-11T09:31:10.753Z</time>
      </trkpt>
      <trkpt lat="47.21123" lon="-1.7379">
        <ele>52.597058</ele>
        <time>2021-11-11T09:31:12.759Z</time>
      </trkpt>
      <trkpt lat="47.2112" lon="-1.73775">
        <ele>52.810874</ele>
        <time>2021-11-11T09:31:14.765Z</time>
      </trkpt>
      <trkpt lat="47.21117" lon="-1.73761">
        <ele>53.020847</ele>
        <time>2021-11-11T09:31:16.754Z</time>
      </trkpt>
      <trkpt lat="47.21114" lon="-1.73747">
        <ele>53.231413</ele>
        <time>2021-11-11T09:31:18.757Z</time>
      </trkpt>
      <trkpt lat="47.21113" lon="-1.73733">
        <ele>53.437569</ele>
        <time>2021-11-11T09:31:20.758Z</time>
      </trkpt>
      <trkpt lat="47.21111" lon="-1.73718">
        <ele>53.648553</ele>
        <time>2021-11-11T09:31:22.776Z</time>
      </trkpt>
      <trkpt lat="47.21109" lon="-1.73703">
        <ele>53.868678</ele>
        <time>2021-11-11T09:31:24.776Z</time>
      </trkpt>
      <trkpt lat="47.21108" lon="-1.73688">
        <ele>54.086504</ele>
        <time>2021-11-11T09:31:26.758Z</time>
      </trkpt>
      <trkpt lat="47.21107" lon="-1.73673">
        <ele>54.297183</ele>
        <time>2021-11-11T09:31:28.768Z</time>
      </trkpt>
      <trkpt lat="47.21107" lon="-1.73658">
        <ele>54.51353</ele>
        <time>2021-11-11T09:31:30.766Z</time>
      </trkpt>
      <trkpt lat="47.21107" lon="-1.73642">
        <ele>54.733641</ele>
        <time>2021-11-11T09:31:32.761Z</time>
      </trkpt>
      <trkpt lat="47.21107" lon="-1.73626">
        <ele>54.955802</ele>
        <time>2021-11-11T09:31:34.754Z</time>
      </trkpt>
      <trkpt lat="47.21108" lon="-1.7361">
        <ele>55.158444</ele>
        <time>2021-11-11T09:31:36.796Z</time>
      </trkpt>
      <trkpt lat="47.21109" lon="-1.73594">
        <ele>55.195415</ele>
        <time>2021-11-11T09:31:38.779Z</time>
      </trkpt>
      <trkpt lat="47.2111" lon="-1.73577">
        <ele>55.233421</ele>
        <time>2021-11-11T09:31:40.776Z</time>
      </trkpt>
      <trkpt lat="47.2111" lon="-1.7356">
        <ele>55.272857</ele>
        <time>2021-11-11T09:31:42.760Z</time>
      </trkpt>
      <trkpt lat="47.2111" lon="-1.73543">
        <ele>55.311824</ele>
        <time>2021-11-11T09:31:44.778Z</time>
      </trkpt>
      <trkpt lat="47.2111" lon="-1.73527">
        <ele>55.349497</ele>
        <time>2021-11-11T09:31:46.760Z</time>
      </trkpt>
      <trkpt lat="47.21111" lon="-1.7351">
        <ele>55.386426</ele>
        <time>2021-11-11T09:31:48.766Z</time>
      </trkpt>
      <trkpt lat="47.21111" lon="-1.73494">
        <ele>55.422911</ele>
        <time>2021-11-11T09:31:50.774Z</time>
      </trkpt>
      <trkpt lat="47.21112" lon="-1.73479">
        <ele>55.458954</ele>
        <time>2021-11-11T09:31:52.772Z</time>
      </trkpt>
      <trkpt lat="47.21112" lon="-1.73463">
        <ele>55.495187</ele>
        <time>2021-11-11T09:31:54.760Z</time>
      </trkpt>
      <trkpt lat="47.21112" lon="-1.73447">
        <ele>55.530131</ele>
        <time>2021-11-11T09:31:56.772Z</time>
      </trkpt>
      <trkpt lat="47.21112" lon="-1.73432">
        <ele>55.565705</ele>
        <time>2021-11-11T09:31:58.775Z</time>
      </trkpt>
      <trkpt lat="47.21112" lon="-1.73416">
        <ele>55.602189</ele>
        <time>2021-11-11T09:32:00.751Z</time>
      </trkpt>
      <trkpt lat="47.21112" lon="-1.734">
        <ele>55.639228</ele>
        <time>2021-11-11T09:32:02.777Z</time>
      </trkpt>
      <trkpt lat="47.21114" lon="-1.73384">
        <ele>55.675681</ele>
        <time>2021-11-11T09:32:04.781Z</time>
      </trkpt>
      <trkpt lat="47.21115" lon="-1.73368">
        <ele>55.71127</ele>
        <time>2021-11-11T09:32:06.775Z</time>
      </trkpt>
      <trkpt lat="47.21116" lon="-1.73352">
        <ele>55.747805</ele>
        <time>2021-11-11T09:32:08.786Z</time>
      </trkpt>
      <trkpt lat="47.21118" lon="-1.73337">
        <ele>55.734619</ele>
        <time>2021-11-11T09:32:10.787Z</time>
      </trkpt>
      <trkpt lat="47.21119" lon="-1.73321">
        <ele>55.705579</ele>
        <time>2021-11-11T09:32:12.756Z</time>
      </trkpt>
      <trkpt lat="47.2112" lon="-1.73306">
        <ele>55.677388</ele>
        <time>2021-11-11T09:32:14.775Z</time>
      </trkpt>
      <trkpt lat="47.2112" lon="-1.73291">
        <ele>55.649077</ele>
        <time>2021-11-11T09:32:16.772Z</time>
      </trkpt>
      <trkpt lat="47.21121" lon="-1.73276">
        <ele>55.620729</ele>
        <time>2021-11-11T09:32:18.758Z</time>
      </trkpt>
      <trkpt lat="47.21121" lon="-1.73261">
        <ele>55.592604</ele>
        <time>2021-11-11T09:32:20.768Z</time>
      </trkpt>
      <trkpt lat="47.21122" lon="-1.73246">
        <ele>55.564672</ele>
        <time>2021-11-11T09:32:22.757Z</time>
      </trkpt>
      <trkpt lat="47.21123" lon="-1.73231">
        <ele>55.536832</ele>
        <time>2021-11-11T09:32:24.761Z</time>
      </trkpt>
      <trkpt lat="47.21124" lon="-1.73216">
        <ele>55.508622</ele>
        <time>2021-11-11T09:32:26.753Z</time>
      </trkpt>
      <trkpt lat="47.21124" lon="-1.73201">
        <ele>55.481036</ele>
        <time>2021-11-11T09:32:28.760Z</time>
      </trkpt>
      <trkpt lat="47.21122" lon="-1.73185">
        <ele>55.451003</ele>
        <time>2021-11-11T09:32:30.740Z</time>
      </trkpt>
      <trkpt lat="47.21119" lon="-1.73172">
        <ele>55.424036</ele>
        <time>2021-11-11T09:32:32.779Z</time>
      </trkpt>
      <trkpt lat="47.21109" lon="-1.73165">
        <ele>55.393789</ele>
        <time>2021-11-11T09:32:34.757Z</time>
      </trkpt>
      <trkpt lat="47.21098" lon="-1.7316">
        <ele>55.363344</ele>
        <time>2021-11-11T09:32:36.756Z</time>
      </trkpt>
      <trkpt lat="47.21087" lon="-1.73155">
        <ele>55.332043</ele>
        <time>2021-11-11T09:32:38.767Z</time>
      </trkpt>
      <trkpt lat="47.21076" lon="-1.73151">
        <ele>55.301294</ele>
        <time>2021-11-11T09:32:40.756Z</time>
      </trkpt>
      <trkpt lat="47.21065" lon="-1.73146">
        <ele>55.26941</ele>
        <time>2021-11-11T09:32:42.746Z</time>
      </trkpt>
      <trkpt lat="47.21055" lon="-1.73141">
        <ele>55.228308</ele>
        <time>2021-11-11T09:32:44.756Z</time>
      </trkpt>
      <trkpt lat="47.21044" lon="-1.73136">
        <ele>55.182372</ele>
        <time>2021-11-11T09:32:46.769Z</time>
      </trkpt>
      <trkpt lat="47.21034" lon="-1.73132">
        <ele>55.136692</ele>
        <time>2021-11-11T09:32:48.762Z</time>
      </trkpt>
      <trkpt lat="47.21024" lon="-1.73126">
        <ele>55.093089</ele>
        <time>2021-11-11T09:32:50.784Z</time>
      </trkpt>
      <trkpt lat="47.21018" lon="-1.73112">
        <ele>55.046165</ele>
        <time>2021-11-11T09:32:52.754Z</time>
      </trkpt>
      <trkpt lat="47.21013" lon="-1.73098">
        <ele>55.001968</ele>
        <time>2021-11-11T09:32:54.763Z</time>
      </trkpt>
      <trkpt lat="47.21008" lon="-1.73085">
        <ele>54.957719</ele>
        <time>2021-11-11T09:32:56.786Z</time>
      </trkpt>
      <trkpt lat="47.21002" lon="-1.73073">
        <ele>54.917071</ele>
        <time>2021-11-11T09:32:58.756Z</time>
      </trkpt>
      <trkpt lat="47.20998" lon="-1.73059">
        <ele>54.875642</ele>
        <time>2021-11-11T09:33:00.763Z</time>
      </trkpt>
      <trkpt lat="47.20993" lon="-1.73048">
        <ele>54.835709</ele>
        <time>2021-11-11T09:33:02.771Z</time>
      </trkpt>
      <trkpt lat="47.20985" lon="-1.73037">
        <ele>54.793784</ele>
        <time>2021-11-11T09:33:04.778Z</time>
      </trkpt>
      <trkpt lat="47.20978" lon="-1.73028">
        <ele>54.752678</ele>
        <time>2021-11-11T09:33:06.765Z</time>
      </trkpt>
      <trkpt lat="47.20973" lon="-1.73015">
        <ele>54.711458</ele>
        <time>2021-11-11T09:33:08.765Z</time>
      </trkpt>
      <trkpt lat="47.2097" lon="-1.73">
        <ele>54.66683</ele>
        <time>2021-11-11T09:33:10.750Z</time>
      </trkpt>
      <trkpt lat="47.20965" lon="-1.72986">
        <ele>54.622436</ele>
        <time>2021-11-11T09:33:12.750Z</time>
      </trkpt>
      <trkpt lat="47.20961" lon="-1.72971">
        <ele>54.576674</ele>
        <time>2021-11-11T09:33:14.770Z</time>
      </trkpt>
      <trkpt lat="47.20957" lon="-1.72957">
        <ele>54.533601</ele>
        <time>2021-11-11T09:33:16.775Z</time>
      </trkpt>
      <trkpt lat="47.20952" lon="-1.72943">
        <ele>54.342592</ele>
        <time>2021-11-11T09:33:18.748Z</time>
      </trkpt>
      <trkpt lat="47.20948" lon="-1.7293">
        <ele>54.100642</ele>
        <time>2021-11-11T09:33:20.754Z</time>
      </trkpt>
      <trkpt lat="47.20944" lon="-1.72918">
        <ele>53.858826</ele>
        <time>2021-11-11T09:33:22.739Z</time>
      </trkpt>
      <trkpt lat="47.20938" lon="-1.72905">
        <ele>53.58883</ele>
        <time>2021-11-11T09:33:24.762Z</time>
      </trkpt>
      <trkpt lat="47.20934" lon="-1.72891">
        <ele>53.327006</ele>
        <time>2021-11-11T09:33:26.785Z</time>
      </trkpt>
      <trkpt lat="47.2093" lon="-1.72876">
        <ele>53.053488</ele>
        <time>2021-11-11T09:33:28.755Z</time>
      </trkpt>
      <trkpt lat="47.20923" lon="-1.72862">
        <ele>52.756382</ele>
        <time>2021-11-11T09:33:30.770Z</time>
      </trkpt>
      <trkpt lat="47.20919" lon="-1.7285">
        <ele>52.511267</ele>
        <time>2021-11-11T09:33:32.792Z</time>
      </trkpt>
      <trkpt lat="47.20915" lon="-1.72834">
        <ele>52.21804</ele>
        <time>2021-11-11T09:33:34.753Z</time>
      </trkpt>
      <trkpt lat="47.20912" lon="-1.72821">
        <ele>51.983127</ele>
        <time>2021-11-11T09:33:36.755Z</time>
      </trkpt>
      <trkpt lat="47.20906" lon="-1.72805">
        <ele>51.67235</ele>
        <time>2021-11-11T09:33:39.768Z</time>
      </trkpt>
      <trkpt lat="47.20905" lon="-1.7279">
        <ele>51.402229</ele>
        <time>2021-11-11T09:33:41.759Z</time>
      </trkpt>
      <trkpt lat="47.20907" lon="-1.72774">
        <ele>51.117314</ele>
        <time>2021-11-11T09:33:43.751Z</time>
      </trkpt>
      <trkpt lat="47.20908" lon="-1.72758">
        <ele>50.842616</ele>
        <time>2021-11-11T09:33:45.765Z</time>
      </trkpt>
      <trkpt lat="47.20907" lon="-1.72742">
        <ele>50.562876</ele>
        <time>2021-11-11T09:33:47.753Z</time>
      </trkpt>
      <trkpt lat="47.20907" lon="-1.72728">
        <ele>50.32507</ele>
        <time>2021-11-11T09:33:49.749Z</time>
      </trkpt>
      <trkpt lat="47.20906" lon="-1.72714">
        <ele>50.076815</ele>
        <time>2021-11-11T09:33:51.765Z</time>
      </trkpt>
      <trkpt lat="47.20906" lon="-1.72698">
        <ele>49.980334</ele>
        <time>2021-11-11T09:33:53.760Z</time>
      </trkpt>
      <trkpt lat="47.20906" lon="-1.72682">
        <ele>50.10736</ele>
        <time>2021-11-11T09:33:55.760Z</time>
      </trkpt>
      <trkpt lat="47.20907" lon="-1.72667">
        <ele>50.228747</ele>
        <time>2021-11-11T09:33:57.761Z</time>
      </trkpt>
      <trkpt lat="47.20909" lon="-1.72653">
        <ele>50.342195</ele>
        <time>2021-11-11T09:33:59.776Z</time>
      </trkpt>
      <trkpt lat="47.20909" lon="-1.72639">
        <ele>50.458944</ele>
        <time>2021-11-11T09:34:01.768Z</time>
      </trkpt>
      <trkpt lat="47.20908" lon="-1.72621">
        <ele>50.602338</ele>
        <time>2021-11-11T09:34:03.761Z</time>
      </trkpt>
      <trkpt lat="47.20908" lon="-1.72605">
        <ele>50.730098</ele>
        <time>2021-11-11T09:34:05.767Z</time>
      </trkpt>
      <trkpt lat="47.20905" lon="-1.72586">
        <ele>50.893704</ele>
        <time>2021-11-11T09:34:08.755Z</time>
      </trkpt>
      <trkpt lat="47.20902" lon="-1.72571">
        <ele>51.018398</ele>
        <time>2021-11-11T09:34:10.770Z</time>
      </trkpt>
      <trkpt lat="47.209" lon="-1.72556">
        <ele>51.143599</ele>
        <time>2021-11-11T09:34:12.758Z</time>
      </trkpt>
      <trkpt lat="47.20898" lon="-1.7254">
        <ele>51.274056</ele>
        <time>2021-11-11T09:34:14.754Z</time>
      </trkpt>
      <trkpt lat="47.20896" lon="-1.72525">
        <ele>51.398624</ele>
        <time>2021-11-11T09:34:16.758Z</time>
      </trkpt>
      <trkpt lat="47.20894" lon="-1.7251">
        <ele>51.517628</ele>
        <time>2021-11-11T09:34:18.765Z</time>
      </trkpt>
      <trkpt lat="47.20892" lon="-1.72496">
        <ele>51.636535</ele>
        <time>2021-11-11T09:34:20.762Z</time>
      </trkpt>
      <trkpt lat="47.2089" lon="-1.72482">
        <ele>51.748619</ele>
        <time>2021-11-11T09:34:22.783Z</time>
      </trkpt>
      <trkpt lat="47.20887" lon="-1.72463">
        <ele>51.907245</ele>
        <time>2021-11-11T09:34:25.764Z</time>
      </trkpt>
      <trkpt lat="47.20886" lon="-1.72447">
        <ele>52.033334</ele>
        <time>2021-11-11T09:34:27.763Z</time>
      </trkpt>
      <trkpt lat="47.20884" lon="-1.72433">
        <ele>52.30159</ele>
        <time>2021-11-11T09:34:29.819Z</time>
      </trkpt>
      <trkpt lat="47.20883" lon="-1.72419">
        <ele>52.615358</ele>
        <time>2021-11-11T09:34:31.769Z</time>
      </trkpt>
      <trkpt lat="47.20881" lon="-1.72405">
        <ele>52.926146</ele>
        <time>2021-11-11T09:34:33.759Z</time>
      </trkpt>
      <trkpt lat="47.2088" lon="-1.7239">
        <ele>53.248194</ele>
        <time>2021-11-11T09:34:35.763Z</time>
      </trkpt>
      <trkpt lat="47.20879" lon="-1.72375">
        <ele>53.583232</ele>
        <time>2021-11-11T09:34:37.754Z</time>
      </trkpt>
      <trkpt lat="47.20877" lon="-1.72359">
        <ele>53.924639</ele>
        <time>2021-11-11T09:34:39.797Z</time>
      </trkpt>
      <trkpt lat="47.20876" lon="-1.72339">
        <ele>54.370045</ele>
        <time>2021-11-11T09:34:42.766Z</time>
      </trkpt>
      <trkpt lat="47.20874" lon="-1.72323">
        <ele>54.726083</ele>
        <time>2021-11-11T09:34:44.781Z</time>
      </trkpt>
      <trkpt lat="47.20873" lon="-1.72308">
        <ele>55.044175</ele>
        <time>2021-11-11T09:34:46.767Z</time>
      </trkpt>
      <trkpt lat="47.20872" lon="-1.72293">
        <ele>55.380805</ele>
        <time>2021-11-11T09:34:48.753Z</time>
      </trkpt>
      <trkpt lat="47.20871" lon="-1.72279">
        <ele>55.687035</ele>
        <time>2021-11-11T09:34:50.771Z</time>
      </trkpt>
      <trkpt lat="47.20871" lon="-1.72266">
        <ele>55.981034</ele>
        <time>2021-11-11T09:34:52.774Z</time>
      </trkpt>
      <trkpt lat="47.20871" lon="-1.72247">
        <ele>56.375655</ele>
        <time>2021-11-11T09:34:54.770Z</time>
      </trkpt>
      <trkpt lat="47.2087" lon="-1.72233">
        <ele>56.696309</ele>
        <time>2021-11-11T09:34:56.647Z</time>
      </trkpt>
      <trkpt lat="47.20869" lon="-1.72218">
        <ele>57.012651</ele>
        <time>2021-11-11T09:34:58.764Z</time>
      </trkpt>
      <trkpt lat="47.20868" lon="-1.72202">
        <ele>57.376564</ele>
        <time>2021-11-11T09:35:00.774Z</time>
      </trkpt>
      <trkpt lat="47.20866" lon="-1.72188">
        <ele>57.678257</ele>
        <time>2021-11-11T09:35:02.789Z</time>
      </trkpt>
      <trkpt lat="47.20863" lon="-1.7217">
        <ele>57.81368</ele>
        <time>2021-11-11T09:35:05.791Z</time>
      </trkpt>
      <trkpt lat="47.2086" lon="-1.72151">
        <ele>57.793254</ele>
        <time>2021-11-11T09:35:08.560Z</time>
      </trkpt>
      <trkpt lat="47.2086" lon="-1.72136">
        <ele>57.77686</ele>
        <time>2021-11-11T09:35:10.765Z</time>
      </trkpt>
      <trkpt lat="47.2086" lon="-1.72121">
        <ele>57.761412</ele>
        <time>2021-11-11T09:35:12.518Z</time>
      </trkpt>
      <trkpt lat="47.2086" lon="-1.72103">
        <ele>57.742229</ele>
        <time>2021-11-11T09:35:14.916Z</time>
      </trkpt>
      <trkpt lat="47.20859" lon="-1.72087">
        <ele>57.724978</ele>
        <time>2021-11-11T09:35:17.591Z</time>
      </trkpt>
      <trkpt lat="47.20858" lon="-1.72071">
        <ele>57.707341</ele>
        <time>2021-11-11T09:35:19.760Z</time>
      </trkpt>
      <trkpt lat="47.20857" lon="-1.72055">
        <ele>57.690858</ele>
        <time>2021-11-11T09:35:21.768Z</time>
      </trkpt>
      <trkpt lat="47.20856" lon="-1.7204">
        <ele>57.674708</ele>
        <time>2021-11-11T09:35:23.769Z</time>
      </trkpt>
      <trkpt lat="47.20855" lon="-1.72026">
        <ele>57.660017</ele>
        <time>2021-11-11T09:35:25.769Z</time>
      </trkpt>
      <trkpt lat="47.20854" lon="-1.72013">
        <ele>57.64563</ele>
        <time>2021-11-11T09:35:28.189Z</time>
      </trkpt>
      <trkpt lat="47.20855" lon="-1.71993">
        <ele>57.624293</ele>
        <time>2021-11-11T09:35:30.760Z</time>
      </trkpt>
      <trkpt lat="47.20854" lon="-1.71978">
        <ele>57.607734</ele>
        <time>2021-11-11T09:35:32.776Z</time>
      </trkpt>
      <trkpt lat="47.20853" lon="-1.71964">
        <ele>57.592764</ele>
        <time>2021-11-11T09:35:34.760Z</time>
      </trkpt>
      <trkpt lat="47.20853" lon="-1.71949">
        <ele>57.577703</ele>
        <time>2021-11-11T09:35:36.775Z</time>
      </trkpt>
      <trkpt lat="47.20853" lon="-1.71928">
        <ele>57.555116</ele>
        <time>2021-11-11T09:35:39.761Z</time>
      </trkpt>
      <trkpt lat="47.20854" lon="-1.71912">
        <ele>57.434618</ele>
        <time>2021-11-11T09:35:41.760Z</time>
      </trkpt>
      <trkpt lat="47.20854" lon="-1.71897">
        <ele>57.20132</ele>
        <time>2021-11-11T09:35:43.752Z</time>
      </trkpt>
      <trkpt lat="47.20852" lon="-1.71883">
        <ele>56.966473</ele>
        <time>2021-11-11T09:35:45.750Z</time>
      </trkpt>
      <trkpt lat="47.20851" lon="-1.71868">
        <ele>56.737734</ele>
        <time>2021-11-11T09:35:47.758Z</time>
      </trkpt>
      <trkpt lat="47.20849" lon="-1.71854">
        <ele>56.499801</ele>
        <time>2021-11-11T09:35:49.749Z</time>
      </trkpt>
      <trkpt lat="47.20847" lon="-1.71838">
        <ele>56.248937</ele>
        <time>2021-11-11T09:35:51.790Z</time>
      </trkpt>
      <trkpt lat="47.20847" lon="-1.71819">
        <ele>55.94464</ele>
        <time>2021-11-11T09:35:54.768Z</time>
      </trkpt>
      <trkpt lat="47.20847" lon="-1.71805">
        <ele>55.714984</ele>
        <time>2021-11-11T09:35:56.772Z</time>
      </trkpt>
      <trkpt lat="47.20846" lon="-1.7179">
        <ele>55.472839</ele>
        <time>2021-11-11T09:35:58.782Z</time>
      </trkpt>
      <trkpt lat="47.20844" lon="-1.71774">
        <ele>55.223746</ele>
        <time>2021-11-11T09:36:02.287Z</time>
      </trkpt>
      <trkpt lat="47.20845" lon="-1.71757">
        <ele>54.939761</ele>
        <time>2021-11-11T09:36:03.749Z</time>
      </trkpt>
      <trkpt lat="47.20845" lon="-1.71741">
        <ele>54.684909</ele>
        <time>2021-11-11T09:36:05.749Z</time>
      </trkpt>
      <trkpt lat="47.20843" lon="-1.71726">
        <ele>54.442763</ele>
        <time>2021-11-11T09:36:07.774Z</time>
      </trkpt>
      <trkpt lat="47.20845" lon="-1.71711">
        <ele>54.202198</ele>
        <time>2021-11-11T09:36:09.487Z</time>
      </trkpt>
      <trkpt lat="47.20844" lon="-1.7169">
        <ele>53.880385</ele>
        <time>2021-11-11T09:36:12.761Z</time>
      </trkpt>
      <trkpt lat="47.20844" lon="-1.71674">
        <ele>53.612145</ele>
        <time>2021-11-11T09:36:14.763Z</time>
      </trkpt>
      <trkpt lat="47.20843" lon="-1.71659">
        <ele>53.373185</ele>
        <time>2021-11-11T09:36:16.766Z</time>
      </trkpt>
      <trkpt lat="47.20844" lon="-1.71645">
        <ele>53.40131</ele>
        <time>2021-11-11T09:36:18.751Z</time>
      </trkpt>
      <trkpt lat="47.20843" lon="-1.7163">
        <ele>53.50114</ele>
        <time>2021-11-11T09:36:20.744Z</time>
      </trkpt>
      <trkpt lat="47.20841" lon="-1.71616">
        <ele>53.59565</ele>
        <time>2021-11-11T09:36:22.751Z</time>
      </trkpt>
      <trkpt lat="47.2084" lon="-1.71601">
        <ele>53.691001</ele>
        <time>2021-11-11T09:36:24.756Z</time>
      </trkpt>
      <trkpt lat="47.2084" lon="-1.71587">
        <ele>53.786111</ele>
        <time>2021-11-11T09:36:26.754Z</time>
      </trkpt>
      <trkpt lat="47.20839" lon="-1.71573">
        <ele>53.879276</ele>
        <time>2021-11-11T09:36:28.769Z</time>
      </trkpt>
      <trkpt lat="47.20839" lon="-1.71555">
        <ele>53.999562</ele>
        <time>2021-11-11T09:36:31.750Z</time>
      </trkpt>
      <trkpt lat="47.2084" lon="-1.71539">
        <ele>54.107435</ele>
        <time>2021-11-11T09:36:33.766Z</time>
      </trkpt>
      <trkpt lat="47.2084" lon="-1.71524">
        <ele>54.206529</ele>
        <time>2021-11-11T09:36:35.871Z</time>
      </trkpt>
      <trkpt lat="47.20838" lon="-1.71505">
        <ele>54.335622</ele>
        <time>2021-11-11T09:36:38.760Z</time>
      </trkpt>
      <trkpt lat="47.20838" lon="-1.71489">
        <ele>54.442061</ele>
        <time>2021-11-11T09:36:40.760Z</time>
      </trkpt>
      <trkpt lat="47.20837" lon="-1.71472">
        <ele>54.554222</ele>
        <time>2021-11-11T09:36:42.771Z</time>
      </trkpt>
      <trkpt lat="47.20837" lon="-1.71456">
        <ele>54.658056</ele>
        <time>2021-11-11T09:36:44.760Z</time>
      </trkpt>
      <trkpt lat="47.20836" lon="-1.71442">
        <ele>54.752007</ele>
        <time>2021-11-11T09:36:46.793Z</time>
      </trkpt>
      <trkpt lat="47.20835" lon="-1.71424">
        <ele>54.876264</ele>
        <time>2021-11-11T09:36:49.757Z</time>
      </trkpt>
      <trkpt lat="47.20834" lon="-1.7141">
        <ele>54.969813</ele>
        <time>2021-11-11T09:36:51.759Z</time>
      </trkpt>
      <trkpt lat="47.20833" lon="-1.71394">
        <ele>55.072029</ele>
        <time>2021-11-11T09:36:53.537Z</time>
      </trkpt>
      <trkpt lat="47.2083" lon="-1.71377">
        <ele>54.889612</ele>
        <time>2021-11-11T09:36:56.751Z</time>
      </trkpt>
      <trkpt lat="47.20831" lon="-1.71364">
        <ele>54.717509</ele>
        <time>2021-11-11T09:36:58.757Z</time>
      </trkpt>
      <trkpt lat="47.20833" lon="-1.71351">
        <ele>54.541214</ele>
        <time>2021-11-11T09:37:00.767Z</time>
      </trkpt>
      <trkpt lat="47.20842" lon="-1.71339">
        <ele>54.306873</ele>
        <time>2021-11-11T09:37:02.904Z</time>
      </trkpt>
      <trkpt lat="47.20846" lon="-1.71323">
        <ele>54.096027</ele>
        <time>2021-11-11T09:37:05.758Z</time>
      </trkpt>
      <trkpt lat="47.20854" lon="-1.71312">
        <ele>53.878095</ele>
        <time>2021-11-11T09:37:07.787Z</time>
      </trkpt>
      <trkpt lat="47.20864" lon="-1.71302">
        <ele>53.651165</ele>
        <time>2021-11-11T09:37:09.765Z</time>
      </trkpt>
      <trkpt lat="47.20874" lon="-1.71293">
        <ele>53.435814</ele>
        <time>2021-11-11T09:37:11.748Z</time>
      </trkpt>
      <trkpt lat="47.20883" lon="-1.71284">
        <ele>53.215834</ele>
        <time>2021-11-11T09:37:13.769Z</time>
      </trkpt>
      <trkpt lat="47.20893" lon="-1.71274">
        <ele>52.9931</ele>
        <time>2021-11-11T09:37:15.764Z</time>
      </trkpt>
      <trkpt lat="47.20903" lon="-1.71269">
        <ele>52.78582</ele>
        <time>2021-11-11T09:37:17.759Z</time>
      </trkpt>
      <trkpt lat="47.20913" lon="-1.71265">
        <ele>52.590588</ele>
        <time>2021-11-11T09:37:19.766Z</time>
      </trkpt>
      <trkpt lat="47.20922" lon="-1.71261">
        <ele>52.397554</ele>
        <time>2021-11-11T09:37:21.757Z</time>
      </trkpt>
      <trkpt lat="47.20933" lon="-1.71255">
        <ele>52.188354</ele>
        <time>2021-11-11T09:37:23.745Z</time>
      </trkpt>
      <trkpt lat="47.20943" lon="-1.71248">
        <ele>51.972348</ele>
        <time>2021-11-11T09:37:25.754Z</time>
      </trkpt>
      <trkpt lat="47.20953" lon="-1.7124">
        <ele>51.75425</ele>
        <time>2021-11-11T09:37:27.753Z</time>
      </trkpt>
      <trkpt lat="47.20962" lon="-1.71232">
        <ele>51.589131</ele>
        <time>2021-11-11T09:37:29.787Z</time>
      </trkpt>
      <trkpt lat="47.20971" lon="-1.71224">
        <ele>51.479764</ele>
        <time>2021-11-11T09:37:31.748Z</time>
      </trkpt>
      <trkpt lat="47.2098" lon="-1.71213">
        <ele>51.361477</ele>
        <time>2021-11-11T09:37:33.788Z</time>
      </trkpt>
      <trkpt lat="47.20987" lon="-1.71202">
        <ele>51.247351</ele>
        <time>2021-11-11T09:37:35.783Z</time>
      </trkpt>
      <trkpt lat="47.20996" lon="-1.71186">
        <ele>51.09994</ele>
        <time>2021-11-11T09:37:38.760Z</time>
      </trkpt>
      <trkpt lat="47.21002" lon="-1.71172">
        <ele>50.985724</ele>
        <time>2021-11-11T09:37:40.757Z</time>
      </trkpt>
      <trkpt lat="47.21007" lon="-1.71159">
        <ele>50.878295</ele>
        <time>2021-11-11T09:37:42.783Z</time>
      </trkpt>
      <trkpt lat="47.21011" lon="-1.71145">
        <ele>50.769184</ele>
        <time>2021-11-11T09:37:44.816Z</time>
      </trkpt>
      <trkpt lat="47.21015" lon="-1.71129">
        <ele>50.649213</ele>
        <time>2021-11-11T09:37:47.770Z</time>
      </trkpt>
      <trkpt lat="47.21017" lon="-1.71109">
        <ele>50.50746</ele>
        <time>2021-11-11T09:37:50.617Z</time>
      </trkpt>
      <trkpt lat="47.2102" lon="-1.71088">
        <ele>50.35433</ele>
        <time>2021-11-11T09:37:53.768Z</time>
      </trkpt>
      <trkpt lat="47.21024" lon="-1.71076">
        <ele>50.258133</ele>
        <time>2021-11-11T09:37:55.751Z</time>
      </trkpt>
      <trkpt lat="47.21028" lon="-1.71064">
        <ele>50.159577</ele>
        <time>2021-11-11T09:37:57.748Z</time>
      </trkpt>
      <trkpt lat="47.21028" lon="-1.71049">
        <ele>50.054268</ele>
        <time>2021-11-11T09:37:59.763Z</time>
      </trkpt>
      <trkpt lat="47.21025" lon="-1.71036">
        <ele>49.952529</ele>
        <time>2021-11-11T09:38:01.765Z</time>
      </trkpt>
      <trkpt lat="47.21022" lon="-1.71021">
        <ele>49.839338</ele>
        <time>2021-11-11T09:38:03.765Z</time>
      </trkpt>
      <trkpt lat="47.21019" lon="-1.71004">
        <ele>49.685891</ele>
        <time>2021-11-11T09:38:06.772Z</time>
      </trkpt>
      <trkpt lat="47.21015" lon="-1.70984">
        <ele>49.418162</ele>
        <time>2021-11-11T09:38:09.757Z</time>
      </trkpt>
      <trkpt lat="47.2101" lon="-1.70971">
        <ele>49.215372</ele>
        <time>2021-11-11T09:38:11.753Z</time>
      </trkpt>
      <trkpt lat="47.21006" lon="-1.70952">
        <ele>48.960678</ele>
        <time>2021-11-11T09:38:14.748Z</time>
      </trkpt>
      <trkpt lat="47.21003" lon="-1.70933">
        <ele>48.709316</ele>
        <time>2021-11-11T09:38:17.764Z</time>
      </trkpt>
      <trkpt lat="47.20998" lon="-1.70915">
        <ele>48.462372</ele>
        <time>2021-11-11T09:38:20.757Z</time>
      </trkpt>
      <trkpt lat="47.20994" lon="-1.70901">
        <ele>48.254825</ele>
        <time>2021-11-11T09:38:22.743Z</time>
      </trkpt>
      <trkpt lat="47.20989" lon="-1.70889">
        <ele>48.078538</ele>
        <time>2021-11-11T09:38:24.748Z</time>
      </trkpt>
      <trkpt lat="47.20981" lon="-1.70869">
        <ele>47.770497</ele>
        <time>2021-11-11T09:38:28.763Z</time>
      </trkpt>
      <trkpt lat="47.20977" lon="-1.70856">
        <ele>47.590126</ele>
        <time>2021-11-11T09:38:30.767Z</time>
      </trkpt>
      <trkpt lat="47.20971" lon="-1.70841">
        <ele>47.357512</ele>
        <time>2021-11-11T09:38:32.758Z</time>
      </trkpt>
      <trkpt lat="47.20966" lon="-1.70826">
        <ele>47.146746</ele>
        <time>2021-11-11T09:38:34.758Z</time>
      </trkpt>
      <trkpt lat="47.2096" lon="-1.70812">
        <ele>46.935071</ele>
        <time>2021-11-11T09:38:36.752Z</time>
      </trkpt>
      <trkpt lat="47.20958" lon="-1.70798">
        <ele>46.74917</ele>
        <time>2021-11-11T09:38:38.770Z</time>
      </trkpt>
      <trkpt lat="47.20958" lon="-1.70783">
        <ele>46.556769</ele>
        <time>2021-11-11T09:38:40.767Z</time>
      </trkpt>
      <trkpt lat="47.20956" lon="-1.7077">
        <ele>46.372923</ele>
        <time>2021-11-11T09:38:42.776Z</time>
      </trkpt>
      <trkpt lat="47.20953" lon="-1.70752">
        <ele>46.544936</ele>
        <time>2021-11-11T09:38:45.762Z</time>
      </trkpt>
      <trkpt lat="47.20951" lon="-1.70738">
        <ele>46.780736</ele>
        <time>2021-11-11T09:38:47.769Z</time>
      </trkpt>
      <trkpt lat="47.20949" lon="-1.70723">
        <ele>47.033518</ele>
        <time>2021-11-11T09:38:49.468Z</time>
      </trkpt>
      <trkpt lat="47.20949" lon="-1.70709">
        <ele>47.277867</ele>
        <time>2021-11-11T09:38:51.597Z</time>
      </trkpt>
      <trkpt lat="47.20948" lon="-1.70694">
        <ele>47.523314</ele>
        <time>2021-11-11T09:38:53.738Z</time>
      </trkpt>
      <trkpt lat="47.20946" lon="-1.70678">
        <ele>47.794469</ele>
        <time>2021-11-11T09:38:55.700Z</time>
      </trkpt>
      <trkpt lat="47.2095" lon="-1.70665">
        <ele>48.028199</ele>
        <time>2021-11-11T09:38:57.770Z</time>
      </trkpt>
      <trkpt lat="47.20952" lon="-1.7065">
        <ele>48.275771</ele>
        <time>2021-11-11T09:38:59.469Z</time>
      </trkpt>
      <trkpt lat="47.20956" lon="-1.70637">
        <ele>48.511308</ele>
        <time>2021-11-11T09:39:01.757Z</time>
      </trkpt>
      <trkpt lat="47.20959" lon="-1.70618">
        <ele>48.848805</ele>
        <time>2021-11-11T09:39:04.776Z</time>
      </trkpt>
      <trkpt lat="47.20965" lon="-1.70599">
        <ele>49.189623</ele>
        <time>2021-11-11T09:39:07.761Z</time>
      </trkpt>
      <trkpt lat="47.20967" lon="-1.7058">
        <ele>49.500275</ele>
        <time>2021-11-11T09:39:10.734Z</time>
      </trkpt>
      <trkpt lat="47.2097" lon="-1.70562">
        <ele>49.806973</ele>
        <time>2021-11-11T09:39:13.756Z</time>
      </trkpt>
      <trkpt lat="47.20972" lon="-1.70549">
        <ele>50.04155</ele>
        <time>2021-11-11T09:39:15.759Z</time>
      </trkpt>
      <trkpt lat="47.20974" lon="-1.70534">
        <ele>50.28335</ele>
        <time>2021-11-11T09:39:17.761Z</time>
      </trkpt>
      <trkpt lat="47.20975" lon="-1.7052">
        <ele>50.526463</ele>
        <time>2021-11-11T09:39:19.775Z</time>
      </trkpt>
      <trkpt lat="47.20975" lon="-1.70506">
        <ele>50.730715</ele>
        <time>2021-11-11T09:39:21.749Z</time>
      </trkpt>
      <trkpt lat="47.20976" lon="-1.70493">
        <ele>50.816012</ele>
        <time>2021-11-11T09:39:23.748Z</time>
      </trkpt>
      <trkpt lat="47.20978" lon="-1.70478">
        <ele>50.911924</ele>
        <time>2021-11-11T09:39:25.749Z</time>
      </trkpt>
      <trkpt lat="47.2098" lon="-1.70462">
        <ele>51.011301</ele>
        <time>2021-11-11T09:39:27.747Z</time>
      </trkpt>
      <trkpt lat="47.2098" lon="-1.70447">
        <ele>51.10745</ele>
        <time>2021-11-11T09:39:29.747Z</time>
      </trkpt>
      <trkpt lat="47.2098" lon="-1.70431">
        <ele>51.20723</ele>
        <time>2021-11-11T09:39:31.755Z</time>
      </trkpt>
      <trkpt lat="47.2098" lon="-1.70417">
        <ele>51.296446</ele>
        <time>2021-11-11T09:39:33.753Z</time>
      </trkpt>
      <trkpt lat="47.20979" lon="-1.70404">
        <ele>51.38188</ele>
        <time>2021-11-11T09:39:35.757Z</time>
      </trkpt>
      <trkpt lat="47.20979" lon="-1.7039">
        <ele>51.46915</ele>
        <time>2021-11-11T09:39:37.751Z</time>
      </trkpt>
      <trkpt lat="47.20979" lon="-1.70376">
        <ele>51.557564</ele>
        <time>2021-11-11T09:39:39.745Z</time>
      </trkpt>
      <trkpt lat="47.20978" lon="-1.70362">
        <ele>51.646095</ele>
        <time>2021-11-11T09:39:41.750Z</time>
      </trkpt>
      <trkpt lat="47.20976" lon="-1.70348">
        <ele>51.736839</ele>
        <time>2021-11-11T09:39:43.763Z</time>
      </trkpt>
      <trkpt lat="47.20974" lon="-1.70334">
        <ele>51.829922</ele>
        <time>2021-11-11T09:39:45.754Z</time>
      </trkpt>
      <trkpt lat="47.20974" lon="-1.70318">
        <ele>51.925318</ele>
        <time>2021-11-11T09:39:47.765Z</time>
      </trkpt>
      <trkpt lat="47.20973" lon="-1.70303">
        <ele>52.024897</ele>
        <time>2021-11-11T09:39:49.750Z</time>
      </trkpt>
      <trkpt lat="47.20971" lon="-1.70288">
        <ele>52.122669</ele>
        <time>2021-11-11T09:39:51.759Z</time>
      </trkpt>
      <trkpt lat="47.20969" lon="-1.70272">
        <ele>52.222858</ele>
        <time>2021-11-11T09:39:53.747Z</time>
      </trkpt>
      <trkpt lat="47.20967" lon="-1.70257">
        <ele>52.320761</ele>
        <time>2021-11-11T09:39:55.760Z</time>
      </trkpt>
      <trkpt lat="47.20964" lon="-1.70242">
        <ele>52.386682</ele>
        <time>2021-11-11T09:39:57.783Z</time>
      </trkpt>
      <trkpt lat="47.20963" lon="-1.70228">
        <ele>52.377546</ele>
        <time>2021-11-11T09:39:59.765Z</time>
      </trkpt>
      <trkpt lat="47.2096" lon="-1.70214">
        <ele>52.36859</ele>
        <time>2021-11-11T09:40:01.752Z</time>
      </trkpt>
      <trkpt lat="47.20958" lon="-1.702">
        <ele>52.359909</ele>
        <time>2021-11-11T09:40:03.752Z</time>
      </trkpt>
      <trkpt lat="47.20954" lon="-1.70187">
        <ele>52.351025</ele>
        <time>2021-11-11T09:40:05.762Z</time>
      </trkpt>
      <trkpt lat="47.20951" lon="-1.70174">
        <ele>52.342562</ele>
        <time>2021-11-11T09:40:07.764Z</time>
      </trkpt>
      <trkpt lat="47.20949" lon="-1.7016">
        <ele>52.333508</ele>
        <time>2021-11-11T09:40:09.758Z</time>
      </trkpt>
      <trkpt lat="47.20945" lon="-1.70143">
        <ele>52.322447</ele>
        <time>2021-11-11T09:40:12.773Z</time>
      </trkpt>
      <trkpt lat="47.2094" lon="-1.70131">
        <ele>52.313458</ele>
        <time>2021-11-11T09:40:14.750Z</time>
      </trkpt>
      <trkpt lat="47.20936" lon="-1.70118">
        <ele>52.304304</ele>
        <time>2021-11-11T09:40:16.753Z</time>
      </trkpt>
      <trkpt lat="47.2093" lon="-1.70106">
        <ele>52.295587</ele>
        <time>2021-11-11T09:40:18.763Z</time>
      </trkpt>
      <trkpt lat="47.20923" lon="-1.70096">
        <ele>52.285967</ele>
        <time>2021-11-11T09:40:20.758Z</time>
      </trkpt>
      <trkpt lat="47.20917" lon="-1.70083">
        <ele>52.276736</ele>
        <time>2021-11-11T09:40:22.758Z</time>
      </trkpt>
      <trkpt lat="47.20917" lon="-1.70068">
        <ele>52.267294</ele>
        <time>2021-11-11T09:40:24.756Z</time>
      </trkpt>
      <trkpt lat="47.2092" lon="-1.70054">
        <ele>52.258192</ele>
        <time>2021-11-11T09:40:26.754Z</time>
      </trkpt>
      <trkpt lat="47.20924" lon="-1.70041">
        <ele>52.249377</ele>
        <time>2021-11-11T09:40:28.754Z</time>
      </trkpt>
      <trkpt lat="47.20927" lon="-1.70027">
        <ele>52.240114</ele>
        <time>2021-11-11T09:40:30.776Z</time>
      </trkpt>
      <trkpt lat="47.20929" lon="-1.70014">
        <ele>52.231508</ele>
        <time>2021-11-11T09:40:32.752Z</time>
      </trkpt>
      <trkpt lat="47.20929" lon="-1.69998">
        <ele>52.278202</ele>
        <time>2021-11-11T09:40:34.756Z</time>
      </trkpt>
      <trkpt lat="47.2093" lon="-1.69982">
        <ele>52.500205</ele>
        <time>2021-11-11T09:40:36.751Z</time>
      </trkpt>
      <trkpt lat="47.20932" lon="-1.69965">
        <ele>52.724174</ele>
        <time>2021-11-11T09:40:38.773Z</time>
      </trkpt>
      <trkpt lat="47.20933" lon="-1.69949">
        <ele>52.946176</ele>
        <time>2021-11-11T09:40:40.785Z</time>
      </trkpt>
      <trkpt lat="47.20933" lon="-1.69933">
        <ele>53.159178</ele>
        <time>2021-11-11T09:40:42.765Z</time>
      </trkpt>
      <trkpt lat="47.20933" lon="-1.69918">
        <ele>53.372151</ele>
        <time>2021-11-11T09:40:44.761Z</time>
      </trkpt>
      <trkpt lat="47.20933" lon="-1.69902">
        <ele>53.585124</ele>
        <time>2021-11-11T09:40:46.776Z</time>
      </trkpt>
      <trkpt lat="47.20933" lon="-1.69886">
        <ele>53.802194</ele>
        <time>2021-11-11T09:40:48.783Z</time>
      </trkpt>
      <trkpt lat="47.20933" lon="-1.69871">
        <ele>54.012445</ele>
        <time>2021-11-11T09:40:50.754Z</time>
      </trkpt>
      <trkpt lat="47.20932" lon="-1.69855">
        <ele>54.221578</ele>
        <time>2021-11-11T09:40:52.785Z</time>
      </trkpt>
      <trkpt lat="47.20932" lon="-1.6984">
        <ele>54.432435</ele>
        <time>2021-11-11T09:40:54.769Z</time>
      </trkpt>
      <trkpt lat="47.2093" lon="-1.69825">
        <ele>54.633041</ele>
        <time>2021-11-11T09:40:56.776Z</time>
      </trkpt>
      <trkpt lat="47.2093" lon="-1.6981">
        <ele>54.837136</ele>
        <time>2021-11-11T09:40:58.765Z</time>
      </trkpt>
      <trkpt lat="47.20929" lon="-1.69795">
        <ele>55.041231</ele>
        <time>2021-11-11T09:41:00.762Z</time>
      </trkpt>
      <trkpt lat="47.20928" lon="-1.6978">
        <ele>55.242473</ele>
        <time>2021-11-11T09:41:02.767Z</time>
      </trkpt>
      <trkpt lat="47.20927" lon="-1.69766">
        <ele>55.440865</ele>
        <time>2021-11-11T09:41:04.777Z</time>
      </trkpt>
      <trkpt lat="47.20926" lon="-1.69751">
        <ele>55.636562</ele>
        <time>2021-11-11T09:41:06.777Z</time>
      </trkpt>
      <trkpt lat="47.20925" lon="-1.69737">
        <ele>55.815948</ele>
        <time>2021-11-11T09:41:08.775Z</time>
      </trkpt>
      <trkpt lat="47.20924" lon="-1.69723">
        <ele>55.817365</ele>
        <time>2021-11-11T09:41:10.762Z</time>
      </trkpt>
      <trkpt lat="47.20923" lon="-1.69708">
        <ele>55.818823</ele>
        <time>2021-11-11T09:41:12.784Z</time>
      </trkpt>
      <trkpt lat="47.20921" lon="-1.69693">
        <ele>55.820272</ele>
        <time>2021-11-11T09:41:14.778Z</time>
      </trkpt>
      <trkpt lat="47.2092" lon="-1.69678">
        <ele>55.821714</ele>
        <time>2021-11-11T09:41:16.759Z</time>
      </trkpt>
      <trkpt lat="47.20919" lon="-1.69664">
        <ele>55.823164</ele>
        <time>2021-11-11T09:41:18.787Z</time>
      </trkpt>
      <trkpt lat="47.20918" lon="-1.69649">
        <ele>55.82462</ele>
        <time>2021-11-11T09:41:20.773Z</time>
      </trkpt>
      <trkpt lat="47.20917" lon="-1.69635">
        <ele>55.826035</ele>
        <time>2021-11-11T09:41:22.766Z</time>
      </trkpt>
      <trkpt lat="47.20916" lon="-1.69621">
        <ele>55.827394</ele>
        <time>2021-11-11T09:41:24.761Z</time>
      </trkpt>
      <trkpt lat="47.20915" lon="-1.69607">
        <ele>55.828785</ele>
        <time>2021-11-11T09:41:26.763Z</time>
      </trkpt>
      <trkpt lat="47.20913" lon="-1.69592">
        <ele>55.830224</ele>
        <time>2021-11-11T09:41:28.777Z</time>
      </trkpt>
      <trkpt lat="47.20912" lon="-1.69578">
        <ele>55.831654</ele>
        <time>2021-11-11T09:41:30.782Z</time>
      </trkpt>
      <trkpt lat="47.20911" lon="-1.69563">
        <ele>55.833078</ele>
        <time>2021-11-11T09:41:32.757Z</time>
      </trkpt>
      <trkpt lat="47.20909" lon="-1.69549">
        <ele>55.834518</ele>
        <time>2021-11-11T09:41:34.771Z</time>
      </trkpt>
      <trkpt lat="47.20908" lon="-1.69534">
        <ele>55.835955</ele>
        <time>2021-11-11T09:41:36.797Z</time>
      </trkpt>
      <trkpt lat="47.20907" lon="-1.6952">
        <ele>55.837383</ele>
        <time>2021-11-11T09:41:38.781Z</time>
      </trkpt>
      <trkpt lat="47.20906" lon="-1.69506">
        <ele>55.838766</ele>
        <time>2021-11-11T09:41:40.765Z</time>
      </trkpt>
      <trkpt lat="47.20905" lon="-1.69491">
        <ele>55.840164</ele>
        <time>2021-11-11T09:41:42.745Z</time>
      </trkpt>
      <trkpt lat="47.20904" lon="-1.69477">
        <ele>55.841623</ele>
        <time>2021-11-11T09:41:44.770Z</time>
      </trkpt>
      <trkpt lat="47.20903" lon="-1.69462">
        <ele>55.834927</ele>
        <time>2021-11-11T09:41:46.779Z</time>
      </trkpt>
      <trkpt lat="47.20902" lon="-1.69447">
        <ele>55.827581</ele>
        <time>2021-11-11T09:41:48.767Z</time>
      </trkpt>
      <trkpt lat="47.20901" lon="-1.69432">
        <ele>55.820319</ele>
        <time>2021-11-11T09:41:50.780Z</time>
      </trkpt>
      <trkpt lat="47.209" lon="-1.69418">
        <ele>55.813022</ele>
        <time>2021-11-11T09:41:52.764Z</time>
      </trkpt>
      <trkpt lat="47.20899" lon="-1.69403">
        <ele>55.805718</ele>
        <time>2021-11-11T09:41:54.784Z</time>
      </trkpt>
      <trkpt lat="47.20897" lon="-1.69389">
        <ele>55.798296</ele>
        <time>2021-11-11T09:41:56.767Z</time>
      </trkpt>
      <trkpt lat="47.20897" lon="-1.69373">
        <ele>55.790752</ele>
        <time>2021-11-11T09:41:58.780Z</time>
      </trkpt>
      <trkpt lat="47.20896" lon="-1.69359">
        <ele>55.783625</ele>
        <time>2021-11-11T09:42:00.763Z</time>
      </trkpt>
      <trkpt lat="47.20895" lon="-1.69345">
        <ele>55.776527</ele>
        <time>2021-11-11T09:42:02.808Z</time>
      </trkpt>
      <trkpt lat="47.20894" lon="-1.69331">
        <ele>55.769355</ele>
        <time>2021-11-11T09:42:04.772Z</time>
      </trkpt>
      <trkpt lat="47.20893" lon="-1.69316">
        <ele>55.761977</ele>
        <time>2021-11-11T09:42:06.821Z</time>
      </trkpt>
      <trkpt lat="47.20892" lon="-1.69302">
        <ele>55.754829</ele>
        <time>2021-11-11T09:42:08.774Z</time>
      </trkpt>
      <trkpt lat="47.20891" lon="-1.69287">
        <ele>55.747687</ele>
        <time>2021-11-11T09:42:10.739Z</time>
      </trkpt>
      <trkpt lat="47.2089" lon="-1.69273">
        <ele>55.740524</ele>
        <time>2021-11-11T09:42:12.766Z</time>
      </trkpt>
      <trkpt lat="47.20889" lon="-1.69259">
        <ele>55.733254</ele>
        <time>2021-11-11T09:42:14.788Z</time>
      </trkpt>
      <trkpt lat="47.20888" lon="-1.69244">
        <ele>55.725893</ele>
        <time>2021-11-11T09:42:16.774Z</time>
      </trkpt>
      <trkpt lat="47.20887" lon="-1.69229">
        <ele>55.718503</ele>
        <time>2021-11-11T09:42:18.756Z</time>
      </trkpt>
      <trkpt lat="47.20886" lon="-1.69215">
        <ele>55.711405</ele>
        <time>2021-11-11T09:42:20.765Z</time>
      </trkpt>
      <trkpt lat="47.20885" lon="-1.692">
        <ele>55.70267</ele>
        <time>2021-11-11T09:42:22.784Z</time>
      </trkpt>
      <trkpt lat="47.20883" lon="-1.69186">
        <ele>55.693612</ele>
        <time>2021-11-11T09:42:24.765Z</time>
      </trkpt>
      <trkpt lat="47.20882" lon="-1.69171">
        <ele>55.68448</ele>
        <time>2021-11-11T09:42:26.778Z</time>
      </trkpt>
      <trkpt lat="47.20881" lon="-1.69156">
        <ele>55.675126</ele>
        <time>2021-11-11T09:42:28.754Z</time>
      </trkpt>
      <trkpt lat="47.20881" lon="-1.69142">
        <ele>55.666157</ele>
        <time>2021-11-11T09:42:30.772Z</time>
      </trkpt>
      <trkpt lat="47.20879" lon="-1.69127">
        <ele>55.656732</ele>
        <time>2021-11-11T09:42:32.758Z</time>
      </trkpt>
      <trkpt lat="47.20878" lon="-1.69112">
        <ele>55.647454</ele>
        <time>2021-11-11T09:42:34.756Z</time>
      </trkpt>
      <trkpt lat="47.20877" lon="-1.69098">
        <ele>55.638485</ele>
        <time>2021-11-11T09:42:36.753Z</time>
      </trkpt>
      <trkpt lat="47.20876" lon="-1.69083">
        <ele>55.629486</ele>
        <time>2021-11-11T09:42:38.782Z</time>
      </trkpt>
      <trkpt lat="47.20875" lon="-1.69069">
        <ele>55.620652</ele>
        <time>2021-11-11T09:42:40.769Z</time>
      </trkpt>
      <trkpt lat="47.20873" lon="-1.69056">
        <ele>55.611949</ele>
        <time>2021-11-11T09:42:42.765Z</time>
      </trkpt>
      <trkpt lat="47.20872" lon="-1.69042">
        <ele>55.603288</ele>
        <time>2021-11-11T09:42:44.777Z</time>
      </trkpt>
      <trkpt lat="47.2087" lon="-1.69028">
        <ele>55.594333</ele>
        <time>2021-11-11T09:42:46.773Z</time>
      </trkpt>
      <trkpt lat="47.20868" lon="-1.69013">
        <ele>55.585092</ele>
        <time>2021-11-11T09:42:48.758Z</time>
      </trkpt>
      <trkpt lat="47.20866" lon="-1.68999">
        <ele>55.576217</ele>
        <time>2021-11-11T09:42:50.766Z</time>
      </trkpt>
      <trkpt lat="47.20865" lon="-1.68985">
        <ele>55.567375</ele>
        <time>2021-11-11T09:42:52.766Z</time>
      </trkpt>
      <trkpt lat="47.20863" lon="-1.68971">
        <ele>55.558439</ele>
        <time>2021-11-11T09:42:54.772Z</time>
      </trkpt>
      <trkpt lat="47.20861" lon="-1.68957">
        <ele>55.549728</ele>
        <time>2021-11-11T09:42:56.762Z</time>
      </trkpt>
      <trkpt lat="47.20858" lon="-1.68944">
        <ele>55.547767</ele>
        <time>2021-11-11T09:42:58.762Z</time>
      </trkpt>
      <trkpt lat="47.20856" lon="-1.68931">
        <ele>55.552625</ele>
        <time>2021-11-11T09:43:00.770Z</time>
      </trkpt>
      <trkpt lat="47.20854" lon="-1.68918">
        <ele>55.557517</ele>
        <time>2021-11-11T09:43:02.763Z</time>
      </trkpt>
      <trkpt lat="47.20851" lon="-1.68905">
        <ele>55.562614</ele>
        <time>2021-11-11T09:43:04.773Z</time>
      </trkpt>
      <trkpt lat="47.20848" lon="-1.68891">
        <ele>55.567945</ele>
        <time>2021-11-11T09:43:06.768Z</time>
      </trkpt>
      <trkpt lat="47.20845" lon="-1.68876">
        <ele>55.573345</ele>
        <time>2021-11-11T09:43:08.788Z</time>
      </trkpt>
      <trkpt lat="47.20842" lon="-1.68863">
        <ele>55.578626</ele>
        <time>2021-11-11T09:43:10.753Z</time>
      </trkpt>
      <trkpt lat="47.2084" lon="-1.68849">
        <ele>55.583652</ele>
        <time>2021-11-11T09:43:12.775Z</time>
      </trkpt>
      <trkpt lat="47.20836" lon="-1.68836">
        <ele>55.588941</ele>
        <time>2021-11-11T09:43:14.793Z</time>
      </trkpt>
      <trkpt lat="47.20833" lon="-1.68822">
        <ele>55.594373</ele>
        <time>2021-11-11T09:43:16.784Z</time>
      </trkpt>
      <trkpt lat="47.2083" lon="-1.68807">
        <ele>55.599765</ele>
        <time>2021-11-11T09:43:18.760Z</time>
      </trkpt>
      <trkpt lat="47.20827" lon="-1.68793">
        <ele>55.605077</ele>
        <time>2021-11-11T09:43:20.757Z</time>
      </trkpt>
      <trkpt lat="47.20824" lon="-1.6878">
        <ele>55.610204</ele>
        <time>2021-11-11T09:43:22.763Z</time>
      </trkpt>
      <trkpt lat="47.2082" lon="-1.68767">
        <ele>55.615447</ele>
        <time>2021-11-11T09:43:24.775Z</time>
      </trkpt>
      <trkpt lat="47.20817" lon="-1.68754">
        <ele>55.620676</ele>
        <time>2021-11-11T09:43:26.786Z</time>
      </trkpt>
      <trkpt lat="47.20813" lon="-1.68741">
        <ele>55.625852</ele>
        <time>2021-11-11T09:43:28.778Z</time>
      </trkpt>
      <trkpt lat="47.20808" lon="-1.68728">
        <ele>55.631029</ele>
        <time>2021-11-11T09:43:30.795Z</time>
      </trkpt>
      <trkpt lat="47.20804" lon="-1.68715">
        <ele>55.636151</ele>
        <time>2021-11-11T09:43:32.785Z</time>
      </trkpt>
      <trkpt lat="47.20801" lon="-1.68702">
        <ele>55.641372</ele>
        <time>2021-11-11T09:43:34.760Z</time>
      </trkpt>
      <trkpt lat="47.20797" lon="-1.6869">
        <ele>55.665095</ele>
        <time>2021-11-11T09:43:36.780Z</time>
      </trkpt>
      <trkpt lat="47.20793" lon="-1.68677">
        <ele>55.691297</ele>
        <time>2021-11-11T09:43:38.768Z</time>
      </trkpt>
      <trkpt lat="47.20789" lon="-1.68664">
        <ele>55.718009</ele>
        <time>2021-11-11T09:43:40.758Z</time>
      </trkpt>
      <trkpt lat="47.20785" lon="-1.6865">
        <ele>55.744551</ele>
        <time>2021-11-11T09:43:42.799Z</time>
      </trkpt>
      <trkpt lat="47.20781" lon="-1.68638">
        <ele>55.770644</ele>
        <time>2021-11-11T09:43:44.762Z</time>
      </trkpt>
      <trkpt lat="47.20777" lon="-1.68625">
        <ele>55.796958</ele>
        <time>2021-11-11T09:43:46.777Z</time>
      </trkpt>
      <trkpt lat="47.20773" lon="-1.68612">
        <ele>55.823388</ele>
        <time>2021-11-11T09:43:48.768Z</time>
      </trkpt>
      <trkpt lat="47.20769" lon="-1.68599">
        <ele>55.849611</ele>
        <time>2021-11-11T09:43:50.768Z</time>
      </trkpt>
      <trkpt lat="47.20765" lon="-1.68585">
        <ele>55.876835</ele>
        <time>2021-11-11T09:43:52.758Z</time>
      </trkpt>
      <trkpt lat="47.20762" lon="-1.68572">
        <ele>55.903677</ele>
        <time>2021-11-11T09:43:54.752Z</time>
      </trkpt>
      <trkpt lat="47.20758" lon="-1.68559">
        <ele>55.930111</ele>
        <time>2021-11-11T09:43:56.769Z</time>
      </trkpt>
      <trkpt lat="47.20754" lon="-1.68546">
        <ele>55.956267</ele>
        <time>2021-11-11T09:43:58.778Z</time>
      </trkpt>
      <trkpt lat="47.2075" lon="-1.68533">
        <ele>55.983033</ele>
        <time>2021-11-11T09:44:00.766Z</time>
      </trkpt>
      <trkpt lat="47.20746" lon="-1.6852">
        <ele>56.009747</ele>
        <time>2021-11-11T09:44:02.776Z</time>
      </trkpt>
      <trkpt lat="47.20742" lon="-1.68507">
        <ele>56.036062</ele>
        <time>2021-11-11T09:44:04.758Z</time>
      </trkpt>
      <trkpt lat="47.20738" lon="-1.68494">
        <ele>56.062095</ele>
        <time>2021-11-11T09:44:06.763Z</time>
      </trkpt>
      <trkpt lat="47.20735" lon="-1.68481">
        <ele>56.0877</ele>
        <time>2021-11-11T09:44:08.757Z</time>
      </trkpt>
      <trkpt lat="47.2073" lon="-1.68468">
        <ele>56.113794</ele>
        <time>2021-11-11T09:44:10.787Z</time>
      </trkpt>
      <trkpt lat="47.20726" lon="-1.68456">
        <ele>56.139813</ele>
        <time>2021-11-11T09:44:12.758Z</time>
      </trkpt>
      <trkpt lat="47.20722" lon="-1.68443">
        <ele>56.165128</ele>
        <time>2021-11-11T09:44:14.772Z</time>
      </trkpt>
      <trkpt lat="47.20716" lon="-1.68432">
        <ele>56.189776</ele>
        <time>2021-11-11T09:44:16.774Z</time>
      </trkpt>
      <trkpt lat="47.20708" lon="-1.68424">
        <ele>56.215824</ele>
        <time>2021-11-11T09:44:18.765Z</time>
      </trkpt>
      <trkpt lat="47.20699" lon="-1.68415">
        <ele>56.246637</ele>
        <time>2021-11-11T09:44:21.788Z</time>
      </trkpt>
      <trkpt lat="47.20693" lon="-1.68402">
        <ele>56.274239</ele>
        <time>2021-11-11T09:44:24.772Z</time>
      </trkpt>
      <trkpt lat="47.20694" lon="-1.68387">
        <ele>56.3028</ele>
        <time>2021-11-11T09:44:27.783Z</time>
      </trkpt>
      <trkpt lat="47.20699" lon="-1.68375">
        <ele>56.327298</ele>
        <time>2021-11-11T09:44:29.561Z</time>
      </trkpt>
      <trkpt lat="47.207" lon="-1.68359">
        <ele>56.355357</ele>
        <time>2021-11-11T09:44:31.766Z</time>
      </trkpt>
      <trkpt lat="47.20696" lon="-1.68346">
        <ele>56.381048</ele>
        <time>2021-11-11T09:44:33.778Z</time>
      </trkpt>
      <trkpt lat="47.20692" lon="-1.68334">
        <ele>56.40641</ele>
        <time>2021-11-11T09:44:35.751Z</time>
      </trkpt>
      <trkpt lat="47.20688" lon="-1.68321">
        <ele>56.431713</ele>
        <time>2021-11-11T09:44:37.759Z</time>
      </trkpt>
      <trkpt lat="47.20684" lon="-1.68308">
        <ele>56.456743</ele>
        <time>2021-11-11T09:44:39.772Z</time>
      </trkpt>
      <trkpt lat="47.2068" lon="-1.68295">
        <ele>56.482103</ele>
        <time>2021-11-11T09:44:41.760Z</time>
      </trkpt>
      <trkpt lat="47.20677" lon="-1.68282">
        <ele>56.507859</ele>
        <time>2021-11-11T09:44:43.765Z</time>
      </trkpt>
      <trkpt lat="47.20673" lon="-1.68269">
        <ele>56.533599</ele>
        <time>2021-11-11T09:44:45.788Z</time>
      </trkpt>
      <trkpt lat="47.20669" lon="-1.68256">
        <ele>56.559062</ele>
        <time>2021-11-11T09:44:47.781Z</time>
      </trkpt>
      <trkpt lat="47.20666" lon="-1.68243">
        <ele>56.584116</ele>
        <time>2021-11-11T09:44:49.756Z</time>
      </trkpt>
      <trkpt lat="47.20662" lon="-1.6823">
        <ele>56.609201</ele>
        <time>2021-11-11T09:44:51.772Z</time>
      </trkpt>
      <trkpt lat="47.20658" lon="-1.68218">
        <ele>56.610839</ele>
        <time>2021-11-11T09:44:53.760Z</time>
      </trkpt>
      <trkpt lat="47.20654" lon="-1.68205">
        <ele>56.611023</ele>
        <time>2021-11-11T09:44:55.765Z</time>
      </trkpt>
      <trkpt lat="47.2065" lon="-1.68192">
        <ele>56.611213</ele>
        <time>2021-11-11T09:44:57.759Z</time>
      </trkpt>
      <trkpt lat="47.20646" lon="-1.68179">
        <ele>56.611405</ele>
        <time>2021-11-11T09:44:59.781Z</time>
      </trkpt>
      <trkpt lat="47.20642" lon="-1.68165">
        <ele>56.6116</ele>
        <time>2021-11-11T09:45:01.767Z</time>
      </trkpt>
      <trkpt lat="47.20638" lon="-1.68152">
        <ele>56.611785</ele>
        <time>2021-11-11T09:45:03.817Z</time>
      </trkpt>
      <trkpt lat="47.20634" lon="-1.68139">
        <ele>56.611968</ele>
        <time>2021-11-11T09:45:05.787Z</time>
      </trkpt>
      <trkpt lat="47.2063" lon="-1.68126">
        <ele>56.612157</ele>
        <time>2021-11-11T09:45:07.749Z</time>
      </trkpt>
      <trkpt lat="47.20626" lon="-1.68113">
        <ele>56.612351</ele>
        <time>2021-11-11T09:45:09.777Z</time>
      </trkpt>
      <trkpt lat="47.20623" lon="-1.681">
        <ele>56.612536</ele>
        <time>2021-11-11T09:45:11.765Z</time>
      </trkpt>
      <trkpt lat="47.20619" lon="-1.68087">
        <ele>56.61272</ele>
        <time>2021-11-11T09:45:13.761Z</time>
      </trkpt>
      <trkpt lat="47.20615" lon="-1.68075">
        <ele>56.612899</ele>
        <time>2021-11-11T09:45:15.783Z</time>
      </trkpt>
      <trkpt lat="47.20611" lon="-1.68062">
        <ele>56.613088</ele>
        <time>2021-11-11T09:45:17.779Z</time>
      </trkpt>
      <trkpt lat="47.20608" lon="-1.68048">
        <ele>56.613279</ele>
        <time>2021-11-11T09:45:19.803Z</time>
      </trkpt>
      <trkpt lat="47.20603" lon="-1.68036">
        <ele>56.613465</ele>
        <time>2021-11-11T09:45:21.774Z</time>
      </trkpt>
      <trkpt lat="47.206" lon="-1.68023">
        <ele>56.61365</ele>
        <time>2021-11-11T09:45:23.770Z</time>
      </trkpt>
      <trkpt lat="47.20596" lon="-1.6801">
        <ele>56.613836</ele>
        <time>2021-11-11T09:45:25.758Z</time>
      </trkpt>
      <trkpt lat="47.20592" lon="-1.67997">
        <ele>56.614021</ele>
        <time>2021-11-11T09:45:27.765Z</time>
      </trkpt>
      <trkpt lat="47.20588" lon="-1.67984">
        <ele>56.617149</ele>
        <time>2021-11-11T09:45:29.782Z</time>
      </trkpt>
      <trkpt lat="47.20584" lon="-1.6797">
        <ele>56.627637</ele>
        <time>2021-11-11T09:45:31.768Z</time>
      </trkpt>
      <trkpt lat="47.2058" lon="-1.67957">
        <ele>56.638395</ele>
        <time>2021-11-11T09:45:33.776Z</time>
      </trkpt>
      <trkpt lat="47.20576" lon="-1.67943">
        <ele>56.649044</ele>
        <time>2021-11-11T09:45:35.759Z</time>
      </trkpt>
      <trkpt lat="47.20572" lon="-1.6793">
        <ele>56.659686</ele>
        <time>2021-11-11T09:45:37.777Z</time>
      </trkpt>
      <trkpt lat="47.20568" lon="-1.67916">
        <ele>56.670268</ele>
        <time>2021-11-11T09:45:39.776Z</time>
      </trkpt>
      <trkpt lat="47.20564" lon="-1.67903">
        <ele>56.680819</ele>
        <time>2021-11-11T09:45:41.765Z</time>
      </trkpt>
      <trkpt lat="47.20561" lon="-1.6789">
        <ele>56.691199</ele>
        <time>2021-11-11T09:45:43.780Z</time>
      </trkpt>
      <trkpt lat="47.20557" lon="-1.67877">
        <ele>56.701331</ele>
        <time>2021-11-11T09:45:45.777Z</time>
      </trkpt>
      <trkpt lat="47.20553" lon="-1.67864">
        <ele>56.711595</ele>
        <time>2021-11-11T09:45:47.774Z</time>
      </trkpt>
      <trkpt lat="47.20549" lon="-1.67851">
        <ele>56.722083</ele>
        <time>2021-11-11T09:45:49.774Z</time>
      </trkpt>
      <trkpt lat="47.20545" lon="-1.67838">
        <ele>56.732634</ele>
        <time>2021-11-11T09:45:51.788Z</time>
      </trkpt>
      <trkpt lat="47.20541" lon="-1.67824">
        <ele>56.743473</ele>
        <time>2021-11-11T09:45:53.783Z</time>
      </trkpt>
      <trkpt lat="47.20536" lon="-1.67811">
        <ele>56.754031</ele>
        <time>2021-11-11T09:45:55.787Z</time>
      </trkpt>
      <trkpt lat="47.20532" lon="-1.67799">
        <ele>56.764056</ele>
        <time>2021-11-11T09:45:57.778Z</time>
      </trkpt>
      <trkpt lat="47.20528" lon="-1.67787">
        <ele>56.774097</ele>
        <time>2021-11-11T09:45:59.763Z</time>
      </trkpt>
      <trkpt lat="47.20524" lon="-1.67774">
        <ele>56.784207</ele>
        <time>2021-11-11T09:46:01.774Z</time>
      </trkpt>
      <trkpt lat="47.20519" lon="-1.67762">
        <ele>56.794299</ele>
        <time>2021-11-11T09:46:03.774Z</time>
      </trkpt>
      <trkpt lat="47.20515" lon="-1.67749">
        <ele>56.804597</ele>
        <time>2021-11-11T09:46:05.787Z</time>
      </trkpt>
      <trkpt lat="47.2051" lon="-1.67737">
        <ele>56.776836</ele>
        <time>2021-11-11T09:46:07.785Z</time>
      </trkpt>
      <trkpt lat="47.20505" lon="-1.67725">
        <ele>56.739967</ele>
        <time>2021-11-11T09:46:09.781Z</time>
      </trkpt>
      <trkpt lat="47.20501" lon="-1.67712">
        <ele>56.702365</ele>
        <time>2021-11-11T09:46:11.762Z</time>
      </trkpt>
      <trkpt lat="47.20496" lon="-1.677">
        <ele>56.664889</ele>
        <time>2021-11-11T09:46:13.764Z</time>
      </trkpt>
      <trkpt lat="47.20492" lon="-1.67687">
        <ele>56.626357</ele>
        <time>2021-11-11T09:46:15.754Z</time>
      </trkpt>
      <trkpt lat="47.20487" lon="-1.67675">
        <ele>56.591276</ele>
        <time>2021-11-11T09:46:17.774Z</time>
      </trkpt>
      <trkpt lat="47.20481" lon="-1.67658">
        <ele>56.538927</ele>
        <time>2021-11-11T09:46:20.765Z</time>
      </trkpt>
      <trkpt lat="47.20476" lon="-1.67646">
        <ele>56.502546</ele>
        <time>2021-11-11T09:46:22.778Z</time>
      </trkpt>
      <trkpt lat="47.20471" lon="-1.67634">
        <ele>56.46554</ele>
        <time>2021-11-11T09:46:24.768Z</time>
      </trkpt>
      <trkpt lat="47.20465" lon="-1.67622">
        <ele>56.428119</ele>
        <time>2021-11-11T09:46:26.746Z</time>
      </trkpt>
      <trkpt lat="47.20458" lon="-1.67611">
        <ele>56.389342</ele>
        <time>2021-11-11T09:46:28.792Z</time>
      </trkpt>
      <trkpt lat="47.20451" lon="-1.67601">
        <ele>56.350031</ele>
        <time>2021-11-11T09:46:30.771Z</time>
      </trkpt>
      <trkpt lat="47.20442" lon="-1.67593">
        <ele>56.310057</ele>
        <time>2021-11-11T09:46:32.766Z</time>
      </trkpt>
      <trkpt lat="47.20433" lon="-1.67586">
        <ele>56.270444</ele>
        <time>2021-11-11T09:46:34.750Z</time>
      </trkpt>
      <trkpt lat="47.20422" lon="-1.67584">
        <ele>56.228675</ele>
        <time>2021-11-11T09:46:36.760Z</time>
      </trkpt>
      <trkpt lat="47.20413" lon="-1.67576">
        <ele>56.185392</ele>
        <time>2021-11-11T09:46:38.775Z</time>
      </trkpt>
      <trkpt lat="47.20407" lon="-1.67562">
        <ele>56.14307</ele>
        <time>2021-11-11T09:46:40.770Z</time>
      </trkpt>
      <trkpt lat="47.20407" lon="-1.67547">
        <ele>56.132065</ele>
        <time>2021-11-11T09:46:42.784Z</time>
      </trkpt>
      <trkpt lat="47.20412" lon="-1.67533">
        <ele>56.230983</ele>
        <time>2021-11-11T09:46:44.777Z</time>
      </trkpt>
      <trkpt lat="47.20413" lon="-1.67519">
        <ele>56.322608</ele>
        <time>2021-11-11T09:46:46.765Z</time>
      </trkpt>
      <trkpt lat="47.2041" lon="-1.67506">
        <ele>56.412751</ele>
        <time>2021-11-11T09:46:48.759Z</time>
      </trkpt>
      <trkpt lat="47.20406" lon="-1.67493">
        <ele>56.502898</ele>
        <time>2021-11-11T09:46:50.752Z</time>
      </trkpt>
      <trkpt lat="47.20403" lon="-1.6748">
        <ele>56.594697</ele>
        <time>2021-11-11T09:46:52.764Z</time>
      </trkpt>
      <trkpt lat="47.20397" lon="-1.67462">
        <ele>56.724378</ele>
        <time>2021-11-11T09:46:55.812Z</time>
      </trkpt>
      <trkpt lat="47.20391" lon="-1.67444">
        <ele>56.859698</ele>
        <time>2021-11-11T09:46:58.753Z</time>
      </trkpt>
      <trkpt lat="47.20386" lon="-1.67431">
        <ele>56.95399</ele>
        <time>2021-11-11T09:47:00.769Z</time>
      </trkpt>
      <trkpt lat="47.2038" lon="-1.67419">
        <ele>57.048167</ele>
        <time>2021-11-11T09:47:02.764Z</time>
      </trkpt>
      <trkpt lat="47.20375" lon="-1.67407">
        <ele>57.144989</ele>
        <time>2021-11-11T09:47:04.767Z</time>
      </trkpt>
      <trkpt lat="47.20369" lon="-1.67395">
        <ele>57.240204</ele>
        <time>2021-11-11T09:47:06.762Z</time>
      </trkpt>
      <trkpt lat="47.20364" lon="-1.67383">
        <ele>57.334882</ele>
        <time>2021-11-11T09:47:08.797Z</time>
      </trkpt>
      <trkpt lat="47.20358" lon="-1.6737">
        <ele>57.434415</ele>
        <time>2021-11-11T09:47:10.768Z</time>
      </trkpt>
      <trkpt lat="47.20352" lon="-1.67358">
        <ele>57.530694</ele>
        <time>2021-11-11T09:47:12.756Z</time>
      </trkpt>
      <trkpt lat="47.20346" lon="-1.67346">
        <ele>57.626501</ele>
        <time>2021-11-11T09:47:14.758Z</time>
      </trkpt>
      <trkpt lat="47.20341" lon="-1.67334">
        <ele>57.72227</ele>
        <time>2021-11-11T09:47:16.750Z</time>
      </trkpt>
      <trkpt lat="47.20335" lon="-1.67322">
        <ele>57.819093</ele>
        <time>2021-11-11T09:47:18.777Z</time>
      </trkpt>
      <trkpt lat="47.2033" lon="-1.6731">
        <ele>57.77767</ele>
        <time>2021-11-11T09:47:20.780Z</time>
      </trkpt>
      <trkpt lat="47.20324" lon="-1.67297">
        <ele>57.689855</ele>
        <time>2021-11-11T09:47:22.764Z</time>
      </trkpt>
      <trkpt lat="47.20319" lon="-1.67284">
        <ele>57.604826</ele>
        <time>2021-11-11T09:47:24.779Z</time>
      </trkpt>
      <trkpt lat="47.20313" lon="-1.67272">
        <ele>57.521758</ele>
        <time>2021-11-11T09:47:26.774Z</time>
      </trkpt>
      <trkpt lat="47.20308" lon="-1.67259">
        <ele>57.438664</ele>
        <time>2021-11-11T09:47:28.772Z</time>
      </trkpt>
      <trkpt lat="47.20303" lon="-1.67248">
        <ele>57.358425</ele>
        <time>2021-11-11T09:47:30.774Z</time>
      </trkpt>
      <trkpt lat="47.20297" lon="-1.67236">
        <ele>57.276785</ele>
        <time>2021-11-11T09:47:32.782Z</time>
      </trkpt>
      <trkpt lat="47.20292" lon="-1.67224">
        <ele>57.196086</ele>
        <time>2021-11-11T09:47:34.786Z</time>
      </trkpt>
      <trkpt lat="47.20287" lon="-1.67212">
        <ele>57.114432</ele>
        <time>2021-11-11T09:47:36.783Z</time>
      </trkpt>
      <trkpt lat="47.20281" lon="-1.672">
        <ele>57.032318</ele>
        <time>2021-11-11T09:47:38.782Z</time>
      </trkpt>
      <trkpt lat="47.20276" lon="-1.67188">
        <ele>56.948318</ele>
        <time>2021-11-11T09:47:40.763Z</time>
      </trkpt>
      <trkpt lat="47.2027" lon="-1.67175">
        <ele>56.860983</ele>
        <time>2021-11-11T09:47:42.768Z</time>
      </trkpt>
      <trkpt lat="47.20264" lon="-1.67163">
        <ele>56.775085</ele>
        <time>2021-11-11T09:47:44.776Z</time>
      </trkpt>
      <trkpt lat="47.20259" lon="-1.6715">
        <ele>56.690124</ele>
        <time>2021-11-11T09:47:46.775Z</time>
      </trkpt>
      <trkpt lat="47.20253" lon="-1.67138">
        <ele>56.605163</ele>
        <time>2021-11-11T09:47:48.761Z</time>
      </trkpt>
      <trkpt lat="47.20248" lon="-1.67125">
        <ele>56.518235</ele>
        <time>2021-11-11T09:47:50.770Z</time>
      </trkpt>
      <trkpt lat="47.20242" lon="-1.67112">
        <ele>56.434208</ele>
        <time>2021-11-11T09:47:52.789Z</time>
      </trkpt>
      <trkpt lat="47.20237" lon="-1.671">
        <ele>56.351113</ele>
        <time>2021-11-11T09:47:54.770Z</time>
      </trkpt>
      <trkpt lat="47.20232" lon="-1.67088">
        <ele>56.334761</ele>
        <time>2021-11-11T09:47:56.771Z</time>
      </trkpt>
      <trkpt lat="47.20227" lon="-1.67076">
        <ele>56.338978</ele>
        <time>2021-11-11T09:47:58.769Z</time>
      </trkpt>
      <trkpt lat="47.20221" lon="-1.67065">
        <ele>56.343146</ele>
        <time>2021-11-11T09:48:00.785Z</time>
      </trkpt>
      <trkpt lat="47.20216" lon="-1.67053">
        <ele>56.347264</ele>
        <time>2021-11-11T09:48:02.767Z</time>
      </trkpt>
      <trkpt lat="47.20211" lon="-1.67041">
        <ele>56.351533</ele>
        <time>2021-11-11T09:48:04.768Z</time>
      </trkpt>
      <trkpt lat="47.20206" lon="-1.67029">
        <ele>56.355801</ele>
        <time>2021-11-11T09:48:06.779Z</time>
      </trkpt>
      <trkpt lat="47.20201" lon="-1.67017">
        <ele>56.360025</ele>
        <time>2021-11-11T09:48:08.779Z</time>
      </trkpt>
      <trkpt lat="47.20195" lon="-1.67006">
        <ele>56.364269</ele>
        <time>2021-11-11T09:48:10.781Z</time>
      </trkpt>
      <trkpt lat="47.2019" lon="-1.66993">
        <ele>56.368567</ele>
        <time>2021-11-11T09:48:12.769Z</time>
      </trkpt>
      <trkpt lat="47.20185" lon="-1.66982">
        <ele>56.372886</ele>
        <time>2021-11-11T09:48:14.760Z</time>
      </trkpt>
      <trkpt lat="47.20179" lon="-1.6697">
        <ele>56.376978</ele>
        <time>2021-11-11T09:48:16.782Z</time>
      </trkpt>
      <trkpt lat="47.20175" lon="-1.66959">
        <ele>56.381074</ele>
        <time>2021-11-11T09:48:18.766Z</time>
      </trkpt>
      <trkpt lat="47.20169" lon="-1.66947">
        <ele>56.385291</ele>
        <time>2021-11-11T09:48:20.778Z</time>
      </trkpt>
      <trkpt lat="47.20164" lon="-1.66936">
        <ele>56.389408</ele>
        <time>2021-11-11T09:48:22.762Z</time>
      </trkpt>
      <trkpt lat="47.20159" lon="-1.66924">
        <ele>56.393576</ele>
        <time>2021-11-11T09:48:24.764Z</time>
      </trkpt>
      <trkpt lat="47.20154" lon="-1.66912">
        <ele>56.397844</ele>
        <time>2021-11-11T09:48:26.757Z</time>
      </trkpt>
      <trkpt lat="47.20148" lon="-1.669">
        <ele>56.40221</ele>
        <time>2021-11-11T09:48:28.760Z</time>
      </trkpt>
      <trkpt lat="47.20143" lon="-1.66888">
        <ele>56.406501</ele>
        <time>2021-11-11T09:48:30.774Z</time>
      </trkpt>
      <trkpt lat="47.20137" lon="-1.66877">
        <ele>56.410848</ele>
        <time>2021-11-11T09:48:32.774Z</time>
      </trkpt>
      <trkpt lat="47.20131" lon="-1.66865">
        <ele>56.375096</ele>
        <time>2021-11-11T09:48:34.754Z</time>
      </trkpt>
      <trkpt lat="47.20125" lon="-1.6685">
        <ele>56.328827</ele>
        <time>2021-11-11T09:48:37.765Z</time>
      </trkpt>
      <trkpt lat="47.20118" lon="-1.66832">
        <ele>56.277527</ele>
        <time>2021-11-11T09:48:40.760Z</time>
      </trkpt>
      <trkpt lat="47.20109" lon="-1.66818">
        <ele>56.228483</ele>
        <time>2021-11-11T09:48:42.333Z</time>
      </trkpt>
      <trkpt lat="47.20095" lon="-1.66807">
        <ele>56.166796</ele>
        <time>2021-11-11T09:48:46.780Z</time>
      </trkpt>
      <trkpt lat="47.20088" lon="-1.66797">
        <ele>56.130615</ele>
        <time>2021-11-11T09:48:48.776Z</time>
      </trkpt>
      <trkpt lat="47.20084" lon="-1.66783">
        <ele>56.092562</ele>
        <time>2021-11-11T09:48:50.761Z</time>
      </trkpt>
      <trkpt lat="47.20081" lon="-1.6677">
        <ele>56.055602</ele>
        <time>2021-11-11T09:48:52.809Z</time>
      </trkpt>
      <trkpt lat="47.20072" lon="-1.66763">
        <ele>56.016839</ele>
        <time>2021-11-11T09:48:54.740Z</time>
      </trkpt>
      <trkpt lat="47.20062" lon="-1.66761">
        <ele>55.978331</ele>
        <time>2021-11-11T09:48:56.764Z</time>
      </trkpt>
      <trkpt lat="47.20053" lon="-1.66754">
        <ele>55.942544</ele>
        <time>2021-11-11T09:48:58.783Z</time>
      </trkpt>
      <trkpt lat="47.20052" lon="-1.66738">
        <ele>55.9032</ele>
        <time>2021-11-11T09:49:00.764Z</time>
      </trkpt>
      <trkpt lat="47.20055" lon="-1.66723">
        <ele>55.862338</ele>
        <time>2021-11-11T09:49:02.752Z</time>
      </trkpt>
      <trkpt lat="47.20056" lon="-1.66708">
        <ele>55.823756</ele>
        <time>2021-11-11T09:49:04.766Z</time>
      </trkpt>
      <trkpt lat="47.20056" lon="-1.66693">
        <ele>55.786043</ele>
        <time>2021-11-11T09:49:06.786Z</time>
      </trkpt>
      <trkpt lat="47.20054" lon="-1.66679">
        <ele>55.748929</ele>
        <time>2021-11-11T09:49:08.746Z</time>
      </trkpt>
      <trkpt lat="47.20052" lon="-1.66665">
        <ele>55.722197</ele>
        <time>2021-11-11T09:49:10.764Z</time>
      </trkpt>
      <trkpt lat="47.20048" lon="-1.66652">
        <ele>55.703776</ele>
        <time>2021-11-11T09:49:12.782Z</time>
      </trkpt>
      <trkpt lat="47.20043" lon="-1.66639">
        <ele>55.684639</ele>
        <time>2021-11-11T09:49:14.767Z</time>
      </trkpt>
      <trkpt lat="47.20038" lon="-1.66627">
        <ele>55.666179</ele>
        <time>2021-11-11T09:49:16.750Z</time>
      </trkpt>
      <trkpt lat="47.20032" lon="-1.66616">
        <ele>55.648394</ele>
        <time>2021-11-11T09:49:18.764Z</time>
      </trkpt>
      <trkpt lat="47.20026" lon="-1.66606">
        <ele>55.631417</ele>
        <time>2021-11-11T09:49:20.794Z</time>
      </trkpt>
      <trkpt lat="47.20019" lon="-1.66597">
        <ele>55.614568</ele>
        <time>2021-11-11T09:49:22.772Z</time>
      </trkpt>
      <trkpt lat="47.20012" lon="-1.66588">
        <ele>55.597152</ele>
        <time>2021-11-11T09:49:24.806Z</time>
      </trkpt>
      <trkpt lat="47.20003" lon="-1.66577">
        <ele>55.57566</ele>
        <time>2021-11-11T09:49:27.759Z</time>
      </trkpt>
      <trkpt lat="47.19994" lon="-1.66564">
        <ele>55.551195</ele>
        <time>2021-11-11T09:49:30.767Z</time>
      </trkpt>
      <trkpt lat="47.19986" lon="-1.66553">
        <ele>55.530374</ele>
        <time>2021-11-11T09:49:32.793Z</time>
      </trkpt>
      <trkpt lat="47.19975" lon="-1.66539">
        <ele>55.504118</ele>
        <time>2021-11-11T09:49:35.774Z</time>
      </trkpt>
      <trkpt lat="47.19968" lon="-1.66529">
        <ele>55.485055</ele>
        <time>2021-11-11T09:49:37.774Z</time>
      </trkpt>
      <trkpt lat="47.1996" lon="-1.6652">
        <ele>55.466614</ele>
        <time>2021-11-11T09:49:39.766Z</time>
      </trkpt>
      <trkpt lat="47.19952" lon="-1.66513">
        <ele>55.448376</ele>
        <time>2021-11-11T09:49:41.775Z</time>
      </trkpt>
      <trkpt lat="47.19943" lon="-1.66509">
        <ele>55.430447</ele>
        <time>2021-11-11T09:49:43.772Z</time>
      </trkpt>
      <trkpt lat="47.19934" lon="-1.665">
        <ele>55.410113</ele>
        <time>2021-11-11T09:49:46.405Z</time>
      </trkpt>
      <trkpt lat="47.19924" lon="-1.66489">
        <ele>55.390591</ele>
        <time>2021-11-11T09:49:48.766Z</time>
      </trkpt>
      <trkpt lat="47.19918" lon="-1.6648">
        <ele>55.380397</ele>
        <time>2021-11-11T09:49:50.763Z</time>
      </trkpt>
      <trkpt lat="47.19912" lon="-1.66469">
        <ele>55.370371</ele>
        <time>2021-11-11T09:49:52.826Z</time>
      </trkpt>
      <trkpt lat="47.19907" lon="-1.66456">
        <ele>55.359271</ele>
        <time>2021-11-11T09:49:54.399Z</time>
      </trkpt>
      <trkpt lat="47.199" lon="-1.66441">
        <ele>55.345506</ele>
        <time>2021-11-11T09:49:57.790Z</time>
      </trkpt>
      <trkpt lat="47.19892" lon="-1.66432">
        <ele>55.335516</ele>
        <time>2021-11-11T09:49:59.798Z</time>
      </trkpt>
      <trkpt lat="47.19884" lon="-1.66426">
        <ele>55.32539</ele>
        <time>2021-11-11T09:50:01.217Z</time>
      </trkpt>
      <trkpt lat="47.19879" lon="-1.66415">
        <ele>55.315359</ele>
        <time>2021-11-11T09:50:04.779Z</time>
      </trkpt>
      <trkpt lat="47.19872" lon="-1.66405">
        <ele>55.304959</ele>
        <time>2021-11-11T09:50:06.458Z</time>
      </trkpt>
      <trkpt lat="47.19865" lon="-1.66396">
        <ele>55.294656</ele>
        <time>2021-11-11T09:50:08.770Z</time>
      </trkpt>
      <trkpt lat="47.19857" lon="-1.66387">
        <ele>55.283879</ele>
        <time>2021-11-11T09:50:10.826Z</time>
      </trkpt>
      <trkpt lat="47.19849" lon="-1.66381">
        <ele>55.273759</ele>
        <time>2021-11-11T09:50:12.763Z</time>
      </trkpt>
      <trkpt lat="47.1984" lon="-1.66376">
        <ele>55.263095</ele>
        <time>2021-11-11T09:50:14.775Z</time>
      </trkpt>
      <trkpt lat="47.1983" lon="-1.66372">
        <ele>55.252181</ele>
        <time>2021-11-11T09:50:16.774Z</time>
      </trkpt>
      <trkpt lat="47.1982" lon="-1.6637">
        <ele>55.241433</ele>
        <time>2021-11-11T09:50:18.788Z</time>
      </trkpt>
      <trkpt lat="47.19811" lon="-1.66369">
        <ele>55.231167</ele>
        <time>2021-11-11T09:50:20.755Z</time>
      </trkpt>
      <trkpt lat="47.19801" lon="-1.66367">
        <ele>55.220851</ele>
        <time>2021-11-11T09:50:22.782Z</time>
      </trkpt>
      <trkpt lat="47.19792" lon="-1.66365">
        <ele>55.210902</ele>
        <time>2021-11-11T09:50:24.767Z</time>
      </trkpt>
      <trkpt lat="47.19783" lon="-1.66364">
        <ele>55.200712</ele>
        <time>2021-11-11T09:50:26.772Z</time>
      </trkpt>
      <trkpt lat="47.19774" lon="-1.66362">
        <ele>55.180699</ele>
        <time>2021-11-11T09:50:28.783Z</time>
      </trkpt>
      <trkpt lat="47.19765" lon="-1.6636">
        <ele>55.158538</ele>
        <time>2021-11-11T09:50:30.772Z</time>
      </trkpt>
      <trkpt lat="47.19754" lon="-1.66357">
        <ele>55.130877</ele>
        <time>2021-11-11T09:50:33.774Z</time>
      </trkpt>
      <trkpt lat="47.19742" lon="-1.66354">
        <ele>55.100593</ele>
        <time>2021-11-11T09:50:36.403Z</time>
      </trkpt>
      <trkpt lat="47.19736" lon="-1.66344">
        <ele>55.077928</ele>
        <time>2021-11-11T09:50:39.289Z</time>
      </trkpt>
      <trkpt lat="47.1974" lon="-1.66326">
        <ele>55.0466</ele>
        <time>2021-11-11T09:50:41.769Z</time>
      </trkpt>
      <trkpt lat="47.19743" lon="-1.66309">
        <ele>55.016421</ele>
        <time>2021-11-11T09:50:43.875Z</time>
      </trkpt>
      <trkpt lat="47.19746" lon="-1.66292">
        <ele>54.986822</ele>
        <time>2021-11-11T09:50:46.761Z</time>
      </trkpt>
      <trkpt lat="47.19748" lon="-1.66277">
        <ele>54.961705</ele>
        <time>2021-11-11T09:50:48.775Z</time>
      </trkpt>
      <trkpt lat="47.19749" lon="-1.66262">
        <ele>54.937164</ele>
        <time>2021-11-11T09:50:50.767Z</time>
      </trkpt>
      <trkpt lat="47.1975" lon="-1.66249">
        <ele>54.913861</ele>
        <time>2021-11-11T09:50:52.762Z</time>
      </trkpt>
      <trkpt lat="47.19751" lon="-1.66234">
        <ele>54.890178</ele>
        <time>2021-11-11T09:50:54.779Z</time>
      </trkpt>
      <trkpt lat="47.19752" lon="-1.6622">
        <ele>54.866329</ele>
        <time>2021-11-11T09:50:56.766Z</time>
      </trkpt>
      <trkpt lat="47.19752" lon="-1.66206">
        <ele>54.842439</ele>
        <time>2021-11-11T09:50:58.760Z</time>
      </trkpt>
      <trkpt lat="47.19752" lon="-1.66192">
        <ele>54.819005</ele>
        <time>2021-11-11T09:51:00.769Z</time>
      </trkpt>
      <trkpt lat="47.19752" lon="-1.66178">
        <ele>54.795951</ele>
        <time>2021-11-11T09:51:02.758Z</time>
      </trkpt>
      <trkpt lat="47.19751" lon="-1.66164">
        <ele>54.773017</ele>
        <time>2021-11-11T09:51:04.757Z</time>
      </trkpt>
      <trkpt lat="47.1975" lon="-1.66151">
        <ele>54.772112</ele>
        <time>2021-11-11T09:51:06.779Z</time>
      </trkpt>
      <trkpt lat="47.19748" lon="-1.66133">
        <ele>54.85187</ele>
        <time>2021-11-11T09:51:09.785Z</time>
      </trkpt>
      <trkpt lat="47.19745" lon="-1.66115">
        <ele>54.929141</ele>
        <time>2021-11-11T09:51:12.796Z</time>
      </trkpt>
      <trkpt lat="47.19744" lon="-1.66102">
        <ele>54.988457</ele>
        <time>2021-11-11T09:51:14.766Z</time>
      </trkpt>
      <trkpt lat="47.19743" lon="-1.66083">
        <ele>55.069312</ele>
        <time>2021-11-11T09:51:17.792Z</time>
      </trkpt>
      <trkpt lat="47.19736" lon="-1.66067">
        <ele>55.153559</ele>
        <time>2021-11-11T09:51:20.796Z</time>
      </trkpt>
      <trkpt lat="47.19731" lon="-1.66053">
        <ele>55.221237</ele>
        <time>2021-11-11T09:51:22.783Z</time>
      </trkpt>
      <trkpt lat="47.19727" lon="-1.66039">
        <ele>55.284942</ele>
        <time>2021-11-11T09:51:24.422Z</time>
      </trkpt>
      <trkpt lat="47.19719" lon="-1.66023">
        <ele>55.370091</ele>
        <time>2021-11-11T09:51:27.769Z</time>
      </trkpt>
      <trkpt lat="47.19714" lon="-1.66011">
        <ele>55.431587</ele>
        <time>2021-11-11T09:51:29.758Z</time>
      </trkpt>
      <trkpt lat="47.19709" lon="-1.65998">
        <ele>55.493736</ele>
        <time>2021-11-11T09:51:31.760Z</time>
      </trkpt>
      <trkpt lat="47.19704" lon="-1.65986">
        <ele>55.554641</ele>
        <time>2021-11-11T09:51:33.792Z</time>
      </trkpt>
      <trkpt lat="47.197" lon="-1.65974">
        <ele>55.614469</ele>
        <time>2021-11-11T09:51:35.810Z</time>
      </trkpt>
      <trkpt lat="47.19695" lon="-1.6596">
        <ele>55.678155</ele>
        <time>2021-11-11T09:51:37.762Z</time>
      </trkpt>
      <trkpt lat="47.19692" lon="-1.65948">
        <ele>55.738331</ele>
        <time>2021-11-11T09:51:39.765Z</time>
      </trkpt>
      <trkpt lat="47.19688" lon="-1.65935">
        <ele>55.797443</ele>
        <time>2021-11-11T09:51:41.803Z</time>
      </trkpt>
      <trkpt lat="47.19684" lon="-1.65922">
        <ele>55.857757</ele>
        <time>2021-11-11T09:51:43.776Z</time>
      </trkpt>
      <trkpt lat="47.1968" lon="-1.6591">
        <ele>55.901729</ele>
        <time>2021-11-11T09:51:45.786Z</time>
      </trkpt>
      <trkpt lat="47.19677" lon="-1.65897">
        <ele>55.920243</ele>
        <time>2021-11-11T09:51:47.781Z</time>
      </trkpt>
      <trkpt lat="47.19674" lon="-1.65884">
        <ele>55.938638</ele>
        <time>2021-11-11T09:51:49.759Z</time>
      </trkpt>
      <trkpt lat="47.19672" lon="-1.6587">
        <ele>55.958489</ele>
        <time>2021-11-11T09:51:51.795Z</time>
      </trkpt>
      <trkpt lat="47.19669" lon="-1.65857">
        <ele>55.977853</ele>
        <time>2021-11-11T09:51:53.773Z</time>
      </trkpt>
      <trkpt lat="47.19666" lon="-1.65844">
        <ele>55.996762</ele>
        <time>2021-11-11T09:51:55.774Z</time>
      </trkpt>
      <trkpt lat="47.19663" lon="-1.6583">
        <ele>56.016083</ele>
        <time>2021-11-11T09:51:57.767Z</time>
      </trkpt>
      <trkpt lat="47.1966" lon="-1.65817">
        <ele>56.035782</ele>
        <time>2021-11-11T09:51:59.777Z</time>
      </trkpt>
      <trkpt lat="47.19658" lon="-1.65803">
        <ele>56.055291</ele>
        <time>2021-11-11T09:52:01.780Z</time>
      </trkpt>
      <trkpt lat="47.19655" lon="-1.65784">
        <ele>56.082209</ele>
        <time>2021-11-11T09:52:04.779Z</time>
      </trkpt>
      <trkpt lat="47.19653" lon="-1.65771">
        <ele>56.101132</ele>
        <time>2021-11-11T09:52:06.765Z</time>
      </trkpt>
      <trkpt lat="47.1965" lon="-1.65757">
        <ele>56.120493</ele>
        <time>2021-11-11T09:52:08.784Z</time>
      </trkpt>
      <trkpt lat="47.19647" lon="-1.65744">
        <ele>56.139681</ele>
        <time>2021-11-11T09:52:10.791Z</time>
      </trkpt>
      <trkpt lat="47.19645" lon="-1.65731">
        <ele>56.158045</ele>
        <time>2021-11-11T09:52:12.781Z</time>
      </trkpt>
      <trkpt lat="47.19642" lon="-1.65718">
        <ele>56.1765</ele>
        <time>2021-11-11T09:52:14.784Z</time>
      </trkpt>
      <trkpt lat="47.19639" lon="-1.65702">
        <ele>56.19926</ele>
        <time>2021-11-11T09:52:17.794Z</time>
      </trkpt>
      <trkpt lat="47.19635" lon="-1.65689">
        <ele>56.219468</ele>
        <time>2021-11-11T09:52:19.764Z</time>
      </trkpt>
      <trkpt lat="47.19631" lon="-1.65673">
        <ele>56.242242</ele>
        <time>2021-11-11T09:52:21.769Z</time>
      </trkpt>
      <trkpt lat="47.19629" lon="-1.6566">
        <ele>56.25723</ele>
        <time>2021-11-11T09:52:23.783Z</time>
      </trkpt>
      <trkpt lat="47.19625" lon="-1.65641">
        <ele>56.237318</ele>
        <time>2021-11-11T09:52:26.757Z</time>
      </trkpt>
      <trkpt lat="47.19622" lon="-1.65626">
        <ele>56.221844</ele>
        <time>2021-11-11T09:52:28.758Z</time>
      </trkpt>
      <trkpt lat="47.19621" lon="-1.65612">
        <ele>56.207618</ele>
        <time>2021-11-11T09:52:30.654Z</time>
      </trkpt>
      <trkpt lat="47.19617" lon="-1.65599">
        <ele>56.193272</ele>
        <time>2021-11-11T09:52:32.779Z</time>
      </trkpt>
      <trkpt lat="47.19614" lon="-1.65586">
        <ele>56.179667</ele>
        <time>2021-11-11T09:52:34.773Z</time>
      </trkpt>
      <trkpt lat="47.19611" lon="-1.65572">
        <ele>56.165487</ele>
        <time>2021-11-11T09:52:36.757Z</time>
      </trkpt>
      <trkpt lat="47.19608" lon="-1.65559">
        <ele>56.151446</ele>
        <time>2021-11-11T09:52:38.784Z</time>
      </trkpt>
      <trkpt lat="47.19606" lon="-1.65546">
        <ele>56.137492</ele>
        <time>2021-11-11T09:52:40.806Z</time>
      </trkpt>
      <trkpt lat="47.19603" lon="-1.65532">
        <ele>56.12325</ele>
        <time>2021-11-11T09:52:42.784Z</time>
      </trkpt>
      <trkpt lat="47.196" lon="-1.65515">
        <ele>56.105983</ele>
        <time>2021-11-11T09:52:45.784Z</time>
      </trkpt>
      <trkpt lat="47.19597" lon="-1.65501">
        <ele>56.091374</ele>
        <time>2021-11-11T09:52:47.771Z</time>
      </trkpt>
      <trkpt lat="47.19595" lon="-1.65488">
        <ele>56.07803</ele>
        <time>2021-11-11T09:52:49.767Z</time>
      </trkpt>
      <trkpt lat="47.19593" lon="-1.65475">
        <ele>56.064195</ele>
        <time>2021-11-11T09:52:51.783Z</time>
      </trkpt>
      <trkpt lat="47.19591" lon="-1.65461">
        <ele>56.050225</ele>
        <time>2021-11-11T09:52:53.753Z</time>
      </trkpt>
      <trkpt lat="47.19587" lon="-1.65448">
        <ele>56.036357</ele>
        <time>2021-11-11T09:52:55.761Z</time>
      </trkpt>
      <trkpt lat="47.19584" lon="-1.65435">
        <ele>56.022689</ele>
        <time>2021-11-11T09:52:57.784Z</time>
      </trkpt>
      <trkpt lat="47.1958" lon="-1.65423">
        <ele>56.009207</ele>
        <time>2021-11-11T09:52:59.768Z</time>
      </trkpt>
      <trkpt lat="47.19574" lon="-1.65406">
        <ele>56.024089</ele>
        <time>2021-11-11T09:53:02.774Z</time>
      </trkpt>
      <trkpt lat="47.19571" lon="-1.65393">
        <ele>56.127105</ele>
        <time>2021-11-11T09:53:04.785Z</time>
      </trkpt>
      <trkpt lat="47.19567" lon="-1.6538">
        <ele>56.226523</ele>
        <time>2021-11-11T09:53:06.770Z</time>
      </trkpt>
      <trkpt lat="47.19562" lon="-1.65362">
        <ele>56.365803</ele>
        <time>2021-11-11T09:53:09.809Z</time>
      </trkpt>
      <trkpt lat="47.19557" lon="-1.65349">
        <ele>56.466559</ele>
        <time>2021-11-11T09:53:11.473Z</time>
      </trkpt>
      <trkpt lat="47.19552" lon="-1.65332">
        <ele>56.602164</ele>
        <time>2021-11-11T09:53:13.879Z</time>
      </trkpt>
      <trkpt lat="47.19549" lon="-1.65314">
        <ele>56.734822</ele>
        <time>2021-11-11T09:53:17.093Z</time>
      </trkpt>
      <trkpt lat="47.19541" lon="-1.65301">
        <ele>56.858242</ele>
        <time>2021-11-11T09:53:19.318Z</time>
      </trkpt>
      <trkpt lat="47.19536" lon="-1.65287">
        <ele>56.977124</ele>
        <time>2021-11-11T09:53:22.787Z</time>
      </trkpt>
      <trkpt lat="47.19529" lon="-1.65271">
        <ele>57.105966</ele>
        <time>2021-11-11T09:53:25.690Z</time>
      </trkpt>
      <trkpt lat="47.19526" lon="-1.65255">
        <ele>57.222834</ele>
        <time>2021-11-11T09:53:27.615Z</time>
      </trkpt>
      <trkpt lat="47.19521" lon="-1.65239">
        <ele>57.348491</ele>
        <time>2021-11-11T09:53:30.806Z</time>
      </trkpt>
      <trkpt lat="47.19514" lon="-1.65224">
        <ele>57.480662</ele>
        <time>2021-11-11T09:53:33.412Z</time>
      </trkpt>
      <trkpt lat="47.19509" lon="-1.65209">
        <ele>57.598404</ele>
        <time>2021-11-11T09:53:35.493Z</time>
      </trkpt>
      <trkpt lat="47.19505" lon="-1.65194">
        <ele>57.719715</ele>
        <time>2021-11-11T09:53:38.700Z</time>
      </trkpt>
      <trkpt lat="47.19501" lon="-1.65178">
        <ele>57.832242</ele>
        <time>2021-11-11T09:53:41.362Z</time>
      </trkpt>
      <trkpt lat="47.19497" lon="-1.65164">
        <ele>57.978117</ele>
        <time>2021-11-11T09:53:44.781Z</time>
      </trkpt>
      <trkpt lat="47.19495" lon="-1.65149">
        <ele>58.160783</ele>
        <time>2021-11-11T09:53:47.475Z</time>
      </trkpt>
      <trkpt lat="47.19493" lon="-1.65135">
        <ele>58.324421</ele>
        <time>2021-11-11T09:53:50.528Z</time>
      </trkpt>
      <trkpt lat="47.19491" lon="-1.65119">
        <ele>58.519473</ele>
        <time>2021-11-11T09:53:53.478Z</time>
      </trkpt>
      <trkpt lat="47.19487" lon="-1.65105">
        <ele>58.688559</ele>
        <time>2021-11-11T09:53:56.719Z</time>
      </trkpt>
      <trkpt lat="47.19485" lon="-1.6509">
        <ele>58.870389</ele>
        <time>2021-11-11T09:54:00.113Z</time>
      </trkpt>
      <trkpt lat="47.19484" lon="-1.65076">
        <ele>59.036982</ele>
        <time>2021-11-11T09:54:03.239Z</time>
      </trkpt>
      <trkpt lat="47.1948" lon="-1.65061">
        <ele>59.221935</ele>
        <time>2021-11-11T09:54:06.747Z</time>
      </trkpt>
      <trkpt lat="47.19475" lon="-1.65044">
        <ele>59.438184</ele>
        <time>2021-11-11T09:54:09.370Z</time>
      </trkpt>
      <trkpt lat="47.19468" lon="-1.65032">
        <ele>59.619134</ele>
        <time>2021-11-11T09:54:12.239Z</time>
      </trkpt>
      <trkpt lat="47.19462" lon="-1.65016">
        <ele>59.824383</ele>
        <time>2021-11-11T09:54:15.101Z</time>
      </trkpt>
      <trkpt lat="47.19458" lon="-1.65004">
        <ele>59.981326</ele>
        <time>2021-11-11T09:54:17.489Z</time>
      </trkpt>
      <trkpt lat="47.19454" lon="-1.64992">
        <ele>60.142725</ele>
        <time>2021-11-11T09:54:19.260Z</time>
      </trkpt>
      <trkpt lat="47.19447" lon="-1.64981">
        <ele>60.311592</ele>
        <time>2021-11-11T09:54:21.739Z</time>
      </trkpt>
      <trkpt lat="47.1944" lon="-1.6496">
        <ele>60.589853</ele>
        <time>2021-11-11T09:54:25.797Z</time>
      </trkpt>
      <trkpt lat="47.19434" lon="-1.64948">
        <ele>60.757198</ele>
        <time>2021-11-11T09:54:27.751Z</time>
      </trkpt>
      <trkpt lat="47.19429" lon="-1.64935">
        <ele>60.925724</ele>
        <time>2021-11-11T09:54:29.768Z</time>
      </trkpt>
      <trkpt lat="47.19425" lon="-1.64923">
        <ele>60.837155</ele>
        <time>2021-11-11T09:54:31.786Z</time>
      </trkpt>
      <trkpt lat="47.1942" lon="-1.6491">
        <ele>60.67566</ele>
        <time>2021-11-11T09:54:33.785Z</time>
      </trkpt>
      <trkpt lat="47.19415" lon="-1.64897">
        <ele>60.518289</ele>
        <time>2021-11-11T09:54:35.780Z</time>
      </trkpt>
      <trkpt lat="47.19411" lon="-1.64884">
        <ele>60.358487</ele>
        <time>2021-11-11T09:54:37.783Z</time>
      </trkpt>
      <trkpt lat="47.19404" lon="-1.64872">
        <ele>60.199648</ele>
        <time>2021-11-11T09:54:39.768Z</time>
      </trkpt>
      <trkpt lat="47.19398" lon="-1.6486">
        <ele>60.034748</ele>
        <time>2021-11-11T09:54:41.775Z</time>
      </trkpt>
      <trkpt lat="47.19392" lon="-1.64849">
        <ele>59.875248</ele>
        <time>2021-11-11T09:54:43.777Z</time>
      </trkpt>
      <trkpt lat="47.19384" lon="-1.64836">
        <ele>59.694936</ele>
        <time>2021-11-11T09:54:46.788Z</time>
      </trkpt>
      <trkpt lat="47.19378" lon="-1.64823">
        <ele>59.517527</ele>
        <time>2021-11-11T09:54:48.772Z</time>
      </trkpt>
      <trkpt lat="47.19373" lon="-1.64809">
        <ele>59.347413</ele>
        <time>2021-11-11T09:54:50.811Z</time>
      </trkpt>
      <trkpt lat="47.19367" lon="-1.64796">
        <ele>59.176957</ele>
        <time>2021-11-11T09:54:52.809Z</time>
      </trkpt>
      <trkpt lat="47.19361" lon="-1.64782">
        <ele>59.001363</ele>
        <time>2021-11-11T09:54:54.769Z</time>
      </trkpt>
      <trkpt lat="47.19355" lon="-1.64769">
        <ele>58.832059</ele>
        <time>2021-11-11T09:54:56.753Z</time>
      </trkpt>
      <trkpt lat="47.19349" lon="-1.64755">
        <ele>58.65532</ele>
        <time>2021-11-11T09:54:58.771Z</time>
      </trkpt>
      <trkpt lat="47.19344" lon="-1.64742">
        <ele>58.481258</ele>
        <time>2021-11-11T09:55:00.772Z</time>
      </trkpt>
      <trkpt lat="47.1934" lon="-1.64728">
        <ele>58.317577</ele>
        <time>2021-11-11T09:55:02.779Z</time>
      </trkpt>
      <trkpt lat="47.19338" lon="-1.64712">
        <ele>58.150211</ele>
        <time>2021-11-11T09:55:04.786Z</time>
      </trkpt>
      <trkpt lat="47.19339" lon="-1.64696">
        <ele>58.026672</ele>
        <time>2021-11-11T09:55:06.776Z</time>
      </trkpt>
      <trkpt lat="47.19344" lon="-1.64682">
        <ele>57.927421</ele>
        <time>2021-11-11T09:55:08.764Z</time>
      </trkpt>
      <trkpt lat="47.19349" lon="-1.64668">
        <ele>57.827156</ele>
        <time>2021-11-11T09:55:10.776Z</time>
      </trkpt>
      <trkpt lat="47.19355" lon="-1.64654">
        <ele>57.729987</ele>
        <time>2021-11-11T09:55:12.786Z</time>
      </trkpt>
      <trkpt lat="47.1936" lon="-1.64641">
        <ele>57.634862</ele>
        <time>2021-11-11T09:55:14.759Z</time>
      </trkpt>
      <trkpt lat="47.19365" lon="-1.64628">
        <ele>57.543968</ele>
        <time>2021-11-11T09:55:16.773Z</time>
      </trkpt>
      <trkpt lat="47.19367" lon="-1.64613">
        <ele>57.453071</ele>
        <time>2021-11-11T09:55:18.769Z</time>
      </trkpt>
      <trkpt lat="47.19369" lon="-1.64598">
        <ele>57.358888</ele>
        <time>2021-11-11T09:55:20.756Z</time>
      </trkpt>
      <trkpt lat="47.1937" lon="-1.64584">
        <ele>57.26732</ele>
        <time>2021-11-11T09:55:22.783Z</time>
      </trkpt>
      <trkpt lat="47.19371" lon="-1.64569">
        <ele>57.179005</ele>
        <time>2021-11-11T09:55:24.775Z</time>
      </trkpt>
      <trkpt lat="47.19372" lon="-1.64555">
        <ele>57.089371</ele>
        <time>2021-11-11T09:55:26.770Z</time>
      </trkpt>
      <trkpt lat="47.19373" lon="-1.6454">
        <ele>57.000444</ele>
        <time>2021-11-11T09:55:28.771Z</time>
      </trkpt>
      <trkpt lat="47.19374" lon="-1.64526">
        <ele>56.911316</ele>
        <time>2021-11-11T09:55:30.751Z</time>
      </trkpt>
      <trkpt lat="47.19375" lon="-1.64512">
        <ele>56.825075</ele>
        <time>2021-11-11T09:55:32.767Z</time>
      </trkpt>
      <trkpt lat="47.19376" lon="-1.64497">
        <ele>56.73577</ele>
        <time>2021-11-11T09:55:34.771Z</time>
      </trkpt>
      <trkpt lat="47.19377" lon="-1.64483">
        <ele>56.646397</ele>
        <time>2021-11-11T09:55:36.778Z</time>
      </trkpt>
      <trkpt lat="47.19378" lon="-1.64466">
        <ele>56.54218</ele>
        <time>2021-11-11T09:55:39.777Z</time>
      </trkpt>
      <trkpt lat="47.19378" lon="-1.64447">
        <ele>56.477164</ele>
        <time>2021-11-11T09:55:42.790Z</time>
      </trkpt>
      <trkpt lat="47.19379" lon="-1.64433">
        <ele>56.497495</ele>
        <time>2021-11-11T09:55:44.771Z</time>
      </trkpt>
      <trkpt lat="47.19379" lon="-1.64417">
        <ele>56.520782</ele>
        <time>2021-11-11T09:55:46.896Z</time>
      </trkpt>
      <trkpt lat="47.19381" lon="-1.64399">
        <ele>56.546201</ele>
        <time>2021-11-11T09:55:49.778Z</time>
      </trkpt>
      <trkpt lat="47.19382" lon="-1.64384">
        <ele>56.567145</ele>
        <time>2021-11-11T09:55:51.772Z</time>
      </trkpt>
      <trkpt lat="47.19383" lon="-1.64371">
        <ele>56.586799</ele>
        <time>2021-11-11T09:55:53.774Z</time>
      </trkpt>
      <trkpt lat="47.1939" lon="-1.64352">
        <ele>56.617344</ele>
        <time>2021-11-11T09:55:56.630Z</time>
      </trkpt>
      <trkpt lat="47.19388" lon="-1.64338">
        <ele>56.637664</ele>
        <time>2021-11-11T09:55:58.326Z</time>
      </trkpt>
      <trkpt lat="47.19387" lon="-1.64324">
        <ele>56.656831</ele>
        <time>2021-11-11T09:56:00.755Z</time>
      </trkpt>
      <trkpt lat="47.19388" lon="-1.6431">
        <ele>56.676829</ele>
        <time>2021-11-11T09:56:02.758Z</time>
      </trkpt>
      <trkpt lat="47.19388" lon="-1.64296">
        <ele>56.697599</ele>
        <time>2021-11-11T09:56:04.753Z</time>
      </trkpt>
      <trkpt lat="47.1939" lon="-1.64282">
        <ele>56.717991</ele>
        <time>2021-11-11T09:56:06.771Z</time>
      </trkpt>
      <trkpt lat="47.19391" lon="-1.64268">
        <ele>56.737644</ele>
        <time>2021-11-11T09:56:08.754Z</time>
      </trkpt>
      <trkpt lat="47.19392" lon="-1.64251">
        <ele>56.761982</ele>
        <time>2021-11-11T09:56:11.764Z</time>
      </trkpt>
      <trkpt lat="47.19392" lon="-1.64235">
        <ele>56.78445</ele>
        <time>2021-11-11T09:56:14.755Z</time>
      </trkpt>
      <trkpt lat="47.19396" lon="-1.64216">
        <ele>56.812555</ele>
        <time>2021-11-11T09:56:17.520Z</time>
      </trkpt>
      <trkpt lat="47.19395" lon="-1.642">
        <ele>56.83463</ele>
        <time>2021-11-11T09:56:19.758Z</time>
      </trkpt>
      <trkpt lat="47.19396" lon="-1.64186">
        <ele>56.836109</ele>
        <time>2021-11-11T09:56:21.779Z</time>
      </trkpt>
      <trkpt lat="47.19397" lon="-1.64172">
        <ele>56.823568</ele>
        <time>2021-11-11T09:56:23.806Z</time>
      </trkpt>
      <trkpt lat="47.19398" lon="-1.64158">
        <ele>56.810961</ele>
        <time>2021-11-11T09:56:25.766Z</time>
      </trkpt>
      <trkpt lat="47.19399" lon="-1.64144">
        <ele>56.798478</ele>
        <time>2021-11-11T09:56:27.754Z</time>
      </trkpt>
      <trkpt lat="47.194" lon="-1.6413">
        <ele>56.785861</ele>
        <time>2021-11-11T09:56:29.765Z</time>
      </trkpt>
      <trkpt lat="47.19401" lon="-1.64115">
        <ele>56.772671</ele>
        <time>2021-11-11T09:56:31.771Z</time>
      </trkpt>
      <trkpt lat="47.19402" lon="-1.64101">
        <ele>56.759533</ele>
        <time>2021-11-11T09:56:33.773Z</time>
      </trkpt>
      <trkpt lat="47.19403" lon="-1.64086">
        <ele>56.74665</ele>
        <time>2021-11-11T09:56:35.772Z</time>
      </trkpt>
      <trkpt lat="47.19404" lon="-1.64072">
        <ele>56.73399</ele>
        <time>2021-11-11T09:56:37.766Z</time>
      </trkpt>
      <trkpt lat="47.19405" lon="-1.64058">
        <ele>56.721296</ele>
        <time>2021-11-11T09:56:39.783Z</time>
      </trkpt>
      <trkpt lat="47.19406" lon="-1.64044">
        <ele>56.708879</ele>
        <time>2021-11-11T09:56:41.775Z</time>
      </trkpt>
      <trkpt lat="47.19407" lon="-1.6403">
        <ele>56.696146</ele>
        <time>2021-11-11T09:56:43.791Z</time>
      </trkpt>
      <trkpt lat="47.19408" lon="-1.64016">
        <ele>56.68331</ele>
        <time>2021-11-11T09:56:45.794Z</time>
      </trkpt>
      <trkpt lat="47.19409" lon="-1.64002">
        <ele>56.671004</ele>
        <time>2021-11-11T09:56:47.810Z</time>
      </trkpt>
      <trkpt lat="47.1941" lon="-1.63988">
        <ele>56.658753</ele>
        <time>2021-11-11T09:56:49.758Z</time>
      </trkpt>
      <trkpt lat="47.19411" lon="-1.63974">
        <ele>56.646059</ele>
        <time>2021-11-11T09:56:51.794Z</time>
      </trkpt>
      <trkpt lat="47.19412" lon="-1.6396">
        <ele>56.633134</ele>
        <time>2021-11-11T09:56:53.789Z</time>
      </trkpt>
      <trkpt lat="47.19413" lon="-1.63946">
        <ele>56.620723</ele>
        <time>2021-11-11T09:56:55.766Z</time>
      </trkpt>
      <trkpt lat="47.19414" lon="-1.63932">
        <ele>56.608194</ele>
        <time>2021-11-11T09:56:57.792Z</time>
      </trkpt>
      <trkpt lat="47.19415" lon="-1.63918">
        <ele>56.658772</ele>
        <time>2021-11-11T09:56:59.773Z</time>
      </trkpt>
      <trkpt lat="47.19416" lon="-1.63904">
        <ele>56.714361</ele>
        <time>2021-11-11T09:57:01.780Z</time>
      </trkpt>
      <trkpt lat="47.19417" lon="-1.6389">
        <ele>56.769423</ele>
        <time>2021-11-11T09:57:03.769Z</time>
      </trkpt>
      <trkpt lat="47.19417" lon="-1.63875">
        <ele>56.827699</ele>
        <time>2021-11-11T09:57:05.775Z</time>
      </trkpt>
      <trkpt lat="47.19419" lon="-1.6386">
        <ele>56.886434</ele>
        <time>2021-11-11T09:57:07.784Z</time>
      </trkpt>
      <trkpt lat="47.19422" lon="-1.63847">
        <ele>56.942965</ele>
        <time>2021-11-11T09:57:09.798Z</time>
      </trkpt>
      <trkpt lat="47.19424" lon="-1.63833">
        <ele>56.998091</ele>
        <time>2021-11-11T09:57:11.766Z</time>
      </trkpt>
      <trkpt lat="47.19424" lon="-1.63819">
        <ele>57.052727</ele>
        <time>2021-11-11T09:57:13.760Z</time>
      </trkpt>
      <trkpt lat="47.19428" lon="-1.63807">
        <ele>57.104707</ele>
        <time>2021-11-11T09:57:15.775Z</time>
      </trkpt>
      <trkpt lat="47.1944" lon="-1.63799">
        <ele>57.182019</ele>
        <time>2021-11-11T09:57:18.749Z</time>
      </trkpt>
      <trkpt lat="47.19449" lon="-1.63791">
        <ele>57.239268</ele>
        <time>2021-11-11T09:57:20.767Z</time>
      </trkpt>
      <trkpt lat="47.19446" lon="-1.6377">
        <ele>57.322972</ele>
        <time>2021-11-11T09:57:23.773Z</time>
      </trkpt>
      <trkpt lat="47.19447" lon="-1.63757">
        <ele>57.374444</ele>
        <time>2021-11-11T09:57:26.793Z</time>
      </trkpt>
      <trkpt lat="47.19442" lon="-1.63727">
        <ele>57.497214</ele>
        <time>2021-11-11T10:01:35.762Z</time>
      </trkpt>
      <trkpt lat="47.19442" lon="-1.6371">
        <ele>57.563167</ele>
        <time>2021-11-11T10:01:38.314Z</time>
      </trkpt>
      <trkpt lat="47.19443" lon="-1.63693">
        <ele>57.627522</ele>
        <time>2021-11-11T10:01:40.780Z</time>
      </trkpt>
      <trkpt lat="47.19444" lon="-1.63678">
        <ele>57.644261</ele>
        <time>2021-11-11T10:01:42.813Z</time>
      </trkpt>
      <trkpt lat="47.19445" lon="-1.63664">
        <ele>57.641262</ele>
        <time>2021-11-11T10:01:44.779Z</time>
      </trkpt>
      <trkpt lat="47.19445" lon="-1.6365">
        <ele>57.638287</ele>
        <time>2021-11-11T10:01:46.769Z</time>
      </trkpt>
      <trkpt lat="47.19445" lon="-1.63636">
        <ele>57.635354</ele>
        <time>2021-11-11T10:01:48.765Z</time>
      </trkpt>
      <trkpt lat="47.19445" lon="-1.63623">
        <ele>57.632506</ele>
        <time>2021-11-11T10:01:50.776Z</time>
      </trkpt>
      <trkpt lat="47.19445" lon="-1.63609">
        <ele>57.629647</ele>
        <time>2021-11-11T10:01:52.796Z</time>
      </trkpt>
      <trkpt lat="47.19448" lon="-1.63596">
        <ele>57.626745</ele>
        <time>2021-11-11T10:01:54.775Z</time>
      </trkpt>
      <trkpt lat="47.1945" lon="-1.63582">
        <ele>57.623738</ele>
        <time>2021-11-11T10:01:56.771Z</time>
      </trkpt>
      <trkpt lat="47.19452" lon="-1.63568">
        <ele>57.62071</ele>
        <time>2021-11-11T10:01:58.780Z</time>
      </trkpt>
      <trkpt lat="47.19454" lon="-1.63554">
        <ele>57.61769</ele>
        <time>2021-11-11T10:02:00.778Z</time>
      </trkpt>
      <trkpt lat="47.19455" lon="-1.6354">
        <ele>57.614573</ele>
        <time>2021-11-11T10:02:02.803Z</time>
      </trkpt>
      <trkpt lat="47.19457" lon="-1.63525">
        <ele>57.611395</ele>
        <time>2021-11-11T10:02:04.760Z</time>
      </trkpt>
      <trkpt lat="47.19459" lon="-1.63511">
        <ele>57.608221</ele>
        <time>2021-11-11T10:02:06.774Z</time>
      </trkpt>
      <trkpt lat="47.19461" lon="-1.63496">
        <ele>57.605125</ele>
        <time>2021-11-11T10:02:08.785Z</time>
      </trkpt>
      <trkpt lat="47.19463" lon="-1.63482">
        <ele>57.602029</ele>
        <time>2021-11-11T10:02:10.801Z</time>
      </trkpt>
      <trkpt lat="47.19465" lon="-1.63468">
        <ele>57.599079</ele>
        <time>2021-11-11T10:02:12.779Z</time>
      </trkpt>
      <trkpt lat="47.19466" lon="-1.63454">
        <ele>57.596076</ele>
        <time>2021-11-11T10:02:14.790Z</time>
      </trkpt>
      <trkpt lat="47.19469" lon="-1.6344">
        <ele>57.592904</ele>
        <time>2021-11-11T10:02:16.780Z</time>
      </trkpt>
      <trkpt lat="47.19471" lon="-1.63426">
        <ele>57.587364</ele>
        <time>2021-11-11T10:02:18.769Z</time>
      </trkpt>
      <trkpt lat="47.19472" lon="-1.63412">
        <ele>57.566519</ele>
        <time>2021-11-11T10:02:20.782Z</time>
      </trkpt>
      <trkpt lat="47.19474" lon="-1.63399">
        <ele>57.544906</ele>
        <time>2021-11-11T10:02:22.768Z</time>
      </trkpt>
      <trkpt lat="47.19476" lon="-1.63384">
        <ele>57.522261</ele>
        <time>2021-11-11T10:02:24.776Z</time>
      </trkpt>
      <trkpt lat="47.19478" lon="-1.63369">
        <ele>57.499606</ele>
        <time>2021-11-11T10:02:26.771Z</time>
      </trkpt>
      <trkpt lat="47.1948" lon="-1.63354">
        <ele>57.476174</ele>
        <time>2021-11-11T10:02:28.769Z</time>
      </trkpt>
      <trkpt lat="47.19481" lon="-1.63339">
        <ele>57.452555</ele>
        <time>2021-11-11T10:02:30.798Z</time>
      </trkpt>
      <trkpt lat="47.19484" lon="-1.63324">
        <ele>57.429165</ele>
        <time>2021-11-11T10:02:32.792Z</time>
      </trkpt>
      <trkpt lat="47.19486" lon="-1.63309">
        <ele>57.405955</ele>
        <time>2021-11-11T10:02:34.773Z</time>
      </trkpt>
      <trkpt lat="47.19487" lon="-1.63294">
        <ele>57.382973</ele>
        <time>2021-11-11T10:02:36.779Z</time>
      </trkpt>
      <trkpt lat="47.19489" lon="-1.63279">
        <ele>57.359691</ele>
        <time>2021-11-11T10:02:38.791Z</time>
      </trkpt>
      <trkpt lat="47.19491" lon="-1.63264">
        <ele>57.337046</ele>
        <time>2021-11-11T10:02:40.778Z</time>
      </trkpt>
      <trkpt lat="47.19492" lon="-1.6325">
        <ele>57.314964</ele>
        <time>2021-11-11T10:02:42.773Z</time>
      </trkpt>
      <trkpt lat="47.19494" lon="-1.63235">
        <ele>57.292882</ele>
        <time>2021-11-11T10:02:44.755Z</time>
      </trkpt>
      <trkpt lat="47.19496" lon="-1.63221">
        <ele>57.270227</ele>
        <time>2021-11-11T10:02:46.784Z</time>
      </trkpt>
      <trkpt lat="47.19498" lon="-1.63206">
        <ele>57.24787</ele>
        <time>2021-11-11T10:02:48.777Z</time>
      </trkpt>
      <trkpt lat="47.19499" lon="-1.63192">
        <ele>57.225109</ele>
        <time>2021-11-11T10:02:50.790Z</time>
      </trkpt>
      <trkpt lat="47.19501" lon="-1.63177">
        <ele>57.202379</ele>
        <time>2021-11-11T10:02:52.789Z</time>
      </trkpt>
      <trkpt lat="47.19502" lon="-1.63162">
        <ele>57.173045</ele>
        <time>2021-11-11T10:02:54.768Z</time>
      </trkpt>
      <trkpt lat="47.19504" lon="-1.63147">
        <ele>57.131574</ele>
        <time>2021-11-11T10:02:56.794Z</time>
      </trkpt>
      <trkpt lat="47.19504" lon="-1.63132">
        <ele>57.090528</ele>
        <time>2021-11-11T10:02:58.777Z</time>
      </trkpt>
      <trkpt lat="47.19504" lon="-1.63117">
        <ele>57.049499</ele>
        <time>2021-11-11T10:03:00.787Z</time>
      </trkpt>
      <trkpt lat="47.19504" lon="-1.63102">
        <ele>57.00983</ele>
        <time>2021-11-11T10:03:02.778Z</time>
      </trkpt>
      <trkpt lat="47.19504" lon="-1.63088">
        <ele>56.971261</ele>
        <time>2021-11-11T10:03:04.766Z</time>
      </trkpt>
      <trkpt lat="47.19504" lon="-1.63074">
        <ele>56.931591</ele>
        <time>2021-11-11T10:03:06.803Z</time>
      </trkpt>
      <trkpt lat="47.19504" lon="-1.63059">
        <ele>56.891092</ele>
        <time>2021-11-11T10:03:08.789Z</time>
      </trkpt>
      <trkpt lat="47.19503" lon="-1.63044">
        <ele>56.849966</ele>
        <time>2021-11-11T10:03:10.786Z</time>
      </trkpt>
      <trkpt lat="47.19503" lon="-1.63029">
        <ele>56.809084</ele>
        <time>2021-11-11T10:03:12.752Z</time>
      </trkpt>
      <trkpt lat="47.19501" lon="-1.63015">
        <ele>56.769892</ele>
        <time>2021-11-11T10:03:14.784Z</time>
      </trkpt>
      <trkpt lat="47.195" lon="-1.63001">
        <ele>56.73043</ele>
        <time>2021-11-11T10:03:16.784Z</time>
      </trkpt>
      <trkpt lat="47.19499" lon="-1.62986">
        <ele>56.691487</ele>
        <time>2021-11-11T10:03:18.787Z</time>
      </trkpt>
      <trkpt lat="47.19498" lon="-1.62973">
        <ele>56.653932</ele>
        <time>2021-11-11T10:03:20.765Z</time>
      </trkpt>
      <trkpt lat="47.19496" lon="-1.62959">
        <ele>56.614521</ele>
        <time>2021-11-11T10:03:22.753Z</time>
      </trkpt>
      <trkpt lat="47.19495" lon="-1.62944">
        <ele>56.574567</ele>
        <time>2021-11-11T10:03:24.755Z</time>
      </trkpt>
      <trkpt lat="47.19494" lon="-1.62929">
        <ele>56.53407</ele>
        <time>2021-11-11T10:03:26.767Z</time>
      </trkpt>
      <trkpt lat="47.19493" lon="-1.62915">
        <ele>56.494281</ele>
        <time>2021-11-11T10:03:28.784Z</time>
      </trkpt>
      <trkpt lat="47.19491" lon="-1.629">
        <ele>56.47952</ele>
        <time>2021-11-11T10:03:30.766Z</time>
      </trkpt>
      <trkpt lat="47.1949" lon="-1.62886">
        <ele>56.541832</ele>
        <time>2021-11-11T10:03:32.775Z</time>
      </trkpt>
      <trkpt lat="47.19488" lon="-1.62871">
        <ele>56.603496</ele>
        <time>2021-11-11T10:03:34.774Z</time>
      </trkpt>
      <trkpt lat="47.19487" lon="-1.62857">
        <ele>56.663894</ele>
        <time>2021-11-11T10:03:36.776Z</time>
      </trkpt>
      <trkpt lat="47.19486" lon="-1.62843">
        <ele>56.724447</ele>
        <time>2021-11-11T10:03:38.774Z</time>
      </trkpt>
      <trkpt lat="47.19485" lon="-1.62829">
        <ele>56.784846</ele>
        <time>2021-11-11T10:03:40.800Z</time>
      </trkpt>
      <trkpt lat="47.19484" lon="-1.62815">
        <ele>56.844695</ele>
        <time>2021-11-11T10:03:42.780Z</time>
      </trkpt>
      <trkpt lat="47.19483" lon="-1.62801">
        <ele>56.904069</ele>
        <time>2021-11-11T10:03:44.771Z</time>
      </trkpt>
      <trkpt lat="47.19482" lon="-1.62787">
        <ele>56.962508</ele>
        <time>2021-11-11T10:03:46.769Z</time>
      </trkpt>
      <trkpt lat="47.19482" lon="-1.62773">
        <ele>57.021755</ele>
        <time>2021-11-11T10:03:48.778Z</time>
      </trkpt>
      <trkpt lat="47.19481" lon="-1.62758">
        <ele>57.082813</ele>
        <time>2021-11-11T10:03:50.765Z</time>
      </trkpt>
      <trkpt lat="47.1948" lon="-1.62743">
        <ele>57.146642</ele>
        <time>2021-11-11T10:03:52.793Z</time>
      </trkpt>
      <trkpt lat="47.19479" lon="-1.62729">
        <ele>57.207653</ele>
        <time>2021-11-11T10:03:54.776Z</time>
      </trkpt>
      <trkpt lat="47.19478" lon="-1.62715">
        <ele>57.266557</ele>
        <time>2021-11-11T10:03:56.807Z</time>
      </trkpt>
      <trkpt lat="47.19478" lon="-1.62695">
        <ele>57.349446</ele>
        <time>2021-11-11T10:03:59.773Z</time>
      </trkpt>
      <trkpt lat="47.19477" lon="-1.6268">
        <ele>57.414213</ele>
        <time>2021-11-11T10:04:01.769Z</time>
      </trkpt>
      <trkpt lat="47.19477" lon="-1.62665">
        <ele>57.477292</ele>
        <time>2021-11-11T10:04:03.783Z</time>
      </trkpt>
      <trkpt lat="47.19476" lon="-1.62651">
        <ele>57.53746</ele>
        <time>2021-11-11T10:04:05.770Z</time>
      </trkpt>
      <trkpt lat="47.19475" lon="-1.62637">
        <ele>57.563839</ele>
        <time>2021-11-11T10:04:07.773Z</time>
      </trkpt>
      <trkpt lat="47.19474" lon="-1.62623">
        <ele>57.490663</ele>
        <time>2021-11-11T10:04:09.782Z</time>
      </trkpt>
      <trkpt lat="47.19473" lon="-1.6261">
        <ele>57.418726</ele>
        <time>2021-11-11T10:04:11.752Z</time>
      </trkpt>
      <trkpt lat="47.19473" lon="-1.62596">
        <ele>57.344156</ele>
        <time>2021-11-11T10:04:13.786Z</time>
      </trkpt>
      <trkpt lat="47.19473" lon="-1.62582">
        <ele>57.270749</ele>
        <time>2021-11-11T10:04:15.779Z</time>
      </trkpt>
      <trkpt lat="47.19472" lon="-1.62568">
        <ele>57.198369</ele>
        <time>2021-11-11T10:04:17.762Z</time>
      </trkpt>
      <trkpt lat="47.19471" lon="-1.62554">
        <ele>57.125639</ele>
        <time>2021-11-11T10:04:19.768Z</time>
      </trkpt>
      <trkpt lat="47.19471" lon="-1.62541">
        <ele>57.053288</ele>
        <time>2021-11-11T10:04:21.749Z</time>
      </trkpt>
      <trkpt lat="47.19471" lon="-1.62527">
        <ele>56.979354</ele>
        <time>2021-11-11T10:04:23.785Z</time>
      </trkpt>
      <trkpt lat="47.1947" lon="-1.62513">
        <ele>56.905421</ele>
        <time>2021-11-11T10:04:25.794Z</time>
      </trkpt>
      <trkpt lat="47.1947" lon="-1.62499">
        <ele>56.833955</ele>
        <time>2021-11-11T10:04:27.767Z</time>
      </trkpt>
      <trkpt lat="47.19469" lon="-1.62486">
        <ele>56.762275</ele>
        <time>2021-11-11T10:04:29.758Z</time>
      </trkpt>
      <trkpt lat="47.19468" lon="-1.62472">
        <ele>56.690338</ele>
        <time>2021-11-11T10:04:31.750Z</time>
      </trkpt>
      <trkpt lat="47.19467" lon="-1.62458">
        <ele>56.616339</ele>
        <time>2021-11-11T10:04:33.783Z</time>
      </trkpt>
      <trkpt lat="47.19467" lon="-1.62443">
        <ele>56.538499</ele>
        <time>2021-11-11T10:04:35.769Z</time>
      </trkpt>
      <trkpt lat="47.19466" lon="-1.62429">
        <ele>56.462954</ele>
        <time>2021-11-11T10:04:37.765Z</time>
      </trkpt>
      <trkpt lat="47.19466" lon="-1.62415">
        <ele>56.390536</ele>
        <time>2021-11-11T10:04:39.766Z</time>
      </trkpt>
      <trkpt lat="47.19466" lon="-1.62401">
        <ele>56.316111</ele>
        <time>2021-11-11T10:04:41.741Z</time>
      </trkpt>
      <trkpt lat="47.19465" lon="-1.62387">
        <ele>56.239908</ele>
        <time>2021-11-11T10:04:43.764Z</time>
      </trkpt>
      <trkpt lat="47.19465" lon="-1.62372">
        <ele>56.176933</ele>
        <time>2021-11-11T10:04:45.764Z</time>
      </trkpt>
      <trkpt lat="47.19466" lon="-1.62358">
        <ele>56.149231</ele>
        <time>2021-11-11T10:04:47.758Z</time>
      </trkpt>
      <trkpt lat="47.19466" lon="-1.62343">
        <ele>56.119102</ele>
        <time>2021-11-11T10:04:49.771Z</time>
      </trkpt>
      <trkpt lat="47.19467" lon="-1.62328">
        <ele>56.089715</ele>
        <time>2021-11-11T10:04:51.756Z</time>
      </trkpt>
      <trkpt lat="47.19468" lon="-1.62314">
        <ele>56.061929</ele>
        <time>2021-11-11T10:04:53.769Z</time>
      </trkpt>
      <trkpt lat="47.19468" lon="-1.62299">
        <ele>56.031473</ele>
        <time>2021-11-11T10:04:55.784Z</time>
      </trkpt>
      <trkpt lat="47.19469" lon="-1.62283">
        <ele>56.000904</ele>
        <time>2021-11-11T10:04:57.774Z</time>
      </trkpt>
      <trkpt lat="47.19469" lon="-1.62268">
        <ele>55.970448</ele>
        <time>2021-11-11T10:04:59.783Z</time>
      </trkpt>
      <trkpt lat="47.19469" lon="-1.62252">
        <ele>55.939595</ele>
        <time>2021-11-11T10:05:01.770Z</time>
      </trkpt>
      <trkpt lat="47.19469" lon="-1.62238">
        <ele>55.911102</ele>
        <time>2021-11-11T10:05:03.765Z</time>
      </trkpt>
      <trkpt lat="47.19471" lon="-1.62223">
        <ele>55.880732</ele>
        <time>2021-11-11T10:05:05.759Z</time>
      </trkpt>
      <trkpt lat="47.19473" lon="-1.62205">
        <ele>55.844723</ele>
        <time>2021-11-11T10:05:08.803Z</time>
      </trkpt>
      <trkpt lat="47.19472" lon="-1.62189">
        <ele>55.813051</ele>
        <time>2021-11-11T10:05:10.797Z</time>
      </trkpt>
      <trkpt lat="47.19471" lon="-1.62174">
        <ele>55.783067</ele>
        <time>2021-11-11T10:05:12.803Z</time>
      </trkpt>
      <trkpt lat="47.1947" lon="-1.62159">
        <ele>55.753507</ele>
        <time>2021-11-11T10:05:14.790Z</time>
      </trkpt>
      <trkpt lat="47.19469" lon="-1.62145">
        <ele>55.724487</ele>
        <time>2021-11-11T10:05:16.784Z</time>
      </trkpt>
      <trkpt lat="47.19468" lon="-1.6213">
        <ele>55.695239</ele>
        <time>2021-11-11T10:05:18.784Z</time>
      </trkpt>
      <trkpt lat="47.19466" lon="-1.62116">
        <ele>55.66749</ele>
        <time>2021-11-11T10:05:20.769Z</time>
      </trkpt>
      <trkpt lat="47.19466" lon="-1.62102">
        <ele>55.676601</ele>
        <time>2021-11-11T10:05:22.785Z</time>
      </trkpt>
      <trkpt lat="47.19465" lon="-1.62088">
        <ele>55.695102</ele>
        <time>2021-11-11T10:05:24.796Z</time>
      </trkpt>
      <trkpt lat="47.19464" lon="-1.62074">
        <ele>55.71377</ele>
        <time>2021-11-11T10:05:26.777Z</time>
      </trkpt>
      <trkpt lat="47.19463" lon="-1.6206">
        <ele>55.73214</ele>
        <time>2021-11-11T10:05:28.780Z</time>
      </trkpt>
      <trkpt lat="47.19462" lon="-1.62046">
        <ele>55.750616</ele>
        <time>2021-11-11T10:05:30.776Z</time>
      </trkpt>
      <trkpt lat="47.19461" lon="-1.62032">
        <ele>55.768551</ele>
        <time>2021-11-11T10:05:32.772Z</time>
      </trkpt>
      <trkpt lat="47.19461" lon="-1.62013">
        <ele>55.794757</ele>
        <time>2021-11-11T10:05:35.766Z</time>
      </trkpt>
      <trkpt lat="47.19462" lon="-1.61999">
        <ele>55.813111</ele>
        <time>2021-11-11T10:05:37.805Z</time>
      </trkpt>
      <trkpt lat="47.19463" lon="-1.61985">
        <ele>55.830862</ele>
        <time>2021-11-11T10:05:39.797Z</time>
      </trkpt>
      <trkpt lat="47.19464" lon="-1.6197">
        <ele>55.850518</ele>
        <time>2021-11-11T10:05:42.773Z</time>
      </trkpt>
      <trkpt lat="47.19453" lon="-1.61964">
        <ele>55.873231</ele>
        <time>2021-11-11T10:05:45.752Z</time>
      </trkpt>
      <trkpt lat="47.19446" lon="-1.61946">
        <ele>55.899732</ele>
        <time>2021-11-11T10:05:49.407Z</time>
      </trkpt>
      <trkpt lat="47.19443" lon="-1.61926">
        <ele>55.926841</ele>
        <time>2021-11-11T10:05:51.666Z</time>
      </trkpt>
      <trkpt lat="47.19443" lon="-1.61912">
        <ele>55.945813</ele>
        <time>2021-11-11T10:05:53.426Z</time>
      </trkpt>
      <trkpt lat="47.19443" lon="-1.61898">
        <ele>55.964265</ele>
        <time>2021-11-11T10:05:55.700Z</time>
      </trkpt>
      <trkpt lat="47.19436" lon="-1.61883">
        <ele>55.988134</ele>
        <time>2021-11-11T10:05:58.765Z</time>
      </trkpt>
      <trkpt lat="47.19431" lon="-1.6187">
        <ele>56.006888</ele>
        <time>2021-11-11T10:06:00.769Z</time>
      </trkpt>
      <trkpt lat="47.19429" lon="-1.61856">
        <ele>55.988107</ele>
        <time>2021-11-11T10:06:02.768Z</time>
      </trkpt>
      <trkpt lat="47.19427" lon="-1.61841">
        <ele>55.960014</ele>
        <time>2021-11-11T10:06:04.772Z</time>
      </trkpt>
      <trkpt lat="47.19427" lon="-1.61825">
        <ele>55.931526</ele>
        <time>2021-11-11T10:06:06.779Z</time>
      </trkpt>
      <trkpt lat="47.19427" lon="-1.6181">
        <ele>55.904259</ele>
        <time>2021-11-11T10:06:08.796Z</time>
      </trkpt>
      <trkpt lat="47.19429" lon="-1.61795">
        <ele>55.878798</ele>
        <time>2021-11-11T10:06:10.789Z</time>
      </trkpt>
      <trkpt lat="47.19431" lon="-1.61782">
        <ele>55.853382</ele>
        <time>2021-11-11T10:06:12.790Z</time>
      </trkpt>
      <trkpt lat="47.19434" lon="-1.61768">
        <ele>55.827933</ele>
        <time>2021-11-11T10:06:14.770Z</time>
      </trkpt>
      <trkpt lat="47.19437" lon="-1.61755">
        <ele>55.80274</ele>
        <time>2021-11-11T10:06:16.785Z</time>
      </trkpt>
      <trkpt lat="47.19439" lon="-1.61741">
        <ele>55.776993</ele>
        <time>2021-11-11T10:06:18.770Z</time>
      </trkpt>
      <trkpt lat="47.19442" lon="-1.61727">
        <ele>55.750602</ele>
        <time>2021-11-11T10:06:20.767Z</time>
      </trkpt>
      <trkpt lat="47.19443" lon="-1.61712">
        <ele>55.724104</ele>
        <time>2021-11-11T10:06:22.772Z</time>
      </trkpt>
      <trkpt lat="47.19443" lon="-1.61697">
        <ele>55.697407</ele>
        <time>2021-11-11T10:06:24.790Z</time>
      </trkpt>
      <trkpt lat="47.19443" lon="-1.61682">
        <ele>55.670888</ele>
        <time>2021-11-11T10:06:26.779Z</time>
      </trkpt>
      <trkpt lat="47.19444" lon="-1.61668">
        <ele>55.645666</ele>
        <time>2021-11-11T10:06:28.769Z</time>
      </trkpt>
      <trkpt lat="47.19446" lon="-1.61655">
        <ele>55.62077</ele>
        <time>2021-11-11T10:06:30.765Z</time>
      </trkpt>
      <trkpt lat="47.19446" lon="-1.61641">
        <ele>55.59639</ele>
        <time>2021-11-11T10:06:32.761Z</time>
      </trkpt>
      <trkpt lat="47.19446" lon="-1.61625">
        <ele>55.567711</ele>
        <time>2021-11-11T10:06:35.752Z</time>
      </trkpt>
      <trkpt lat="47.19447" lon="-1.61611">
        <ele>55.541568</ele>
        <time>2021-11-11T10:06:37.749Z</time>
      </trkpt>
      <trkpt lat="47.19449" lon="-1.61596">
        <ele>55.584382</ele>
        <time>2021-11-11T10:06:39.748Z</time>
      </trkpt>
      <trkpt lat="47.19451" lon="-1.61582">
        <ele>55.641932</ele>
        <time>2021-11-11T10:06:41.793Z</time>
      </trkpt>
      <trkpt lat="47.19453" lon="-1.61568">
        <ele>55.699709</ele>
        <time>2021-11-11T10:06:43.775Z</time>
      </trkpt>
      <trkpt lat="47.19456" lon="-1.61554">
        <ele>55.757097</ele>
        <time>2021-11-11T10:06:45.782Z</time>
      </trkpt>
      <trkpt lat="47.19459" lon="-1.6154">
        <ele>55.813849</ele>
        <time>2021-11-11T10:06:47.753Z</time>
      </trkpt>
      <trkpt lat="47.19461" lon="-1.61527">
        <ele>55.868979</ele>
        <time>2021-11-11T10:06:49.769Z</time>
      </trkpt>
      <trkpt lat="47.19465" lon="-1.61515">
        <ele>55.924296</ele>
        <time>2021-11-11T10:06:51.774Z</time>
      </trkpt>
      <trkpt lat="47.1947" lon="-1.61502">
        <ele>55.981194</ele>
        <time>2021-11-11T10:06:53.763Z</time>
      </trkpt>
      <trkpt lat="47.19474" lon="-1.6149">
        <ele>56.034714</ele>
        <time>2021-11-11T10:06:55.785Z</time>
      </trkpt>
      <trkpt lat="47.19478" lon="-1.61475">
        <ele>56.098333</ele>
        <time>2021-11-11T10:06:58.769Z</time>
      </trkpt>
      <trkpt lat="47.1948" lon="-1.61458">
        <ele>56.169928</ele>
        <time>2021-11-11T10:07:01.784Z</time>
      </trkpt>
      <trkpt lat="47.1948" lon="-1.61442">
        <ele>56.234912</ele>
        <time>2021-11-11T10:07:03.768Z</time>
      </trkpt>
      <trkpt lat="47.19479" lon="-1.61428">
        <ele>56.290882</ele>
        <time>2021-11-11T10:07:05.769Z</time>
      </trkpt>
      <trkpt lat="47.19478" lon="-1.61414">
        <ele>56.348148</ele>
        <time>2021-11-11T10:07:07.768Z</time>
      </trkpt>
      <trkpt lat="47.19477" lon="-1.61399">
        <ele>56.407304</ele>
        <time>2021-11-11T10:07:09.772Z</time>
      </trkpt>
      <trkpt lat="47.19476" lon="-1.61384">
        <ele>56.467659</ele>
        <time>2021-11-11T10:07:11.772Z</time>
      </trkpt>
      <trkpt lat="47.19476" lon="-1.61369">
        <ele>56.527971</ele>
        <time>2021-11-11T10:07:13.788Z</time>
      </trkpt>
      <trkpt lat="47.19475" lon="-1.61354">
        <ele>56.587295</ele>
        <time>2021-11-11T10:07:15.785Z</time>
      </trkpt>
      <trkpt lat="47.19474" lon="-1.6134">
        <ele>56.564352</ele>
        <time>2021-11-11T10:07:17.748Z</time>
      </trkpt>
      <trkpt lat="47.19473" lon="-1.61325">
        <ele>56.522364</ele>
        <time>2021-11-11T10:07:19.769Z</time>
      </trkpt>
      <trkpt lat="47.19472" lon="-1.6131">
        <ele>56.480846</ele>
        <time>2021-11-11T10:07:21.768Z</time>
      </trkpt>
      <trkpt lat="47.19472" lon="-1.61296">
        <ele>56.440567</ele>
        <time>2021-11-11T10:07:23.778Z</time>
      </trkpt>
      <trkpt lat="47.19471" lon="-1.61282">
        <ele>56.400798</ele>
        <time>2021-11-11T10:07:25.779Z</time>
      </trkpt>
      <trkpt lat="47.19469" lon="-1.61265">
        <ele>56.352694</ele>
        <time>2021-11-11T10:07:28.758Z</time>
      </trkpt>
      <trkpt lat="47.19469" lon="-1.61251">
        <ele>56.313028</ele>
        <time>2021-11-11T10:07:30.788Z</time>
      </trkpt>
      <trkpt lat="47.19469" lon="-1.61236">
        <ele>56.269419</ele>
        <time>2021-11-11T10:07:32.744Z</time>
      </trkpt>
      <trkpt lat="47.19468" lon="-1.61221">
        <ele>56.22833</ele>
        <time>2021-11-11T10:07:34.772Z</time>
      </trkpt>
      <trkpt lat="47.19467" lon="-1.61207">
        <ele>56.188452</ele>
        <time>2021-11-11T10:07:36.763Z</time>
      </trkpt>
      <trkpt lat="47.19466" lon="-1.61193">
        <ele>56.148478</ele>
        <time>2021-11-11T10:07:38.763Z</time>
      </trkpt>
      <trkpt lat="47.19465" lon="-1.61179">
        <ele>56.109113</ele>
        <time>2021-11-11T10:07:40.770Z</time>
      </trkpt>
      <trkpt lat="47.19464" lon="-1.61165">
        <ele>56.070028</ele>
        <time>2021-11-11T10:07:42.762Z</time>
      </trkpt>
      <trkpt lat="47.19463" lon="-1.61151">
        <ele>56.03019</ele>
        <time>2021-11-11T10:07:44.775Z</time>
      </trkpt>
      <trkpt lat="47.19463" lon="-1.61137">
        <ele>55.991291</ele>
        <time>2021-11-11T10:07:46.776Z</time>
      </trkpt>
      <trkpt lat="47.19463" lon="-1.61123">
        <ele>55.952469</ele>
        <time>2021-11-11T10:07:48.773Z</time>
      </trkpt>
      <trkpt lat="47.19461" lon="-1.6111">
        <ele>55.913294</ele>
        <time>2021-11-11T10:07:50.768Z</time>
      </trkpt>
      <trkpt lat="47.19459" lon="-1.61096">
        <ele>55.874948</ele>
        <time>2021-11-11T10:07:52.782Z</time>
      </trkpt>
      <trkpt lat="47.19459" lon="-1.61082">
        <ele>55.869943</ele>
        <time>2021-11-11T10:07:54.768Z</time>
      </trkpt>
      <trkpt lat="47.19459" lon="-1.61067">
        <ele>55.90753</ele>
        <time>2021-11-11T10:07:56.769Z</time>
      </trkpt>
      <trkpt lat="47.1946" lon="-1.61053">
        <ele>55.944413</ele>
        <time>2021-11-11T10:07:58.772Z</time>
      </trkpt>
      <trkpt lat="47.1946" lon="-1.61039">
        <ele>55.981514</ele>
        <time>2021-11-11T10:08:00.812Z</time>
      </trkpt>
      <trkpt lat="47.1946" lon="-1.61024">
        <ele>56.018344</ele>
        <time>2021-11-11T10:08:02.779Z</time>
      </trkpt>
      <trkpt lat="47.1946" lon="-1.6101">
        <ele>56.055702</ele>
        <time>2021-11-11T10:08:04.772Z</time>
      </trkpt>
      <trkpt lat="47.1946" lon="-1.60995">
        <ele>56.09306</ele>
        <time>2021-11-11T10:08:06.752Z</time>
      </trkpt>
      <trkpt lat="47.19461" lon="-1.60981">
        <ele>56.129407</ele>
        <time>2021-11-11T10:08:08.755Z</time>
      </trkpt>
      <trkpt lat="47.19462" lon="-1.60967">
        <ele>56.165608</ele>
        <time>2021-11-11T10:08:10.790Z</time>
      </trkpt>
      <trkpt lat="47.19463" lon="-1.60953">
        <ele>56.202348</ele>
        <time>2021-11-11T10:08:12.798Z</time>
      </trkpt>
      <trkpt lat="47.19465" lon="-1.6094">
        <ele>56.236359</ele>
        <time>2021-11-11T10:08:14.798Z</time>
      </trkpt>
      <trkpt lat="47.19475" lon="-1.60933">
        <ele>56.279127</ele>
        <time>2021-11-11T10:08:17.775Z</time>
      </trkpt>
      <trkpt lat="47.19477" lon="-1.60915">
        <ele>56.326982</ele>
        <time>2021-11-11T10:08:20.800Z</time>
      </trkpt>
      <trkpt lat="47.19476" lon="-1.609">
        <ele>56.366434</ele>
        <time>2021-11-11T10:08:22.768Z</time>
      </trkpt>
      <trkpt lat="47.19477" lon="-1.60885">
        <ele>56.40381</ele>
        <time>2021-11-11T10:08:24.768Z</time>
      </trkpt>
      <trkpt lat="47.19479" lon="-1.60871">
        <ele>56.440421</ele>
        <time>2021-11-11T10:08:26.804Z</time>
      </trkpt>
      <trkpt lat="47.1948" lon="-1.60857">
        <ele>56.476659</ele>
        <time>2021-11-11T10:08:28.773Z</time>
      </trkpt>
      <trkpt lat="47.19481" lon="-1.60843">
        <ele>56.513963</ele>
        <time>2021-11-11T10:08:30.791Z</time>
      </trkpt>
      <trkpt lat="47.19482" lon="-1.60829">
        <ele>56.548265</ele>
        <time>2021-11-11T10:08:32.774Z</time>
      </trkpt>
      <trkpt lat="47.19483" lon="-1.60815">
        <ele>56.579201</ele>
        <time>2021-11-11T10:08:34.777Z</time>
      </trkpt>
      <trkpt lat="47.19484" lon="-1.60801">
        <ele>56.60992</ele>
        <time>2021-11-11T10:08:36.785Z</time>
      </trkpt>
      <trkpt lat="47.19485" lon="-1.60787">
        <ele>56.639989</ele>
        <time>2021-11-11T10:08:38.780Z</time>
      </trkpt>
      <trkpt lat="47.19486" lon="-1.60773">
        <ele>56.670186</ele>
        <time>2021-11-11T10:08:40.785Z</time>
      </trkpt>
      <trkpt lat="47.19488" lon="-1.60759">
        <ele>56.700554</ele>
        <time>2021-11-11T10:08:42.768Z</time>
      </trkpt>
      <trkpt lat="47.19488" lon="-1.60746">
        <ele>56.729413</ele>
        <time>2021-11-11T10:08:44.809Z</time>
      </trkpt>
      <trkpt lat="47.19489" lon="-1.60729">
        <ele>56.767797</ele>
        <time>2021-11-11T10:08:47.778Z</time>
      </trkpt>
      <trkpt lat="47.1949" lon="-1.60715">
        <ele>56.796753</ele>
        <time>2021-11-11T10:08:49.784Z</time>
      </trkpt>
      <trkpt lat="47.19492" lon="-1.60702">
        <ele>56.82674</ele>
        <time>2021-11-11T10:08:51.806Z</time>
      </trkpt>
      <trkpt lat="47.19494" lon="-1.60688">
        <ele>56.858273</ele>
        <time>2021-11-11T10:08:53.787Z</time>
      </trkpt>
      <trkpt lat="47.19498" lon="-1.6067">
        <ele>56.899172</ele>
        <time>2021-11-11T10:08:56.735Z</time>
      </trkpt>
      <trkpt lat="47.19499" lon="-1.6065">
        <ele>56.942039</ele>
        <time>2021-11-11T10:08:59.767Z</time>
      </trkpt>
      <trkpt lat="47.19501" lon="-1.60635">
        <ele>56.975518</ele>
        <time>2021-11-11T10:09:01.767Z</time>
      </trkpt>
      <trkpt lat="47.19502" lon="-1.60621">
        <ele>57.006577</ele>
        <time>2021-11-11T10:09:03.794Z</time>
      </trkpt>
      <trkpt lat="47.19504" lon="-1.60607">
        <ele>57.036992</ele>
        <time>2021-11-11T10:09:05.766Z</time>
      </trkpt>
      <trkpt lat="47.19506" lon="-1.60594">
        <ele>57.066124</ele>
        <time>2021-11-11T10:09:07.790Z</time>
      </trkpt>
      <trkpt lat="47.19507" lon="-1.60581">
        <ele>57.095321</ele>
        <time>2021-11-11T10:09:09.786Z</time>
      </trkpt>
      <trkpt lat="47.19509" lon="-1.60567">
        <ele>57.113853</ele>
        <time>2021-11-11T10:09:11.763Z</time>
      </trkpt>
      <trkpt lat="47.1951" lon="-1.60553">
        <ele>57.118776</ele>
        <time>2021-11-11T10:09:13.763Z</time>
      </trkpt>
      <trkpt lat="47.19511" lon="-1.60539">
        <ele>57.123802</ele>
        <time>2021-11-11T10:09:15.760Z</time>
      </trkpt>
      <trkpt lat="47.19513" lon="-1.60525">
        <ele>57.129039</ele>
        <time>2021-11-11T10:09:17.755Z</time>
      </trkpt>
      <trkpt lat="47.19514" lon="-1.60509">
        <ele>57.13443</ele>
        <time>2021-11-11T10:09:19.755Z</time>
      </trkpt>
      <trkpt lat="47.19515" lon="-1.60495">
        <ele>57.139644</ele>
        <time>2021-11-11T10:09:21.796Z</time>
      </trkpt>
      <trkpt lat="47.19516" lon="-1.60481">
        <ele>57.144747</ele>
        <time>2021-11-11T10:09:23.745Z</time>
      </trkpt>
      <trkpt lat="47.19517" lon="-1.60467">
        <ele>57.149733</ele>
        <time>2021-11-11T10:09:25.768Z</time>
      </trkpt>
      <trkpt lat="47.19518" lon="-1.60453">
        <ele>57.154607</ele>
        <time>2021-11-11T10:09:27.766Z</time>
      </trkpt>
      <trkpt lat="47.19519" lon="-1.60439">
        <ele>57.159394</ele>
        <time>2021-11-11T10:09:29.761Z</time>
      </trkpt>
      <trkpt lat="47.1952" lon="-1.60426">
        <ele>57.164273</ele>
        <time>2021-11-11T10:09:31.790Z</time>
      </trkpt>
      <trkpt lat="47.19521" lon="-1.60412">
        <ele>57.169042</ele>
        <time>2021-11-11T10:09:33.765Z</time>
      </trkpt>
      <trkpt lat="47.19522" lon="-1.60399">
        <ele>57.173811</ele>
        <time>2021-11-11T10:09:35.796Z</time>
      </trkpt>
      <trkpt lat="47.19522" lon="-1.6038">
        <ele>57.180575</ele>
        <time>2021-11-11T10:09:38.755Z</time>
      </trkpt>
      <trkpt lat="47.19523" lon="-1.60366">
        <ele>57.185469</ele>
        <time>2021-11-11T10:09:40.767Z</time>
      </trkpt>
      <trkpt lat="47.19523" lon="-1.60353">
        <ele>57.190253</ele>
        <time>2021-11-11T10:09:42.801Z</time>
      </trkpt>
      <trkpt lat="47.19523" lon="-1.60339">
        <ele>57.195105</ele>
        <time>2021-11-11T10:09:44.775Z</time>
      </trkpt>
      <trkpt lat="47.19524" lon="-1.60325">
        <ele>57.200151</ele>
        <time>2021-11-11T10:09:46.764Z</time>
      </trkpt>
      <trkpt lat="47.19525" lon="-1.60311">
        <ele>57.205148</ele>
        <time>2021-11-11T10:09:48.755Z</time>
      </trkpt>
      <trkpt lat="47.19526" lon="-1.60296">
        <ele>57.197364</ele>
        <time>2021-11-11T10:09:50.777Z</time>
      </trkpt>
      <trkpt lat="47.19528" lon="-1.60282">
        <ele>57.189397</ele>
        <time>2021-11-11T10:09:52.817Z</time>
      </trkpt>
      <trkpt lat="47.19529" lon="-1.60268">
        <ele>57.181903</ele>
        <time>2021-11-11T10:09:54.771Z</time>
      </trkpt>
      <trkpt lat="47.1953" lon="-1.60255">
        <ele>57.17454</ele>
        <time>2021-11-11T10:09:56.781Z</time>
      </trkpt>
      <trkpt lat="47.19531" lon="-1.60241">
        <ele>57.16717</ele>
        <time>2021-11-11T10:09:58.761Z</time>
      </trkpt>
      <trkpt lat="47.19532" lon="-1.60228">
        <ele>57.159926</ele>
        <time>2021-11-11T10:10:00.776Z</time>
      </trkpt>
      <trkpt lat="47.19533" lon="-1.60214">
        <ele>57.15252</ele>
        <time>2021-11-11T10:10:02.779Z</time>
      </trkpt>
      <trkpt lat="47.19534" lon="-1.60201">
        <ele>57.145233</ele>
        <time>2021-11-11T10:10:04.812Z</time>
      </trkpt>
      <trkpt lat="47.19535" lon="-1.60183">
        <ele>57.135491</ele>
        <time>2021-11-11T10:10:07.778Z</time>
      </trkpt>
      <trkpt lat="47.19537" lon="-1.60164">
        <ele>57.125101</ele>
        <time>2021-11-11T10:10:10.765Z</time>
      </trkpt>
      <trkpt lat="47.19539" lon="-1.6014">
        <ele>57.111518</ele>
        <time>2021-11-11T10:10:14.786Z</time>
      </trkpt>
      <trkpt lat="47.19541" lon="-1.60123">
        <ele>57.102571</ele>
        <time>2021-11-11T10:10:16.778Z</time>
      </trkpt>
      <trkpt lat="47.19542" lon="-1.60109">
        <ele>57.094454</ele>
        <time>2021-11-11T10:10:18.797Z</time>
      </trkpt>
      <trkpt lat="47.19544" lon="-1.60094">
        <ele>57.086499</ele>
        <time>2021-11-11T10:10:20.777Z</time>
      </trkpt>
      <trkpt lat="47.19545" lon="-1.6008">
        <ele>57.078597</ele>
        <time>2021-11-11T10:10:22.780Z</time>
      </trkpt>
      <trkpt lat="47.19546" lon="-1.60065">
        <ele>57.070631</ele>
        <time>2021-11-11T10:10:24.775Z</time>
      </trkpt>
      <trkpt lat="47.19547" lon="-1.60052">
        <ele>57.063172</ele>
        <time>2021-11-11T10:10:26.769Z</time>
      </trkpt>
      <trkpt lat="47.19548" lon="-1.60038">
        <ele>57.04992</ele>
        <time>2021-11-11T10:10:28.787Z</time>
      </trkpt>
      <trkpt lat="47.19549" lon="-1.60025">
        <ele>57.034728</ele>
        <time>2021-11-11T10:10:30.784Z</time>
      </trkpt>
      <trkpt lat="47.1955" lon="-1.60011">
        <ele>57.019644</ele>
        <time>2021-11-11T10:10:32.788Z</time>
      </trkpt>
      <trkpt lat="47.19551" lon="-1.59998">
        <ele>57.004696</ele>
        <time>2021-11-11T10:10:34.784Z</time>
      </trkpt>
      <trkpt lat="47.19553" lon="-1.59985">
        <ele>56.989618</ele>
        <time>2021-11-11T10:10:36.781Z</time>
      </trkpt>
      <trkpt lat="47.19554" lon="-1.59971">
        <ele>56.974058</ele>
        <time>2021-11-11T10:10:38.772Z</time>
      </trkpt>
      <trkpt lat="47.19555" lon="-1.59958">
        <ele>56.958986</ele>
        <time>2021-11-11T10:10:40.799Z</time>
      </trkpt>
      <trkpt lat="47.19555" lon="-1.59944">
        <ele>56.943678</ele>
        <time>2021-11-11T10:10:42.782Z</time>
      </trkpt>
      <trkpt lat="47.19556" lon="-1.5993">
        <ele>56.92784</ele>
        <time>2021-11-11T10:10:44.772Z</time>
      </trkpt>
      <trkpt lat="47.19559" lon="-1.59916">
        <ele>56.911702</ele>
        <time>2021-11-11T10:10:46.771Z</time>
      </trkpt>
      <trkpt lat="47.19562" lon="-1.59902">
        <ele>56.895645</ele>
        <time>2021-11-11T10:10:48.794Z</time>
      </trkpt>
      <trkpt lat="47.19566" lon="-1.5989">
        <ele>56.879864</ele>
        <time>2021-11-11T10:10:50.755Z</time>
      </trkpt>
      <trkpt lat="47.1957" lon="-1.59877">
        <ele>56.864084</ele>
        <time>2021-11-11T10:10:52.783Z</time>
      </trkpt>
      <trkpt lat="47.19574" lon="-1.59864">
        <ele>56.84885</ele>
        <time>2021-11-11T10:10:54.804Z</time>
      </trkpt>
      <trkpt lat="47.19577" lon="-1.59852">
        <ele>56.833302</ele>
        <time>2021-11-11T10:10:56.774Z</time>
      </trkpt>
      <trkpt lat="47.19582" lon="-1.59839">
        <ele>56.816851</ele>
        <time>2021-11-11T10:10:58.749Z</time>
      </trkpt>
      <trkpt lat="47.19586" lon="-1.59825">
        <ele>56.800276</ele>
        <time>2021-11-11T10:11:00.773Z</time>
      </trkpt>
      <trkpt lat="47.19591" lon="-1.59812">
        <ele>56.7834</ele>
        <time>2021-11-11T10:11:02.801Z</time>
      </trkpt>
      <trkpt lat="47.19595" lon="-1.59798">
        <ele>56.766428</ele>
        <time>2021-11-11T10:11:04.778Z</time>
      </trkpt>
      <trkpt lat="47.196" lon="-1.59785">
        <ele>56.797033</ele>
        <time>2021-11-11T10:11:06.769Z</time>
      </trkpt>
      <trkpt lat="47.19604" lon="-1.59773">
        <ele>56.833686</ele>
        <time>2021-11-11T10:11:08.787Z</time>
      </trkpt>
      <trkpt lat="47.19609" lon="-1.5976">
        <ele>56.870036</ele>
        <time>2021-11-11T10:11:10.790Z</time>
      </trkpt>
      <trkpt lat="47.19613" lon="-1.59748">
        <ele>56.906914</ele>
        <time>2021-11-11T10:11:12.798Z</time>
      </trkpt>
      <trkpt lat="47.19617" lon="-1.59735">
        <ele>56.944362</ele>
        <time>2021-11-11T10:11:14.756Z</time>
      </trkpt>
      <trkpt lat="47.19622" lon="-1.59722">
        <ele>56.98164</ele>
        <time>2021-11-11T10:11:16.797Z</time>
      </trkpt>
      <trkpt lat="47.19626" lon="-1.59709">
        <ele>57.018518</ele>
        <time>2021-11-11T10:11:18.766Z</time>
      </trkpt>
      <trkpt lat="47.1963" lon="-1.59696">
        <ele>57.055778</ele>
        <time>2021-11-11T10:11:20.750Z</time>
      </trkpt>
      <trkpt lat="47.19633" lon="-1.59683">
        <ele>57.092584</ele>
        <time>2021-11-11T10:11:22.764Z</time>
      </trkpt>
      <trkpt lat="47.19638" lon="-1.5967">
        <ele>57.129462</ele>
        <time>2021-11-11T10:11:24.755Z</time>
      </trkpt>
      <trkpt lat="47.19642" lon="-1.59657">
        <ele>57.167206</ele>
        <time>2021-11-11T10:11:26.755Z</time>
      </trkpt>
      <trkpt lat="47.19646" lon="-1.59644">
        <ele>57.204467</ele>
        <time>2021-11-11T10:11:28.757Z</time>
      </trkpt>
      <trkpt lat="47.19649" lon="-1.5963">
        <ele>57.241335</ele>
        <time>2021-11-11T10:11:30.761Z</time>
      </trkpt>
      <trkpt lat="47.19651" lon="-1.59616">
        <ele>57.278489</ele>
        <time>2021-11-11T10:11:32.757Z</time>
      </trkpt>
      <trkpt lat="47.19655" lon="-1.59603">
        <ele>57.316073</ele>
        <time>2021-11-11T10:11:34.748Z</time>
      </trkpt>
      <trkpt lat="47.19657" lon="-1.59589">
        <ele>57.352026</ele>
        <time>2021-11-11T10:11:36.805Z</time>
      </trkpt>
      <trkpt lat="47.19659" lon="-1.59575">
        <ele>57.389113</ele>
        <time>2021-11-11T10:11:38.794Z</time>
      </trkpt>
      <trkpt lat="47.19661" lon="-1.59561">
        <ele>57.425725</ele>
        <time>2021-11-11T10:11:40.746Z</time>
      </trkpt>
      <trkpt lat="47.19662" lon="-1.59548">
        <ele>57.461266</ele>
        <time>2021-11-11T10:11:42.785Z</time>
      </trkpt>
      <trkpt lat="47.19664" lon="-1.59534">
        <ele>57.495539</ele>
        <time>2021-11-11T10:11:44.771Z</time>
      </trkpt>
      <trkpt lat="47.19667" lon="-1.5952">
        <ele>57.531027</ele>
        <time>2021-11-11T10:11:46.761Z</time>
      </trkpt>
      <trkpt lat="47.19669" lon="-1.59506">
        <ele>57.565935</ele>
        <time>2021-11-11T10:11:48.754Z</time>
      </trkpt>
      <trkpt lat="47.19671" lon="-1.59492">
        <ele>57.600365</ele>
        <time>2021-11-11T10:11:50.757Z</time>
      </trkpt>
      <trkpt lat="47.19674" lon="-1.59479">
        <ele>57.634058</ele>
        <time>2021-11-11T10:11:52.747Z</time>
      </trkpt>
      <trkpt lat="47.19676" lon="-1.59466">
        <ele>57.666517</ele>
        <time>2021-11-11T10:11:54.751Z</time>
      </trkpt>
      <trkpt lat="47.19679" lon="-1.59448">
        <ele>57.713551</ele>
        <time>2021-11-11T10:11:57.762Z</time>
      </trkpt>
      <trkpt lat="47.19681" lon="-1.59434">
        <ele>57.747184</ele>
        <time>2021-11-11T10:11:59.783Z</time>
      </trkpt>
      <trkpt lat="47.19683" lon="-1.5942">
        <ele>57.782256</ele>
        <time>2021-11-11T10:12:01.786Z</time>
      </trkpt>
      <trkpt lat="47.19686" lon="-1.59406">
        <ele>57.818712</ele>
        <time>2021-11-11T10:12:03.791Z</time>
      </trkpt>
      <trkpt lat="47.19689" lon="-1.59392">
        <ele>57.855513</ele>
        <time>2021-11-11T10:12:05.782Z</time>
      </trkpt>
      <trkpt lat="47.19693" lon="-1.59379">
        <ele>57.890499</ele>
        <time>2021-11-11T10:12:07.803Z</time>
      </trkpt>
      <trkpt lat="47.19698" lon="-1.59366">
        <ele>57.926484</ele>
        <time>2021-11-11T10:12:09.821Z</time>
      </trkpt>
      <trkpt lat="47.19701" lon="-1.59352">
        <ele>57.963161</ele>
        <time>2021-11-11T10:12:11.794Z</time>
      </trkpt>
      <trkpt lat="47.19705" lon="-1.59339">
        <ele>57.99845</ele>
        <time>2021-11-11T10:12:13.780Z</time>
      </trkpt>
      <trkpt lat="47.1971" lon="-1.59326">
        <ele>58.033084</ele>
        <time>2021-11-11T10:12:15.785Z</time>
      </trkpt>
      <trkpt lat="47.19714" lon="-1.59314">
        <ele>58.067547</ele>
        <time>2021-11-11T10:12:17.784Z</time>
      </trkpt>
      <trkpt lat="47.19718" lon="-1.59302">
        <ele>58.099965</ele>
        <time>2021-11-11T10:12:19.794Z</time>
      </trkpt>
      <trkpt lat="47.19724" lon="-1.59286">
        <ele>58.103906</ele>
        <time>2021-11-11T10:12:22.783Z</time>
      </trkpt>
      <trkpt lat="47.1973" lon="-1.5927">
        <ele>58.10816</ele>
        <time>2021-11-11T10:12:25.798Z</time>
      </trkpt>
      <trkpt lat="47.19726" lon="-1.5925">
        <ele>58.11293</ele>
        <time>2021-11-11T10:12:28.777Z</time>
      </trkpt>
      <trkpt lat="47.19727" lon="-1.59234">
        <ele>58.116644</ele>
        <time>2021-11-11T10:12:30.779Z</time>
      </trkpt>
      <trkpt lat="47.19731" lon="-1.5922">
        <ele>58.120115</ele>
        <time>2021-11-11T10:12:32.782Z</time>
      </trkpt>
      <trkpt lat="47.19734" lon="-1.59206">
        <ele>58.123436</ele>
        <time>2021-11-11T10:12:34.773Z</time>
      </trkpt>
      <trkpt lat="47.19736" lon="-1.59192">
        <ele>58.12676</ele>
        <time>2021-11-11T10:12:36.785Z</time>
      </trkpt>
      <trkpt lat="47.19738" lon="-1.59177">
        <ele>58.130103</ele>
        <time>2021-11-11T10:12:38.783Z</time>
      </trkpt>
      <trkpt lat="47.19741" lon="-1.59163">
        <ele>58.133468</ele>
        <time>2021-11-11T10:12:40.769Z</time>
      </trkpt>
      <trkpt lat="47.19744" lon="-1.59149">
        <ele>58.136792</ele>
        <time>2021-11-11T10:12:42.777Z</time>
      </trkpt>
      <trkpt lat="47.19746" lon="-1.59135">
        <ele>58.140123</ele>
        <time>2021-11-11T10:12:44.775Z</time>
      </trkpt>
      <trkpt lat="47.19748" lon="-1.59121">
        <ele>58.14346</ele>
        <time>2021-11-11T10:12:46.787Z</time>
      </trkpt>
      <trkpt lat="47.1975" lon="-1.59106">
        <ele>58.146931</ele>
        <time>2021-11-11T10:12:48.779Z</time>
      </trkpt>
      <trkpt lat="47.19752" lon="-1.59092">
        <ele>58.150304</ele>
        <time>2021-11-11T10:12:50.776Z</time>
      </trkpt>
      <trkpt lat="47.19755" lon="-1.59077">
        <ele>58.153767</ele>
        <time>2021-11-11T10:12:52.773Z</time>
      </trkpt>
      <trkpt lat="47.19758" lon="-1.59062">
        <ele>58.157239</ele>
        <time>2021-11-11T10:12:54.781Z</time>
      </trkpt>
      <trkpt lat="47.19761" lon="-1.59048">
        <ele>58.158064</ele>
        <time>2021-11-11T10:12:56.770Z</time>
      </trkpt>
      <trkpt lat="47.19764" lon="-1.59033">
        <ele>58.132147</ele>
        <time>2021-11-11T10:12:58.780Z</time>
      </trkpt>
      <trkpt lat="47.19765" lon="-1.59019">
        <ele>58.107814</ele>
        <time>2021-11-11T10:13:00.790Z</time>
      </trkpt>
      <trkpt lat="47.19768" lon="-1.59005">
        <ele>58.083196</ele>
        <time>2021-11-11T10:13:02.792Z</time>
      </trkpt>
      <trkpt lat="47.1977" lon="-1.58991">
        <ele>58.05878</ele>
        <time>2021-11-11T10:13:04.784Z</time>
      </trkpt>
      <trkpt lat="47.19772" lon="-1.58977">
        <ele>58.034406</ele>
        <time>2021-11-11T10:13:06.774Z</time>
      </trkpt>
      <trkpt lat="47.19775" lon="-1.58963">
        <ele>58.009378</ele>
        <time>2021-11-11T10:13:08.796Z</time>
      </trkpt>
      <trkpt lat="47.19777" lon="-1.58949">
        <ele>57.984433</ele>
        <time>2021-11-11T10:13:10.788Z</time>
      </trkpt>
      <trkpt lat="47.19779" lon="-1.58934">
        <ele>57.959322</ele>
        <time>2021-11-11T10:13:12.777Z</time>
      </trkpt>
      <trkpt lat="47.19781" lon="-1.58919">
        <ele>57.933271</ele>
        <time>2021-11-11T10:13:14.787Z</time>
      </trkpt>
      <trkpt lat="47.19783" lon="-1.58905">
        <ele>57.907963</ele>
        <time>2021-11-11T10:13:16.781Z</time>
      </trkpt>
      <trkpt lat="47.19782" lon="-1.5889">
        <ele>57.882553</ele>
        <time>2021-11-11T10:13:18.769Z</time>
      </trkpt>
      <trkpt lat="47.19781" lon="-1.58876">
        <ele>57.857987</ele>
        <time>2021-11-11T10:13:20.789Z</time>
      </trkpt>
      <trkpt lat="47.19778" lon="-1.58862">
        <ele>57.833847</ele>
        <time>2021-11-11T10:13:22.776Z</time>
      </trkpt>
      <trkpt lat="47.19776" lon="-1.58848">
        <ele>57.809661</ele>
        <time>2021-11-11T10:13:24.794Z</time>
      </trkpt>
      <trkpt lat="47.19774" lon="-1.58835">
        <ele>57.786712</ele>
        <time>2021-11-11T10:13:26.778Z</time>
      </trkpt>
      <trkpt lat="47.19771" lon="-1.58822">
        <ele>57.762246</ele>
        <time>2021-11-11T10:13:28.784Z</time>
      </trkpt>
      <trkpt lat="47.19769" lon="-1.58808">
        <ele>57.739005</ele>
        <time>2021-11-11T10:13:30.773Z</time>
      </trkpt>
      <trkpt lat="47.1977" lon="-1.58794">
        <ele>57.714092</ele>
        <time>2021-11-11T10:13:32.786Z</time>
      </trkpt>
      <trkpt lat="47.19773" lon="-1.5878">
        <ele>57.686204</ele>
        <time>2021-11-11T10:13:34.762Z</time>
      </trkpt>
      <trkpt lat="47.19776" lon="-1.58767">
        <ele>57.657701</ele>
        <time>2021-11-11T10:13:36.800Z</time>
      </trkpt>
      <trkpt lat="47.19779" lon="-1.58753">
        <ele>57.630499</ele>
        <time>2021-11-11T10:13:38.803Z</time>
      </trkpt>
      <trkpt lat="47.19783" lon="-1.58739">
        <ele>57.599648</ele>
        <time>2021-11-11T10:13:40.755Z</time>
      </trkpt>
      <trkpt lat="47.19786" lon="-1.58725">
        <ele>57.570068</ele>
        <time>2021-11-11T10:13:42.783Z</time>
      </trkpt>
      <trkpt lat="47.19789" lon="-1.58712">
        <ele>57.541751</ele>
        <time>2021-11-11T10:13:44.776Z</time>
      </trkpt>
      <trkpt lat="47.19792" lon="-1.58698">
        <ele>57.513018</ele>
        <time>2021-11-11T10:13:46.759Z</time>
      </trkpt>
      <trkpt lat="47.19795" lon="-1.58684">
        <ele>57.483722</ele>
        <time>2021-11-11T10:13:48.770Z</time>
      </trkpt>
      <trkpt lat="47.19798" lon="-1.5867">
        <ele>57.454401</ele>
        <time>2021-11-11T10:13:50.781Z</time>
      </trkpt>
      <trkpt lat="47.19802" lon="-1.58657">
        <ele>57.425232</ele>
        <time>2021-11-11T10:13:52.768Z</time>
      </trkpt>
      <trkpt lat="47.19805" lon="-1.58644">
        <ele>57.397256</ele>
        <time>2021-11-11T10:13:54.776Z</time>
      </trkpt>
      <trkpt lat="47.19809" lon="-1.58631">
        <ele>57.369006</ele>
        <time>2021-11-11T10:13:56.765Z</time>
      </trkpt>
      <trkpt lat="47.19812" lon="-1.58618">
        <ele>57.342167</ele>
        <time>2021-11-11T10:13:58.787Z</time>
      </trkpt>
      <trkpt lat="47.19816" lon="-1.58605">
        <ele>57.313664</ele>
        <time>2021-11-11T10:14:00.762Z</time>
      </trkpt>
      <trkpt lat="47.19819" lon="-1.58592">
        <ele>57.286162</ele>
        <time>2021-11-11T10:14:02.790Z</time>
      </trkpt>
      <trkpt lat="47.19826" lon="-1.5858">
        <ele>57.256031</ele>
        <time>2021-11-11T10:14:05.783Z</time>
      </trkpt>
      <trkpt lat="47.19838" lon="-1.58575">
        <ele>57.217526</ele>
        <time>2021-11-11T10:14:08.790Z</time>
      </trkpt>
      <trkpt lat="47.19844" lon="-1.58559">
        <ele>57.181686</ele>
        <time>2021-11-11T10:14:12.774Z</time>
      </trkpt>
      <trkpt lat="47.19846" lon="-1.58542">
        <ele>57.170331</ele>
        <time>2021-11-11T10:14:14.807Z</time>
      </trkpt>
      <trkpt lat="47.19849" lon="-1.58525">
        <ele>57.159183</ele>
        <time>2021-11-11T10:14:16.624Z</time>
      </trkpt>
      <trkpt lat="47.19851" lon="-1.58512">
        <ele>57.150546</ele>
        <time>2021-11-11T10:14:18.240Z</time>
      </trkpt>
      <trkpt lat="47.19853" lon="-1.58498">
        <ele>57.141622</ele>
        <time>2021-11-11T10:14:20.327Z</time>
      </trkpt>
      <trkpt lat="47.19858" lon="-1.58483">
        <ele>57.130806</ele>
        <time>2021-11-11T10:14:23.463Z</time>
      </trkpt>
      <trkpt lat="47.1986" lon="-1.58467">
        <ele>57.12049</ele>
        <time>2021-11-11T10:14:26.252Z</time>
      </trkpt>
      <trkpt lat="47.19863" lon="-1.58449">
        <ele>57.108547</ele>
        <time>2021-11-11T10:14:29.272Z</time>
      </trkpt>
      <trkpt lat="47.19868" lon="-1.58434">
        <ele>57.098491</ele>
        <time>2021-11-11T10:14:31.669Z</time>
      </trkpt>
      <trkpt lat="47.19871" lon="-1.58422">
        <ele>57.090044</ele>
        <time>2021-11-11T10:14:33.552Z</time>
      </trkpt>
      <trkpt lat="47.19875" lon="-1.58409">
        <ele>57.080818</ele>
        <time>2021-11-11T10:14:36.759Z</time>
      </trkpt>
      <trkpt lat="47.19878" lon="-1.58391">
        <ele>57.069161</ele>
        <time>2021-11-11T10:14:38.814Z</time>
      </trkpt>
      <trkpt lat="47.19883" lon="-1.5837">
        <ele>57.055019</ele>
        <time>2021-11-11T10:14:41.764Z</time>
      </trkpt>
      <trkpt lat="47.19886" lon="-1.58357">
        <ele>57.046029</ele>
        <time>2021-11-11T10:14:43.807Z</time>
      </trkpt>
      <trkpt lat="47.19892" lon="-1.58337">
        <ele>57.032396</ele>
        <time>2021-11-11T10:14:46.795Z</time>
      </trkpt>
      <trkpt lat="47.19895" lon="-1.58324">
        <ele>57.023693</ele>
        <time>2021-11-11T10:14:48.789Z</time>
      </trkpt>
      <trkpt lat="47.19896" lon="-1.58306">
        <ele>57.013867</ele>
        <time>2021-11-11T10:14:51.785Z</time>
      </trkpt>
      <trkpt lat="47.19898" lon="-1.58292">
        <ele>57.059939</ele>
        <time>2021-11-11T10:14:53.758Z</time>
      </trkpt>
      <trkpt lat="47.19899" lon="-1.58277">
        <ele>57.107359</ele>
        <time>2021-11-11T10:14:55.515Z</time>
      </trkpt>
      <trkpt lat="47.19902" lon="-1.58262">
        <ele>57.160067</ele>
        <time>2021-11-11T10:14:58.407Z</time>
      </trkpt>
      <trkpt lat="47.19906" lon="-1.58247">
        <ele>57.211871</ele>
        <time>2021-11-11T10:15:00.995Z</time>
      </trkpt>
      <trkpt lat="47.19912" lon="-1.5823">
        <ele>57.274973</ele>
        <time>2021-11-11T10:15:03.807Z</time>
      </trkpt>
      <trkpt lat="47.19919" lon="-1.58207">
        <ele>57.357193</ele>
        <time>2021-11-11T10:15:07.763Z</time>
      </trkpt>
      <trkpt lat="47.19923" lon="-1.58192">
        <ele>57.409759</ele>
        <time>2021-11-11T10:15:09.772Z</time>
      </trkpt>
      <trkpt lat="47.19927" lon="-1.58178">
        <ele>57.459066</ele>
        <time>2021-11-11T10:15:11.770Z</time>
      </trkpt>
      <trkpt lat="47.1993" lon="-1.58164">
        <ele>57.5054</ele>
        <time>2021-11-11T10:15:13.820Z</time>
      </trkpt>
      <trkpt lat="47.19934" lon="-1.58145">
        <ele>57.572753</ele>
        <time>2021-11-11T10:15:16.797Z</time>
      </trkpt>
      <trkpt lat="47.19938" lon="-1.58131">
        <ele>57.618849</ele>
        <time>2021-11-11T10:15:18.798Z</time>
      </trkpt>
      <trkpt lat="47.19943" lon="-1.58114">
        <ele>57.682246</ele>
        <time>2021-11-11T10:15:21.807Z</time>
      </trkpt>
      <trkpt lat="47.19947" lon="-1.58101">
        <ele>57.728411</ele>
        <time>2021-11-11T10:15:23.791Z</time>
      </trkpt>
      <trkpt lat="47.1995" lon="-1.58087">
        <ele>57.777092</ele>
        <time>2021-11-11T10:15:25.482Z</time>
      </trkpt>
      <trkpt lat="47.19955" lon="-1.5807">
        <ele>57.837521</ele>
        <time>2021-11-11T10:15:28.808Z</time>
      </trkpt>
      <trkpt lat="47.19959" lon="-1.58051">
        <ele>57.846359</ele>
        <time>2021-11-11T10:15:31.797Z</time>
      </trkpt>
      <trkpt lat="47.19963" lon="-1.58039">
        <ele>57.794716</ele>
        <time>2021-11-11T10:15:33.805Z</time>
      </trkpt>
      <trkpt lat="47.19967" lon="-1.58027">
        <ele>57.742257</ele>
        <time>2021-11-11T10:15:35.783Z</time>
      </trkpt>
      <trkpt lat="47.19971" lon="-1.58015">
        <ele>57.689375</ele>
        <time>2021-11-11T10:15:37.771Z</time>
      </trkpt>
      <trkpt lat="47.19976" lon="-1.58003">
        <ele>57.635342</ele>
        <time>2021-11-11T10:15:39.770Z</time>
      </trkpt>
      <trkpt lat="47.19981" lon="-1.57991">
        <ele>57.580239</ele>
        <time>2021-11-11T10:15:41.786Z</time>
      </trkpt>
      <trkpt lat="47.19985" lon="-1.57978">
        <ele>57.524594</ele>
        <time>2021-11-11T10:15:43.781Z</time>
      </trkpt>
      <trkpt lat="47.1999" lon="-1.57964">
        <ele>57.46636</ele>
        <time>2021-11-11T10:15:45.805Z</time>
      </trkpt>
      <trkpt lat="47.19995" lon="-1.57951">
        <ele>57.409127</ele>
        <time>2021-11-11T10:15:47.755Z</time>
      </trkpt>
      <trkpt lat="47.2" lon="-1.57939">
        <ele>57.351129</ele>
        <time>2021-11-11T10:15:49.785Z</time>
      </trkpt>
      <trkpt lat="47.20005" lon="-1.57926">
        <ele>57.293279</ele>
        <time>2021-11-11T10:15:51.798Z</time>
      </trkpt>
      <trkpt lat="47.2001" lon="-1.57914">
        <ele>57.238395</ele>
        <time>2021-11-11T10:15:53.792Z</time>
      </trkpt>
      <trkpt lat="47.20015" lon="-1.57901">
        <ele>57.184083</ele>
        <time>2021-11-11T10:15:55.801Z</time>
      </trkpt>
      <trkpt lat="47.2002" lon="-1.57889">
        <ele>57.128965</ele>
        <time>2021-11-11T10:15:57.797Z</time>
      </trkpt>
      <trkpt lat="47.20025" lon="-1.57878">
        <ele>57.07707</ele>
        <time>2021-11-11T10:15:59.764Z</time>
      </trkpt>
      <trkpt lat="47.2003" lon="-1.57867">
        <ele>57.02539</ele>
        <time>2021-11-11T10:16:01.770Z</time>
      </trkpt>
      <trkpt lat="47.20035" lon="-1.57855">
        <ele>56.97175</ele>
        <time>2021-11-11T10:16:03.746Z</time>
      </trkpt>
      <trkpt lat="47.20039" lon="-1.57843">
        <ele>56.918446</ele>
        <time>2021-11-11T10:16:05.780Z</time>
      </trkpt>
      <trkpt lat="47.20045" lon="-1.57832">
        <ele>56.865272</ele>
        <time>2021-11-11T10:16:07.788Z</time>
      </trkpt>
      <trkpt lat="47.2005" lon="-1.57821">
        <ele>56.855411</ele>
        <time>2021-11-11T10:16:09.795Z</time>
      </trkpt>
      <trkpt lat="47.20055" lon="-1.5781">
        <ele>56.862187</ele>
        <time>2021-11-11T10:16:11.773Z</time>
      </trkpt>
      <trkpt lat="47.20061" lon="-1.57799">
        <ele>56.869001</ele>
        <time>2021-11-11T10:16:13.753Z</time>
      </trkpt>
      <trkpt lat="47.20066" lon="-1.57788">
        <ele>56.875961</ele>
        <time>2021-11-11T10:16:15.779Z</time>
      </trkpt>
      <trkpt lat="47.20072" lon="-1.57777">
        <ele>56.882844</ele>
        <time>2021-11-11T10:16:17.784Z</time>
      </trkpt>
      <trkpt lat="47.20079" lon="-1.57767">
        <ele>56.88973</ele>
        <time>2021-11-11T10:16:19.777Z</time>
      </trkpt>
      <trkpt lat="47.20085" lon="-1.57757">
        <ele>56.896555</ele>
        <time>2021-11-11T10:16:21.782Z</time>
      </trkpt>
      <trkpt lat="47.20092" lon="-1.57747">
        <ele>56.903521</ele>
        <time>2021-11-11T10:16:23.791Z</time>
      </trkpt>
      <trkpt lat="47.20098" lon="-1.57737">
        <ele>56.910594</ele>
        <time>2021-11-11T10:16:25.782Z</time>
      </trkpt>
      <trkpt lat="47.20105" lon="-1.57727">
        <ele>56.917756</ele>
        <time>2021-11-11T10:16:27.778Z</time>
      </trkpt>
      <trkpt lat="47.20112" lon="-1.57717">
        <ele>56.924721</ele>
        <time>2021-11-11T10:16:29.792Z</time>
      </trkpt>
      <trkpt lat="47.20119" lon="-1.57708">
        <ele>56.931747</ele>
        <time>2021-11-11T10:16:31.781Z</time>
      </trkpt>
      <trkpt lat="47.20126" lon="-1.57699">
        <ele>56.938666</ele>
        <time>2021-11-11T10:16:33.785Z</time>
      </trkpt>
      <trkpt lat="47.20133" lon="-1.5769">
        <ele>56.94557</ele>
        <time>2021-11-11T10:16:35.773Z</time>
      </trkpt>
      <trkpt lat="47.2014" lon="-1.57681">
        <ele>56.952408</ele>
        <time>2021-11-11T10:16:37.788Z</time>
      </trkpt>
      <trkpt lat="47.20147" lon="-1.57673">
        <ele>56.959286</ele>
        <time>2021-11-11T10:16:39.747Z</time>
      </trkpt>
      <trkpt lat="47.20155" lon="-1.57665">
        <ele>56.966194</ele>
        <time>2021-11-11T10:16:41.775Z</time>
      </trkpt>
      <trkpt lat="47.20162" lon="-1.57657">
        <ele>56.972952</ele>
        <time>2021-11-11T10:16:43.778Z</time>
      </trkpt>
      <trkpt lat="47.2017" lon="-1.57648">
        <ele>56.979859</ele>
        <time>2021-11-11T10:16:45.795Z</time>
      </trkpt>
      <trkpt lat="47.20178" lon="-1.57641">
        <ele>56.987962</ele>
        <time>2021-11-11T10:16:47.765Z</time>
      </trkpt>
      <trkpt lat="47.20185" lon="-1.57634">
        <ele>56.997106</ele>
        <time>2021-11-11T10:16:49.786Z</time>
      </trkpt>
      <trkpt lat="47.20196" lon="-1.57623">
        <ele>57.009638</ele>
        <time>2021-11-11T10:16:52.787Z</time>
      </trkpt>
      <trkpt lat="47.20204" lon="-1.57617">
        <ele>57.019277</ele>
        <time>2021-11-11T10:16:54.778Z</time>
      </trkpt>
      <trkpt lat="47.20212" lon="-1.5761">
        <ele>57.028412</ele>
        <time>2021-11-11T10:16:56.769Z</time>
      </trkpt>
      <trkpt lat="47.2022" lon="-1.57603">
        <ele>57.037623</ele>
        <time>2021-11-11T10:16:58.769Z</time>
      </trkpt>
      <trkpt lat="47.20228" lon="-1.57597">
        <ele>57.046821</ele>
        <time>2021-11-11T10:17:00.771Z</time>
      </trkpt>
      <trkpt lat="47.20236" lon="-1.57591">
        <ele>57.055868</ele>
        <time>2021-11-11T10:17:02.790Z</time>
      </trkpt>
      <trkpt lat="47.20244" lon="-1.57584">
        <ele>57.064883</ele>
        <time>2021-11-11T10:17:04.764Z</time>
      </trkpt>
      <trkpt lat="47.20253" lon="-1.57578">
        <ele>57.074553</ele>
        <time>2021-11-11T10:17:06.802Z</time>
      </trkpt>
      <trkpt lat="47.20262" lon="-1.57572">
        <ele>57.084461</ele>
        <time>2021-11-11T10:17:08.777Z</time>
      </trkpt>
      <trkpt lat="47.20271" lon="-1.57567">
        <ele>57.093749</ele>
        <time>2021-11-11T10:17:10.767Z</time>
      </trkpt>
      <trkpt lat="47.20279" lon="-1.57562">
        <ele>57.102783</ele>
        <time>2021-11-11T10:17:12.796Z</time>
      </trkpt>
      <trkpt lat="47.20288" lon="-1.57558">
        <ele>57.112</ele>
        <time>2021-11-11T10:17:14.778Z</time>
      </trkpt>
      <trkpt lat="47.20297" lon="-1.57553">
        <ele>57.121195</ele>
        <time>2021-11-11T10:17:16.793Z</time>
      </trkpt>
      <trkpt lat="47.20305" lon="-1.57549">
        <ele>57.130436</ele>
        <time>2021-11-11T10:17:18.775Z</time>
      </trkpt>
      <trkpt lat="47.20314" lon="-1.57543">
        <ele>57.13985</ele>
        <time>2021-11-11T10:17:20.776Z</time>
      </trkpt>
      <trkpt lat="47.20323" lon="-1.57539">
        <ele>57.149</ele>
        <time>2021-11-11T10:17:22.794Z</time>
      </trkpt>
      <trkpt lat="47.20331" lon="-1.57534">
        <ele>57.158102</ele>
        <time>2021-11-11T10:17:24.783Z</time>
      </trkpt>
      <trkpt lat="47.2034" lon="-1.57529">
        <ele>57.1803</ele>
        <time>2021-11-11T10:17:26.798Z</time>
      </trkpt>
      <trkpt lat="47.20349" lon="-1.57524">
        <ele>57.214407</ele>
        <time>2021-11-11T10:17:28.772Z</time>
      </trkpt>
      <trkpt lat="47.20358" lon="-1.5752">
        <ele>57.247881</ele>
        <time>2021-11-11T10:17:30.774Z</time>
      </trkpt>
      <trkpt lat="47.20369" lon="-1.57514">
        <ele>57.291316</ele>
        <time>2021-11-11T10:17:33.786Z</time>
      </trkpt>
      <trkpt lat="47.20382" lon="-1.57508">
        <ele>57.34157</ele>
        <time>2021-11-11T10:17:36.787Z</time>
      </trkpt>
      <trkpt lat="47.20391" lon="-1.57505">
        <ele>57.377336</ele>
        <time>2021-11-11T10:17:38.797Z</time>
      </trkpt>
      <trkpt lat="47.20404" lon="-1.575">
        <ele>57.425303</ele>
        <time>2021-11-11T10:17:40.500Z</time>
      </trkpt>
      <trkpt lat="47.20415" lon="-1.57498">
        <ele>57.465586</ele>
        <time>2021-11-11T10:17:43.775Z</time>
      </trkpt>
      <trkpt lat="47.20424" lon="-1.57495">
        <ele>57.498372</ele>
        <time>2021-11-11T10:17:45.784Z</time>
      </trkpt>
      <trkpt lat="47.20433" lon="-1.57493">
        <ele>57.531833</ele>
        <time>2021-11-11T10:17:47.782Z</time>
      </trkpt>
      <trkpt lat="47.20442" lon="-1.5749">
        <ele>57.566331</ele>
        <time>2021-11-11T10:17:49.778Z</time>
      </trkpt>
      <trkpt lat="47.20452" lon="-1.57488">
        <ele>57.602235</ele>
        <time>2021-11-11T10:17:51.797Z</time>
      </trkpt>
      <trkpt lat="47.20461" lon="-1.57485">
        <ele>57.637351</ele>
        <time>2021-11-11T10:17:53.794Z</time>
      </trkpt>
      <trkpt lat="47.2047" lon="-1.5748">
        <ele>57.671683</ele>
        <time>2021-11-11T10:17:55.767Z</time>
      </trkpt>
      <trkpt lat="47.20479" lon="-1.57475">
        <ele>57.70533</ele>
        <time>2021-11-11T10:17:57.773Z</time>
      </trkpt>
      <trkpt lat="47.20487" lon="-1.57471">
        <ele>57.73941</ele>
        <time>2021-11-11T10:17:59.809Z</time>
      </trkpt>
      <trkpt lat="47.205" lon="-1.57463">
        <ele>57.787681</ele>
        <time>2021-11-11T10:18:02.786Z</time>
      </trkpt>
      <trkpt lat="47.20509" lon="-1.57458">
        <ele>57.82223</ele>
        <time>2021-11-11T10:18:04.782Z</time>
      </trkpt>
      <trkpt lat="47.20517" lon="-1.57451">
        <ele>57.839694</ele>
        <time>2021-11-11T10:18:06.776Z</time>
      </trkpt>
      <trkpt lat="47.20526" lon="-1.57444">
        <ele>57.857516</ele>
        <time>2021-11-11T10:18:08.792Z</time>
      </trkpt>
      <trkpt lat="47.20534" lon="-1.57435">
        <ele>57.875544</ele>
        <time>2021-11-11T10:18:10.790Z</time>
      </trkpt>
      <trkpt lat="47.20542" lon="-1.57426">
        <ele>57.893853</ele>
        <time>2021-11-11T10:18:12.794Z</time>
      </trkpt>
      <trkpt lat="47.20551" lon="-1.57417">
        <ele>57.912593</ele>
        <time>2021-11-11T10:18:14.775Z</time>
      </trkpt>
      <trkpt lat="47.20559" lon="-1.57407">
        <ele>57.931703</ele>
        <time>2021-11-11T10:18:16.772Z</time>
      </trkpt>
      <trkpt lat="47.20568" lon="-1.57398">
        <ele>57.950658</ele>
        <time>2021-11-11T10:18:18.778Z</time>
      </trkpt>
      <trkpt lat="47.20576" lon="-1.57389">
        <ele>57.969041</ele>
        <time>2021-11-11T10:18:20.775Z</time>
      </trkpt>
      <trkpt lat="47.20584" lon="-1.5738">
        <ele>57.986422</ele>
        <time>2021-11-11T10:18:22.801Z</time>
      </trkpt>
      <trkpt lat="47.20592" lon="-1.57372">
        <ele>58.003588</ele>
        <time>2021-11-11T10:18:24.764Z</time>
      </trkpt>
      <trkpt lat="47.20599" lon="-1.57363">
        <ele>58.020533</ele>
        <time>2021-11-11T10:18:26.775Z</time>
      </trkpt>
      <trkpt lat="47.20608" lon="-1.57355">
        <ele>58.038355</ele>
        <time>2021-11-11T10:18:28.759Z</time>
      </trkpt>
      <trkpt lat="47.20616" lon="-1.57347">
        <ele>58.056178</ele>
        <time>2021-11-11T10:18:30.794Z</time>
      </trkpt>
      <trkpt lat="47.20624" lon="-1.57339">
        <ele>58.073914</ele>
        <time>2021-11-11T10:18:32.765Z</time>
      </trkpt>
      <trkpt lat="47.20632" lon="-1.57329">
        <ele>58.091458</ele>
        <time>2021-11-11T10:18:34.770Z</time>
      </trkpt>
      <trkpt lat="47.20639" lon="-1.57321">
        <ele>58.108193</ele>
        <time>2021-11-11T10:18:36.764Z</time>
      </trkpt>
      <trkpt lat="47.20646" lon="-1.57312">
        <ele>58.125171</ele>
        <time>2021-11-11T10:18:38.775Z</time>
      </trkpt>
      <trkpt lat="47.20652" lon="-1.57301">
        <ele>58.141799</ele>
        <time>2021-11-11T10:18:40.777Z</time>
      </trkpt>
      <trkpt lat="47.20656" lon="-1.57287">
        <ele>58.149126</ele>
        <time>2021-11-11T10:18:42.784Z</time>
      </trkpt>
      <trkpt lat="47.20662" lon="-1.57276">
        <ele>58.156508</ele>
        <time>2021-11-11T10:18:44.761Z</time>
      </trkpt>
      <trkpt lat="47.2067" lon="-1.57266">
        <ele>58.164057</ele>
        <time>2021-11-11T10:18:46.761Z</time>
      </trkpt>
      <trkpt lat="47.20678" lon="-1.57257">
        <ele>58.171512</ele>
        <time>2021-11-11T10:18:48.772Z</time>
      </trkpt>
      <trkpt lat="47.20685" lon="-1.57247">
        <ele>58.178703</ele>
        <time>2021-11-11T10:18:50.786Z</time>
      </trkpt>
      <trkpt lat="47.20692" lon="-1.57237">
        <ele>58.186249</ele>
        <time>2021-11-11T10:18:52.755Z</time>
      </trkpt>
      <trkpt lat="47.20699" lon="-1.57227">
        <ele>58.193637</ele>
        <time>2021-11-11T10:18:54.777Z</time>
      </trkpt>
      <trkpt lat="47.20707" lon="-1.57219">
        <ele>58.200912</ele>
        <time>2021-11-11T10:18:56.760Z</time>
      </trkpt>
      <trkpt lat="47.20714" lon="-1.57211">
        <ele>58.207793</ele>
        <time>2021-11-11T10:18:58.769Z</time>
      </trkpt>
      <trkpt lat="47.20721" lon="-1.572">
        <ele>58.214962</ele>
        <time>2021-11-11T10:19:00.783Z</time>
      </trkpt>
      <trkpt lat="47.20727" lon="-1.5719">
        <ele>58.222052</ele>
        <time>2021-11-11T10:19:02.784Z</time>
      </trkpt>
      <trkpt lat="47.20733" lon="-1.57178">
        <ele>58.229601</ele>
        <time>2021-11-11T10:19:04.779Z</time>
      </trkpt>
      <trkpt lat="47.20738" lon="-1.57165">
        <ele>58.237162</ele>
        <time>2021-11-11T10:19:06.832Z</time>
      </trkpt>
      <trkpt lat="47.20744" lon="-1.57152">
        <ele>58.24467</ele>
        <time>2021-11-11T10:19:08.803Z</time>
      </trkpt>
      <trkpt lat="47.20749" lon="-1.5714">
        <ele>58.251926</ele>
        <time>2021-11-11T10:19:10.769Z</time>
      </trkpt>
      <trkpt lat="47.20754" lon="-1.57128">
        <ele>58.259357</ele>
        <time>2021-11-11T10:19:12.782Z</time>
      </trkpt>
      <trkpt lat="47.20759" lon="-1.57115">
        <ele>58.266957</ele>
        <time>2021-11-11T10:19:14.767Z</time>
      </trkpt>
      <trkpt lat="47.20764" lon="-1.57102">
        <ele>58.274399</ele>
        <time>2021-11-11T10:19:16.787Z</time>
      </trkpt>
      <trkpt lat="47.20769" lon="-1.57089">
        <ele>58.270956</ele>
        <time>2021-11-11T10:19:18.763Z</time>
      </trkpt>
      <trkpt lat="47.20774" lon="-1.57077">
        <ele>58.265332</ele>
        <time>2021-11-11T10:19:20.779Z</time>
      </trkpt>
      <trkpt lat="47.20779" lon="-1.57064">
        <ele>58.259578</ele>
        <time>2021-11-11T10:19:22.776Z</time>
      </trkpt>
      <trkpt lat="47.20783" lon="-1.57051">
        <ele>58.254061</ele>
        <time>2021-11-11T10:19:24.770Z</time>
      </trkpt>
      <trkpt lat="47.20787" lon="-1.57039">
        <ele>58.248728</ele>
        <time>2021-11-11T10:19:26.777Z</time>
      </trkpt>
      <trkpt lat="47.20791" lon="-1.57026">
        <ele>58.24327</ele>
        <time>2021-11-11T10:19:28.773Z</time>
      </trkpt>
      <trkpt lat="47.20796" lon="-1.57013">
        <ele>58.237702</ele>
        <time>2021-11-11T10:19:30.763Z</time>
      </trkpt>
      <trkpt lat="47.20801" lon="-1.57">
        <ele>58.232023</ele>
        <time>2021-11-11T10:19:32.784Z</time>
      </trkpt>
      <trkpt lat="47.20805" lon="-1.56987">
        <ele>58.226371</ele>
        <time>2021-11-11T10:19:34.755Z</time>
      </trkpt>
      <trkpt lat="47.2081" lon="-1.56974">
        <ele>58.220753</ele>
        <time>2021-11-11T10:19:36.755Z</time>
      </trkpt>
      <trkpt lat="47.20815" lon="-1.56961">
        <ele>58.215056</ele>
        <time>2021-11-11T10:19:38.779Z</time>
      </trkpt>
      <trkpt lat="47.20819" lon="-1.56949">
        <ele>58.209533</ele>
        <time>2021-11-11T10:19:40.786Z</time>
      </trkpt>
      <trkpt lat="47.20822" lon="-1.56936">
        <ele>58.204224</ele>
        <time>2021-11-11T10:19:42.794Z</time>
      </trkpt>
      <trkpt lat="47.20826" lon="-1.56923">
        <ele>58.198848</ele>
        <time>2021-11-11T10:19:44.765Z</time>
      </trkpt>
      <trkpt lat="47.2083" lon="-1.5691">
        <ele>58.193271</ele>
        <time>2021-11-11T10:19:46.766Z</time>
      </trkpt>
      <trkpt lat="47.20835" lon="-1.56897">
        <ele>58.187498</ele>
        <time>2021-11-11T10:19:48.799Z</time>
      </trkpt>
      <trkpt lat="47.20841" lon="-1.56885">
        <ele>58.181607</ele>
        <time>2021-11-11T10:19:50.783Z</time>
      </trkpt>
      <trkpt lat="47.20849" lon="-1.56872">
        <ele>58.175139</ele>
        <time>2021-11-11T10:19:52.777Z</time>
      </trkpt>
      <trkpt lat="47.20853" lon="-1.56857">
        <ele>58.172003</ele>
        <time>2021-11-11T10:19:54.759Z</time>
      </trkpt>
      <trkpt lat="47.20857" lon="-1.56842">
        <ele>58.170471</ele>
        <time>2021-11-11T10:19:56.786Z</time>
      </trkpt>
      <trkpt lat="47.20861" lon="-1.5683">
        <ele>58.169101</ele>
        <time>2021-11-11T10:19:58.754Z</time>
      </trkpt>
      <trkpt lat="47.20865" lon="-1.56816">
        <ele>58.167606</ele>
        <time>2021-11-11T10:20:01.805Z</time>
      </trkpt>
      <trkpt lat="47.2087" lon="-1.56804">
        <ele>58.166222</ele>
        <time>2021-11-11T10:20:06.800Z</time>
      </trkpt>
      <trkpt lat="47.2088" lon="-1.56793">
        <ele>58.164509</ele>
        <time>2021-11-11T10:20:18.356Z</time>
      </trkpt>
      <trkpt lat="47.20893" lon="-1.56798">
        <ele>58.162563</ele>
        <time>2021-11-11T10:20:20.790Z</time>
      </trkpt>
      <trkpt lat="47.20902" lon="-1.56804">
        <ele>58.161073</ele>
        <time>2021-11-11T10:20:22.775Z</time>
      </trkpt>
      <trkpt lat="47.20911" lon="-1.56809">
        <ele>58.159711</ele>
        <time>2021-11-11T10:20:24.799Z</time>
      </trkpt>
      <trkpt lat="47.2092" lon="-1.56815">
        <ele>58.158335</ele>
        <time>2021-11-11T10:20:26.798Z</time>
      </trkpt>
      <trkpt lat="47.20928" lon="-1.56821">
        <ele>58.156961</ele>
        <time>2021-11-11T10:20:28.795Z</time>
      </trkpt>
      <trkpt lat="47.20939" lon="-1.56827">
        <ele>58.155309</ele>
        <time>2021-11-11T10:20:31.780Z</time>
      </trkpt>
      <trkpt lat="47.20951" lon="-1.56833">
        <ele>58.153507</ele>
        <time>2021-11-11T10:20:34.767Z</time>
      </trkpt>
      <trkpt lat="47.20962" lon="-1.56836">
        <ele>58.151879</ele>
        <time>2021-11-11T10:20:37.364Z</time>
      </trkpt>
      <trkpt lat="47.2097" lon="-1.56843">
        <ele>58.150485</ele>
        <time>2021-11-11T10:20:39.603Z</time>
      </trkpt>
      <trkpt lat="47.20983" lon="-1.56848">
        <ele>58.148601</ele>
        <time>2021-11-11T10:20:42.696Z</time>
      </trkpt>
      <trkpt lat="47.20993" lon="-1.56846">
        <ele>58.147153</ele>
        <time>2021-11-11T10:20:45.654Z</time>
      </trkpt>
      <trkpt lat="47.21" lon="-1.56838">
        <ele>58.526075</ele>
        <time>2021-11-11T10:20:48.059Z</time>
      </trkpt>
      <trkpt lat="47.21011" lon="-1.56834">
        <ele>58.980334</ele>
        <time>2021-11-11T10:20:50.951Z</time>
      </trkpt>
      <trkpt lat="47.21021" lon="-1.56838">
        <ele>59.411881</ele>
        <time>2021-11-11T10:20:54.024Z</time>
      </trkpt>
      <trkpt lat="47.21031" lon="-1.56845">
        <ele>59.851199</ele>
        <time>2021-11-11T10:20:56.315Z</time>
      </trkpt>
      <trkpt lat="47.21042" lon="-1.56852">
        <ele>60.367012</ele>
        <time>2021-11-11T10:20:59.426Z</time>
      </trkpt>
      <trkpt lat="47.2105" lon="-1.56858">
        <ele>60.742053</ele>
        <time>2021-11-11T10:21:01.638Z</time>
      </trkpt>
      <trkpt lat="47.21059" lon="-1.56863">
        <ele>61.122479</ele>
        <time>2021-11-11T10:21:03.937Z</time>
      </trkpt>
      <trkpt lat="47.21069" lon="-1.56867">
        <ele>61.546035</ele>
        <time>2021-11-11T10:21:07.401Z</time>
      </trkpt>
      <trkpt lat="47.21078" lon="-1.56874">
        <ele>61.977724</ele>
        <time>2021-11-11T10:21:10.428Z</time>
      </trkpt>
      <trkpt lat="47.21088" lon="-1.5688">
        <ele>62.401712</ele>
        <time>2021-11-11T10:21:14.203Z</time>
      </trkpt>
      <trkpt lat="47.21099" lon="-1.56887">
        <ele>62.93071</ele>
        <time>2021-11-11T10:21:18.526Z</time>
      </trkpt>
      <trkpt lat="47.21112" lon="-1.56894">
        <ele>63.484389</ele>
        <time>2021-11-11T10:21:21.567Z</time>
      </trkpt>
      <trkpt lat="47.21124" lon="-1.56901">
        <ele>64.041213</ele>
        <time>2021-11-11T10:21:24.675Z</time>
      </trkpt>
      <trkpt lat="47.21133" lon="-1.56907">
        <ele>64.440853</ele>
        <time>2021-11-11T10:21:26.400Z</time>
      </trkpt>
      <trkpt lat="47.21143" lon="-1.56912">
        <ele>64.869515</ele>
        <time>2021-11-11T10:21:29.065Z</time>
      </trkpt>
      <trkpt lat="47.21158" lon="-1.56918">
        <ele>65.501497</ele>
        <time>2021-11-11T10:21:32.579Z</time>
      </trkpt>
      <trkpt lat="47.21169" lon="-1.56923">
        <ele>65.460095</ele>
        <time>2021-11-11T10:21:34.960Z</time>
      </trkpt>
      <trkpt lat="47.21177" lon="-1.56929">
        <ele>65.342066</ele>
        <time>2021-11-11T10:21:37.695Z</time>
      </trkpt>
      <trkpt lat="47.21187" lon="-1.56938">
        <ele>65.195713</ele>
        <time>2021-11-11T10:21:40.775Z</time>
      </trkpt>
      <trkpt lat="47.21196" lon="-1.56942">
        <ele>65.078293</ele>
        <time>2021-11-11T10:21:42.762Z</time>
      </trkpt>
      <trkpt lat="47.21205" lon="-1.56946">
        <ele>64.953851</ele>
        <time>2021-11-11T10:21:44.763Z</time>
      </trkpt>
      <trkpt lat="47.21214" lon="-1.56951">
        <ele>64.827918</ele>
        <time>2021-11-11T10:21:46.787Z</time>
      </trkpt>
      <trkpt lat="47.21223" lon="-1.56957">
        <ele>64.700993</ele>
        <time>2021-11-11T10:21:48.768Z</time>
      </trkpt>
      <trkpt lat="47.21234" lon="-1.56963">
        <ele>64.559205</ele>
        <time>2021-11-11T10:21:50.809Z</time>
      </trkpt>
      <trkpt lat="47.21244" lon="-1.56968">
        <ele>64.415273</ele>
        <time>2021-11-11T10:21:52.792Z</time>
      </trkpt>
      <trkpt lat="47.21255" lon="-1.56973">
        <ele>64.278295</ele>
        <time>2021-11-11T10:21:54.752Z</time>
      </trkpt>
      <trkpt lat="47.21265" lon="-1.56977">
        <ele>64.14177</ele>
        <time>2021-11-11T10:21:56.753Z</time>
      </trkpt>
      <trkpt lat="47.21274" lon="-1.56985">
        <ele>64.01477</ele>
        <time>2021-11-11T10:21:58.787Z</time>
      </trkpt>
      <trkpt lat="47.21276" lon="-1.57">
        <ele>63.881853</ele>
        <time>2021-11-11T10:22:00.758Z</time>
      </trkpt>
      <trkpt lat="47.21272" lon="-1.57019">
        <ele>63.70783</ele>
        <time>2021-11-11T10:22:02.784Z</time>
      </trkpt>
      <trkpt lat="47.2127" lon="-1.5704">
        <ele>63.518925</ele>
        <time>2021-11-11T10:22:04.782Z</time>
      </trkpt>
      <trkpt lat="47.21267" lon="-1.57063">
        <ele>63.317187</ele>
        <time>2021-11-11T10:22:06.823Z</time>
      </trkpt>
      <trkpt lat="47.21265" lon="-1.57088">
        <ele>62.904132</ele>
        <time>2021-11-11T10:22:08.785Z</time>
      </trkpt>
      <trkpt lat="47.21263" lon="-1.57111">
        <ele>62.511553</ele>
        <time>2021-11-11T10:22:10.780Z</time>
      </trkpt>
      <trkpt lat="47.21262" lon="-1.57127">
        <ele>62.226051</ele>
        <time>2021-11-11T10:22:12.776Z</time>
      </trkpt>
      <trkpt lat="47.21266" lon="-1.57142">
        <ele>61.950571</ele>
        <time>2021-11-11T10:22:15.786Z</time>
      </trkpt>
      <trkpt lat="47.21277" lon="-1.57149">
        <ele>61.649568</ele>
        <time>2021-11-11T10:22:17.752Z</time>
      </trkpt>
      <trkpt lat="47.21286" lon="-1.57157">
        <ele>61.377579</ele>
        <time>2021-11-11T10:22:19.779Z</time>
      </trkpt>
    </trkseg>
  </trk>
</gpx>